# Wetter Temperatur Luftdruck Luftfeuchtigkeit Sichtweite Windgeschwindigkeit Windrichtung Zeit
1 Clouds 28 1008 78 9000 5.66 330 14:22 01.02.2023
2 Clouds 29 1008 74 9000 5.66 330 13:19 01.02.2023
3 Clouds 30 1007 74 9000 5.66 320 12:26 01.02.2023
4 Clouds 27 1008 76 10000 6.39 332 11:35 01.02.2023
5 Haze 30 1010 74 5000 5.14 320 08:41 01.02.2023
6 Haze 27 1010 83 4000 4.12 350 22:59 31.01.2023
7 Haze 27 1010 89 4000 4.12 350 21:20 31.01.2023
8 Haze 28 1011 78 4000 4.12 340 19:24 31.01.2023
9 Haze 28 1011 78 4000 4.12 340 19:24 31.01.2023
10 Haze 28 1010 78 4000 4.12 340 17:41 31.01.2023
11 Haze 29 1009 74 4000 4.63 340 15:36 31.01.2023
12 Haze 29 1009 74 4000 4.63 340 15:18 31.01.2023
13 Clouds 27 1010 72 10000 4.69 334 13:34 31.01.2023
14 Clouds 30 1008 74 6000 4.12 330 11:28 31.01.2023
15 Haze 30 1009 74 6000 3.6 330 10:25 31.01.2023
16 Haze 30 1010 74 6000 3.6 340 09:44 31.01.2023
17 Clouds 27 1010 72 10000 5.17 341 08:36 31.01.2023
18 Clouds 30 1011 70 4000 3.6 340 07:36 31.01.2023
19 Clouds 26 1012 75 10000 2.57 343 03:39 31.01.2023
20 Clouds 27 1009 83 6000 2.57 330 23:29 30.01.2023
21 Clouds 27 1010 78 6000 1.54 350 22:50 30.01.2023
22 Clouds 27 1010 83 6000 1.54 20 21:48 30.01.2023
23 Clear 26 1011 74 10000 2.67 11 20:44 30.01.2023
24 Clouds 28 1012 78 6000 2.06 20 18:26 30.01.2023
25 Clouds 28 1012 78 6000 2.06 10 17:25 30.01.2023
26 Clouds 28 1010 78 6000 2.06 350 14:47 30.01.2023
27 Clouds 29 1009 74 6000 4.12 340 13:55 30.01.2023
28 Clouds 29 1009 74 6000 3.09 340 12:18 30.01.2023
29 Clouds 27 1009 68 10000 3.45 22 10:24 30.01.2023
30 Haze 30 1010 70 5000 2.57 330 09:53 30.01.2023
31 Haze 31 1011 66 5000 1.54 90 08:30 30.01.2023
32 Clouds 29 1012 74 5000 2.06 90 06:23 30.01.2023
33 Clouds 27 1008 83 6000 2.57 70 00:50 30.01.2023
34 Clouds 26 1008 83 6000 3.09 70 23:31 29.01.2023
35 Clouds 26 1009 83 6000 3.6 90 22:36 29.01.2023
36 Clouds 26 1010 89 6000 4.12 110 20:54 29.01.2023
37 Clouds 26 1010 89 6000 4.12 110 20:22 29.01.2023
38 Clouds 26 1010 94 6000 1.54 70 19:33 29.01.2023
39 Clouds 26 1011 94 6000 2.57 70 17:56 29.01.2023
40 Clouds 26 1011 94 6000 2.57 70 17:56 29.01.2023
41 Clouds 27 1010 83 6000 3.6 70 16:48 29.01.2023
42 Clouds 27 1010 83 6000 3.6 70 16:19 29.01.2023
43 Clouds 26 1008 89 6000 1.54 70 14:20 29.01.2023
44 Clouds 26 1007 83 6000 1.54 90 13:18 29.01.2023
45 Clouds 25 1007 94 6000 3.6 70 12:37 29.01.2023
46 Clouds 25 1007 94 6000 3.6 70 12:19 29.01.2023
47 Clouds 26 1008 94 6000 4.63 50 11:37 29.01.2023
48 Clouds 28 1007 83 6000 3.09 70 10:47 29.01.2023
49 Clouds 29 1009 84 6000 2.06 100 08:32 29.01.2023
50 Clouds 28 1010 78 7000 3.6 70 04:44 29.01.2023
51 Clouds 27 1007 83 6000 2.57 30 23:51 28.01.2023
52 Clouds 27 1009 83 6000 3.09 40 20:59 28.01.2023
53 Clouds 27 1010 83 6000 3.6 50 19:57 28.01.2023
54 Clouds 27 1010 83 6000 3.6 50 19:24 28.01.2023
55 Clouds 28 1010 78 6000 5.14 50 17:46 28.01.2023
56 Clouds 28 1010 78 6000 4.63 50 16:45 28.01.2023
57 Clouds 28 1010 78 6000 4.63 50 16:19 28.01.2023
58 Clouds 28 1009 78 6000 5.14 60 15:37 28.01.2023
59 Clouds 29 1007 74 6000 5.66 60 13:50 28.01.2023
60 Clouds 30 1007 70 6000 5.14 60 12:31 28.01.2023
61 Clouds 31 1008 66 6000 5.14 50 10:35 28.01.2023
62 Clouds 31 1009 66 6000 5.66 60 09:54 28.01.2023
63 Clouds 29 1012 74 6000 6.17 70 05:50 28.01.2023
64 Clouds 27 1009 83 6000 4.12 70 01:31 28.01.2023
65 Clouds 27 1008 83 6000 5.14 70 00:19 28.01.2023
66 Clouds 28 1010 78 6000 5.66 90 20:25 27.01.2023
67 Clouds 28 1011 83 6000 6.17 70 17:58 27.01.2023
68 Clouds 28 1011 83 6000 6.17 70 17:21 27.01.2023
69 Clouds 28 1010 83 6000 7.2 70 16:58 27.01.2023
70 Clouds 28 1010 83 6000 7.2 70 16:21 27.01.2023
71 Clouds 29 1009 74 6000 5.14 70 14:28 27.01.2023
72 Clouds 30 1008 74 6000 5.66 70 13:44 27.01.2023
73 Clouds 30 1008 74 6000 6.17 60 11:51 27.01.2023
74 Clouds 31 1010 66 6000 6.69 60 08:35 27.01.2023
75 Clouds 27 1009 89 10000 7.2 70 02:36 27.01.2023
76 Clouds 27 1009 83 10000 6.17 110 22:48 26.01.2023
77 Clouds 27 1010 78 10000 5.19 66 21:21 26.01.2023
78 Clouds 27 1011 89 10000 6.69 90 20:34 26.01.2023
79 Clouds 28 1012 78 10000 5.14 100 18:20 26.01.2023
80 Clouds 28 1011 78 10000 4.63 110 17:40 26.01.2023
81 Clouds 28 1011 78 10000 5.14 110 16:26 26.01.2023
82 Clouds 28 1010 78 10000 3.6 100 15:48 26.01.2023
83 Clouds 28 1010 78 10000 3.6 100 15:28 26.01.2023
84 Clouds 29 1008 79 10000 4.63 100 13:58 26.01.2023
85 Clouds 30 1008 74 10000 5.66 100 12:44 26.01.2023
86 Clouds 31 1008 66 10000 5.14 90 11:26 26.01.2023
87 Clouds 31 1008 66 10000 5.66 80 10:28 26.01.2023
88 Clouds 31 1010 66 10000 5.14 80 09:44 26.01.2023
89 Clouds 30 1011 74 10000 5.66 80 08:25 26.01.2023
90 Clouds 30 1011 74 10000 5.66 80 08:25 26.01.2023
91 Clouds 26 1009 89 9000 5.66 90 23:59 25.01.2023
92 Clouds 26 1009 89 9000 5.66 90 23:38 25.01.2023
93 Clouds 25 1010 94 8000 2.57 110 21:59 25.01.2023
94 Clouds 25 1010 94 8000 2.57 110 21:21 25.01.2023
95 Clouds 27 1012 83 10000 4.12 90 18:59 25.01.2023
96 Clouds 27 1012 83 10000 4.12 90 18:23 25.01.2023
97 Clouds 27 1010 83 10000 3.09 90 15:50 25.01.2023
98 Clouds 28 1008 78 10000 3.6 100 13:33 25.01.2023
99 Clouds 26 1008 94 8000 1.54 160 11:25 25.01.2023
100 Clouds 29 1010 79 9000 2.06 90 09:49 25.01.2023
101 Clouds 27 1010 78 10000 2.77 9 07:45 25.01.2023
102 Clouds 26 1009 89 9000 5.14 110 01:37 25.01.2023
103 Clouds 26 1009 89 10000 3.09 110 00:25 25.01.2023
104 Clouds 26 1010 89 9000 4.63 80 21:35 24.01.2023
105 Clouds 26 1010 89 9000 5.66 60 20:39 24.01.2023
106 Clouds 25 1010 88 6000 8.23 30 18:50 24.01.2023
107 Clouds 25 1010 88 6000 8.23 30 18:29 24.01.2023
108 Rain 25 1011 94 6000 7.72 40 16:53 24.01.2023
109 Rain 25 1011 94 6000 7.72 40 16:53 24.01.2023
110 Rain 25 1011 94 6000 7.72 40 16:29 24.01.2023
111 Rain 26 1008 89 6000 3.6 360 13:50 24.01.2023
112 Clouds 25 1009 94 6000 1.54 30 11:46 24.01.2023
113 Clouds 26 1010 84 10000 7.49 340 08:43 24.01.2023
114 Clouds 26 1012 84 10000 7.66 344 08:18 24.01.2023
115 Clouds 28 1012 83 10000 4.63 300 07:48 24.01.2023
116 Clouds 27 1010 78 7000 5.66 60 02:43 24.01.2023
117 Clouds 27 1009 78 7000 7.2 70 00:40 24.01.2023
118 Clouds 28 1009 78 7000 7.2 70 22:32 23.01.2023
119 Clouds 27 1010 83 7000 6.17 60 20:43 23.01.2023
120 Clouds 27 1011 83 7000 5.14 50 19:23 23.01.2023
121 Clouds 27 1011 83 7000 5.66 60 17:20 23.01.2023
122 Clouds 27 1009 83 7000 8.75 50 15:32 23.01.2023
123 Clouds 29 1008 74 7000 7.2 70 13:56 23.01.2023
124 Clouds 29 1007 74 7000 5.14 70 12:56 23.01.2023
125 Clouds 30 1007 74 6000 7.2 90 11:57 23.01.2023
126 Clouds 30 1007 74 6000 7.2 90 11:28 23.01.2023
127 Clouds 31 1010 70 6000 6.17 70 08:25 23.01.2023
128 Clouds 28 1008 74 6000 7.72 70 00:24 23.01.2023
129 Clouds 28 1008 74 6000 8.23 60 22:19 22.01.2023
130 Clouds 28 1009 74 6000 8.23 70 21:19 22.01.2023
131 Clouds 28 1010 74 6000 7.2 70 20:21 22.01.2023
132 Clouds 28 1011 78 6000 8.23 70 19:45 22.01.2023
133 Clouds 28 1011 74 6000 9.26 80 18:48 22.01.2023
134 Clouds 28 1010 78 6000 8.75 70 17:56 22.01.2023
135 Clouds 28 1010 78 6000 8.75 70 17:24 22.01.2023
136 Clouds 28 1009 78 6000 7.2 60 15:30 22.01.2023
137 Clouds 29 1008 74 6000 7.2 70 14:43 22.01.2023
138 Clouds 29 1008 70 6000 7.72 70 13:28 22.01.2023
139 Clouds 30 1008 66 6000 6.69 60 12:34 22.01.2023
140 Clouds 31 1007 62 6000 6.17 50 11:34 22.01.2023
141 Clouds 32 1009 62 6000 5.66 60 09:35 22.01.2023
142 Clouds 30 1011 70 6000 6.69 50 05:51 22.01.2023
143 Clouds 27 1009 78 8000 4.12 40 01:46 22.01.2023
144 Clouds 27 1009 78 8000 6.17 30 23:31 21.01.2023
145 Clouds 27 1010 74 8000 5.66 40 21:40 21.01.2023
146 Clouds 28 1012 69 8000 5.14 20 19:46 21.01.2023
147 Clouds 28 1012 69 8000 6.17 10 17:22 21.01.2023
148 Clouds 28 1010 69 8000 5.66 10 14:34 21.01.2023
149 Clouds 28 1009 69 9000 5.14 350 12:57 21.01.2023
150 Clouds 28 1009 69 9000 5.14 350 12:35 21.01.2023
151 Clouds 30 1010 62 9000 5.14 340 11:22 21.01.2023
152 Clouds 27 1011 78 9000 3.09 310 09:29 21.01.2023
153 Clouds 28 1013 69 7000 4.63 30 04:37 21.01.2023
154 Clouds 27 1011 65 10000 6.17 70 22:29 20.01.2023
155 Clouds 27 1011 65 10000 6.17 70 22:29 20.01.2023
156 Clouds 27 1012 61 10000 6.69 70 21:39 20.01.2023
157 Clouds 27 1013 61 10000 6.69 70 20:58 20.01.2023
158 Clouds 27 1013 61 10000 5.66 50 19:52 20.01.2023
159 Clouds 28 1013 57 10000 6.69 70 16:51 20.01.2023
160 Clouds 28 1011 57 9000 7.2 70 14:47 20.01.2023
161 Clouds 29 1010 65 9000 7.2 80 13:51 20.01.2023
162 Clouds 31 1011 55 6000 7.2 70 10:25 20.01.2023
163 Clouds 31 1013 51 6000 9.26 90 08:57 20.01.2023
164 Clouds 30 1014 58 6000 8.23 70 06:38 20.01.2023
165 Clouds 27 1011 74 7000 8.75 70 02:31 20.01.2023
166 Clouds 27 1011 78 7000 8.75 70 22:36 19.01.2023
167 Clouds 27 1012 78 7000 8.75 90 21:31 19.01.2023
168 Clouds 28 1013 69 7000 8.23 90 19:29 19.01.2023
169 Clouds 28 1013 74 7000 8.23 70 17:39 19.01.2023
170 Clouds 29 1010 74 7000 8.23 70 14:25 19.01.2023
171 Clouds 31 1010 70 8000 8.23 70 10:19 19.01.2023
172 Clouds 31 1011 70 7000 8.75 70 08:55 19.01.2023
173 Clouds 28 1011 83 10000 8.23 80 22:40 18.01.2023
174 Clouds 28 1013 83 10000 7.72 100 20:21 18.01.2023
175 Clouds 28 1013 83 10000 7.72 90 19:45 18.01.2023
176 Clouds 28 1013 83 10000 7.72 90 19:27 18.01.2023
177 Clouds 28 1012 83 10000 7.72 90 16:22 18.01.2023
178 Clouds 29 1010 79 10000 6.69 90 14:20 18.01.2023
179 Clouds 31 1009 70 10000 6.17 90 12:25 18.01.2023
180 Clouds 30 1011 74 10000 6.69 80 09:37 18.01.2023
181 Clouds 30 1013 79 10000 6.69 90 06:46 18.01.2023
182 Clouds 27 1010 89 10000 4.12 80 01:24 18.01.2023
183 Clouds 28 1011 83 10000 6.17 90 21:53 17.01.2023
184 Clouds 28 1012 83 10000 5.14 90 19:44 17.01.2023
185 Clouds 28 1013 83 10000 5.66 80 18:53 17.01.2023
186 Clouds 28 1013 78 10000 5.66 70 17:41 17.01.2023
187 Rain 28 1011 78 10000 5.66 70 15:28 17.01.2023
188 Clouds 28 1010 83 10000 7.2 70 14:50 17.01.2023
189 Clouds 27 1011 74 10000 3.79 71 13:33 17.01.2023
190 Clouds 29 1009 79 10000 6.17 110 11:49 17.01.2023
191 Clouds 31 1010 66 10000 5.14 70 10:33 17.01.2023
192 Clouds 31 1011 66 10000 4.12 70 09:26 17.01.2023
193 Clouds 31 1013 66 10000 4.63 80 07:34 17.01.2023
194 Clouds 27 1011 78 10000 3.6 80 03:49 17.01.2023
195 Clouds 27 1009 83 10000 3.09 80 00:49 17.01.2023
196 Clouds 27 1010 83 10000 3.6 100 22:39 16.01.2023
197 Clouds 28 1011 78 10000 4.12 90 21:44 16.01.2023
198 Clouds 28 1012 74 10000 3.6 110 19:56 16.01.2023
199 Clouds 28 1012 74 10000 3.6 110 19:25 16.01.2023
200 Clouds 28 1012 78 10000 3.6 110 18:48 16.01.2023
201 Clouds 28 1012 78 10000 3.6 110 18:19 16.01.2023
202 Clouds 28 1012 74 10000 3.09 120 17:20 16.01.2023
203 Clouds 29 1010 70 10000 2.57 120 14:27 16.01.2023
204 Clouds 30 1009 62 10000 4.12 100 13:36 16.01.2023
205 Clouds 31 1009 66 10000 3.6 100 10:26 16.01.2023
206 Clouds 31 1011 66 10000 3.09 100 08:44 16.01.2023
207 Clouds 27 1010 78 10000 4.63 90 22:57 15.01.2023
208 Clouds 27 1011 78 10000 4.63 90 21:25 15.01.2023
209 Clouds 27 1011 78 10000 4.63 80 20:31 15.01.2023
210 Clouds 27 1011 78 10000 5.14 70 19:34 15.01.2023
211 Clouds 28 1012 74 10000 5.66 70 17:38 15.01.2023
212 Clouds 29 1010 70 10000 4.12 70 14:59 15.01.2023
213 Clouds 30 1009 66 10000 4.12 70 12:25 15.01.2023
214 Clouds 31 1009 62 10000 4.12 90 11:29 15.01.2023
215 Clouds 31 1009 62 10000 4.63 80 10:27 15.01.2023
216 Clouds 30 1011 62 7000 3.6 90 08:29 15.01.2023
217 Clouds 26 1009 78 10000 2.06 50 00:35 15.01.2023
218 Clouds 27 1010 74 10000 2.06 360 22:44 14.01.2023
219 Clouds 27 1011 74 10000 2.06 360 21:54 14.01.2023
220 Clouds 27 1011 74 10000 2.06 360 21:36 14.01.2023
221 Clouds 27 1011 74 10000 2.06 360 21:36 14.01.2023
222 Clouds 27 1011 69 10000 3.31 35 21:18 14.01.2023
223 Clouds 27 1011 69 10000 3.31 35 21:18 14.01.2023
224 Clouds 27 1012 74 10000 2.06 40 20:28 14.01.2023
225 Clouds 28 1013 69 10000 3.09 30 18:18 14.01.2023
226 Clouds 28 1011 69 10000 3.6 30 15:43 14.01.2023
227 Clouds 28 1011 69 10000 3.6 30 15:24 14.01.2023
228 Clouds 28 1010 69 10000 4.12 20 14:22 14.01.2023
229 Clouds 29 1010 65 10000 3.6 360 13:25 14.01.2023
230 Clouds 31 1010 62 10000 3.6 350 10:50 14.01.2023
231 Clouds 30 1010 62 10000 3.09 360 09:23 14.01.2023
232 Clouds 27 1011 69 7000 3.09 360 02:39 14.01.2023
233 Clouds 27 1011 69 8000 3.09 360 23:20 13.01.2023
234 Clouds 27 1011 74 8000 3.09 360 22:41 13.01.2023
235 Clouds 27 1012 74 8000 3.09 360 21:58 13.01.2023
236 Clouds 27 1012 69 10000 2.57 10 20:49 13.01.2023
237 Clouds 27 1013 69 10000 2.06 360 19:28 13.01.2023
238 Clouds 27 1013 65 10000 3.09 20 17:42 13.01.2023
239 Clouds 28 1013 57 10000 3.09 20 16:22 13.01.2023
240 Clouds 30 1010 48 8000 4.12 10 12:33 13.01.2023
241 Clouds 30 1010 51 9000 4.12 40 11:57 13.01.2023
242 Clouds 30 1011 54 9000 3.09 20 10:23 13.01.2023
243 Clouds 31 1012 55 6000 4.12 40 09:44 13.01.2023
244 Clouds 30 1011 58 6000 3.09 360 08:52 13.01.2023
245 Clouds 30 1013 54 6000 4.63 70 07:43 13.01.2023
246 Clouds 30 1014 58 6000 4.12 50 06:49 13.01.2023
247 Clouds 26 1012 73 6000 4.12 40 03:21 13.01.2023
248 Clouds 26 1010 78 8000 3.6 30 22:57 12.01.2023
249 Clouds 26 1010 78 8000 3.6 30 22:31 12.01.2023
250 Clouds 27 1011 74 7000 4.12 20 20:55 12.01.2023
251 Clouds 27 1012 74 7000 4.12 40 18:52 12.01.2023
252 Clouds 27 1012 69 7000 5.14 50 17:33 12.01.2023
253 Clouds 28 1010 65 7000 4.63 50 15:53 12.01.2023
254 Clouds 28 1009 69 7000 5.14 50 14:44 12.01.2023
255 Clouds 28 1009 69 7000 5.14 50 14:21 12.01.2023
256 Clouds 30 1008 54 7000 5.66 30 12:44 12.01.2023
257 Clouds 31 1009 51 7000 6.69 50 10:30 12.01.2023
258 Haze 30 1012 66 5000 6.17 70 07:44 12.01.2023
259 Clouds 26 1010 83 7000 2.57 50 01:49 12.01.2023
260 Clouds 26 1010 83 7000 2.57 50 23:59 11.01.2023
261 Clouds 26 1010 83 7000 2.57 50 23:39 11.01.2023
262 Clouds 26 1010 83 7000 2.57 50 23:20 11.01.2023
263 Clouds 26 1011 83 7000 3.09 40 21:41 11.01.2023
264 Clouds 27 1012 83 7000 3.6 50 19:40 11.01.2023
265 Clouds 27 1013 78 7000 3.6 50 18:26 11.01.2023
266 Clouds 28 1012 74 7000 5.14 60 16:34 11.01.2023
267 Clouds 28 1010 74 7000 4.63 70 14:44 11.01.2023
268 Clouds 29 1009 70 7000 5.14 60 12:38 11.01.2023
269 Clouds 30 1009 66 6000 5.14 60 11:54 11.01.2023
270 Haze 30 1011 66 6000 6.17 70 09:49 11.01.2023
271 Haze 30 1013 66 4000 6.17 70 07:37 11.01.2023
272 Clouds 27 1013 73 10000 5.74 52 07:19 11.01.2023
273 Haze 27 1010 78 4000 5.14 70 23:55 10.01.2023
274 Haze 27 1011 78 4000 5.67 58 22:36 10.01.2023
275 Haze 27 1012 78 4000 6.17 70 21:30 10.01.2023
276 Haze 27 1013 83 4000 6.17 70 19:57 10.01.2023
277 Haze 27 1013 83 4000 6.17 70 19:34 10.01.2023
278 Haze 27 1014 83 4000 6.17 70 18:47 10.01.2023
279 Haze 28 1014 78 4000 6.17 70 17:54 10.01.2023
280 Haze 28 1012 78 4000 5.14 70 15:55 10.01.2023
281 Haze 28 1012 78 4000 5.14 70 15:24 10.01.2023
282 Haze 28 1011 78 4000 5.66 70 14:25 10.01.2023
283 Haze 30 1011 74 4000 6.17 70 11:57 10.01.2023
284 Haze 31 1013 66 4000 6.17 70 08:58 10.01.2023
285 Haze 31 1013 66 4000 6.17 70 08:28 10.01.2023
286 Haze 30 1014 70 4000 6.17 60 07:26 10.01.2023
287 Haze 28 1014 83 3000 5.14 70 04:52 10.01.2023
288 Haze 27 1012 89 3000 5.66 60 22:55 09.01.2023
289 Haze 28 1013 78 3000 6.69 60 21:47 09.01.2023
290 Haze 28 1014 78 3000 7.2 60 20:41 09.01.2023
291 Haze 28 1014 78 3000 8.75 70 18:44 09.01.2023
292 Haze 28 1014 78 3000 7.72 70 17:53 09.01.2023
293 Haze 28 1014 78 3000 7.72 70 16:59 09.01.2023
294 Haze 28 1014 78 3000 7.72 70 16:32 09.01.2023
295 Haze 28 1013 78 3000 7.2 70 15:23 09.01.2023
296 Clear 27 1013 79 10000 7.9 42 14:43 09.01.2023
297 Haze 30 1011 70 4000 7.72 70 12:55 09.01.2023
298 Haze 30 1011 70 4000 7.72 70 12:25 09.01.2023
299 Haze 31 1011 70 4000 6.69 70 11:20 09.01.2023
300 Haze 31 1014 70 4000 7.72 70 08:42 09.01.2023
301 Haze 30 1014 70 4000 8.23 70 06:34 09.01.2023
302 Haze 28 1012 78 4000 8.75 70 02:53 09.01.2023
303 Haze 28 1011 78 4000 7.2 60 22:43 08.01.2023
304 Clouds 27 1012 74 10000 8.55 56 21:23 08.01.2023
305 Haze 28 1013 78 4000 7.2 60 20:57 08.01.2023
306 Haze 28 1013 78 4000 8.23 60 19:19 08.01.2023
307 Haze 28 1013 78 4000 8.23 60 17:39 08.01.2023
308 Haze 28 1013 78 4000 8.23 60 17:18 08.01.2023
309 Haze 28 1012 78 4000 7.72 60 15:38 08.01.2023
310 Clear 27 1011 80 10000 9.21 50 14:18 08.01.2023
311 Clear 27 1011 80 10000 9.21 50 13:32 08.01.2023
312 Clouds 29 1010 74 7000 7.2 50 12:59 08.01.2023
313 Clouds 31 1010 66 7000 8.23 60 11:23 08.01.2023
314 Clouds 32 1011 62 7000 8.75 50 09:37 08.01.2023
315 Clouds 31 1012 66 7000 9.26 50 08:27 08.01.2023
316 Clouds 27 1011 83 8000 7.72 60 02:43 08.01.2023
317 Clouds 27 1012 89 8000 6.69 70 22:55 07.01.2023
318 Clouds 27 1012 89 8000 6.69 70 22:34 07.01.2023
319 Clouds 28 1013 78 8000 7.2 70 21:51 07.01.2023
320 Clouds 28 1013 78 8000 7.2 60 20:58 07.01.2023
321 Clouds 28 1013 78 8000 7.2 60 20:25 07.01.2023
322 Clouds 28 1013 78 8000 6.69 60 19:19 07.01.2023
323 Clouds 28 1014 83 8000 7.72 60 18:18 07.01.2023
324 Clouds 28 1014 83 8000 7.72 70 17:39 07.01.2023
325 Clouds 28 1013 83 8000 7.72 70 16:39 07.01.2023
326 Clouds 28 1012 83 8000 7.2 60 15:52 07.01.2023
327 Clouds 28 1012 83 8000 7.2 60 15:31 07.01.2023
328 Clouds 28 1011 83 8000 7.72 60 14:50 07.01.2023
329 Clouds 29 1011 79 8000 8.23 60 13:58 07.01.2023
330 Clouds 29 1011 79 8000 8.23 60 13:39 07.01.2023
331 Clouds 29 1010 79 8000 9.77 60 12:44 07.01.2023
332 Clouds 30 1010 74 8000 8.23 50 11:59 07.01.2023
333 Clouds 30 1011 79 8000 7.2 50 10:27 07.01.2023
334 Clouds 31 1013 70 8000 7.72 50 08:48 07.01.2023
335 Clouds 31 1014 70 7000 8.23 60 07:47 07.01.2023
336 Clouds 31 1014 70 7000 8.23 60 07:20 07.01.2023
337 Clouds 30 1014 70 6000 7.72 60 05:21 07.01.2023
338 Clouds 27 1012 78 6000 5.14 60 22:57 06.01.2023
339 Clouds 27 1012 78 6000 5.14 60 22:20 06.01.2023
340 Clouds 28 1013 74 6000 5.14 70 21:44 06.01.2023
341 Clouds 28 1013 74 6000 5.14 60 20:32 06.01.2023
342 Clouds 28 1014 74 6000 5.66 50 19:54 06.01.2023
343 Clouds 28 1014 74 6000 5.66 50 19:36 06.01.2023
344 Clouds 28 1014 74 6000 5.66 50 19:18 06.01.2023
345 Clouds 28 1014 78 6000 5.14 40 17:44 06.01.2023
346 Clouds 28 1014 78 6000 6.69 70 16:52 06.01.2023
347 Clouds 28 1014 78 6000 6.69 70 16:21 06.01.2023
348 Clouds 28 1013 74 6000 7.2 70 15:51 06.01.2023
349 Clouds 28 1013 74 6000 7.2 70 15:22 06.01.2023
350 Clouds 30 1011 66 6000 8.23 60 13:31 06.01.2023
351 Clouds 31 1011 62 6000 8.23 50 11:19 06.01.2023
352 Clouds 31 1013 66 7000 7.2 60 09:56 06.01.2023
353 Clouds 31 1014 62 7000 7.2 60 08:30 06.01.2023
354 Haze 27 1013 78 5000 6.17 60 03:40 06.01.2023
355 Haze 27 1012 78 5000 7.2 70 22:56 05.01.2023
356 Haze 27 1013 78 5000 6.69 60 21:56 05.01.2023
357 Haze 28 1014 74 5000 7.2 60 20:20 05.01.2023
358 Haze 28 1014 74 5000 8.23 80 17:29 05.01.2023
359 Haze 28 1012 74 5000 7.2 70 16:30 05.01.2023
360 Haze 28 1012 74 5000 6.69 70 15:48 05.01.2023
361 Haze 28 1012 74 5000 6.69 70 15:48 05.01.2023
362 Haze 29 1011 70 5000 6.17 70 14:53 05.01.2023
363 Haze 29 1011 70 5000 6.17 70 14:53 05.01.2023
364 Haze 30 1011 66 5000 6.17 70 13:19 05.01.2023
365 Clouds 30 1010 66 7000 6.69 70 12:33 05.01.2023
366 Clouds 31 1012 62 7000 7.2 70 09:55 05.01.2023
367 Clouds 31 1012 62 7000 7.2 70 09:32 05.01.2023
368 Clouds 31 1014 58 7000 7.72 70 07:21 05.01.2023
369 Clouds 30 1014 66 7000 6.69 70 06:36 05.01.2023
370 Clouds 27 1011 74 6000 6.69 70 00:25 05.01.2023
371 Clouds 27 1012 78 6000 7.2 70 21:33 04.01.2023
372 Clouds 27 1012 78 6000 7.2 60 20:58 04.01.2023
373 Clouds 27 1012 78 6000 6.69 60 19:57 04.01.2023
374 Clouds 27 1012 78 6000 6.69 60 19:34 04.01.2023
375 Clouds 28 1013 74 6000 7.2 60 18:37 04.01.2023
376 Clouds 28 1012 69 6000 8.23 60 16:32 04.01.2023
377 Clouds 28 1011 74 6000 7.2 70 15:56 04.01.2023
378 Clouds 28 1010 78 6000 9.77 70 14:47 04.01.2023
379 Clouds 30 1010 66 9000 8.23 70 11:43 04.01.2023
380 Clouds 30 1010 66 9000 8.23 70 11:21 04.01.2023
381 Clouds 31 1010 62 10000 8.23 70 10:43 04.01.2023
382 Clouds 31 1010 62 10000 8.23 70 10:23 04.01.2023
383 Clouds 30 1012 66 10000 8.23 70 08:55 04.01.2023
384 Clouds 29 1014 70 10000 6.69 70 05:36 04.01.2023
385 Clouds 26 1012 78 10000 5.14 70 00:32 04.01.2023
386 Clouds 27 1012 74 10000 5.66 80 23:35 03.01.2023
387 Clouds 27 1013 74 10000 6.17 80 22:55 03.01.2023
388 Clouds 27 1014 74 10000 6.69 70 20:58 03.01.2023
389 Clouds 27 1014 74 10000 6.69 70 19:50 03.01.2023
390 Clouds 28 1014 69 10000 7.72 60 17:38 03.01.2023
391 Clouds 28 1013 69 10000 7.2 60 16:39 03.01.2023
392 Clouds 30 1011 66 10000 6.69 60 13:56 03.01.2023
393 -273 0 0 0 0 0 13:31 03.01.2023
394 Clouds 30 1011 62 10000 7.2 70 12:58 03.01.2023
395 Clouds 30 1011 62 10000 7.2 70 12:30 03.01.2023
396 Clouds 31 1011 62 10000 7.2 60 11:32 03.01.2023
397 Clouds 30 1015 66 10000 7.2 70 07:50 03.01.2023
398 Clouds 28 1015 74 9000 6.69 70 04:22 03.01.2023
399 Clouds 27 1014 78 10000 6.69 70 03:44 03.01.2023
400 Clouds 27 1013 78 10000 6.17 60 02:50 03.01.2023
401 Clouds 27 1013 74 10000 7.2 70 22:43 02.01.2023
402 Clouds 27 1013 74 10000 7.2 70 22:23 02.01.2023
403 Clouds 27 1015 83 10000 7.2 70 20:40 02.01.2023
404 Clouds 28 1015 69 10000 7.2 80 19:53 02.01.2023
405 Clouds 28 1015 78 10000 7.2 70 17:53 02.01.2023
406 Clouds 28 1013 74 10000 5.66 60 15:23 02.01.2023
407 Clouds 29 1012 70 10000 6.17 70 13:25 02.01.2023
408 Clouds 30 1011 62 10000 4.12 60 11:59 02.01.2023
409 Clouds 31 1012 62 10000 4.12 70 10:52 02.01.2023
410 Clouds 30 1015 66 10000 5.14 60 07:34 02.01.2023
411 Clouds 26 1012 78 10000 2.57 30 00:58 02.01.2023
412 Clouds 27 1012 74 10000 5.14 40 22:32 01.01.2023
413 Clouds 27 1013 78 10000 6.17 40 21:30 01.01.2023
414 Clouds 27 1014 74 10000 5.14 30 20:47 01.01.2023
415 Clouds 27 1015 74 10000 5.14 40 19:44 01.01.2023
416 Clouds 28 1015 74 10000 5.14 30 17:59 01.01.2023
417 Clouds 28 1015 74 10000 5.14 30 17:21 01.01.2023
418 Clouds 28 1014 74 10000 5.66 30 16:33 01.01.2023
419 Clouds 29 1013 65 10000 4.63 20 14:59 01.01.2023
420 Clouds 30 1012 66 10000 5.14 20 13:40 01.01.2023
421 Clouds 30 1012 66 10000 5.14 10 12:40 01.01.2023
422 Clouds 30 1012 66 10000 4.12 10 11:37 01.01.2023
423 Clouds 31 1013 62 10000 5.66 30 10:36 01.01.2023
424 Clouds 31 1015 66 10000 6.69 70 08:54 01.01.2023
425 Clouds 27 1015 71 10000 6.69 38 08:21 01.01.2023
426 Clouds 30 1016 66 10000 5.66 70 07:21 01.01.2023
427 Clouds 27 1015 78 10000 3.6 50 03:21 01.01.2023
428 Clouds 27 1013 78 10000 6.17 70 23:43 31.12.2022
429 Clouds 27 1013 78 10000 6.69 70 22:33 31.12.2022
430 Clouds 27 1014 78 10000 6.69 70 21:37 31.12.2022
431 Clouds 27 1014 78 10000 6.69 70 21:18 31.12.2022
432 Clouds 28 1015 78 10000 8.23 80 19:41 31.12.2022
433 Clouds 28 1015 78 10000 7.2 80 18:44 31.12.2022
434 Clouds 28 1015 78 10000 7.2 80 18:19 31.12.2022
435 Clouds 28 1015 78 10000 7.72 80 17:47 31.12.2022
436 Clouds 28 1014 78 10000 7.2 80 16:50 31.12.2022
437 Clouds 28 1014 78 10000 7.2 80 16:24 31.12.2022
438 Clouds 29 1013 74 10000 6.69 70 14:40 31.12.2022
439 Clouds 30 1012 70 10000 6.69 70 13:38 31.12.2022
440 Clouds 30 1012 70 10000 6.17 80 12:40 31.12.2022
441 Clouds 30 1012 70 10000 6.17 80 12:19 31.12.2022
442 Clouds 31 1012 70 10000 6.17 80 11:50 31.12.2022
443 Clouds 31 1013 66 10000 6.69 80 10:36 31.12.2022
444 Clouds 31 1014 66 10000 5.66 80 09:54 31.12.2022
445 Clouds 31 1014 66 10000 5.66 80 09:35 31.12.2022
446 Clouds 31 1016 66 10000 6.69 80 07:48 31.12.2022
447 Clouds 27 1014 83 10000 5.66 80 00:37 31.12.2022
448 Clouds 28 1014 78 10000 6.69 80 23:47 30.12.2022
449 Clouds 28 1014 78 10000 6.69 80 22:49 30.12.2022
450 Clouds 28 1015 78 10000 6.69 70 21:44 30.12.2022
451 Clouds 28 1015 78 10000 6.69 70 21:26 30.12.2022
452 Clouds 28 1016 78 10000 8.23 80 18:59 30.12.2022
453 Clouds 28 1015 78 10000 7.72 70 17:51 30.12.2022
454 Clouds 28 1015 78 10000 7.72 70 17:32 30.12.2022
455 Clouds 28 1014 78 10000 7.72 70 15:57 30.12.2022
456 Clouds 29 1014 74 10000 7.72 90 14:38 30.12.2022
457 Clouds 31 1013 74 10000 6.17 80 10:25 30.12.2022
458 Clouds 31 1015 70 10000 7.72 90 08:19 30.12.2022
459 Clouds 28 1015 78 10000 4.12 110 03:39 30.12.2022
460 Clouds 28 1014 78 10000 5.14 110 01:53 30.12.2022
461 Clouds 27 1014 83 10000 4.63 110 22:54 29.12.2022
462 Clouds 28 1014 78 10000 4.63 110 21:31 29.12.2022
463 Clouds 28 1015 78 10000 4.12 120 20:54 29.12.2022
464 Clouds 28 1015 78 10000 4.12 120 20:25 29.12.2022
465 Clouds 28 1016 78 10000 5.14 100 18:30 29.12.2022
466 Clouds 28 1016 78 10000 5.14 100 17:32 29.12.2022
467 Clouds 28 1015 78 10000 4.63 100 16:55 29.12.2022
468 Clouds 28 1015 78 10000 4.63 100 16:21 29.12.2022
469 Clouds 28 1015 78 10000 5.14 100 15:29 29.12.2022
470 Clouds 27 1013 94 9000 4.12 40 13:33 29.12.2022
471 Clouds 31 1013 66 10000 3.6 90 11:29 29.12.2022
472 Clouds 31 1015 70 10000 3.6 100 07:45 29.12.2022
473 Clouds 26 1012 89 10000 2.57 110 00:18 29.12.2022
474 Clouds 27 1012 83 10000 3.09 110 23:27 28.12.2022
475 Clouds 27 1013 78 10000 2.06 130 21:21 28.12.2022
476 Clouds 27 1014 83 10000 2.57 130 20:25 28.12.2022
477 Clouds 27 1014 83 10000 2.57 130 19:23 28.12.2022
478 Clouds 28 1014 78 10000 2.57 120 16:56 28.12.2022
479 Clouds 29 1012 74 10000 2.57 120 14:42 28.12.2022
480 Clouds 30 1011 70 10000 1.54 140 12:55 28.12.2022
481 Clouds 31 1011 66 10000 3.09 130 11:53 28.12.2022
482 Clouds 31 1011 70 10000 3.09 120 10:43 28.12.2022
483 Clouds 31 1013 70 9000 3.09 110 08:43 28.12.2022
484 Clouds 30 1015 74 9000 2.57 0 06:50 28.12.2022
485 Clouds 26 1013 94 9000 1.54 110 03:46 28.12.2022
486 Clouds 27 1011 83 9000 1.03 0 23:35 27.12.2022
487 Clouds 27 1013 83 9000 2.06 200 19:58 27.12.2022
488 Clouds 27 1013 83 9000 2.06 200 19:27 27.12.2022
489 Clouds 28 1013 83 9000 1.54 320 17:20 27.12.2022
490 Clouds 28 1012 78 9000 2.06 320 16:39 27.12.2022
491 Clouds 28 1011 83 9000 2.57 340 15:25 27.12.2022
492 Clouds 30 1010 74 9000 3.09 310 12:29 27.12.2022
493 Clouds 29 1010 79 9000 1.54 310 11:28 27.12.2022
494 Clouds 30 1011 74 9000 2.57 320 09:46 27.12.2022
495 Clouds 30 1011 74 9000 2.57 320 09:22 27.12.2022
496 Clouds 30 1014 74 8000 4.12 290 06:49 27.12.2022
497 Clouds 28 1013 83 8000 4.12 310 04:29 27.12.2022
498 Clouds 28 1011 83 8000 4.63 290 22:20 26.12.2022
499 Clouds 28 1012 83 8000 6.69 300 20:46 26.12.2022
500 Clouds 28 1012 83 8000 6.69 300 20:24 26.12.2022
501 Clouds 28 1013 83 8000 5.66 300 18:43 26.12.2022
502 Clouds 28 1013 83 8000 5.66 300 17:32 26.12.2022
503 Clouds 29 1011 74 8000 6.69 300 15:46 26.12.2022
504 Clouds 29 1010 74 8000 4.12 290 13:20 26.12.2022
505 Clouds 30 1009 74 8000 6.69 310 11:46 26.12.2022
506 Clouds 29 1012 74 8000 5.14 300 06:42 26.12.2022
507 Clouds 28 1009 83 10000 5.66 300 23:46 25.12.2022
508 Clouds 28 1009 83 10000 5.66 300 23:22 25.12.2022
509 Clouds 27 1010 83 10000 7.72 280 22:26 25.12.2022
510 Clouds 28 1011 83 10000 4.63 270 20:41 25.12.2022
511 Clouds 28 1012 83 10000 4.63 290 18:32 25.12.2022
512 Clouds 28 1012 83 10000 3.09 300 17:51 25.12.2022
513 Clouds 28 1012 83 10000 3.09 300 17:33 25.12.2022
514 Clouds 28 1010 78 10000 3.6 310 14:47 25.12.2022
515 Clouds 30 1009 74 10000 5.14 290 11:49 25.12.2022
516 Clouds 29 1011 74 9000 4.12 310 06:21 25.12.2022
517 Clouds 27 1009 74 9000 4.63 320 23:25 24.12.2022
518 Clouds 27 1010 78 9000 4.63 340 21:18 24.12.2022
519 Clouds 27 1011 78 9000 3.09 340 17:56 24.12.2022
520 Clouds 28 1010 74 9000 2.57 350 16:32 24.12.2022
521 Clouds 28 1008 74 9000 4.12 340 14:48 24.12.2022
522 Clouds 30 1007 70 8000 4.63 340 12:42 24.12.2022
523 Clouds 30 1008 74 8000 5.14 340 10:31 24.12.2022
524 Clouds 30 1009 74 8000 5.14 340 09:55 24.12.2022
525 Clouds 30 1009 74 8000 5.14 340 09:36 24.12.2022
526 Clouds 30 1009 74 8000 5.14 340 09:36 24.12.2022
527 Clouds 29 1011 79 8000 3.09 360 05:46 24.12.2022
528 Clouds 29 1011 79 8000 3.09 360 05:46 24.12.2022
529 Clouds 27 1009 83 10000 3.6 10 00:52 24.12.2022
530 Clouds 27 1009 89 10000 3.09 10 23:35 23.12.2022
531 Clouds 26 1010 94 10000 2.06 40 21:58 23.12.2022
532 Clouds 27 1010 83 10000 1.54 360 20:31 23.12.2022
533 Clouds 28 1010 83 10000 2.57 350 19:39 23.12.2022
534 Clouds 28 1010 83 10000 2.57 350 19:21 23.12.2022
535 Clouds 28 1010 83 10000 2.57 350 18:38 23.12.2022
536 Clouds 28 1010 83 10000 2.57 350 18:19 23.12.2022
537 Clouds 28 1010 83 10000 3.09 350 16:32 23.12.2022
538 Clouds 28 1008 83 10000 2.57 320 14:51 23.12.2022
539 Clouds 29 1007 79 10000 4.63 300 11:42 23.12.2022
540 Clouds 30 1008 74 10000 4.63 290 09:37 23.12.2022
541 Clouds 30 1009 74 10000 3.6 290 07:52 23.12.2022
542 Clouds 29 1010 79 10000 4.12 270 06:51 23.12.2022
543 Clouds 28 1010 83 10000 4.12 270 05:45 23.12.2022
544 Rain 27 1008 76 10000 1.89 285 23:22 22.12.2022
545 Clouds 27 1008 76 10000 1.89 285 22:35 22.12.2022
546 Clouds 28 1009 83 8000 6.69 260 20:27 22.12.2022
547 Clouds 27 1010 89 8000 5.66 260 19:24 22.12.2022
548 Clouds 27 1010 89 8000 7.2 260 18:38 22.12.2022
549 Clouds 27 1010 89 8000 4.12 250 17:23 22.12.2022
550 Clouds 27 1009 89 8000 4.63 260 16:38 22.12.2022
551 Rain 27 1009 89 8000 5.14 260 15:33 22.12.2022
552 Rain 27 1008 89 8000 4.63 240 14:46 22.12.2022
553 Rain 28 1007 83 8000 3.09 290 13:32 22.12.2022
554 Rain 28 1007 83 8000 2.57 310 12:46 22.12.2022
555 Rain 28 1008 83 10000 2.57 230 10:35 22.12.2022
556 Rain 29 1009 79 10000 4.63 260 09:59 22.12.2022
557 Rain 29 1009 79 10000 4.63 260 09:20 22.12.2022
558 Rain 26 1009 75 10000 0.9 353 08:22 22.12.2022
559 Clouds 29 1011 84 10000 2.57 300 05:18 22.12.2022
560 Clouds 28 1010 83 10000 2.06 310 04:18 22.12.2022
561 Clouds 27 1008 89 10000 2.06 320 22:57 21.12.2022
562 Clouds 27 1008 89 10000 3.6 310 21:54 21.12.2022
563 Clouds 27 1008 89 10000 3.6 310 21:21 21.12.2022
564 Clouds 26 1009 94 10000 2.57 360 20:48 21.12.2022
565 Clouds 25 1009 94 10000 4.63 340 19:59 21.12.2022
566 Clouds 25 1009 94 10000 4.63 340 19:41 21.12.2022
567 Clouds 25 1009 94 10000 4.63 340 19:22 21.12.2022
568 Clouds 26 1010 94 10000 3.6 320 18:44 21.12.2022
569 Clouds 25 1010 94 10000 4.63 340 17:35 21.12.2022
570 Clouds 28 1007 78 10000 5.66 70 14:32 21.12.2022
571 Clouds 29 1006 74 8000 4.63 70 12:49 21.12.2022
572 Clouds 28 1006 78 8000 3.6 80 11:41 21.12.2022
573 Clouds 28 1006 78 8000 3.6 80 11:19 21.12.2022
574 Clouds 28 1006 78 8000 3.6 80 11:19 21.12.2022
575 Rain 28 1008 78 8000 7.2 70 08:52 21.12.2022
576 Rain 27 1009 83 8000 8.75 80 06:59 21.12.2022
577 Clouds 25 1007 100 6000 3.09 60 00:48 21.12.2022
578 Rain 27 1007 83 7000 3.09 130 22:41 20.12.2022
579 Clouds 27 1007 83 7000 3.6 130 21:19 20.12.2022
580 Rain 26 1008 83 7000 3.6 90 20:19 20.12.2022
581 Clouds 27 1009 89 8000 3.6 110 18:49 20.12.2022
582 Clouds 27 1009 89 8000 3.6 110 18:26 20.12.2022
583 Clouds 27 1009 89 8000 3.6 110 18:26 20.12.2022
584 Clouds 28 1009 78 8000 4.12 90 17:51 20.12.2022
585 Clouds 28 1009 78 8000 4.12 90 17:28 20.12.2022
586 Clouds 28 1009 78 8000 4.12 90 17:28 20.12.2022
587 Clouds 28 1008 78 8000 4.12 90 16:32 20.12.2022
588 Clouds 28 1007 78 8000 2.06 130 14:57 20.12.2022
589 Clouds 28 1007 78 8000 2.06 130 14:36 20.12.2022
590 Clouds 28 1007 78 8000 2.06 130 14:36 20.12.2022
591 Clouds 29 1006 70 7000 3.09 80 13:56 20.12.2022
592 Clouds 29 1005 70 6000 2.57 80 12:40 20.12.2022
593 Clouds 29 1005 70 6000 2.06 90 11:56 20.12.2022
594 Rain 30 1006 66 6000 2.57 80 10:47 20.12.2022
595 Clouds 30 1008 74 6000 2.57 50 07:41 20.12.2022
596 Clouds 27 1007 83 8000 0 0 00:27 20.12.2022
597 Clouds 27 1007 83 8000 0 0 22:36 19.12.2022
598 Clouds 27 1007 83 8000 0 0 22:36 19.12.2022
599 Clouds 27 1008 89 8000 1.03 0 21:33 19.12.2022
600 Clouds 27 1009 89 8000 2.06 350 19:53 19.12.2022
601 Clouds 27 1009 89 8000 2.06 350 19:31 19.12.2022
602 Clouds 27 1009 83 8000 2.57 20 18:24 19.12.2022
603 Clouds 27 1009 83 8000 4.12 340 16:31 19.12.2022
604 Clouds 28 1006 83 7000 3.09 320 13:22 19.12.2022
605 Clouds 29 1006 79 8000 2.06 340 11:55 19.12.2022
606 Clouds 29 1008 74 8000 2.57 320 08:47 19.12.2022
607 Clouds 29 1009 79 8000 4.12 290 07:32 19.12.2022
608 Clouds 27 1009 73 10000 1.79 318 02:22 19.12.2022
609 Clouds 28 1008 78 10000 3.09 10 21:51 18.12.2022
610 Clouds 28 1008 78 10000 3.09 10 21:31 18.12.2022
611 Clouds 28 1009 78 10000 3.09 10 20:58 18.12.2022
612 Clouds 28 1009 83 10000 2.06 310 19:45 18.12.2022
613 Clouds 28 1009 83 10000 2.06 310 19:24 18.12.2022
614 Clouds 29 1010 74 10000 2.57 10 17:52 18.12.2022
615 Clouds 28 1009 78 10000 2.57 360 16:26 18.12.2022
616 Clouds 28 1008 83 10000 2.57 350 15:39 18.12.2022
617 Clouds 28 1008 83 10000 2.57 350 15:18 18.12.2022
618 Clouds 30 1006 70 10000 3.09 350 13:35 18.12.2022
619 Clouds 30 1006 74 10000 4.12 340 12:51 18.12.2022
620 Clouds 30 1006 70 10000 2.57 340 11:54 18.12.2022
621 Clouds 30 1007 70 10000 3.6 350 10:19 18.12.2022
622 Clouds 30 1007 70 10000 3.6 350 10:19 18.12.2022
623 Clouds 30 1009 74 10000 3.6 350 08:47 18.12.2022
624 Rain 29 1010 74 10000 3.6 360 07:20 18.12.2022
625 Clouds 30 1010 70 10000 3.6 360 06:19 18.12.2022
626 Clouds 26 1008 89 10000 1.54 340 01:59 18.12.2022
627 Clouds 27 1008 78 9000 3.09 30 23:40 17.12.2022
628 Clouds 26 1009 89 10000 2.06 20 21:40 17.12.2022
629 Clouds 28 1011 78 10000 2.06 50 18:54 17.12.2022
630 Clouds 28 1010 78 10000 2.57 70 16:40 17.12.2022
631 Clouds 29 1008 74 10000 3.09 80 14:23 17.12.2022
632 Clouds 30 1007 70 10000 2.57 30 11:36 17.12.2022
633 Clouds 30 1008 74 10000 3.09 70 10:46 17.12.2022
634 Clouds 30 1008 74 10000 2.57 80 09:41 17.12.2022
635 Clouds 29 1010 74 10000 2.57 40 07:26 17.12.2022
636 Clouds 29 1011 74 10000 2.57 350 06:45 17.12.2022
637 Clouds 26 1008 89 10000 2.06 70 23:49 16.12.2022
638 Clouds 27 1010 83 10000 2.06 70 20:56 16.12.2022
639 Clouds 27 1010 83 10000 2.06 60 19:36 16.12.2022
640 Clouds 27 1008 89 10000 2.57 50 15:43 16.12.2022
641 Clouds 27 1008 89 10000 2.57 50 14:47 16.12.2022
642 Clouds 27 1007 94 9000 2.06 70 13:45 16.12.2022
643 Clouds 31 1007 70 10000 2.06 340 11:58 16.12.2022
644 Clouds 30 1008 74 10000 2.57 340 09:53 16.12.2022
645 Clouds 30 1008 74 10000 2.57 340 09:24 16.12.2022
646 Clouds 28 1010 83 10000 2.57 350 07:55 16.12.2022
647 Clouds 28 1010 83 10000 2.57 350 07:31 16.12.2022
648 Clouds 26 1008 89 10000 0.51 0 23:30 15.12.2022
649 Clouds 26 1008 89 10000 0.51 0 23:30 15.12.2022
650 Clouds 26 1009 89 10000 1.54 120 22:20 15.12.2022
651 Clouds 27 1010 89 10000 0 0 20:33 15.12.2022
652 Clouds 27 1010 83 10000 1.54 30 19:36 15.12.2022
653 Clouds 27 1010 89 10000 0 0 18:20 15.12.2022
654 Clouds 27 1010 89 10000 0.51 0 17:24 15.12.2022
655 Clouds 27 1008 89 10000 1.54 270 15:35 15.12.2022
656 Clouds 29 1007 79 10000 2.06 250 13:30 15.12.2022
657 Clouds 29 1006 79 10000 3.09 270 12:25 15.12.2022
658 Clouds 29 1008 74 10000 2.06 270 09:36 15.12.2022
659 Clouds 30 1009 70 10000 3.6 250 08:53 15.12.2022
660 Clouds 27 1011 83 10000 3.6 160 05:50 15.12.2022
661 Rain 26 1010 94 10000 3.09 160 04:40 15.12.2022
662 Clouds 28 1010 78 10000 4.12 230 21:25 14.12.2022
663 Clouds 28 1011 78 10000 3.09 220 20:59 14.12.2022
664 Clouds 28 1011 78 10000 3.09 220 20:23 14.12.2022
665 Clouds 28 1012 78 9000 4.12 280 18:25 14.12.2022
666 Clouds 29 1011 79 10000 3.6 250 16:57 14.12.2022
667 Clouds 28 1010 83 10000 3.6 250 15:39 14.12.2022
668 Clouds 30 1008 74 10000 4.63 250 13:52 14.12.2022
669 Clouds 31 1008 70 10000 5.66 240 11:22 14.12.2022
670 Clouds 31 1008 70 10000 5.66 240 10:33 14.12.2022
671 Clouds 30 1010 74 10000 4.63 240 08:51 14.12.2022
672 Clouds 28 1010 83 10000 5.14 250 22:49 13.12.2022
673 Clouds 28 1010 83 10000 3.6 260 21:48 13.12.2022
674 Clouds 28 1011 83 10000 4.12 260 20:48 13.12.2022
675 Clouds 28 1011 83 10000 4.12 260 20:19 13.12.2022
676 Clouds 28 1011 89 10000 3.6 260 17:40 13.12.2022
677 Clouds 28 1011 89 10000 3.6 260 17:40 13.12.2022
678 Clouds 28 1010 83 10000 5.14 280 15:45 13.12.2022
679 Clouds 29 1009 79 10000 6.69 280 14:44 13.12.2022
680 Clouds 30 1008 74 10000 7.2 290 11:18 13.12.2022
681 Clouds 31 1008 70 10000 7.2 280 10:36 13.12.2022
682 Clouds 30 1009 74 10000 7.72 270 09:23 13.12.2022
683 Clouds 27 1011 83 10000 6.69 270 04:35 13.12.2022
684 Rain 27 1009 89 6000 9.77 270 22:23 12.12.2022
685 Rain 27 1010 78 10000 7.44 276 21:22 12.12.2022
686 Rain 28 1011 83 10000 6.69 270 18:33 12.12.2022
687 Rain 28 1011 78 10000 7.6 285 17:19 12.12.2022
688 Clouds 27 1010 78 10000 7.68 276 15:22 12.12.2022
689 Clouds 29 1008 74 10000 8.75 290 11:51 12.12.2022
690 Clouds 30 1010 74 10000 7.72 290 09:19 12.12.2022
691 Clouds 28 1010 78 10000 9.26 260 04:54 12.12.2022
692 Clouds 27 1009 83 8000 8.23 270 01:53 12.12.2022
693 Rain 27 1010 83 9000 10.8 260 22:53 11.12.2022
694 Rain 27 1011 89 8000 9.26 290 20:47 11.12.2022
695 Rain 27 1011 83 8000 10.8 300 19:43 11.12.2022
696 Clouds 27 1011 83 8000 10.8 300 19:22 11.12.2022
697 Rain 25 1012 100 7000 7.2 300 18:18 11.12.2022
698 Rain 25 1012 100 7000 7.2 300 18:18 11.12.2022
699 Rain 25 1012 94 6000 9.77 250 17:31 11.12.2022
700 Rain 28 1012 78 10000 7.56 288 16:52 11.12.2022
701 Clouds 28 1012 78 10000 7.57 288 15:46 11.12.2022
702 Clouds 27 1009 83 10000 9.26 300 14:50 11.12.2022
703 Clouds 29 1008 79 10000 8.23 290 12:44 11.12.2022
704 Clouds 29 1008 79 10000 9.77 300 11:53 11.12.2022
705 Clouds 30 1010 79 10000 8.23 280 08:25 11.12.2022
706 Clouds 28 1008 83 10000 9.77 270 00:34 11.12.2022
707 Clouds 28 1009 78 10000 9.26 280 22:54 10.12.2022
708 Clouds 28 1009 78 10000 9.26 280 22:33 10.12.2022
709 Clouds 28 1009 78 10000 9.26 270 21:19 10.12.2022
710 Clouds 28 1009 78 10000 9.26 270 21:19 10.12.2022
711 Clouds 28 1010 78 10000 8.75 270 20:35 10.12.2022
712 Clouds 28 1010 89 10000 6.69 250 18:49 10.12.2022
713 Clouds 28 1009 83 10000 9.26 270 16:51 10.12.2022
714 Clouds 28 1009 83 10000 9.26 270 16:32 10.12.2022
715 Clouds 28 1008 83 10000 8.75 260 15:38 10.12.2022
716 Clouds 28 1008 78 10000 10.8 270 14:22 10.12.2022
717 Rain 28 1007 78 9000 7.2 270 12:53 10.12.2022
718 Clouds 30 1007 74 9000 11.32 260 11:35 10.12.2022
719 Clouds 30 1007 74 10000 10.29 260 10:34 10.12.2022
720 Clouds 29 1009 79 10000 8.75 270 08:58 10.12.2022
721 Clouds 29 1010 70 10000 8.75 280 07:19 10.12.2022
722 Rain 27 1007 83 9000 12.35 270 00:40 10.12.2022
723 Clouds 28 1007 83 10000 11.83 270 23:18 09.12.2022
724 Clouds 28 1008 83 10000 12.35 270 22:37 09.12.2022
725 Clouds 27 1008 79 10000 8.47 277 21:24 09.12.2022
726 Clouds 27 1009 89 10000 8.75 280 20:41 09.12.2022
727 Thunderstorm 27 1010 83 10000 8.23 260 18:42 09.12.2022
728 Thunderstorm 27 1010 89 10000 7.72 270 17:51 09.12.2022
729 Thunderstorm 27 1010 83 10000 7.2 260 16:31 09.12.2022
730 Rain 27 1010 77 10000 7.6 274 15:34 09.12.2022
731 Rain 27 1008 89 10000 8.75 260 14:40 09.12.2022
732 Rain 28 1007 83 10000 7.2 260 11:29 09.12.2022
733 Clouds 29 1007 79 10000 6.69 260 10:32 09.12.2022
734 Thunderstorm 26 1009 94 6000 5.14 280 08:36 09.12.2022
735 Clouds 28 1009 83 10000 6.17 300 03:19 09.12.2022
736 Rain 28 1007 83 10000 5.66 270 00:18 09.12.2022
737 Rain 27 1009 89 10000 7.2 290 21:23 08.12.2022
738 Rain 27 1010 89 10000 7.72 270 20:21 08.12.2022
739 Clouds 27 1011 83 10000 7.2 260 16:52 08.12.2022
740 Clouds 27 1009 83 9000 7.2 260 14:46 08.12.2022
741 Clouds 27 1009 83 9000 7.2 260 14:21 08.12.2022
742 Clouds 29 1008 79 10000 6.69 270 11:18 08.12.2022
743 Clouds 30 1009 74 10000 5.14 290 09:45 08.12.2022
744 Clouds 30 1009 74 10000 5.14 290 09:20 08.12.2022
745 Clouds 27 1009 89 10000 5.14 260 22:56 07.12.2022
746 Clouds 27 1009 89 10000 5.14 260 22:19 07.12.2022
747 Clouds 27 1009 89 10000 6.69 260 21:47 07.12.2022
748 Clouds 27 1010 83 10000 5.66 250 20:36 07.12.2022
749 Clouds 26 1010 94 6000 7.2 270 18:42 07.12.2022
750 Clouds 28 1011 74 10000 2.86 246 16:21 07.12.2022
751 Clouds 28 1010 83 10000 5.66 250 14:40 07.12.2022
752 Clouds 29 1008 79 10000 7.2 230 11:38 07.12.2022
753 Clouds 28 1008 83 10000 8.23 270 10:38 07.12.2022
754 Clouds 29 1009 79 10000 5.66 230 09:37 07.12.2022
755 Clouds 29 1010 79 10000 5.66 250 08:44 07.12.2022
756 Clouds 27 1011 83 9000 0.51 0 05:28 07.12.2022
757 Clouds 28 1010 83 10000 2.57 280 03:55 07.12.2022
758 Clouds 28 1009 83 10000 3.09 230 22:37 06.12.2022
759 Clouds 28 1011 83 10000 2.57 210 20:20 06.12.2022
760 Clouds 29 1011 74 10000 3.09 200 17:39 06.12.2022
761 Clouds 29 1010 74 10000 3.09 230 16:40 06.12.2022
762 Clouds 30 1009 70 10000 4.12 230 15:40 06.12.2022
763 Clouds 30 1009 70 10000 3.6 200 14:55 06.12.2022
764 Clouds 30 1009 70 10000 3.6 200 14:24 06.12.2022
765 Clouds 31 1008 70 10000 3.6 200 12:51 06.12.2022
766 Clouds 31 1008 70 10000 3.6 200 12:28 06.12.2022
767 Clouds 31 1010 70 10000 3.09 200 07:59 06.12.2022
768 Clouds 29 1011 74 10000 2.57 200 04:54 06.12.2022
769 Clouds 28 1009 78 10000 2.06 220 01:24 06.12.2022
770 Clouds 27 1009 89 10000 2.06 150 22:25 05.12.2022
771 Clouds 27 1011 89 10000 2.06 130 20:55 05.12.2022
772 Clouds 27 1011 89 10000 2.06 130 20:25 05.12.2022
773 Rain 27 1011 89 10000 2.06 70 19:43 05.12.2022
774 Rain 28 1011 78 10000 1.54 60 16:57 05.12.2022
775 Rain 28 1011 78 10000 1.54 60 16:57 05.12.2022
776 Clouds 28 1010 78 10000 1.03 0 15:49 05.12.2022
777 Clouds 28 1010 78 10000 1.03 0 15:22 05.12.2022
778 Clouds 30 1008 74 10000 2.57 320 12:59 05.12.2022
779 Clouds 30 1008 74 10000 2.57 320 12:40 05.12.2022
780 Clouds 30 1008 74 10000 2.06 310 11:46 05.12.2022
781 Clouds 30 1009 74 10000 2.57 330 10:52 05.12.2022
782 Clouds 26 1009 89 10000 2.06 20 00:19 05.12.2022
783 Clouds 27 1009 83 10000 2.57 350 22:44 04.12.2022
784 Clouds 27 1009 83 10000 2.57 350 22:20 04.12.2022
785 Clouds 27 1010 83 10000 2.06 350 21:41 04.12.2022
786 Clouds 27 1011 83 10000 2.06 360 20:27 04.12.2022
787 Clouds 26 1011 89 10000 1.03 0 19:26 04.12.2022
788 Clouds 27 1011 89 10000 0 0 18:40 04.12.2022
789 Rain 27 1011 89 10000 1.03 0 17:23 04.12.2022
790 Clouds 27 1011 89 10000 1.54 340 16:37 04.12.2022
791 Clouds 27 1011 89 10000 1.54 340 16:19 04.12.2022
792 Clouds 27 1010 83 10000 1.54 330 15:57 04.12.2022
793 Clouds 27 1010 83 10000 2.06 310 14:43 04.12.2022
794 Clouds 28 1009 78 10000 2.57 290 13:26 04.12.2022
795 Clouds 29 1008 79 10000 3.6 350 12:42 04.12.2022
796 Clouds 29 1008 79 10000 3.6 340 11:46 04.12.2022
797 Clouds 28 1010 78 10000 3.09 320 09:20 04.12.2022
798 Clouds 27 1011 89 9000 3.09 350 07:21 04.12.2022
799 Clouds 27 1008 83 9000 2.57 270 00:45 04.12.2022
800 Clouds 27 1009 89 9000 2.57 260 23:33 03.12.2022
801 Clouds 27 1010 89 9000 2.57 280 21:59 03.12.2022
802 Clouds 27 1010 89 9000 2.57 280 21:21 03.12.2022
803 Clouds 27 1010 74 10000 3.02 261 19:34 03.12.2022
804 Clouds 27 1011 89 9000 2.06 320 18:39 03.12.2022
805 Clouds 27 1010 83 9000 4.63 350 15:53 03.12.2022
806 Clouds 28 1009 78 9000 5.66 290 14:23 03.12.2022
807 Clouds 28 1008 83 7000 5.66 280 12:54 03.12.2022
808 Clouds 28 1008 83 7000 5.66 280 12:22 03.12.2022
809 Rain 27 1008 89 7000 5.14 290 10:21 03.12.2022
810 Clouds 30 1011 70 8000 2.57 280 06:56 03.12.2022
811 Clouds 26 1009 94 10000 1.54 310 01:29 03.12.2022
812 Clouds 26 1008 94 7000 4.12 360 22:41 02.12.2022
813 Clouds 27 1009 89 10000 2.06 290 20:53 02.12.2022
814 Clouds 27 1009 89 10000 2.06 290 20:53 02.12.2022
815 Clouds 27 1010 89 10000 1.54 290 19:26 02.12.2022
816 Clouds 27 1009 83 10000 2.06 280 15:59 02.12.2022
817 Clouds 27 1009 83 10000 3.6 260 14:43 02.12.2022
818 Clouds 27 1009 83 10000 3.6 260 14:23 02.12.2022
819 Clouds 28 1007 78 10000 2.57 360 12:56 02.12.2022
820 Clouds 30 1007 74 10000 2.57 270 11:40 02.12.2022
821 Clouds 29 1009 74 10000 2.06 290 08:35 02.12.2022
822 Clouds 28 1010 78 10000 2.57 320 07:24 02.12.2022
823 Haze 27 1008 89 4000 2.06 340 23:49 01.12.2022
824 Haze 27 1009 89 4000 2.57 340 21:46 01.12.2022
825 Haze 27 1009 89 4000 2.57 340 21:46 01.12.2022
826 Haze 27 1009 89 4000 2.57 340 21:46 01.12.2022
827 Haze 27 1009 89 4000 2.57 340 21:27 01.12.2022
828 Haze 26 1010 89 4000 2.57 300 19:48 01.12.2022
829 Clouds 25 1010 94 4000 2.06 290 17:50 01.12.2022
830 Haze 27 1009 83 4000 1.54 320 15:44 01.12.2022
831 Haze 30 1007 74 4000 1.54 270 11:41 01.12.2022
832 Clouds 28 1008 72 10000 3.43 55 10:25 01.12.2022
833 Haze 30 1008 74 5000 2.06 340 09:54 01.12.2022
834 Haze 30 1008 74 5000 2.06 340 09:36 01.12.2022
835 Clouds 27 1009 68 10000 1.61 52 00:18 01.12.2022
836 Clouds 27 1009 83 10000 1.54 20 22:37 30.11.2022
837 Clouds 27 1010 83 10000 0 0 21:19 30.11.2022
838 Clouds 27 1010 83 10000 1.54 70 20:25 30.11.2022
839 Clouds 28 1011 78 10000 0 0 19:58 30.11.2022
840 Clouds 28 1011 78 10000 1.03 0 18:33 30.11.2022
841 Clouds 28 1011 78 10000 1.54 10 17:36 30.11.2022
842 Clouds 28 1011 78 10000 1.54 20 16:19 30.11.2022
843 Clouds 30 1009 70 10000 2.06 340 14:27 30.11.2022
844 Clouds 29 1008 74 10000 2.06 360 13:39 30.11.2022
845 Clouds 29 1008 79 10000 1.54 280 10:30 30.11.2022
846 Clouds 31 1010 70 10000 2.06 30 08:39 30.11.2022
847 Clouds 31 1011 66 10000 1.03 0 07:56 30.11.2022
848 Clouds 26 1009 83 10000 1.03 0 23:36 29.11.2022
849 Clouds 26 1009 83 10000 1.54 110 22:49 29.11.2022
850 Clouds 26 1010 83 10000 1.03 0 21:26 29.11.2022
851 Clouds 27 1011 83 10000 0 0 20:37 29.11.2022
852 Clouds 28 1011 74 10000 1.03 0 18:58 29.11.2022
853 Clouds 27 1011 78 10000 0 0 16:59 29.11.2022
854 Clouds 27 1011 78 10000 0 0 16:24 29.11.2022
855 Clouds 28 1009 74 10000 1.54 350 14:50 29.11.2022
856 Clouds 30 1008 70 10000 2.06 290 12:55 29.11.2022
857 Clouds 30 1008 70 10000 2.06 280 11:32 29.11.2022
858 Clouds 30 1008 70 10000 2.57 280 10:56 29.11.2022
859 Clouds 31 1009 66 10000 2.57 280 09:38 29.11.2022
860 Clouds 30 1010 70 10000 2.57 280 08:38 29.11.2022
861 Clouds 27 1008 83 10000 2.06 230 00:36 29.11.2022
862 Clouds 27 1008 83 10000 2.06 240 23:34 28.11.2022
863 Clouds 27 1009 78 10000 2.57 230 22:50 28.11.2022
864 Clouds 27 1009 78 10000 2.06 230 21:43 28.11.2022
865 Clouds 27 1010 78 10000 2.57 230 20:37 28.11.2022
866 Clouds 27 1010 78 10000 2.57 240 19:38 28.11.2022
867 Clouds 27 1011 78 10000 2.06 230 18:29 28.11.2022
868 Clouds 28 1010 78 10000 2.06 250 17:50 28.11.2022
869 Clouds 28 1010 78 10000 2.06 250 17:50 28.11.2022
870 Clouds 28 1009 78 10000 2.06 260 15:37 28.11.2022
871 Clouds 28 1008 78 10000 2.06 250 14:24 28.11.2022
872 Clouds 29 1007 79 10000 2.06 290 13:49 28.11.2022
873 Clouds 30 1007 74 10000 2.57 290 12:35 28.11.2022
874 Clouds 29 1008 74 10000 2.57 260 09:27 28.11.2022
875 Clouds 31 1011 66 10000 2.57 200 06:29 28.11.2022
876 Clouds 29 1010 74 10000 2.06 210 04:42 28.11.2022
877 Clouds 28 1009 78 10000 1.54 200 03:23 28.11.2022
878 Clouds 26 1008 89 10000 1.54 210 01:27 28.11.2022
879 Clouds 27 1007 83 10000 1.03 0 22:35 27.11.2022
880 Clouds 27 1008 83 10000 1.54 210 21:27 27.11.2022
881 Clouds 27 1009 78 10000 1.54 250 19:28 27.11.2022
882 Clouds 28 1008 78 10000 1.54 260 16:47 27.11.2022
883 Clouds 28 1007 74 10000 2.06 250 14:30 27.11.2022
884 Clouds 30 1007 74 10000 3.6 260 12:31 27.11.2022
885 Clouds 30 1007 74 10000 3.6 250 10:40 27.11.2022
886 Clouds 31 1010 66 10000 2.57 200 07:57 27.11.2022
887 Clouds 27 1008 83 10000 2.57 210 23:43 26.11.2022
888 Clouds 27 1009 83 10000 2.57 190 21:52 26.11.2022
889 Clouds 28 1009 78 10000 2.57 200 20:36 26.11.2022
890 Clouds 28 1010 83 10000 2.06 200 19:21 26.11.2022
891 Clouds 28 1009 74 10000 1.54 190 16:49 26.11.2022
892 Clouds 28 1009 78 10000 1.54 200 15:38 26.11.2022
893 Clouds 30 1008 70 10000 2.57 200 12:55 26.11.2022
894 Clouds 29 1008 74 10000 2.06 210 11:23 26.11.2022
895 Clouds 29 1010 70 10000 2.06 210 09:44 26.11.2022
896 Clouds 29 1011 74 10000 1.54 240 08:45 26.11.2022
897 Clouds 26 1010 89 10000 0 0 23:22 25.11.2022
898 Clouds 27 1011 83 10000 1.03 0 21:41 25.11.2022
899 Clouds 27 1011 83 10000 1.03 0 20:33 25.11.2022
900 Clouds 27 1011 83 10000 1.03 0 19:36 25.11.2022
901 Clouds 28 1010 78 10000 2.06 360 15:51 25.11.2022
902 Clouds 30 1009 70 10000 2.57 320 12:28 25.11.2022
903 Clouds 31 1011 74 10000 2.57 270 08:56 25.11.2022
904 Clouds 31 1011 74 10000 2.57 270 08:37 25.11.2022
905 Clouds 30 1012 74 10000 3.09 270 06:48 25.11.2022
906 Clouds 26 1010 89 10000 3.6 280 01:26 25.11.2022
907 Clouds 27 1010 89 10000 3.09 300 23:41 24.11.2022
908 Clouds 27 1010 89 10000 3.6 260 22:37 24.11.2022
909 Clouds 27 1011 89 10000 2.57 280 21:42 24.11.2022
910 Clouds 27 1012 94 10000 3.09 280 19:48 24.11.2022
911 Clouds 28 1012 83 10000 4.63 260 17:48 24.11.2022
912 Clouds 28 1012 83 10000 4.63 260 17:24 24.11.2022
913 Clouds 28 1011 83 10000 6.17 270 16:40 24.11.2022
914 Clouds 28 1010 83 10000 5.66 280 14:24 24.11.2022
915 Clouds 27 1009 89 9000 5.66 300 12:41 24.11.2022
916 Rain 29 1009 79 10000 6.17 280 11:37 24.11.2022
917 Clouds 30 1011 74 10000 5.66 280 08:59 24.11.2022
918 Clouds 30 1013 74 10000 4.63 280 06:22 24.11.2022
919 Clouds 27 1010 83 10000 5.66 290 00:41 24.11.2022
920 Clouds 27 1011 83 10000 5.14 300 23:32 23.11.2022
921 Clouds 27 1010 77 10000 7.93 290 21:48 23.11.2022
922 Clouds 28 1012 83 10000 6.17 300 20:51 23.11.2022
923 Clouds 28 1012 78 10000 6.69 290 19:40 23.11.2022
924 Clouds 28 1012 83 10000 5.66 290 18:55 23.11.2022
925 Clouds 27 1012 89 10000 6.69 270 17:35 23.11.2022
926 Clouds 29 1010 74 10000 7.2 280 14:19 23.11.2022
927 Clouds 29 1009 79 10000 5.66 270 13:24 23.11.2022
928 Clouds 30 1009 74 10000 7.2 270 12:23 23.11.2022
929 Clouds 30 1009 74 10000 6.69 280 11:45 23.11.2022
930 Clouds 30 1010 74 10000 7.2 270 10:48 23.11.2022
931 Clouds 31 1010 70 10000 7.2 270 09:57 23.11.2022
932 Clouds 31 1010 70 10000 7.2 270 09:27 23.11.2022
933 Clouds 30 1011 74 10000 7.2 270 08:58 23.11.2022
934 Clouds 30 1011 74 10000 7.2 270 08:36 23.11.2022
935 Clouds 29 1013 79 10000 6.17 270 05:19 23.11.2022
936 Clouds 28 1010 78 9000 5.14 280 01:42 23.11.2022
937 Clouds 28 1010 78 9000 4.63 280 22:37 22.11.2022
938 Clouds 28 1011 83 9000 3.6 280 21:49 22.11.2022
939 Clouds 28 1011 83 9000 3.6 280 21:23 22.11.2022
940 Clouds 28 1011 78 9000 3.6 290 20:43 22.11.2022
941 Clouds 28 1012 78 9000 3.6 270 19:45 22.11.2022
942 Clouds 28 1012 78 9000 4.12 290 17:54 22.11.2022
943 Clouds 28 1012 78 9000 4.12 290 16:38 22.11.2022
944 Clouds 28 1009 78 9000 4.63 280 14:31 22.11.2022
945 Clouds 31 1008 66 9000 4.63 280 12:51 22.11.2022
946 Clouds 31 1010 66 9000 4.12 300 09:28 22.11.2022
947 Clouds 31 1010 66 9000 4.12 300 09:28 22.11.2022
948 Clouds 30 1011 70 9000 3.6 310 07:59 22.11.2022
949 Clouds 30 1012 70 9000 3.6 320 06:44 22.11.2022
950 Clouds 28 1009 74 10000 3.6 310 00:54 22.11.2022
951 Clouds 28 1009 78 10000 4.12 300 22:52 21.11.2022
952 Clouds 28 1009 78 10000 4.12 300 22:23 21.11.2022
953 Clouds 28 1009 78 10000 4.63 300 21:31 21.11.2022
954 Clouds 28 1010 78 10000 4.63 320 19:54 21.11.2022
955 Clouds 28 1010 78 10000 4.63 320 19:35 21.11.2022
956 Clouds 28 1011 78 10000 4.12 320 18:51 21.11.2022
957 Clouds 28 1011 78 10000 3.6 310 17:32 21.11.2022
958 Clouds 29 1010 70 10000 4.63 310 16:43 21.11.2022
959 Clouds 29 1010 74 10000 5.14 310 15:58 21.11.2022
960 Clouds 29 1010 74 10000 5.14 310 15:23 21.11.2022
961 Clouds 29 1008 74 10000 7.2 300 13:53 21.11.2022
962 Clouds 30 1008 70 10000 7.2 300 12:50 21.11.2022
963 Clouds 30 1009 74 10000 8.75 300 09:35 21.11.2022
964 Clouds 30 1011 74 10000 8.75 280 07:52 21.11.2022
965 Clouds 28 1007 83 10000 7.2 260 00:36 21.11.2022
966 Clouds 27 1008 83 9000 7.72 260 21:39 20.11.2022
967 Clouds 28 1009 83 10000 7.2 270 20:47 20.11.2022
968 Clouds 28 1010 83 10000 7.72 270 19:18 20.11.2022
969 Clouds 28 1010 83 10000 7.2 270 17:24 20.11.2022
970 Clouds 27 1009 83 10000 4.12 300 15:44 20.11.2022
971 Clouds 27 1009 83 10000 4.12 300 15:21 20.11.2022
972 Clouds 26 1008 83 9000 4.12 290 14:18 20.11.2022
973 Clouds 25 1008 88 9000 4.12 290 13:31 20.11.2022
974 Clouds 26 1007 89 10000 2.57 290 11:43 20.11.2022
975 Clouds 25 1008 88 8000 1.54 270 10:58 20.11.2022
976 Clouds 27 1008 77 10000 6.36 275 09:43 20.11.2022
977 Clouds 27 1009 83 10000 2.06 290 08:53 20.11.2022
978 Clouds 27 1009 83 10000 2.06 290 08:20 20.11.2022
979 Clouds 29 1011 79 9000 3.09 310 07:26 20.11.2022
980 Clouds 26 1009 94 10000 1.03 0 01:28 20.11.2022
981 Clouds 25 1009 100 10000 0.51 0 00:48 20.11.2022
982 Rain 25 1009 100 10000 0.51 0 00:29 20.11.2022
983 Rain 25 1009 94 10000 1.54 10 23:59 19.11.2022
984 Rain 25 1009 94 10000 1.54 10 23:26 19.11.2022
985 Rain 25 1009 94 9000 2.57 260 22:44 19.11.2022
986 Rain 25 1009 94 9000 2.57 260 22:44 19.11.2022
987 Clouds 27 1009 75 10000 4.63 283 21:51 19.11.2022
988 Clouds 27 1009 74 10000 4.1 279 21:25 19.11.2022
989 Clouds 27 1011 83 10000 1.03 0 20:41 19.11.2022
990 Clouds 27 1011 83 10000 2.57 30 19:48 19.11.2022
991 Clouds 27 1012 89 10000 2.06 30 18:19 19.11.2022
992 Clouds 27 1011 83 10000 2.06 10 17:38 19.11.2022
993 Clouds 27 1011 83 10000 2.06 10 17:18 19.11.2022
994 Clouds 27 1009 83 10000 4.63 10 14:54 19.11.2022
995 Clouds 28 1008 83 10000 5.66 310 13:29 19.11.2022
996 Clouds 28 1008 83 10000 3.09 260 11:52 19.11.2022
997 Clouds 31 1009 74 10000 6.17 290 09:45 19.11.2022
998 Clouds 30 1011 74 10000 5.66 290 07:52 19.11.2022
999 Clouds 29 1011 79 10000 5.14 280 04:44 19.11.2022
1000 Clouds 27 1009 89 10000 7.2 270 00:46 19.11.2022
1001 Clouds 28 1009 83 10000 7.2 270 23:34 18.11.2022
1002 Clouds 28 1009 83 10000 7.72 270 22:23 18.11.2022
1003 Clouds 28 1010 83 10000 7.72 260 21:35 18.11.2022
1004 Clouds 28 1011 83 10000 6.69 270 20:57 18.11.2022
1005 Clouds 28 1011 83 10000 6.69 270 20:21 18.11.2022
1006 Clouds 28 1012 83 10000 7.2 270 19:36 18.11.2022
1007 Clouds 27 1012 83 10000 7.2 270 17:45 18.11.2022
1008 Clouds 27 1010 89 10000 8.75 270 15:59 18.11.2022
1009 Clouds 28 1008 78 10000 9.26 260 11:52 18.11.2022
1010 Rain 28 1009 78 10000 10.29 250 10:22 18.11.2022
1011 Rain 27 1010 75 10000 6.8 267 07:52 18.11.2022
1012 Rain 26 1012 94 7000 5.66 240 05:27 18.11.2022
1013 Clouds 27 1010 89 10000 5.66 230 02:25 18.11.2022
1014 Clouds 27 1009 83 10000 7.2 260 22:56 17.11.2022
1015 Clouds 27 1011 89 10000 7.2 250 20:48 17.11.2022
1016 Clouds 27 1011 89 10000 6.17 270 19:51 17.11.2022
1017 Clouds 27 1011 79 10000 5.68 271 19:20 17.11.2022
1018 Clouds 27 1012 89 10000 6.17 260 18:27 17.11.2022
1019 Clouds 27 1012 89 10000 6.17 270 17:30 17.11.2022
1020 Clouds 27 1012 89 10000 6.17 270 17:30 17.11.2022
1021 Clouds 27 1010 89 10000 7.2 250 15:42 17.11.2022
1022 Clouds 28 1008 78 10000 5.66 270 12:19 17.11.2022
1023 Clouds 27 1009 89 10000 6.17 240 10:29 17.11.2022
1024 Clouds 27 1011 89 9000 7.2 270 07:20 17.11.2022
1025 Clouds 25 1009 94 9000 2.57 250 00:52 17.11.2022
1026 Clouds 26 1010 89 9000 4.63 290 23:21 16.11.2022
1027 Clouds 26 1010 89 10000 5.14 240 21:54 16.11.2022
1028 Clouds 25 1011 94 10000 1.54 150 20:31 16.11.2022
1029 Clouds 26 1012 94 8000 1.03 0 18:48 16.11.2022
1030 Clouds 26 1012 94 8000 1.03 0 18:27 16.11.2022
1031 Clouds 26 1011 94 6000 2.57 230 15:35 16.11.2022
1032 Thunderstorm 28 1009 83 10000 3.09 200 10:56 16.11.2022
1033 Clouds 30 1013 74 10000 2.57 250 06:50 16.11.2022
1034 Clouds 27 1010 83 10000 2.06 260 01:38 16.11.2022
1035 Clouds 28 1010 78 10000 3.6 280 23:31 15.11.2022
1036 Clouds 28 1011 78 10000 3.09 290 21:28 15.11.2022
1037 Clouds 28 1012 78 10000 2.57 270 19:47 15.11.2022
1038 Clouds 28 1013 83 10000 3.09 250 18:51 15.11.2022
1039 Clouds 28 1013 83 10000 3.09 260 17:36 15.11.2022
1040 Clouds 28 1012 83 10000 4.12 250 16:20 15.11.2022
1041 Clouds 28 1012 83 10000 4.12 250 16:20 15.11.2022
1042 Clouds 28 1012 83 10000 3.6 260 15:37 15.11.2022
1043 Clouds 29 1011 79 10000 4.63 280 13:57 15.11.2022
1044 Clouds 29 1010 79 10000 5.14 280 12:54 15.11.2022
1045 Clouds 29 1010 79 10000 5.14 280 11:21 15.11.2022
1046 Clouds 30 1011 74 10000 6.69 290 09:38 15.11.2022
1047 Clouds 27 1011 83 10000 4.12 310 00:42 15.11.2022
1048 Clouds 27 1011 83 10000 4.12 310 00:23 15.11.2022
1049 Clouds 28 1012 83 10000 5.66 280 21:56 14.11.2022
1050 Rain 28 1012 83 10000 4.12 290 20:44 14.11.2022
1051 Rain 28 1013 83 10000 5.14 290 19:42 14.11.2022
1052 Rain 28 1013 83 10000 5.14 300 18:25 14.11.2022
1053 Rain 28 1009 83 10000 11.32 280 12:55 14.11.2022
1054 Rain 28 1009 83 10000 11.32 280 12:55 14.11.2022
1055 Rain 28 1009 83 10000 11.32 280 12:55 14.11.2022
1056 Clouds 28 1009 83 10000 10.29 270 11:47 14.11.2022
1057 Clouds 28 1010 83 10000 11.32 270 10:58 14.11.2022
1058 Clouds 28 1011 83 10000 10.8 260 08:30 14.11.2022
1059 Clouds 28 1012 83 10000 10.29 260 07:52 14.11.2022
1060 Clouds 26 1012 89 9000 6.69 240 02:32 14.11.2022
1061 Clouds 27 1010 83 10000 6.17 250 22:50 13.11.2022
1062 Clouds 27 1011 83 10000 5.14 260 21:41 13.11.2022
1063 Clouds 27 1012 89 10000 5.14 260 20:46 13.11.2022
1064 Clouds 28 1012 78 10000 3.09 310 18:54 13.11.2022
1065 Clouds 28 1012 83 10000 3.6 280 17:49 13.11.2022
1066 Clouds 28 1010 83 10000 6.17 290 15:48 13.11.2022
1067 Clouds 28 1009 83 10000 5.14 290 14:31 13.11.2022
1068 Clouds 29 1008 79 10000 4.12 300 12:56 13.11.2022
1069 Clouds 30 1008 74 10000 5.14 290 11:43 13.11.2022
1070 Clouds 31 1009 74 10000 5.66 290 10:38 13.11.2022
1071 Clouds 29 1012 79 10000 5.66 270 05:53 13.11.2022
1072 Clouds 27 1009 80 10000 6.76 273 23:55 12.11.2022
1073 Clouds 27 1010 89 10000 4.63 280 21:40 12.11.2022
1074 Clouds 28 1011 83 10000 4.63 280 20:54 12.11.2022
1075 Clouds 28 1012 83 6000 7.2 280 19:28 12.11.2022
1076 Clouds 28 1011 83 10000 7.2 270 16:58 12.11.2022
1077 Clouds 28 1010 83 10000 7.72 270 15:55 12.11.2022
1078 Clouds 28 1010 83 10000 8.75 270 14:25 12.11.2022
1079 Clouds 30 1010 74 10000 7.72 260 09:41 12.11.2022
1080 Clouds 30 1010 74 10000 7.72 260 09:41 12.11.2022
1081 Clouds 29 1012 79 10000 6.69 270 07:48 12.11.2022
1082 Clouds 26 1009 89 10000 4.63 250 23:50 11.11.2022
1083 Clouds 27 1011 83 10000 5.66 220 20:57 11.11.2022
1084 Clouds 27 1011 83 10000 5.66 220 20:34 11.11.2022
1085 Clouds 27 1012 78 10000 3.09 190 19:27 11.11.2022
1086 Clouds 27 1012 83 10000 4.12 190 18:33 11.11.2022
1087 Clouds 27 1012 89 10000 4.12 170 17:40 11.11.2022
1088 Clouds 27 1012 89 10000 4.12 170 17:40 11.11.2022
1089 Clouds 28 1011 72 10000 3.44 229 14:33 11.11.2022
1090 Clouds 28 1010 78 10000 5.14 210 13:56 11.11.2022
1091 Clouds 28 1009 78 10000 6.17 220 12:45 11.11.2022
1092 Rain 30 1010 74 10000 4.12 270 09:32 11.11.2022
1093 Clouds 31 1011 66 10000 3.6 200 08:26 11.11.2022
1094 Clouds 27 1009 83 10000 1.54 230 00:40 11.11.2022
1095 Clouds 27 1010 83 10000 2.57 250 22:53 10.11.2022
1096 Clouds 27 1010 83 10000 2.57 240 21:50 10.11.2022
1097 Clouds 27 1010 83 10000 2.57 240 21:27 10.11.2022
1098 Clouds 27 1011 83 10000 2.06 210 20:43 10.11.2022
1099 Clouds 27 1011 83 10000 2.06 210 20:19 10.11.2022
1100 Clouds 26 1012 89 10000 1.03 0 18:59 10.11.2022
1101 Rain 26 1012 89 10000 0.51 0 17:44 10.11.2022
1102 Clouds 27 1011 83 10000 1.54 210 16:25 10.11.2022
1103 Rain 27 1009 83 10000 2.57 140 13:37 10.11.2022
1104 Rain 27 1010 83 10000 5.14 120 10:26 10.11.2022
1105 Rain 28 1011 83 10000 2.57 310 08:21 10.11.2022
1106 Rain 27 1010 89 10000 4.63 280 01:23 10.11.2022
1107 Clouds 27 1010 89 10000 4.12 290 23:21 09.11.2022
1108 Clouds 27 1010 89 10000 4.12 280 21:57 09.11.2022
1109 Clouds 28 1011 83 10000 2.57 330 20:46 09.11.2022
1110 Clouds 28 1011 83 10000 2.57 330 20:28 09.11.2022
1111 Rain 27 1012 89 10000 2.57 250 19:26 09.11.2022
1112 Rain 26 1012 94 10000 1.03 0 17:50 09.11.2022
1113 Clouds 27 1010 83 7000 5.66 310 14:59 09.11.2022
1114 Rain 27 1010 83 7000 5.66 310 14:41 09.11.2022
1115 Rain 27 1010 83 7000 5.66 310 14:22 09.11.2022
1116 Clouds 30 1009 70 9000 6.17 310 12:57 09.11.2022
1117 Clouds 30 1010 74 10000 4.63 320 09:45 09.11.2022
1118 Clouds 30 1012 74 10000 4.63 310 07:47 09.11.2022
1119 Clouds 30 1013 74 10000 5.14 320 06:55 09.11.2022
1120 Clouds 26 1010 94 8000 5.14 330 22:50 08.11.2022
1121 Clouds 28 1011 83 10000 4.63 320 21:43 08.11.2022
1122 Clouds 28 1011 83 10000 4.63 320 21:21 08.11.2022
1123 Clouds 28 1012 83 10000 4.63 320 20:36 08.11.2022
1124 Clouds 28 1012 83 10000 4.63 320 19:35 08.11.2022
1125 Clouds 28 1012 83 10000 4.63 320 19:35 08.11.2022
1126 Clouds 28 1013 83 10000 5.14 310 17:38 08.11.2022
1127 Clouds 28 1012 83 10000 4.63 310 16:19 08.11.2022
1128 Clouds 29 1010 79 10000 4.63 310 14:52 08.11.2022
1129 Clouds 29 1010 79 10000 2.57 310 13:35 08.11.2022
1130 Clouds 30 1009 74 10000 4.12 310 11:55 08.11.2022
1131 Clouds 30 1012 79 10000 4.12 340 08:32 08.11.2022
1132 Clouds 29 1013 79 10000 3.6 340 06:53 08.11.2022
1133 Clouds 28 1010 78 10000 2.57 320 23:52 07.11.2022
1134 Clouds 28 1010 83 10000 2.57 320 22:24 07.11.2022
1135 Clouds 27 1011 73 10000 3.72 328 21:21 07.11.2022
1136 Clouds 28 1012 78 10000 2.57 310 20:18 07.11.2022
1137 Clouds 28 1013 83 10000 2.57 330 17:51 07.11.2022
1138 Clouds 28 1013 83 10000 3.09 330 16:27 07.11.2022
1139 Clouds 28 1011 83 10000 2.57 350 15:34 07.11.2022
1140 -273 0 0 0 0 0 14:31 07.11.2022
1141 Clouds 30 1010 70 10000 4.12 340 12:34 07.11.2022
1142 Clouds 30 1011 74 10000 4.63 340 10:48 07.11.2022
1143 Clouds 31 1012 74 10000 4.63 340 09:25 07.11.2022
1144 Clouds 30 1014 74 10000 3.09 320 07:31 07.11.2022
1145 Clouds 28 1013 83 10000 3.09 290 03:39 07.11.2022
1146 Clouds 28 1011 83 10000 4.63 300 01:19 07.11.2022
1147 Clouds 28 1011 83 10000 3.6 280 22:18 06.11.2022
1148 Clouds 28 1012 83 10000 4.12 300 21:19 06.11.2022
1149 Clouds 28 1013 83 10000 2.57 310 20:20 06.11.2022
1150 Clouds 28 1014 78 10000 3.6 310 19:33 06.11.2022
1151 Clouds 27 1014 83 10000 3.6 290 18:39 06.11.2022
1152 Clouds 27 1014 83 10000 3.6 290 18:19 06.11.2022
1153 Clouds 27 1014 83 10000 2.57 300 17:20 06.11.2022
1154 Clouds 27 1013 89 10000 4.63 270 16:40 06.11.2022
1155 Clouds 28 1012 83 10000 3.6 280 15:43 06.11.2022
1156 Clouds 29 1011 74 10000 4.63 300 12:48 06.11.2022
1157 Clouds 29 1010 79 10000 4.63 260 11:58 06.11.2022
1158 Rain 27 1012 83 10000 5.14 240 10:40 06.11.2022
1159 Rain 27 1014 83 10000 8.75 250 07:45 06.11.2022
1160 Clouds 27 1011 83 10000 2.57 270 00:50 06.11.2022
1161 Clouds 27 1012 83 10000 3.6 250 22:52 05.11.2022
1162 Clouds 27 1014 89 10000 3.6 250 19:21 05.11.2022
1163 Clouds 27 1013 89 10000 4.63 260 17:23 05.11.2022
1164 Clouds 27 1013 89 10000 5.66 260 15:45 05.11.2022
1165 Clouds 28 1012 83 10000 5.14 240 14:33 05.11.2022
1166 Clouds 28 1011 83 10000 5.66 240 12:38 05.11.2022
1167 Rain 29 1011 79 10000 4.12 230 10:23 05.11.2022
1168 Clouds 29 1014 79 10000 2.06 210 07:58 05.11.2022
1169 Clouds 29 1014 84 10000 2.06 230 06:57 05.11.2022
1170 Clouds 27 1011 89 10000 6.17 250 02:35 05.11.2022
1171 Rain 28 1010 83 10000 3.09 280 23:33 04.11.2022
1172 -273 0 0 0 0 0 22:01 04.11.2022
1173 Clouds 28 1012 83 10000 3.09 290 19:51 04.11.2022
1174 Clouds 28 1013 83 10000 4.12 270 17:45 04.11.2022
1175 Clouds 29 1011 79 10000 5.14 270 15:27 04.11.2022
1176 Clouds 29 1010 79 10000 4.12 260 13:19 04.11.2022
1177 Clouds 29 1010 79 10000 4.12 270 12:21 04.11.2022
1178 Clouds 31 1010 70 10000 5.14 250 09:31 04.11.2022
1179 Clouds 31 1011 70 10000 5.14 250 08:20 04.11.2022
1180 Clouds 30 1012 74 10000 4.12 270 06:51 04.11.2022
1181 Clouds 27 1009 89 10000 3.6 260 00:57 04.11.2022
1182 Clouds 28 1010 83 10000 4.12 260 21:52 03.11.2022
1183 Clouds 28 1011 83 10000 4.63 260 20:47 03.11.2022
1184 Clouds 28 1011 78 10000 4.63 270 19:42 03.11.2022
1185 Clouds 28 1012 83 10000 4.63 270 18:27 03.11.2022
1186 Clouds 28 1012 78 10000 4.63 280 17:37 03.11.2022
1187 Clouds 28 1010 78 10000 5.66 270 15:24 03.11.2022
1188 Clouds 29 1009 74 10000 3.6 270 13:33 03.11.2022
1189 Clouds 30 1009 70 10000 5.14 270 12:35 03.11.2022
1190 Clouds 30 1008 70 10000 6.17 290 11:41 03.11.2022
1191 Clouds 31 1011 70 10000 6.17 280 07:48 03.11.2022
1192 Clouds 27 1009 89 10000 6.17 270 22:29 02.11.2022
1193 Clouds 28 1010 89 10000 4.63 250 20:56 02.11.2022
1194 Clouds 28 1010 89 10000 4.63 250 20:25 02.11.2022
1195 Clouds 28 1012 83 10000 6.69 250 18:42 02.11.2022
1196 Clouds 28 1011 78 10000 6.69 250 16:28 02.11.2022
1197 Clouds 28 1010 83 10000 6.17 260 15:30 02.11.2022
1198 Clouds 30 1009 74 10000 5.66 270 12:58 02.11.2022
1199 Clouds 30 1009 74 10000 5.66 270 12:23 02.11.2022
1200 Clouds 31 1010 70 10000 5.66 280 09:51 02.11.2022
1201 Clouds 31 1011 70 10000 5.14 290 08:38 02.11.2022
1202 Clouds 28 1011 78 10000 6.17 290 02:40 02.11.2022
1203 Clouds 28 1010 78 10000 5.14 280 22:21 01.11.2022
1204 Clouds 28 1011 78 10000 5.14 280 21:54 01.11.2022
1205 Clouds 27 1012 75 10000 4.42 285 20:28 01.11.2022
1206 Clouds 28 1012 78 10000 6.17 290 19:59 01.11.2022
1207 Clouds 28 1012 78 10000 6.17 290 19:41 01.11.2022
1208 Clouds 28 1013 78 10000 5.66 290 18:23 01.11.2022
1209 Clouds 28 1012 78 10000 5.66 290 16:28 01.11.2022
1210 Clouds 29 1010 74 10000 5.66 280 14:39 01.11.2022
1211 Clouds 30 1009 74 10000 5.66 270 12:38 01.11.2022
1212 Clouds 31 1009 66 10000 5.66 270 11:40 01.11.2022
1213 Clouds 31 1009 66 10000 5.66 270 11:20 01.11.2022
1214 Clouds 31 1010 66 10000 5.14 270 09:22 01.11.2022
1215 Clouds 31 1012 66 10000 4.63 280 07:51 01.11.2022
1216 Clouds 31 1012 66 10000 4.63 280 07:28 01.11.2022
1217 Clouds 30 1012 70 10000 5.14 270 06:45 01.11.2022
1218 Clouds 30 1013 70 10000 5.66 280 05:19 01.11.2022
1219 Clouds 27 1010 83 10000 4.63 230 22:44 31.10.2022
1220 Clouds 28 1011 78 10000 5.66 250 21:33 31.10.2022
1221 Clouds 28 1012 78 10000 4.12 230 19:57 31.10.2022
1222 Clouds 28 1013 83 10000 5.66 240 18:36 31.10.2022
1223 Clouds 27 1012 83 10000 5.66 230 16:44 31.10.2022
1224 Clouds 28 1011 78 10000 4.63 260 15:34 31.10.2022
1225 Clouds 30 1009 70 10000 3.6 280 12:22 31.10.2022
1226 Clouds 31 1010 66 10000 2.57 300 09:36 31.10.2022
1227 Clouds 30 1011 74 10000 1.54 320 07:35 31.10.2022
1228 Clouds 27 1010 83 10000 3.09 10 02:46 31.10.2022
1229 Clouds 27 1009 83 10000 3.09 360 01:47 31.10.2022
1230 Clouds 27 1009 78 10000 2.57 360 22:20 30.10.2022
1231 Clouds 28 1010 74 10000 3.09 10 20:39 30.10.2022
1232 Clouds 28 1011 78 10000 3.09 360 19:36 30.10.2022
1233 Clouds 28 1011 78 10000 3.09 360 16:37 30.10.2022
1234 Clouds 29 1009 79 10000 3.09 360 14:34 30.10.2022
1235 Clouds 29 1008 79 10000 2.57 340 13:50 30.10.2022
1236 Clouds 30 1008 74 10000 2.06 340 12:21 30.10.2022
1237 Clouds 31 1009 70 10000 2.57 340 10:25 30.10.2022
1238 Clear 28 1009 70 10000 3.31 338 09:24 30.10.2022
1239 Clouds 30 1011 74 10000 2.57 350 07:55 30.10.2022
1240 Clouds 28 1009 83 10000 2.57 350 00:29 30.10.2022
1241 Clouds 28 1009 83 10000 2.57 340 23:47 29.10.2022
1242 Clouds 28 1010 83 10000 2.57 330 21:57 29.10.2022
1243 Clouds 29 1011 79 10000 2.06 350 19:38 29.10.2022
1244 Clouds 29 1010 74 10000 2.06 340 17:23 29.10.2022
1245 Clouds 29 1009 74 10000 2.57 360 15:39 29.10.2022
1246 Clouds 29 1008 79 10000 2.57 340 14:54 29.10.2022
1247 Clouds 29 1007 79 10000 2.57 310 13:45 29.10.2022
1248 Clouds 30 1007 74 10000 3.09 320 12:32 29.10.2022
1249 Clouds 29 1009 74 10000 1.54 300 09:32 29.10.2022
1250 Clouds 28 1011 83 10000 2.06 70 06:50 29.10.2022
1251 Clouds 28 1011 83 10000 2.06 100 05:54 29.10.2022
1252 Clouds 27 1008 83 10000 2.06 100 23:44 28.10.2022
1253 Clouds 27 1010 83 10000 2.57 110 21:37 28.10.2022
1254 Clouds 27 1010 83 10000 2.06 130 19:59 28.10.2022
1255 Clouds 27 1010 83 10000 2.06 130 18:33 28.10.2022
1256 Clouds 27 1009 83 10000 2.06 140 17:52 28.10.2022
1257 Clouds 28 1008 78 10000 2.57 130 15:18 28.10.2022
1258 Clouds 29 1007 79 10000 2.57 200 13:43 28.10.2022
1259 Clouds 30 1007 74 10000 3.6 200 11:55 28.10.2022
1260 Clouds 30 1007 74 10000 3.6 200 11:33 28.10.2022
1261 Clouds 30 1008 74 10000 4.12 200 10:45 28.10.2022
1262 Clouds 29 1009 79 10000 3.6 200 09:37 28.10.2022
1263 Clouds 28 1011 78 10000 4.63 200 07:51 28.10.2022
1264 Clouds 27 1009 89 10000 3.09 250 02:58 28.10.2022
1265 Clouds 28 1009 78 10000 2.06 250 23:47 27.10.2022
1266 Clouds 28 1010 83 10000 2.06 290 22:37 27.10.2022
1267 Clouds 28 1011 83 10000 2.57 270 21:21 27.10.2022
1268 Clouds 27 1012 89 10000 2.57 260 18:33 27.10.2022
1269 Clouds 27 1011 89 10000 4.12 260 17:26 27.10.2022
1270 Clouds 30 1009 74 10000 2.57 220 13:32 27.10.2022
1271 Clouds 31 1012 66 10000 3.09 250 08:58 27.10.2022
1272 Clouds 27 1010 89 10000 2.57 260 02:59 27.10.2022
1273 Clouds 28 1010 83 10000 3.09 260 23:54 26.10.2022
1274 Clouds 28 1011 83 10000 4.12 260 22:46 26.10.2022
1275 Clouds 28 1012 83 10000 4.12 260 21:49 26.10.2022
1276 Clouds 28 1012 83 10000 3.09 270 18:42 26.10.2022
1277 Clouds 28 1011 83 10000 3.6 270 16:31 26.10.2022
1278 Clouds 30 1010 79 10000 3.6 280 13:34 26.10.2022
1279 Clouds 31 1009 74 10000 4.12 270 12:36 26.10.2022
1280 Clouds 30 1012 79 10000 4.12 300 09:31 26.10.2022
1281 Clouds 31 1013 74 10000 3.6 270 08:53 26.10.2022
1282 Clouds 31 1013 74 10000 3.6 270 08:22 26.10.2022
1283 Clouds 27 1010 83 10000 7.2 270 00:45 26.10.2022
1284 Clouds 27 1010 83 10000 7.2 270 00:20 26.10.2022
1285 Clouds 28 1012 89 10000 2.57 270 21:47 25.10.2022
1286 Clouds 28 1012 83 10000 3.6 280 20:50 25.10.2022
1287 Clouds 28 1013 89 10000 3.6 270 18:59 25.10.2022
1288 Clouds 28 1011 83 10000 3.6 250 17:51 25.10.2022
1289 Clouds 28 1010 89 9000 5.66 280 13:57 25.10.2022
1290 Clouds 27 1010 79 10000 6.02 253 11:38 25.10.2022
1291 Clouds 31 1010 74 10000 6.17 250 10:37 25.10.2022
1292 Clouds 31 1012 74 10000 6.17 250 08:44 25.10.2022
1293 Clouds 31 1012 74 10000 6.17 250 08:18 25.10.2022
1294 Clouds 30 1012 79 10000 5.66 250 07:54 25.10.2022
1295 Clouds 30 1012 79 10000 6.17 250 06:55 25.10.2022
1296 Clouds 28 1010 83 10000 5.66 240 03:41 25.10.2022
1297 Clouds 27 1009 89 10000 6.17 240 00:34 25.10.2022
1298 Clouds 27 1010 89 10000 5.66 250 23:21 24.10.2022
1299 Clouds 27 1010 80 10000 5.22 240 22:18 24.10.2022
1300 Clouds 26 1012 94 7000 8.75 240 21:32 24.10.2022
1301 Clouds 28 1012 83 10000 5.66 250 20:41 24.10.2022
1302 Clouds 28 1013 83 10000 5.66 240 18:52 24.10.2022
1303 Clouds 27 1012 89 10000 4.63 240 17:22 24.10.2022
1304 Clouds 28 1011 89 10000 5.66 250 16:20 24.10.2022
1305 Clouds 29 1009 79 10000 6.69 250 14:21 24.10.2022
1306 Clouds 29 1009 79 10000 6.69 240 13:26 24.10.2022
1307 Clouds 30 1010 79 10000 7.2 250 10:40 24.10.2022
1308 Clouds 28 1013 83 10000 5.14 230 07:57 24.10.2022
1309 Rain 27 1011 89 10000 3.6 230 23:46 23.10.2022
1310 Clouds 28 1013 83 10000 5.66 250 20:42 23.10.2022
1311 Clouds 28 1013 83 10000 5.66 250 19:41 23.10.2022
1312 Clouds 28 1013 83 10000 5.66 250 17:30 23.10.2022
1313 Clouds 28 1012 83 10000 6.17 250 16:51 23.10.2022
1314 Clouds 28 1011 83 10000 7.2 250 15:19 23.10.2022
1315 Rain 27 1010 83 10000 6.69 240 12:50 23.10.2022
1316 Rain 28 1012 83 10000 7.2 220 10:58 23.10.2022
1317 Clouds 28 1014 83 10000 6.17 240 06:59 23.10.2022
1318 Clouds 27 1011 89 10000 4.63 220 23:35 22.10.2022
1319 Clouds 27 1012 94 10000 5.14 240 22:30 22.10.2022
1320 Clouds 27 1013 94 9000 4.63 250 21:41 22.10.2022
1321 Clouds 27 1014 89 9000 5.14 260 20:29 22.10.2022
1322 Clouds 27 1014 94 8000 4.63 270 19:31 22.10.2022
1323 Clouds 28 1014 83 10000 5.66 240 18:23 22.10.2022
1324 Clouds 28 1013 83 10000 5.14 230 17:27 22.10.2022
1325 Clouds 28 1011 83 10000 6.17 230 15:21 22.10.2022
1326 Clouds 28 1011 83 10000 5.66 240 14:34 22.10.2022
1327 Clouds 30 1010 74 10000 7.2 250 12:35 22.10.2022
1328 Clouds 29 1012 84 9000 4.63 260 09:49 22.10.2022
1329 Clouds 28 1013 83 9000 4.12 250 08:37 22.10.2022
1330 Clouds 28 1014 89 9000 4.12 240 06:27 22.10.2022
1331 Rain 26 1011 94 7000 5.14 280 01:25 22.10.2022
1332 Rain 26 1012 94 8000 7.2 260 22:53 21.10.2022
1333 Clouds 27 1013 94 10000 7.2 250 21:34 21.10.2022
1334 Clouds 28 1014 89 10000 4.12 240 20:39 21.10.2022
1335 Clouds 28 1014 83 10000 5.66 250 18:30 21.10.2022
1336 Rain 28 1010 83 10000 5.66 240 14:47 21.10.2022
1337 Rain 29 1010 79 10000 8.23 240 13:40 21.10.2022
1338 Clouds 30 1011 74 10000 6.17 250 11:54 21.10.2022
1339 Clouds 29 1012 79 10000 6.17 260 10:24 21.10.2022
1340 Clouds 30 1013 70 10000 6.69 270 08:51 21.10.2022
1341 Clouds 30 1013 70 10000 6.69 270 08:26 21.10.2022
1342 Clouds 28 1012 83 10000 6.17 260 04:50 21.10.2022
1343 Clouds 28 1011 83 10000 6.69 270 23:53 20.10.2022
1344 Clouds 28 1012 83 10000 6.69 270 21:21 20.10.2022
1345 Clouds 28 1013 83 10000 7.2 260 19:44 20.10.2022
1346 Clouds 28 1013 83 10000 7.2 260 18:50 20.10.2022
1347 Clouds 28 1013 83 10000 7.2 260 17:44 20.10.2022
1348 Clouds 28 1011 83 10000 7.72 250 15:37 20.10.2022
1349 Clouds 31 1010 74 10000 7.72 250 12:33 20.10.2022
1350 Clouds 31 1011 70 10000 8.23 250 11:36 20.10.2022
1351 Clouds 31 1011 70 10000 8.23 250 10:53 20.10.2022
1352 Clouds 31 1012 74 10000 7.2 250 09:34 20.10.2022
1353 Clouds 31 1014 74 10000 6.17 250 07:23 20.10.2022
1354 Clouds 28 1011 83 10000 6.17 260 02:23 20.10.2022
1355 Clouds 28 1011 83 10000 5.66 260 23:46 19.10.2022
1356 Clouds 29 1012 74 10000 5.66 260 22:30 19.10.2022
1357 Clouds 28 1013 83 10000 5.66 260 21:31 19.10.2022
1358 Clouds 28 1013 78 10000 5.66 260 20:23 19.10.2022
1359 Clouds 28 1013 83 10000 5.66 270 17:52 19.10.2022
1360 Clouds 29 1012 79 10000 5.66 270 16:28 19.10.2022
1361 Clouds 29 1011 79 10000 6.17 270 14:34 19.10.2022
1362 Clouds 30 1010 74 10000 5.14 270 12:40 19.10.2022
1363 Clouds 30 1013 74 10000 6.17 270 08:58 19.10.2022
1364 Clouds 29 1014 74 10000 6.69 270 07:24 19.10.2022
1365 Clouds 28 1011 78 10000 8.23 270 02:46 19.10.2022
1366 Clouds 28 1011 78 10000 7.72 260 23:47 18.10.2022
1367 Clouds 28 1012 78 10000 7.72 260 22:35 18.10.2022
1368 Clouds 27 1012 76 10000 7.83 255 21:31 18.10.2022
1369 Clouds 28 1013 78 10000 9.26 250 20:31 18.10.2022
1370 Clouds 28 1013 78 10000 8.23 250 19:20 18.10.2022
1371 Clouds 28 1012 78 10000 8.75 250 16:59 18.10.2022
1372 Clouds 29 1011 79 10000 7.2 250 15:43 18.10.2022
1373 Clouds 29 1010 79 10000 8.75 250 13:45 18.10.2022
1374 Clouds 30 1011 74 10000 8.23 250 11:48 18.10.2022
1375 Clouds 30 1011 74 10000 8.23 250 11:18 18.10.2022
1376 Clouds 30 1012 79 10000 7.72 250 09:26 18.10.2022
1377 Clouds 29 1014 79 10000 7.72 250 07:20 18.10.2022
1378 Clouds 27 1011 83 10000 6.17 220 23:40 17.10.2022
1379 Clouds 28 1013 78 10000 6.17 220 21:45 17.10.2022
1380 Clouds 28 1013 83 10000 5.66 220 20:50 17.10.2022
1381 Clouds 28 1013 83 10000 5.66 220 20:30 17.10.2022
1382 Clouds 28 1014 78 10000 6.69 230 19:46 17.10.2022
1383 Clouds 28 1013 83 10000 5.66 230 17:53 17.10.2022
1384 Clouds 27 1013 73 10000 6.94 222 16:22 17.10.2022
1385 Clouds 28 1012 83 10000 6.17 230 15:27 17.10.2022
1386 Clouds 29 1011 74 10000 7.2 230 13:35 17.10.2022
1387 Clouds 28 1011 89 10000 5.14 240 09:28 17.10.2022
1388 Clouds 24 1012 94 7000 11.32 230 03:21 17.10.2022
1389 Clouds 27 1011 83 10000 6.69 210 22:59 16.10.2022
1390 Clouds 26 1011 94 8000 6.17 220 21:46 16.10.2022
1391 Clouds 27 1012 89 10000 5.14 230 19:56 16.10.2022
1392 Clouds 27 1012 89 10000 5.14 230 19:38 16.10.2022
1393 Rain 26 1012 94 9000 5.14 220 17:47 16.10.2022
1394 Clouds 26 1011 94 9000 11.32 250 16:32 16.10.2022
1395 Rain 27 1010 89 10000 7.2 230 15:56 16.10.2022
1396 Clouds 27 1008 83 10000 6.17 230 12:49 16.10.2022
1397 Clouds 26 1009 94 10000 7.2 230 11:41 16.10.2022
1398 Clouds 27 1010 81 10000 9.23 226 10:26 16.10.2022
1399 Clouds 29 1011 79 10000 6.17 240 08:26 16.10.2022
1400 Clouds 26 1008 89 8000 10.29 250 23:47 15.10.2022
1401 Clouds 27 1009 89 9000 9.26 250 22:18 15.10.2022
1402 Rain 27 1009 89 10000 8.75 240 21:21 15.10.2022
1403 Clouds 27 1011 89 10000 8.23 240 19:55 15.10.2022
1404 Clouds 27 1010 79 10000 8.39 242 17:26 15.10.2022
1405 Clouds 27 1009 79 10000 8.71 247 15:45 15.10.2022
1406 Rain 27 1008 78 10000 8.06 260 13:42 15.10.2022
1407 Clouds 27 1007 79 10000 7.68 261 11:52 15.10.2022
1408 Clouds 29 1008 79 10000 7.72 270 10:26 15.10.2022
1409 Clouds 30 1010 79 10000 8.75 250 08:20 15.10.2022
1410 Clouds 28 1008 83 10000 8.75 270 00:41 15.10.2022
1411 Clouds 27 1008 89 10000 8.23 270 23:25 14.10.2022
1412 Clouds 27 1009 80 10000 10.45 268 22:22 14.10.2022
1413 Clouds 27 1009 80 10000 10.45 268 22:22 14.10.2022
1414 Clouds 26 1009 89 7000 10.8 270 21:27 14.10.2022
1415 Clouds 26 1009 89 7000 10.8 270 21:27 14.10.2022
1416 Clouds 28 1011 83 10000 7.72 270 19:25 14.10.2022
1417 Rain 27 1009 89 10000 8.23 260 16:23 14.10.2022
1418 Clouds 28 1008 83 10000 8.75 270 13:26 14.10.2022
1419 Clouds 29 1008 79 10000 10.29 260 11:39 14.10.2022
1420 Clouds 28 1011 83 10000 10.29 280 08:59 14.10.2022
1421 Clouds 28 1012 78 10000 10.8 270 06:54 14.10.2022
1422 Clouds 28 1012 78 10000 10.8 270 06:18 14.10.2022
1423 Clouds 26 1011 94 10000 9.77 270 05:42 14.10.2022
1424 Clouds 26 1010 89 7000 10.29 270 03:43 14.10.2022
1425 Clouds 26 1010 89 10000 12.86 250 23:49 13.10.2022
1426 Clouds 27 1011 83 10000 10.8 230 22:22 13.10.2022
1427 Clouds 26 1012 89 10000 8.23 220 21:25 13.10.2022
1428 Clouds 26 1012 89 10000 10.29 250 19:43 13.10.2022
1429 Clouds 26 1012 89 10000 10.29 250 19:18 13.10.2022
1430 Clouds 26 1012 89 10000 9.26 260 18:41 13.10.2022
1431 Clouds 26 1011 94 10000 7.72 270 16:31 13.10.2022
1432 Clouds 26 1010 89 9000 7.2 280 15:43 13.10.2022
1433 Rain 27 1010 83 10000 7.72 270 14:18 13.10.2022
1434 Clouds 27 1010 83 9000 9.26 270 12:45 13.10.2022
1435 Clouds 28 1010 78 7000 9.77 270 11:35 13.10.2022
1436 Clouds 27 1012 89 7000 8.23 280 09:37 13.10.2022
1437 Rain 25 1013 94 7000 7.72 270 07:39 13.10.2022
1438 Rain 27 1013 80 10000 8.61 253 06:29 13.10.2022
1439 Rain 27 1010 79 10000 9.49 275 01:47 13.10.2022
1440 Rain 27 1009 78 10000 9.27 276 00:45 13.10.2022
1441 Clouds 27 1010 76 10000 9.34 279 22:46 12.10.2022
1442 Clouds 27 1011 77 10000 9.24 280 21:55 12.10.2022
1443 Clouds 27 1011 77 10000 9.51 280 21:20 12.10.2022
1444 Clouds 27 1011 77 10000 9.51 280 20:46 12.10.2022
1445 Clouds 27 1012 89 10000 6.17 240 19:26 12.10.2022
1446 Clouds 28 1011 83 10000 8.75 270 18:19 12.10.2022
1447 Clouds 28 1011 83 10000 8.75 270 17:45 12.10.2022
1448 Clouds 28 1008 83 10000 9.77 290 14:52 12.10.2022
1449 Clouds 28 1008 83 9000 9.77 290 13:54 12.10.2022
1450 Clouds 28 1008 78 10000 9.26 280 12:34 12.10.2022
1451 Clouds 27 1011 89 8000 10.29 280 09:37 12.10.2022
1452 Rain 29 1012 79 10000 8.75 300 07:42 12.10.2022
1453 Clouds 29 1012 79 10000 9.26 270 06:45 12.10.2022
1454 Clouds 29 1012 79 10000 9.26 270 06:22 12.10.2022
1455 Clouds 27 1009 83 10000 6.17 280 00:55 12.10.2022
1456 Clouds 27 1011 83 10000 6.17 250 21:43 11.10.2022
1457 Clouds 27 1012 89 10000 5.66 270 20:36 11.10.2022
1458 Clouds 27 1013 78 10000 10.13 251 18:28 11.10.2022
1459 Clouds 25 1011 94 4000 9.77 260 16:37 11.10.2022
1460 Thunderstorm 25 1010 94 4000 11.83 240 14:34 11.10.2022
1461 Clouds 30 1009 74 10000 8.75 270 11:52 11.10.2022
1462 Clouds 30 1010 74 10000 7.2 270 10:28 11.10.2022
1463 Clouds 29 1011 79 10000 7.72 250 09:26 11.10.2022
1464 Clouds 28 1011 83 10000 4.63 270 05:36 11.10.2022
1465 Clouds 26 1010 83 9000 6.69 260 02:19 11.10.2022
1466 Clouds 26 1010 83 9000 5.14 270 00:27 11.10.2022
1467 Clouds 25 1012 94 8000 6.69 290 21:24 10.10.2022
1468 Clouds 25 1012 94 8000 6.69 170 19:46 10.10.2022
1469 Clouds 25 1012 94 8000 6.69 170 19:46 10.10.2022
1470 Clouds 25 1012 94 8000 6.69 170 19:46 10.10.2022
1471 Clouds 25 1012 94 6000 5.66 260 18:25 10.10.2022
1472 Clouds 26 1010 94 9000 2.57 10 16:51 10.10.2022
1473 Clouds 28 1010 83 10000 4.12 250 15:20 10.10.2022
1474 Clouds 28 1010 83 10000 3.6 290 12:43 10.10.2022
1475 Clouds 28 1010 83 10000 3.6 270 11:26 10.10.2022
1476 Clouds 31 1012 74 10000 5.14 280 08:45 10.10.2022
1477 Clouds 29 1012 79 10000 5.66 280 05:42 10.10.2022
1478 Clouds 28 1010 83 10000 7.72 280 03:48 10.10.2022
1479 Clouds 28 1009 83 10000 5.14 300 00:29 10.10.2022
1480 Clouds 28 1010 83 10000 5.14 300 22:27 09.10.2022
1481 Clouds 28 1011 83 10000 5.66 300 21:58 09.10.2022
1482 Clouds 28 1011 83 10000 5.66 300 21:21 09.10.2022
1483 Clouds 28 1012 83 10000 5.14 300 19:59 09.10.2022
1484 Clouds 28 1012 83 10000 5.14 300 19:34 09.10.2022
1485 Clouds 29 1012 79 10000 5.14 300 18:39 09.10.2022
1486 Clouds 29 1010 74 10000 5.14 300 16:56 09.10.2022
1487 Clouds 29 1010 74 10000 5.14 300 16:33 09.10.2022
1488 Clouds 29 1009 74 10000 4.63 290 15:37 09.10.2022
1489 Clouds 30 1009 70 10000 5.66 300 14:31 09.10.2022
1490 Clouds 30 1008 74 10000 6.17 300 12:59 09.10.2022
1491 Clouds 30 1008 74 10000 6.17 300 12:22 09.10.2022
1492 Clouds 30 1009 70 10000 6.17 300 10:48 09.10.2022
1493 Clouds 30 1011 70 10000 5.14 300 08:30 09.10.2022
1494 Clouds 30 1011 70 10000 5.14 300 08:30 09.10.2022
1495 Clouds 28 1010 74 10000 5.66 310 03:38 09.10.2022
1496 Clouds 28 1009 74 10000 5.66 300 02:50 09.10.2022
1497 Clouds 28 1009 74 10000 5.14 310 00:34 09.10.2022
1498 Clouds 28 1009 78 10000 6.17 300 22:56 08.10.2022
1499 Clouds 28 1010 78 10000 6.17 300 21:50 08.10.2022
1500 Clouds 28 1011 78 10000 5.66 300 20:27 08.10.2022
1501 Clouds 28 1011 78 10000 6.17 300 18:53 08.10.2022
1502 Clouds 29 1009 74 10000 6.17 310 16:38 08.10.2022
1503 Clouds 29 1008 74 10000 6.17 300 14:55 08.10.2022
1504 Clouds 29 1007 74 10000 6.17 310 13:30 08.10.2022
1505 Clouds 30 1009 70 10000 6.69 300 10:40 08.10.2022
1506 Clouds 30 1009 70 10000 6.69 300 10:21 08.10.2022
1507 Clouds 30 1010 74 10000 6.17 300 08:48 08.10.2022
1508 Clouds 28 1009 78 10000 5.66 310 03:59 08.10.2022
1509 Clouds 28 1009 78 10000 5.66 290 00:43 08.10.2022
1510 Clouds 28 1009 78 10000 6.17 290 23:27 07.10.2022
1511 Clouds 28 1009 78 10000 5.66 290 22:50 07.10.2022
1512 Rain 28 1010 78 10000 5.66 290 21:38 07.10.2022
1513 Clouds 28 1011 83 10000 5.66 290 19:44 07.10.2022
1514 Clouds 29 1010 74 10000 6.17 290 17:53 07.10.2022
1515 Clouds 29 1009 74 10000 7.72 290 16:42 07.10.2022
1516 Clouds 29 1009 74 10000 7.72 300 15:21 07.10.2022
1517 Clouds 29 1008 74 10000 7.2 290 13:26 07.10.2022
1518 Clouds 31 1009 66 10000 7.2 280 11:19 07.10.2022
1519 Clouds 31 1010 70 10000 7.2 280 09:25 07.10.2022
1520 Clouds 31 1011 66 10000 7.2 290 08:20 07.10.2022
1521 Clouds 28 1008 78 10000 6.17 310 02:29 07.10.2022
1522 Clouds 29 1009 79 10000 5.66 310 22:53 06.10.2022
1523 Clouds 29 1010 79 10000 5.66 310 21:52 06.10.2022
1524 Clouds 29 1010 79 10000 5.66 310 21:30 06.10.2022
1525 Clouds 28 1011 83 10000 6.69 300 20:38 06.10.2022
1526 Clouds 29 1010 79 10000 5.66 310 18:56 06.10.2022
1527 Clouds 29 1010 79 10000 5.66 310 18:31 06.10.2022
1528 Clouds 29 1008 79 10000 8.23 290 15:36 06.10.2022
1529 Clouds 29 1007 84 10000 7.72 290 12:49 06.10.2022
1530 Clouds 31 1010 70 10000 7.2 290 08:51 06.10.2022
1531 Clouds 29 1010 79 10000 6.69 280 04:37 06.10.2022
1532 Clouds 28 1008 83 10000 6.69 250 00:50 06.10.2022
1533 Clouds 28 1010 89 10000 6.69 290 21:53 05.10.2022
1534 Clouds 29 1011 79 10000 7.2 290 19:41 05.10.2022
1535 Clouds 29 1010 79 10000 7.2 290 17:37 05.10.2022
1536 Clouds 29 1010 79 10000 7.2 290 16:40 05.10.2022
1537 Clouds 29 1008 79 10000 7.2 290 14:57 05.10.2022
1538 Clouds 29 1008 79 10000 7.2 290 14:23 05.10.2022
1539 Clouds 30 1008 74 10000 7.2 300 12:43 05.10.2022
1540 Clouds 30 1009 74 10000 7.2 300 10:48 05.10.2022
1541 Clouds 30 1011 74 10000 7.2 300 08:19 05.10.2022
1542 Clouds 30 1012 70 10000 7.2 300 06:36 05.10.2022
1543 Clouds 29 1011 74 10000 7.2 300 05:31 05.10.2022
1544 Clouds 28 1009 78 10000 8.75 280 02:29 05.10.2022
1545 Clouds 28 1009 78 10000 8.23 290 00:28 05.10.2022
1546 Clouds 28 1010 78 10000 8.23 290 22:54 04.10.2022
1547 Clouds 28 1010 83 10000 7.72 290 21:22 04.10.2022
1548 Clouds 29 1012 79 10000 6.69 290 19:49 04.10.2022
1549 Clouds 28 1011 78 10000 7.2 300 18:51 04.10.2022
1550 Clouds 29 1010 79 10000 7.2 300 17:53 04.10.2022
1551 Clouds 29 1010 79 10000 6.69 290 16:51 04.10.2022
1552 Clouds 28 1008 78 7000 6.69 310 14:29 04.10.2022
1553 Rain 31 1010 74 10000 7.2 290 09:57 04.10.2022
1554 Clouds 29 1011 79 10000 5.14 300 07:50 04.10.2022
1555 Rain 28 1010 89 10000 5.14 300 04:43 04.10.2022
1556 Clouds 28 1010 83 10000 6.69 290 23:49 03.10.2022
1557 Clouds 28 1010 83 10000 6.69 290 22:28 03.10.2022
1558 Clouds 28 1011 83 10000 5.14 290 21:27 03.10.2022
1559 Clouds 28 1011 83 10000 5.66 280 20:35 03.10.2022
1560 Clouds 28 1012 83 10000 6.17 280 18:52 03.10.2022
1561 Clouds 29 1011 74 10000 6.69 290 17:32 03.10.2022
1562 Clouds 29 1009 79 10000 6.69 290 15:55 03.10.2022
1563 Clouds 29 1008 79 10000 7.2 290 14:26 03.10.2022
1564 Clouds 30 1008 74 10000 7.72 290 12:36 03.10.2022
1565 Clouds 30 1009 74 10000 9.77 280 10:59 03.10.2022
1566 Clouds 30 1010 70 10000 8.23 280 09:52 03.10.2022
1567 Clouds 30 1011 74 10000 8.75 280 08:45 03.10.2022
1568 Clouds 28 1010 83 10000 6.17 280 04:41 03.10.2022
1569 Clouds 27 1010 83 10000 6.17 270 23:27 02.10.2022
1570 Clouds 26 1012 83 8000 11.83 250 21:58 02.10.2022
1571 Clouds 28 1012 78 10000 10.29 280 19:50 02.10.2022
1572 Clouds 28 1011 83 10000 6.17 280 17:56 02.10.2022
1573 Clouds 28 1011 83 10000 8.23 280 16:53 02.10.2022
1574 Clouds 28 1011 83 10000 8.23 280 16:32 02.10.2022
1575 Clouds 28 1010 83 10000 6.69 280 15:34 02.10.2022
1576 Clouds 29 1009 79 10000 7.72 280 13:46 02.10.2022
1577 Clouds 30 1009 74 10000 7.2 290 12:42 02.10.2022
1578 Clouds 29 1009 79 10000 7.72 280 11:53 02.10.2022
1579 Clouds 29 1009 79 10000 7.72 280 11:33 02.10.2022
1580 Clouds 30 1010 70 10000 8.23 280 10:19 02.10.2022
1581 Clouds 30 1012 66 10000 8.23 270 08:30 02.10.2022
1582 Rain 26 1012 83 7000 9.26 290 05:21 02.10.2022
1583 Rain 25 1010 94 6000 7.2 270 01:20 02.10.2022
1584 Rain 24 1010 94 6000 7.72 270 00:38 02.10.2022
1585 Clouds 25 1010 94 6000 3.09 250 23:28 01.10.2022
1586 Clouds 28 1011 83 10000 5.66 270 21:48 01.10.2022
1587 Clouds 28 1012 83 10000 7.2 270 18:54 01.10.2022
1588 Clouds 28 1011 83 10000 7.2 280 17:46 01.10.2022
1589 Clouds 29 1010 74 10000 8.23 260 15:32 01.10.2022
1590 Rain 29 1009 74 10000 8.75 280 14:18 01.10.2022
1591 Rain 29 1009 74 10000 8.23 280 12:34 01.10.2022
1592 Clouds 28 1010 78 10000 7.72 280 11:22 01.10.2022
1593 Clouds 29 1010 79 10000 11.83 280 10:51 01.10.2022
1594 Clouds 29 1010 79 10000 11.83 280 10:29 01.10.2022
1595 Clouds 30 1011 79 10000 7.2 280 09:25 01.10.2022
1596 Clouds 29 1012 84 10000 8.75 280 08:27 01.10.2022
1597 Rain 28 1011 78 10000 8.84 282 03:47 01.10.2022
1598 Rain 28 1011 78 10000 8.87 278 03:18 01.10.2022
1599 Clouds 28 1010 78 10000 10.29 280 23:21 30.09.2022
1600 Clouds 28 1011 83 10000 10.29 290 22:18 30.09.2022
1601 Rain 27 1012 83 9000 8.23 280 20:57 30.09.2022
1602 Clouds 27 1012 83 9000 8.23 280 20:20 30.09.2022
1603 Clouds 27 1012 83 9000 8.75 280 18:45 30.09.2022
1604 Clouds 27 1011 83 9000 7.72 270 16:55 30.09.2022
1605 Clouds 27 1010 83 8000 9.26 280 14:49 30.09.2022
1606 Clouds 27 1010 78 8000 10.29 270 12:51 30.09.2022
1607 Clouds 27 1010 83 8000 9.77 280 11:56 30.09.2022
1608 Clouds 28 1011 74 8000 9.26 280 09:25 30.09.2022
1609 Clouds 29 1012 74 8000 9.26 270 07:58 30.09.2022
1610 Rain 25 1011 88 7000 9.26 260 03:35 30.09.2022
1611 Clouds 25 1010 94 7000 11.32 260 02:21 30.09.2022
1612 Rain 26 1012 89 6000 9.26 250 21:53 29.09.2022
1613 Rain 26 1012 89 6000 9.26 250 21:24 29.09.2022
1614 Rain 26 1012 89 7000 7.72 270 19:58 29.09.2022
1615 Rain 26 1011 89 7000 10.8 290 18:30 29.09.2022
1616 Clouds 26 1010 89 7000 5.66 230 16:29 29.09.2022
1617 Clouds 28 1011 74 10000 7.35 259 15:37 29.09.2022
1618 Rain 27 1008 89 7000 7.72 230 14:59 29.09.2022
1619 Clouds 27 1008 89 9000 10.29 240 12:45 29.09.2022
1620 Clouds 28 1009 77 10000 7.21 279 08:47 29.09.2022
1621 Clouds 28 1009 83 10000 3.6 280 04:46 29.09.2022
1622 Clouds 28 1008 83 10000 7.72 280 02:36 29.09.2022
1623 Clouds 27 1008 83 10000 7.2 270 23:29 28.09.2022
1624 Clouds 27 1009 83 10000 10.29 270 22:22 28.09.2022
1625 Clouds 28 1009 78 10000 7.2 270 21:25 28.09.2022
1626 Clouds 27 1011 83 9000 10.8 270 19:57 28.09.2022
1627 Clouds 26 1010 94 8000 11.32 280 16:52 28.09.2022
1628 Clouds 29 1008 79 10000 6.69 270 14:35 28.09.2022
1629 Clouds 29 1008 79 10000 6.69 270 12:31 28.09.2022
1630 Clouds 30 1009 74 9000 7.72 270 10:22 28.09.2022
1631 Clouds 30 1011 74 10000 7.2 280 07:53 28.09.2022
1632 Clouds 29 1011 79 10000 6.69 290 06:27 28.09.2022
1633 Clouds 27 1009 83 10000 7.2 290 01:47 28.09.2022
1634 Clouds 27 1009 83 10000 7.2 290 01:25 28.09.2022
1635 Clouds 27 1010 83 10000 7.72 270 22:49 27.09.2022
1636 Clouds 27 1011 83 10000 9.26 270 21:20 27.09.2022
1637 Clouds 27 1012 89 9000 10.29 270 20:36 27.09.2022
1638 Clouds 28 1012 83 10000 8.75 250 19:47 27.09.2022
1639 Clouds 27 1011 89 10000 9.26 250 17:54 27.09.2022
1640 Clouds 27 1011 89 10000 9.26 250 17:32 27.09.2022
1641 Clouds 29 1009 79 10000 4.12 300 15:24 27.09.2022
1642 Clouds 30 1008 70 10000 5.14 290 14:24 27.09.2022
1643 Clouds 30 1008 70 10000 4.63 310 12:39 27.09.2022
1644 Clouds 30 1008 70 10000 4.63 310 12:39 27.09.2022
1645 Clouds 31 1009 66 10000 3.6 300 10:49 27.09.2022
1646 Clouds 30 1011 74 10000 4.12 320 08:42 27.09.2022
1647 Clouds 29 1011 70 10000 4.12 320 05:49 27.09.2022
1648 Clouds 28 1009 83 10000 6.17 300 01:43 27.09.2022
1649 Clouds 28 1009 83 10000 5.14 300 00:32 27.09.2022
1650 Clouds 28 1010 78 10000 6.17 300 23:25 26.09.2022
1651 Clouds 28 1011 78 10000 6.69 300 22:19 26.09.2022
1652 Clouds 29 1012 74 10000 6.69 290 20:27 26.09.2022
1653 Clouds 29 1012 79 10000 6.17 290 19:24 26.09.2022
1654 Clouds 29 1012 79 10000 6.17 290 18:30 26.09.2022
1655 Clouds 28 1009 83 10000 6.69 300 15:49 26.09.2022
1656 Clouds 26 1009 94 10000 6.69 290 13:27 26.09.2022
1657 Clouds 30 1010 74 10000 8.75 270 11:29 26.09.2022
1658 Clouds 28 1010 83 10000 9.26 270 10:37 26.09.2022
1659 Rain 28 1010 83 10000 9.26 270 10:19 26.09.2022
1660 Clouds 28 1012 83 10000 7.2 270 09:53 26.09.2022
1661 Rain 28 1012 83 10000 7.2 270 09:22 26.09.2022
1662 Clouds 30 1012 74 10000 5.14 270 06:21 26.09.2022
1663 Rain 28 1009 78 9000 6.69 270 02:41 26.09.2022
1664 Rain 27 1010 89 7000 7.72 260 23:26 25.09.2022
1665 Clouds 27 1010 78 10000 5.16 278 21:48 25.09.2022
1666 Clouds 27 1011 78 10000 5.01 277 21:25 25.09.2022
1667 Clouds 29 1011 79 10000 7.72 260 20:38 25.09.2022
1668 Clouds 28 1011 83 10000 8.23 250 19:30 25.09.2022
1669 Clouds 29 1011 84 10000 6.17 250 18:34 25.09.2022
1670 Rain 29 1010 84 10000 7.2 250 17:41 25.09.2022
1671 Clouds 29 1009 79 10000 7.2 270 16:22 25.09.2022
1672 Clouds 29 1010 79 10000 9.26 270 15:35 25.09.2022
1673 Clouds 30 1008 74 10000 7.72 270 14:20 25.09.2022
1674 Clouds 31 1008 70 10000 7.72 290 11:53 25.09.2022
1675 Clouds 31 1009 70 10000 7.2 300 10:20 25.09.2022
1676 Clouds 30 1010 74 10000 5.66 330 07:47 25.09.2022
1677 Clouds 30 1010 74 10000 6.69 340 05:29 25.09.2022
1678 Clouds 28 1008 78 10000 6.17 340 00:36 25.09.2022
1679 Clouds 29 1010 79 10000 5.14 350 22:34 24.09.2022
1680 Clouds 29 1011 79 10000 6.69 330 20:45 24.09.2022
1681 Clouds 29 1011 79 10000 4.63 330 19:21 24.09.2022
1682 Clouds 29 1010 79 10000 5.66 340 16:59 24.09.2022
1683 Clouds 29 1010 79 10000 5.66 340 16:23 24.09.2022
1684 Clouds 29 1009 79 10000 4.63 330 15:19 24.09.2022
1685 Rain 30 1008 74 10000 3.09 340 13:23 24.09.2022
1686 Clouds 30 1008 70 10000 3.6 320 12:40 24.09.2022
1687 Clouds 32 1010 66 10000 4.63 330 10:19 24.09.2022
1688 Clouds 31 1011 70 10000 4.63 330 09:23 24.09.2022
1689 Clouds 30 1012 74 10000 3.6 330 08:43 24.09.2022
1690 Clouds 30 1013 70 10000 3.09 310 06:26 24.09.2022
1691 Clouds 29 1012 74 10000 2.57 310 04:34 24.09.2022
1692 Clouds 28 1010 83 10000 2.57 330 23:48 23.09.2022
1693 Clouds 28 1011 78 10000 2.57 330 22:21 23.09.2022
1694 Clouds 28 1012 78 10000 2.57 300 21:25 23.09.2022
1695 Clouds 28 1012 78 10000 2.57 290 20:54 23.09.2022
1696 Clouds 29 1012 74 10000 3.09 290 19:46 23.09.2022
1697 Clouds 28 1012 78 10000 3.6 290 18:24 23.09.2022
1698 Clouds 30 1009 74 10000 4.63 250 13:44 23.09.2022
1699 Clouds 30 1011 74 10000 6.17 270 10:26 23.09.2022
1700 Clouds 30 1013 74 10000 5.14 200 08:56 23.09.2022
1701 Clouds 28 1012 78 10000 3.09 270 04:42 23.09.2022
1702 Clouds 28 1011 78 10000 2.57 280 23:30 22.09.2022
1703 Clouds 28 1011 83 10000 3.09 270 22:28 22.09.2022
1704 Clouds 27 1011 89 10000 2.57 290 21:40 22.09.2022
1705 Clouds 27 1013 89 10000 2.06 290 20:44 22.09.2022
1706 Clouds 28 1013 78 10000 3.6 290 19:20 22.09.2022
1707 Clouds 28 1011 69 10000 3.5 260 16:23 22.09.2022
1708 Clouds 31 1010 70 10000 3.6 280 10:56 22.09.2022
1709 Clouds 31 1010 70 10000 3.6 280 10:20 22.09.2022
1710 Clouds 31 1012 70 10000 2.57 300 08:22 22.09.2022
1711 Clouds 30 1012 74 10000 2.06 300 06:21 22.09.2022
1712 Clouds 27 1010 89 10000 2.57 290 02:28 22.09.2022
1713 Clouds 28 1011 78 10000 4.63 290 22:29 21.09.2022
1714 Clouds 27 1012 89 10000 5.14 280 21:38 21.09.2022
1715 Clouds 26 1013 94 10000 3.6 350 19:30 21.09.2022
1716 Clouds 26 1013 94 10000 3.6 350 19:30 21.09.2022
1717 Clouds 29 1010 79 10000 2.57 240 17:46 21.09.2022
1718 Clouds 29 1010 79 10000 2.06 220 16:22 21.09.2022
1719 Clouds 31 1009 70 10000 3.09 280 13:57 21.09.2022
1720 Clouds 31 1009 70 10000 2.57 290 12:19 21.09.2022
1721 Clouds 31 1009 70 10000 2.57 290 11:28 21.09.2022
1722 Clouds 30 1011 74 10000 3.09 320 09:44 21.09.2022
1723 Clouds 30 1012 74 10000 3.09 290 08:53 21.09.2022
1724 Clouds 30 1012 74 10000 2.06 330 06:20 21.09.2022
1725 Clouds 26 1010 94 10000 1.03 0 02:44 21.09.2022
1726 Clouds 26 1010 94 10000 1.03 0 02:20 21.09.2022
1727 Clouds 27 1010 89 10000 2.06 360 00:26 21.09.2022
1728 Clouds 27 1010 78 10000 4.18 290 22:30 20.09.2022
1729 Clouds 28 1012 83 9000 5.66 360 20:45 20.09.2022
1730 Clouds 28 1012 83 10000 4.63 340 19:30 20.09.2022
1731 Clouds 28 1010 83 10000 4.12 360 16:18 20.09.2022
1732 Clouds 29 1009 79 10000 4.63 340 14:35 20.09.2022
1733 Clouds 29 1009 74 9000 5.14 290 12:58 20.09.2022
1734 Clouds 28 1012 74 10000 3.1 261 09:19 20.09.2022
1735 Clouds 31 1012 66 10000 4.12 220 08:26 20.09.2022
1736 Clouds 29 1011 74 10000 4.63 230 04:46 20.09.2022
1737 Clouds 28 1011 83 10000 3.6 230 03:38 20.09.2022
1738 Clouds 28 1010 83 10000 4.12 240 22:55 19.09.2022
1739 Clouds 29 1011 79 10000 3.6 250 21:40 19.09.2022
1740 Clouds 29 1012 79 10000 3.6 250 20:47 19.09.2022
1741 Clouds 29 1012 79 10000 3.6 250 20:24 19.09.2022
1742 Clouds 29 1011 79 10000 4.12 250 17:44 19.09.2022
1743 Clouds 30 1010 74 10000 5.14 250 14:54 19.09.2022
1744 Clouds 31 1009 70 10000 5.14 250 13:18 19.09.2022
1745 Clouds 32 1011 66 10000 4.63 250 10:48 19.09.2022
1746 Clouds 30 1012 74 10000 3.6 220 08:51 19.09.2022
1747 Clouds 31 1013 70 10000 4.12 220 06:42 19.09.2022
1748 Clouds 28 1010 78 10000 3.6 230 01:54 19.09.2022
1749 Clouds 28 1011 78 10000 3.09 230 23:22 18.09.2022
1750 Clouds 28 1012 78 10000 3.09 240 21:44 18.09.2022
1751 Clouds 28 1012 78 10000 2.57 250 20:25 18.09.2022
1752 Clouds 28 1012 78 10000 2.06 250 18:18 18.09.2022
1753 Clouds 28 1012 78 10000 2.57 260 17:37 18.09.2022
1754 Clouds 29 1011 74 10000 4.12 250 15:44 18.09.2022
1755 Clouds 31 1010 66 10000 3.6 270 13:50 18.09.2022
1756 Clouds 32 1009 66 10000 4.12 250 12:35 18.09.2022
1757 Clouds 31 1010 70 10000 4.12 260 11:24 18.09.2022
1758 Clouds 28 1012 78 10000 2.57 210 04:26 18.09.2022
1759 Clouds 28 1010 78 10000 3.09 220 01:25 18.09.2022
1760 Clouds 28 1010 78 10000 3.09 230 00:24 18.09.2022
1761 Clouds 28 1011 78 10000 2.57 240 21:44 17.09.2022
1762 Clouds 28 1012 78 10000 2.57 270 19:44 17.09.2022
1763 Clouds 28 1012 78 10000 2.06 280 18:59 17.09.2022
1764 Clear 27 1011 72 10000 3.24 273 16:22 17.09.2022
1765 Clear 28 1010 71 10000 4.04 272 13:56 17.09.2022
1766 Clear 28 1009 71 10000 3.96 271 11:55 17.09.2022
1767 Clear 27 1010 69 10000 2.72 268 09:37 17.09.2022
1768 Clear 28 1013 69 10000 2.45 248 06:25 17.09.2022
1769 Clouds 27 1011 71 10000 3.25 243 01:51 17.09.2022
1770 Clouds 27 1010 73 10000 3.14 263 22:54 16.09.2022
1771 Clouds 27 1011 71 10000 2.4 275 21:29 16.09.2022
1772 Clouds 27 1012 71 10000 2.77 290 19:51 16.09.2022
1773 Clouds 27 1012 71 10000 3.16 291 17:50 16.09.2022
1774 Clouds 29 1009 74 10000 1.54 360 15:34 16.09.2022
1775 Clouds 30 1008 70 10000 3.09 330 13:57 16.09.2022
1776 Clouds 31 1009 66 10000 2.57 320 11:43 16.09.2022
1777 Clouds 30 1012 70 10000 2.57 320 08:53 16.09.2022
1778 Clouds 27 1013 72 10000 1.38 287 07:19 16.09.2022
1779 Clouds 30 1013 70 10000 1.54 320 06:47 16.09.2022
1780 Clear 27 1012 73 10000 1.25 305 02:52 16.09.2022
1781 Clouds 27 1012 83 10000 1.54 340 22:56 15.09.2022
1782 Clear 27 1012 73 10000 1.55 345 21:19 15.09.2022
1783 Clouds 28 1013 78 10000 2.57 350 19:57 15.09.2022
1784 Clouds 28 1012 78 10000 1.54 350 18:30 15.09.2022
1785 Clouds 28 1012 78 10000 2.06 360 17:33 15.09.2022
1786 Clouds 28 1011 78 10000 2.57 330 16:43 15.09.2022
1787 Clouds 30 1010 70 10000 2.06 310 14:41 15.09.2022
1788 Clouds 31 1010 66 10000 2.57 300 12:29 15.09.2022
1789 Clouds 27 1012 74 10000 1.47 305 10:21 15.09.2022
1790 Clouds 30 1014 74 10000 3.09 210 07:51 15.09.2022
1791 Clouds 27 1013 89 10000 2.06 180 03:56 15.09.2022
1792 Clouds 27 1012 73 10000 1.81 169 01:20 15.09.2022
1793 Clouds 28 1013 83 10000 2.06 150 21:54 14.09.2022
1794 Clouds 28 1014 83 10000 2.06 120 19:55 14.09.2022
1795 Clouds 27 1014 74 10000 1.6 148 19:20 14.09.2022
1796 Clouds 28 1012 78 10000 2.06 130 16:57 14.09.2022
1797 Clouds 29 1011 79 10000 2.06 130 15:49 14.09.2022
1798 Clouds 30 1010 70 10000 1.54 270 14:33 14.09.2022
1799 Clouds 31 1011 70 10000 1.54 290 11:39 14.09.2022
1800 Clouds 31 1011 70 10000 2.57 270 09:48 14.09.2022
1801 Clouds 30 1013 74 10000 3.09 270 07:38 14.09.2022
1802 Clouds 30 1014 74 10000 2.57 200 06:46 14.09.2022
1803 Clouds 28 1013 83 10000 2.57 200 04:33 14.09.2022
1804 Clouds 27 1011 89 10000 2.06 150 01:47 14.09.2022
1805 Clouds 27 1011 89 10000 2.06 150 01:27 14.09.2022
1806 Clouds 27 1011 89 10000 2.06 150 00:48 14.09.2022
1807 Clouds 27 1011 89 10000 2.06 140 23:54 13.09.2022
1808 Clouds 27 1011 89 10000 2.06 140 23:36 13.09.2022
1809 Clouds 27 1010 75 10000 0.65 258 23:18 13.09.2022
1810 Clouds 27 1011 89 10000 0 0 21:50 13.09.2022
1811 Clouds 27 1012 79 10000 0.84 265 19:45 13.09.2022
1812 Clouds 28 1011 78 10000 1.54 270 17:44 13.09.2022
1813 Clouds 29 1009 79 10000 2.57 280 15:55 13.09.2022
1814 Clear 27 1010 75 10000 2.17 310 14:36 13.09.2022
1815 Clouds 31 1009 70 10000 3.6 290 12:40 13.09.2022
1816 Clouds 30 1011 74 10000 2.57 290 08:50 13.09.2022
1817 Clouds 28 1012 83 10000 3.6 270 05:45 13.09.2022
1818 Clouds 27 1010 79 10000 3.53 269 00:22 13.09.2022
1819 Clouds 28 1010 83 10000 3.6 280 22:50 12.09.2022
1820 Clouds 28 1010 83 10000 3.6 280 21:55 12.09.2022
1821 Clouds 28 1011 83 10000 2.57 280 20:25 12.09.2022
1822 Clouds 28 1010 83 10000 5.14 280 18:44 12.09.2022
1823 Clouds 28 1009 83 10000 4.63 270 16:38 12.09.2022
1824 Clouds 29 1007 79 10000 5.14 280 14:37 12.09.2022
1825 Clouds 31 1008 74 10000 5.66 270 11:30 12.09.2022
1826 Clouds 30 1009 74 10000 5.66 270 09:56 12.09.2022
1827 Clouds 28 1010 83 10000 6.69 260 04:51 12.09.2022
1828 Clouds 28 1010 83 10000 6.69 260 04:25 12.09.2022
1829 Clouds 28 1009 83 10000 5.66 270 23:39 11.09.2022
1830 Clouds 28 1009 83 10000 6.17 270 22:28 11.09.2022
1831 Clouds 28 1011 89 10000 6.17 270 20:50 11.09.2022
1832 Clouds 27 1011 84 10000 5.31 276 20:18 11.09.2022
1833 Clouds 28 1011 83 10000 6.17 270 19:25 11.09.2022
1834 Clouds 28 1010 83 10000 6.17 270 18:36 11.09.2022
1835 Clouds 28 1009 83 10000 6.17 270 16:47 11.09.2022
1836 Clouds 29 1008 79 10000 6.69 270 14:53 11.09.2022
1837 Clouds 30 1008 74 10000 7.2 270 12:50 11.09.2022
1838 Clouds 30 1011 70 10000 5.66 270 09:28 11.09.2022
1839 Clouds 27 1012 80 10000 5.18 278 07:21 11.09.2022
1840 Clouds 27 1009 81 10000 6.31 269 01:18 11.09.2022
1841 Clouds 27 1010 81 10000 6.33 265 23:20 10.09.2022
1842 Clouds 28 1011 83 10000 6.69 270 21:33 10.09.2022
1843 Clouds 28 1011 83 10000 6.17 280 19:49 10.09.2022
1844 Clouds 28 1011 83 10000 6.17 280 19:29 10.09.2022
1845 Clouds 28 1011 83 10000 6.17 280 18:58 10.09.2022
1846 Clouds 28 1010 83 10000 6.69 280 16:57 10.09.2022
1847 Clouds 29 1009 84 10000 6.17 270 14:45 10.09.2022
1848 Clouds 30 1009 79 10000 7.2 270 12:53 10.09.2022
1849 Clouds 30 1009 79 10000 5.66 290 11:35 10.09.2022
1850 Clouds 30 1010 74 10000 5.66 280 10:24 10.09.2022
1851 Clouds 30 1011 79 10000 5.66 280 08:37 10.09.2022
1852 Clouds 30 1012 79 10000 5.66 290 07:57 10.09.2022
1853 Clouds 28 1010 78 10000 5.14 280 02:47 10.09.2022
1854 Clouds 28 1010 83 10000 6.17 270 23:34 09.09.2022
1855 Clouds 27 1011 80 10000 5.96 267 22:20 09.09.2022
1856 Clouds 27 1011 82 10000 6.49 267 20:48 09.09.2022
1857 Clouds 28 1012 83 10000 5.14 290 19:25 09.09.2022
1858 Clouds 28 1011 83 10000 7.72 290 18:53 09.09.2022
1859 Clouds 28 1009 83 10000 6.69 290 16:33 09.09.2022
1860 Clouds 29 1008 79 10000 4.63 290 14:27 09.09.2022
1861 Clouds 29 1008 79 10000 5.14 280 12:56 09.09.2022
1862 Clouds 27 1010 81 10000 5.57 277 10:22 09.09.2022
1863 Clouds 29 1012 79 10000 5.14 280 06:46 09.09.2022
1864 Clouds 28 1010 78 10000 4.63 280 03:28 09.09.2022
1865 Clouds 27 1010 83 10000 6.23 278 22:19 08.09.2022
1866 Clouds 28 1011 83 10000 4.63 290 21:43 08.09.2022
1867 Clouds 28 1011 78 10000 6.17 290 20:38 08.09.2022
1868 Clouds 27 1012 85 10000 5.68 288 20:19 08.09.2022
1869 Clouds 28 1011 78 10000 7.2 290 18:34 08.09.2022
1870 Clouds 28 1010 83 10000 4.63 280 16:38 08.09.2022
1871 Clouds 29 1009 79 10000 5.14 280 14:41 08.09.2022
1872 Clouds 29 1009 79 10000 4.63 290 13:27 08.09.2022
1873 Clouds 30 1009 74 10000 6.17 290 12:33 08.09.2022
1874 Clouds 30 1009 74 10000 7.2 290 10:58 08.09.2022
1875 Clouds 30 1009 74 10000 7.2 290 10:58 08.09.2022
1876 Clouds 29 1011 79 10000 5.66 310 08:59 08.09.2022
1877 Clouds 30 1011 74 10000 5.14 290 06:43 08.09.2022
1878 Clouds 28 1009 78 10000 7.72 300 02:37 08.09.2022
1879 Clouds 27 1010 84 10000 4.95 292 02:19 08.09.2022
1880 Clouds 28 1009 83 10000 7.2 290 01:38 08.09.2022
1881 Clouds 28 1010 83 10000 5.66 300 22:55 07.09.2022
1882 Clouds 28 1011 83 10000 7.2 300 21:43 07.09.2022
1883 Clouds 26 1011 85 10000 6.38 300 21:18 07.09.2022
1884 Clouds 28 1012 83 10000 7.72 290 19:54 07.09.2022
1885 Clouds 26 1012 86 10000 5.5 300 18:39 07.09.2022
1886 Clouds 29 1009 79 10000 5.14 300 14:56 07.09.2022
1887 Rain 30 1010 74 10000 5.14 300 10:50 07.09.2022
1888 Clouds 30 1010 74 10000 5.14 300 10:24 07.09.2022
1889 Clouds 30 1012 74 10000 6.17 290 07:36 07.09.2022
1890 Clouds 28 1011 83 10000 7.2 280 04:39 07.09.2022
1891 Clouds 27 1009 83 10000 6.17 280 00:25 07.09.2022
1892 Clouds 28 1011 78 10000 6.17 270 21:45 06.09.2022
1893 Clouds 28 1011 78 10000 6.17 270 21:24 06.09.2022
1894 Rain 27 1012 89 10000 7.2 260 18:55 06.09.2022
1895 Clouds 27 1012 89 10000 7.2 260 18:27 06.09.2022
1896 Clouds 26 1012 86 10000 5.99 270 17:23 06.09.2022
1897 Clouds 27 1010 83 10000 6.69 280 16:40 06.09.2022
1898 Clouds 27 1009 89 10000 8.23 300 15:23 06.09.2022
1899 Clouds 28 1008 78 10000 7.2 280 13:46 06.09.2022
1900 Clouds 28 1008 78 10000 7.2 280 13:25 06.09.2022
1901 Clouds 28 1009 83 10000 8.23 270 12:37 06.09.2022
1902 Clouds 28 1010 83 10000 8.23 270 10:46 06.09.2022
1903 Clouds 30 1011 74 10000 7.2 250 08:53 06.09.2022
1904 Clouds 29 1012 79 10000 6.17 260 07:49 06.09.2022
1905 Clouds 27 1009 89 10000 7.72 270 03:41 06.09.2022
1906 Rain 28 1009 83 10000 10.8 280 23:42 05.09.2022
1907 Clouds 28 1009 83 10000 7.72 270 22:30 05.09.2022
1908 Clouds 28 1011 83 10000 8.23 270 20:52 05.09.2022
1909 Rain 27 1011 89 10000 7.72 280 19:50 05.09.2022
1910 Rain 27 1011 89 10000 7.2 270 18:49 05.09.2022
1911 Clouds 26 1012 87 10000 7.55 276 18:22 05.09.2022
1912 Rain 25 1010 100 9000 7.2 280 16:53 05.09.2022
1913 Rain 25 1010 94 7000 10.29 280 15:52 05.09.2022
1914 Rain 28 1009 78 10000 8.23 290 13:27 05.09.2022
1915 Rain 28 1009 78 10000 10.29 290 12:28 05.09.2022
1916 Rain 28 1010 83 8000 5.14 290 10:24 05.09.2022
1917 Clouds 28 1013 83 9000 8.75 300 07:36 05.09.2022
1918 Rain 26 1010 89 10000 10.29 300 02:49 05.09.2022
1919 Clouds 26 1011 89 7000 10.29 290 23:28 04.09.2022
1920 Rain 26 1011 89 7000 9.77 290 22:28 04.09.2022
1921 Rain 26 1012 89 7000 10.8 270 21:34 04.09.2022
1922 Rain 26 1013 89 7000 11.83 260 19:38 04.09.2022
1923 Rain 25 1013 88 10000 11.3 250 18:20 04.09.2022
1924 Rain 26 1012 87 9687 10.75 250 17:19 04.09.2022
1925 Rain 26 1011 85 10000 9.45 254 14:36 04.09.2022
1926 Rain 26 1010 85 10000 8.47 262 13:52 04.09.2022
1927 Rain 26 1010 84 10000 8.95 267 12:21 04.09.2022
1928 Rain 25 1010 94 6000 10.29 270 10:47 04.09.2022
1929 Rain 26 1012 84 10000 8.73 274 08:21 04.09.2022
1930 Clouds 27 1010 89 10000 7.2 270 05:36 04.09.2022
1931 Rain 27 1008 89 9000 9.26 300 01:31 04.09.2022
1932 Clouds 27 1009 83 10000 9.26 290 22:26 03.09.2022
1933 Clouds 26 1010 94 10000 11.32 280 21:24 03.09.2022
1934 Rain 26 1011 94 10000 8.75 280 20:26 03.09.2022
1935 Clouds 27 1010 94 10000 9.77 260 17:35 03.09.2022
1936 Clouds 26 1010 94 10000 8.75 260 16:33 03.09.2022
1937 Clouds 28 1008 78 10000 9.77 270 14:47 03.09.2022
1938 Clouds 28 1008 78 10000 9.77 270 14:26 03.09.2022
1939 Clouds 26 1009 83 10000 8.08 258 13:21 03.09.2022
1940 Clouds 26 1009 84 10000 8.43 256 11:18 03.09.2022
1941 Clouds 29 1011 84 10000 7.2 270 08:41 03.09.2022
1942 Clouds 27 1011 89 8000 8.23 270 06:59 03.09.2022
1943 Clouds 27 1010 83 10000 7.72 260 04:43 03.09.2022
1944 Clouds 28 1009 83 10000 9.77 270 00:46 03.09.2022
1945 Clouds 28 1009 83 10000 8.23 290 23:28 02.09.2022
1946 Clouds 28 1010 83 10000 8.75 280 21:33 02.09.2022
1947 Clouds 26 1011 94 10000 6.69 270 20:39 02.09.2022
1948 Clouds 28 1011 83 10000 7.72 270 19:35 02.09.2022
1949 Clouds 28 1011 83 10000 8.75 270 18:43 02.09.2022
1950 Clouds 28 1011 83 10000 8.75 270 18:24 02.09.2022
1951 Clouds 28 1011 83 10000 8.75 270 18:24 02.09.2022
1952 Clouds 28 1010 78 10000 8.75 270 16:51 02.09.2022
1953 Clouds 28 1009 78 10000 9.26 260 15:40 02.09.2022
1954 Clouds 30 1008 74 10000 8.23 270 12:56 02.09.2022
1955 Clouds 26 1010 84 10000 7.67 250 10:25 02.09.2022
1956 Clouds 26 1010 84 10000 7.67 250 10:25 02.09.2022
1957 Clouds 26 1010 84 10000 7.67 250 09:41 02.09.2022
1958 Clouds 26 1011 84 10000 7.3 248 08:35 02.09.2022
1959 Clouds 29 1011 79 10000 10.29 270 06:42 02.09.2022
1960 Clouds 28 1010 78 7000 8.75 270 04:58 02.09.2022
1961 Clouds 27 1009 83 10000 8.23 280 22:54 01.09.2022
1962 Clouds 27 1010 83 10000 10.29 260 21:45 01.09.2022
1963 Clouds 27 1010 83 10000 10.29 260 21:26 01.09.2022
1964 Clouds 26 1011 81 10000 8.58 266 20:48 01.09.2022
1965 Clouds 26 1012 82 10000 7.19 268 19:23 01.09.2022
1966 Clouds 27 1011 81 10000 7.15 266 17:48 01.09.2022
1967 Clouds 27 1009 83 9000 9.77 270 16:29 01.09.2022
1968 Clouds 28 1008 78 10000 9.26 260 14:34 01.09.2022
1969 Clouds 30 1008 74 10000 8.75 250 12:59 01.09.2022
1970 Clouds 29 1008 79 10000 8.75 250 11:55 01.09.2022
1971 Clouds 29 1008 79 10000 8.75 250 11:36 01.09.2022
1972 Clouds 30 1008 74 10000 9.26 250 10:45 01.09.2022
1973 Clouds 29 1010 79 10000 7.2 260 08:31 01.09.2022
1974 Clouds 26 1012 81 10000 7.51 270 06:26 01.09.2022
1975 Clouds 28 1008 83 10000 7.72 250 01:45 01.09.2022
1976 Rain 26 1009 79 10000 6.88 286 00:19 01.09.2022
1977 Clouds 27 1010 83 10000 6.69 280 21:45 31.08.2022
1978 Clouds 27 1010 83 10000 7.72 290 19:59 31.08.2022
1979 Clouds 26 1012 81 10000 8.27 300 18:19 31.08.2022
1980 Clouds 26 1008 89 10000 9.77 290 16:31 31.08.2022
1981 Rain 28 1007 78 10000 8.23 270 14:44 31.08.2022
1982 Rain 26 1008 83 9000 8.23 280 12:24 31.08.2022
1983 Rain 26 1008 78 9000 7.2 280 11:30 31.08.2022
1984 Rain 26 1010 80 10000 7.57 285 09:20 31.08.2022
1985 Rain 26 1011 84 10000 8.73 279 06:18 31.08.2022
1986 Rain 26 1009 94 6000 6.17 230 23:25 30.08.2022
1987 Rain 26 1010 94 7000 5.66 250 21:49 30.08.2022
1988 Rain 26 1011 83 7000 8.75 250 20:58 30.08.2022
1989 Rain 27 1011 89 7000 8.23 250 18:49 30.08.2022
1990 Clouds 27 1009 89 7000 7.72 270 15:29 30.08.2022
1991 Rain 26 1009 84 10000 7.88 283 13:25 30.08.2022
1992 Clouds 26 1009 85 10000 7.88 289 11:22 30.08.2022
1993 Clouds 26 1010 89 8000 9.77 250 10:57 30.08.2022
1994 Rain 28 1011 78 10000 8.75 270 07:50 30.08.2022
1995 Clouds 26 1009 85 10000 6.79 280 02:55 30.08.2022
1996 Clouds 28 1008 78 10000 10.29 280 23:28 29.08.2022
1997 Clouds 26 1008 86 10000 6.63 295 22:32 29.08.2022
1998 Clouds 28 1010 78 10000 8.75 290 21:27 29.08.2022
1999 Clouds 26 1011 86 10000 6.77 303 20:19 29.08.2022
2000 Clouds 28 1009 78 9000 10.29 300 17:58 29.08.2022
2001 Clouds 28 1009 78 9000 10.29 300 17:25 29.08.2022
2002 Clouds 27 1009 89 9000 11.32 300 16:43 29.08.2022
2003 Clouds 26 1010 87 10000 8.26 281 15:18 29.08.2022
2004 Rain 26 1009 94 7000 11.32 270 13:26 29.08.2022
2005 Rain 26 1010 89 7000 7.2 270 11:30 29.08.2022
2006 Rain 26 1010 85 8457 7.59 284 10:21 29.08.2022
2007 Rain 26 1012 89 7000 12.35 260 08:38 29.08.2022
2008 Clouds 26 1011 94 6000 7.2 270 05:52 29.08.2022
2009 Clouds 26 1009 89 8000 7.2 270 01:25 29.08.2022
2010 Clouds 25 1010 94 6000 9.26 270 22:50 28.08.2022
2011 Clouds 25 1010 94 8000 7.2 260 21:44 28.08.2022
2012 Clouds 26 1011 89 8000 10.8 280 20:56 28.08.2022
2013 Clouds 27 1010 89 10000 8.75 260 19:44 28.08.2022
2014 Clouds 25 1011 87 7211 7.06 269 18:21 28.08.2022
2015 Clouds 27 1009 83 10000 9.26 280 17:25 28.08.2022
2016 Clouds 26 1009 89 10000 10.29 280 16:32 28.08.2022
2017 Clouds 28 1008 78 10000 9.26 290 14:44 28.08.2022
2018 Clouds 27 1008 83 9000 7.72 260 12:48 28.08.2022
2019 Clouds 26 1008 83 10000 6.82 282 10:51 28.08.2022
2020 Rain 27 1010 83 10000 5.14 300 09:56 28.08.2022
2021 Rain 25 1011 94 7000 5.66 300 08:38 28.08.2022
2022 Clouds 26 1011 81 10000 6.85 278 07:45 28.08.2022
2023 Clouds 26 1010 83 10000 6.55 276 02:59 28.08.2022
2024 Clouds 27 1009 83 10000 6.17 270 00:31 28.08.2022
2025 Clouds 27 1010 89 10000 8.23 290 22:38 27.08.2022
2026 Clouds 26 1011 82 10000 6 267 21:40 27.08.2022
2027 Clouds 27 1012 83 10000 5.14 270 19:57 27.08.2022
2028 Clouds 27 1011 89 10000 6.69 260 18:27 27.08.2022
2029 Clouds 28 1009 78 10000 7.2 290 15:53 27.08.2022
2030 Clouds 28 1009 78 10000 7.2 290 15:25 27.08.2022
2031 Clouds 29 1008 79 10000 6.17 270 12:30 27.08.2022
2032 Clouds 29 1009 79 10000 7.72 280 11:47 27.08.2022
2033 Clouds 30 1010 74 10000 7.2 270 09:50 27.08.2022
2034 Clouds 26 1011 79 10000 5.81 266 08:23 27.08.2022
2035 Clouds 28 1009 78 10000 7.2 250 03:58 27.08.2022
2036 Clouds 27 1009 83 10000 5.14 250 23:58 26.08.2022
2037 Clouds 27 1010 83 10000 5.66 250 22:50 26.08.2022
2038 Clouds 26 1011 89 10000 5.14 250 21:39 26.08.2022
2039 Clouds 26 1012 83 10000 5.66 260 19:24 26.08.2022
2040 Rain 25 1012 94 10000 6.69 260 17:25 26.08.2022
2041 Rain 24 1011 88 7000 3.09 300 15:35 26.08.2022
2042 Rain 27 1010 77 10000 6.41 241 14:42 26.08.2022
2043 Rain 27 1009 75 10000 7.27 266 12:53 26.08.2022
2044 Rain 25 1010 88 9000 12.35 300 11:35 26.08.2022
2045 Rain 28 1010 78 10000 7.72 230 10:46 26.08.2022
2046 Rain 27 1011 83 10000 9.26 270 07:31 26.08.2022
2047 Clouds 27 1008 83 8000 7.2 300 02:31 26.08.2022
2048 Clouds 28 1008 78 10000 7.2 310 23:44 25.08.2022
2049 Clouds 28 1009 78 10000 6.69 320 21:37 25.08.2022
2050 Clouds 28 1010 83 10000 6.17 310 20:51 25.08.2022
2051 Clouds 26 1011 80 6495 6.82 317 19:20 25.08.2022
2052 Clouds 29 1009 74 10000 5.66 310 17:59 25.08.2022
2053 Clouds 29 1009 74 10000 5.66 310 17:31 25.08.2022
2054 Clouds 28 1009 78 10000 5.14 320 15:54 25.08.2022
2055 Clouds 28 1009 78 10000 5.14 320 15:27 25.08.2022
2056 Clouds 29 1008 74 10000 7.2 330 12:40 25.08.2022
2057 Clouds 29 1009 79 10000 8.23 340 10:48 25.08.2022
2058 Rain 26 1011 84 10000 8.41 308 09:20 25.08.2022
2059 Clouds 28 1011 78 10000 3.6 310 05:39 25.08.2022
2060 Clouds 27 1009 78 10000 4.63 320 01:42 25.08.2022
2061 Clouds 27 1010 83 10000 6.17 300 23:26 24.08.2022
2062 Clouds 27 1011 83 10000 5.14 310 22:41 24.08.2022
2063 Clouds 27 1012 78 10000 5.14 300 21:36 24.08.2022
2064 Clouds 26 1012 89 10000 5.14 320 20:55 24.08.2022
2065 Clouds 27 1013 75 10000 4.69 299 19:19 24.08.2022
2066 Clouds 29 1011 79 10000 4.12 250 16:47 24.08.2022
2067 Clouds 30 1010 74 10000 4.12 250 15:52 24.08.2022
2068 Clouds 31 1009 70 10000 5.14 250 13:46 24.08.2022
2069 Clouds 32 1010 66 10000 5.66 250 11:50 24.08.2022
2070 Clouds 32 1010 70 10000 5.66 260 10:34 24.08.2022
2071 Clouds 31 1012 70 10000 4.63 250 08:25 24.08.2022
2072 Clouds 28 1010 83 10000 4.63 240 02:57 24.08.2022
2073 Clouds 28 1010 83 10000 4.63 250 23:35 23.08.2022
2074 Clouds 28 1011 83 10000 4.63 260 22:33 23.08.2022
2075 Clouds 27 1011 89 10000 2.57 340 21:35 23.08.2022
2076 Clouds 27 1012 89 10000 1.03 0 20:31 23.08.2022
2077 Rain 27 1013 89 10000 5.66 10 18:50 23.08.2022
2078 Rain 29 1012 79 10000 6.17 280 17:50 23.08.2022
2079 Clouds 28 1012 78 10000 6.72 258 17:18 23.08.2022
2080 Clouds 29 1010 79 10000 8.23 260 15:39 23.08.2022
2081 Clouds 31 1009 70 10000 5.66 260 13:36 23.08.2022
2082 Clouds 31 1009 66 10000 8.23 240 11:34 23.08.2022
2083 Clouds 30 1009 74 10000 7.2 240 10:51 23.08.2022
2084 Clouds 30 1009 74 10000 7.2 240 10:32 23.08.2022
2085 Clouds 29 1011 79 10000 7.72 250 08:54 23.08.2022
2086 Clouds 29 1011 79 10000 7.72 250 08:21 23.08.2022
2087 Clouds 30 1011 74 10000 6.17 250 07:43 23.08.2022
2088 Clouds 29 1012 74 10000 5.66 240 06:34 23.08.2022
2089 Clouds 28 1011 78 10000 6.69 240 05:52 23.08.2022
2090 Clouds 28 1009 78 10000 5.66 280 01:42 23.08.2022
2091 Clouds 27 1009 83 10000 6.17 250 00:26 23.08.2022
2092 Clouds 27 1010 83 10000 5.14 240 23:29 22.08.2022
2093 Clouds 27 1010 79 10000 6.34 240 22:19 22.08.2022
2094 Clouds 27 1013 89 10000 6.17 240 19:51 22.08.2022
2095 Clouds 27 1013 89 10000 6.17 240 19:30 22.08.2022
2096 Clouds 28 1012 77 10000 5.6 238 17:59 22.08.2022
2097 Clouds 29 1010 74 10000 7.2 290 15:45 22.08.2022
2098 Clouds 28 1010 74 10000 6.69 270 14:46 22.08.2022
2099 Clouds 28 1009 75 10000 5.92 247 11:20 22.08.2022
2100 Clouds 31 1011 70 10000 4.63 250 08:54 22.08.2022
2101 Clouds 28 1010 83 10000 4.63 230 04:42 22.08.2022
2102 Clouds 28 1009 83 10000 6.69 240 00:54 22.08.2022
2103 Clouds 28 1009 83 10000 6.69 240 00:35 22.08.2022
2104 Clouds 28 1011 78 10000 6.17 230 22:56 21.08.2022
2105 Clouds 27 1011 89 10000 8.23 230 21:45 21.08.2022
2106 Clouds 28 1012 78 9000 7.2 220 20:58 21.08.2022
2107 Clouds 28 1012 83 10000 5.14 250 19:40 21.08.2022
2108 Clouds 29 1012 74 10000 5.14 230 18:28 21.08.2022
2109 Clouds 29 1010 79 10000 6.69 230 16:29 21.08.2022
2110 Clouds 29 1010 79 10000 5.14 230 15:46 21.08.2022
2111 Clouds 29 1009 79 10000 6.69 200 14:35 21.08.2022
2112 Clouds 32 1009 66 10000 4.63 210 13:43 21.08.2022
2113 Clouds 31 1009 66 10000 5.14 230 12:47 21.08.2022
2114 Clouds 31 1011 66 10000 4.12 240 09:56 21.08.2022
2115 Clouds 28 1011 72 10000 4.77 249 08:56 21.08.2022
2116 Clouds 28 1011 72 10000 4.77 249 08:38 21.08.2022
2117 Clouds 31 1012 70 10000 4.12 250 07:28 21.08.2022
2118 Clouds 28 1011 83 10000 2.57 250 04:28 21.08.2022
2119 Clouds 28 1009 83 10000 2.57 250 00:53 21.08.2022
2120 Clouds 28 1009 83 10000 2.57 250 22:59 20.08.2022
2121 Clouds 28 1010 78 10000 3.09 250 21:45 20.08.2022
2122 Clouds 28 1010 83 10000 3.09 260 20:48 20.08.2022
2123 Clouds 29 1011 79 10000 3.6 280 19:42 20.08.2022
2124 Clouds 29 1010 74 10000 3.09 280 18:44 20.08.2022
2125 Clouds 29 1010 74 10000 3.09 280 18:25 20.08.2022
2126 Clouds 27 1011 78 10000 3.83 282 17:19 20.08.2022
2127 Clouds 29 1009 79 10000 3.09 280 15:52 20.08.2022
2128 Clouds 31 1008 70 10000 3.6 280 13:39 20.08.2022
2129 Clouds 31 1009 70 10000 2.06 290 11:53 20.08.2022
2130 Clouds 31 1010 70 10000 2.57 270 10:39 20.08.2022
2131 Clouds 27 1011 78 10000 2.77 280 09:20 20.08.2022
2132 Clouds 30 1012 74 10000 2.06 290 06:40 20.08.2022
2133 Clouds 28 1010 78 10000 2.06 290 04:40 20.08.2022
2134 Clouds 27 1010 74 10000 2.06 240 00:53 20.08.2022
2135 Clouds 27 1010 74 10000 2.06 250 23:25 19.08.2022
2136 Clouds 28 1011 83 10000 4.12 250 22:36 19.08.2022
2137 Clouds 28 1012 83 10000 2.06 250 20:41 19.08.2022
2138 Clouds 28 1012 83 10000 2.06 250 18:53 19.08.2022
2139 Clouds 29 1009 79 10000 3.09 270 15:55 19.08.2022
2140 Clouds 29 1009 79 10000 3.09 270 15:55 19.08.2022
2141 Clouds 29 1009 79 10000 3.09 270 15:55 19.08.2022
2142 Clouds 30 1008 74 10000 2.57 270 13:41 19.08.2022
2143 Clouds 31 1009 70 10000 4.12 270 11:46 19.08.2022
2144 Clouds 31 1009 70 10000 2.57 270 10:31 19.08.2022
2145 Clouds 31 1011 66 10000 2.06 270 07:39 19.08.2022
2146 Clouds 28 1009 83 10000 2.57 230 03:39 19.08.2022
2147 Clouds 28 1009 78 10000 2.57 240 00:38 19.08.2022
2148 Clouds 28 1009 83 10000 2.57 250 23:56 18.08.2022
2149 Clouds 28 1010 78 10000 2.57 230 22:54 18.08.2022
2150 Clouds 27 1010 76 10000 2.08 221 22:22 18.08.2022
2151 Clouds 29 1011 79 10000 2.06 230 21:45 18.08.2022
2152 Clouds 29 1011 79 10000 2.57 210 20:45 18.08.2022
2153 Clouds 29 1011 74 10000 2.06 200 19:34 18.08.2022
2154 Clouds 29 1011 74 10000 2.57 240 18:34 18.08.2022
2155 Clouds 29 1011 74 10000 2.57 240 17:32 18.08.2022
2156 Clouds 30 1009 70 10000 3.09 200 15:50 18.08.2022
2157 Clouds 31 1009 66 10000 2.57 260 14:21 18.08.2022
2158 Clouds 31 1009 66 10000 2.57 260 13:42 18.08.2022
2159 Clouds 31 1009 66 10000 3.6 260 12:27 18.08.2022
2160 Clouds 27 1010 71 10000 1.87 239 11:18 18.08.2022
2161 Clouds 31 1010 66 10000 2.06 250 09:43 18.08.2022
2162 Clouds 31 1011 70 10000 2.06 220 07:27 18.08.2022
2163 Clouds 27 1012 71 10000 1.26 239 05:33 18.08.2022
2164 Clouds 28 1009 78 10000 1.54 190 00:45 18.08.2022
2165 Clouds 28 1010 78 10000 2.06 190 22:28 17.08.2022
2166 Clouds 28 1011 69 10000 2.07 191 20:21 17.08.2022
2167 Clouds 28 1011 78 10000 2.57 200 19:34 17.08.2022
2168 Clouds 28 1012 68 10000 2.1 180 18:32 17.08.2022
2169 Clouds 29 1010 70 10000 2.57 200 16:50 17.08.2022
2170 Clouds 29 1009 70 10000 2.57 190 15:41 17.08.2022
2171 Clouds 30 1009 66 10000 2.57 180 14:29 17.08.2022
2172 Clouds 28 1008 66 10000 2.55 194 12:21 17.08.2022
2173 Clouds 31 1009 66 10000 2.57 0 10:25 17.08.2022
2174 Clouds 31 1009 66 10000 2.57 0 10:25 17.08.2022
2175 Clouds 27 1011 71 10000 2.93 165 08:25 17.08.2022
2176 Clouds 27 1012 73 10000 2.76 159 05:22 17.08.2022
2177 Clouds 28 1010 78 10000 1.03 0 00:49 17.08.2022
2178 Clouds 28 1011 78 10000 2.06 190 22:59 16.08.2022
2179 Clouds 27 1011 72 10000 2.22 164 20:59 16.08.2022
2180 Clouds 28 1012 78 10000 2.06 160 19:56 16.08.2022
2181 Clouds 27 1012 73 10000 3.37 149 19:22 16.08.2022
2182 Clouds 29 1010 74 10000 2.57 160 17:55 16.08.2022
2183 Clouds 29 1010 74 10000 2.06 140 16:47 16.08.2022
2184 Clouds 27 1010 72 10000 2.98 153 15:45 16.08.2022
2185 Clouds 27 1010 72 10000 2.78 156 14:54 16.08.2022
2186 Clouds 27 1010 72 10000 2.78 156 14:36 16.08.2022
2187 Clouds 30 1007 74 10000 2.57 90 11:40 16.08.2022
2188 Clouds 27 1010 75 10000 2.82 73 10:20 16.08.2022
2189 Clouds 31 1010 70 10000 4.12 90 08:49 16.08.2022
2190 Clouds 27 1011 75 10000 2.73 68 08:21 16.08.2022
2191 Clouds 29 1010 79 10000 3.09 60 05:55 16.08.2022
2192 Clouds 27 1009 83 10000 0 0 23:37 15.08.2022
2193 Clouds 27 1010 77 10000 0.79 119 22:21 15.08.2022
2194 Clouds 28 1011 83 10000 1.54 50 21:48 15.08.2022
2195 Clouds 27 1011 77 10000 1.14 110 20:32 15.08.2022
2196 Clouds 27 1012 76 10000 0.99 59 19:22 15.08.2022
2197 Clouds 29 1010 74 10000 3.09 20 17:59 15.08.2022
2198 Clouds 29 1010 79 10000 2.06 20 16:25 15.08.2022
2199 Clouds 29 1009 79 10000 2.06 360 15:27 15.08.2022
2200 Clouds 31 1008 70 10000 2.57 350 13:45 15.08.2022
2201 Clouds 31 1009 70 10000 3.6 10 10:38 15.08.2022
2202 Clouds 30 1010 74 10000 5.14 70 09:40 15.08.2022
2203 Clouds 30 1010 74 10000 4.63 30 06:51 15.08.2022
2204 Clouds 28 1009 83 10000 4.12 30 04:34 15.08.2022
2205 Clouds 27 1009 79 10000 3.65 343 00:22 15.08.2022
2206 Clouds 28 1010 83 10000 3.09 330 22:29 14.08.2022
2207 Clouds 28 1011 83 10000 2.57 330 21:35 14.08.2022
2208 Clouds 28 1011 83 10000 3.09 330 19:46 14.08.2022
2209 Clouds 29 1010 79 10000 3.09 350 18:42 14.08.2022
2210 Clouds 29 1010 79 10000 2.06 350 17:48 14.08.2022
2211 Clouds 28 1009 83 10000 2.57 320 16:32 14.08.2022
2212 Clouds 19 1009 100 10000 2.06 310 15:48 14.08.2022
2213 Clouds 28 1009 77 10000 4.61 339 14:19 14.08.2022
2214 Clouds 31 1008 70 10000 3.09 340 13:49 14.08.2022
2215 Clouds 31 1009 74 10000 3.09 340 12:55 14.08.2022
2216 Clouds 31 1009 70 10000 3.09 350 11:31 14.08.2022
2217 Clouds 31 1009 74 10000 3.6 360 10:27 14.08.2022
2218 Clouds 31 1010 74 10000 2.57 340 08:45 14.08.2022
2219 Clouds 27 1012 77 10000 3.03 331 06:21 14.08.2022
2220 Clouds 28 1009 83 10000 2.57 10 02:46 14.08.2022
2221 Clouds 28 1009 83 10000 2.57 350 23:36 13.08.2022
2222 Clouds 28 1009 83 10000 2.57 350 22:28 13.08.2022
2223 Clouds 28 1010 89 10000 1.03 0 20:58 13.08.2022
2224 Clouds 27 1010 77 10000 2.53 281 20:19 13.08.2022
2225 Clouds 28 1011 76 10000 2.14 295 19:24 13.08.2022
2226 Clouds 28 1009 83 10000 1.54 350 17:36 13.08.2022
2227 Clouds 28 1009 73 10000 1.82 286 15:23 13.08.2022
2228 Clouds 28 1008 73 10000 2.36 262 14:24 13.08.2022
2229 Clouds 28 1007 83 10000 5.14 160 13:38 13.08.2022
2230 Clouds 30 1007 79 10000 4.63 120 11:51 13.08.2022
2231 Clouds 30 1009 74 10000 2.57 150 09:50 13.08.2022
2232 Clouds 30 1010 79 10000 1.54 210 07:51 13.08.2022
2233 Clouds 26 1008 94 10000 1.03 0 02:56 13.08.2022
2234 Clouds 27 1009 89 10000 1.54 180 23:46 12.08.2022
2235 Clouds 27 1010 89 10000 1.54 140 21:41 12.08.2022
2236 Clouds 27 1010 89 10000 0.51 0 20:40 12.08.2022
2237 Clouds 27 1010 89 10000 1.03 0 19:36 12.08.2022
2238 Clouds 27 1009 89 10000 1.03 0 18:38 12.08.2022
2239 Clouds 28 1008 83 10000 1.54 300 16:28 12.08.2022
2240 Clouds 29 1007 79 10000 1.54 260 15:40 12.08.2022
2241 Clouds 30 1007 79 10000 2.57 260 14:27 12.08.2022
2242 Clouds 30 1007 74 10000 2.57 220 12:51 12.08.2022
2243 Clouds 31 1009 74 10000 3.09 200 09:52 12.08.2022
2244 Clouds 29 1010 84 10000 2.57 210 07:47 12.08.2022
2245 Clouds 29 1011 79 10000 3.09 250 06:31 12.08.2022
2246 Clouds 26 1008 89 10000 2.57 270 02:22 12.08.2022
2247 Clouds 27 1009 78 10000 3.86 243 00:23 12.08.2022
2248 Clouds 26 1008 89 10000 3.09 190 23:35 11.08.2022
2249 Clouds 26 1008 89 10000 4.12 180 22:24 11.08.2022
2250 Rain 27 1009 83 10000 5.14 190 21:39 11.08.2022
2251 Clouds 27 1010 81 10000 4.37 256 20:32 11.08.2022
2252 Rain 27 1009 83 10000 7.72 230 19:57 11.08.2022
2253 Clouds 27 1009 83 10000 7.72 230 19:32 11.08.2022
2254 Clouds 24 1009 94 6000 9.26 250 17:47 11.08.2022
2255 Clouds 27 1010 82 10000 4.05 257 16:34 11.08.2022
2256 Rain 28 1009 79 10000 4.83 263 15:21 11.08.2022
2257 Rain 29 1007 84 10000 5.66 260 12:41 11.08.2022
2258 Clouds 29 1009 89 10000 5.66 250 09:54 11.08.2022
2259 Clouds 28 1010 78 10000 3.79 285 07:19 11.08.2022
2260 Clouds 27 1007 89 9000 3.6 300 03:46 11.08.2022
2261 Clouds 26 1007 94 10000 5.66 260 00:35 11.08.2022
2262 Clouds 27 1008 81 10000 4.17 299 22:22 10.08.2022
2263 Clouds 28 1008 89 10000 3.09 330 21:24 10.08.2022
2264 Clouds 28 1008 89 10000 4.12 320 20:47 10.08.2022
2265 Clouds 28 1008 89 10000 3.09 340 19:24 10.08.2022
2266 Clouds 28 1007 89 10000 3.6 290 17:55 10.08.2022
2267 Clouds 28 1007 83 10000 4.63 300 16:35 10.08.2022
2268 Clouds 30 1006 74 10000 2.57 310 13:35 10.08.2022
2269 Clouds 30 1006 79 10000 3.6 330 12:35 10.08.2022
2270 Clouds 31 1007 70 10000 2.57 310 09:24 10.08.2022
2271 Clouds 27 1008 77 10000 3.07 294 08:32 10.08.2022
2272 Clouds 30 1008 79 10000 3.6 300 06:23 10.08.2022
2273 Clouds 27 1007 89 10000 2.57 310 03:24 10.08.2022
2274 Clouds 27 1007 94 10000 3.09 260 23:34 09.08.2022
2275 Clouds 27 1008 89 9000 3.09 280 22:56 09.08.2022
2276 Clouds 28 1008 83 10000 4.12 280 21:35 09.08.2022
2277 Clouds 28 1009 83 10000 4.63 260 19:35 09.08.2022
2278 Clouds 28 1008 89 10000 4.12 260 18:42 09.08.2022
2279 Clouds 28 1008 89 10000 4.12 270 17:28 09.08.2022
2280 Clouds 28 1007 83 10000 5.14 280 16:40 09.08.2022
2281 Clouds 28 1007 83 10000 7.72 260 15:46 09.08.2022
2282 Clouds 30 1006 74 10000 3.09 280 12:51 09.08.2022
2283 Clouds 30 1008 79 10000 6.69 270 09:36 09.08.2022
2284 Clouds 30 1009 74 10000 5.66 280 08:39 09.08.2022
2285 Clouds 29 1009 74 10000 7.72 270 07:52 09.08.2022
2286 Clouds 28 1008 89 10000 5.14 250 03:34 09.08.2022
2287 Clouds 27 1008 94 10000 7.2 260 23:27 08.08.2022
2288 Clouds 26 1009 94 10000 5.14 260 22:54 08.08.2022
2289 Clouds 27 1009 81 10000 6.81 268 21:58 08.08.2022
2290 Clouds 28 1009 89 10000 5.66 260 20:59 08.08.2022
2291 Clouds 28 1009 83 10000 6.17 250 19:50 08.08.2022
2292 Clouds 28 1009 89 10000 6.17 250 18:38 08.08.2022
2293 Clouds 28 1008 89 10000 6.17 260 16:40 08.08.2022
2294 Clouds 29 1007 84 10000 6.69 270 15:39 08.08.2022
2295 Clouds 30 1006 79 10000 6.69 270 13:50 08.08.2022
2296 Clouds 30 1007 79 10000 6.69 270 11:58 08.08.2022
2297 Clouds 31 1008 74 10000 5.66 270 09:43 08.08.2022
2298 Clouds 28 1009 83 10000 5.14 250 05:43 08.08.2022
2299 Clouds 26 1008 83 10000 9.77 240 02:55 08.08.2022
2300 Clouds 28 1009 89 10000 5.14 260 22:32 07.08.2022
2301 Clouds 28 1009 89 10000 4.63 260 21:39 07.08.2022
2302 Clouds 28 1010 89 10000 4.63 260 20:26 07.08.2022
2303 Clouds 28 1010 89 10000 4.63 260 20:26 07.08.2022
2304 Clouds 28 1010 89 10000 4.63 260 19:55 07.08.2022
2305 Clouds 28 1010 89 10000 4.63 260 19:34 07.08.2022
2306 Clouds 28 1010 89 10000 5.14 260 18:23 07.08.2022
2307 Clouds 29 1008 84 10000 5.66 270 16:54 07.08.2022
2308 Clouds 29 1008 84 10000 5.66 270 16:35 07.08.2022
2309 Clouds 28 1009 79 10000 5.82 276 15:19 07.08.2022
2310 Clouds 30 1006 79 10000 6.69 270 13:24 07.08.2022
2311 Clouds 31 1007 74 10000 6.69 280 11:27 07.08.2022
2312 Clouds 31 1007 74 10000 6.69 280 10:34 07.08.2022
2313 Clouds 29 1009 84 10000 7.72 270 06:52 07.08.2022
2314 Clouds 27 1009 77 10000 7.69 271 03:19 07.08.2022
2315 Clouds 28 1008 89 10000 6.69 270 23:44 06.08.2022
2316 Clouds 27 1009 82 10000 5.98 280 22:20 06.08.2022
2317 Clouds 28 1010 83 10000 6.69 260 20:26 06.08.2022
2318 Rain 28 1009 89 10000 5.66 260 19:41 06.08.2022
2319 Rain 28 1009 89 10000 5.66 260 19:41 06.08.2022
2320 Clouds 28 1009 83 10000 6.17 270 18:28 06.08.2022
2321 Clouds 28 1008 83 10000 6.69 260 17:30 06.08.2022
2322 Clouds 28 1008 81 10000 7.74 278 14:35 06.08.2022
2323 Clouds 28 1006 83 10000 6.17 280 13:44 06.08.2022
2324 Clouds 29 1008 79 10000 8.23 280 11:33 06.08.2022
2325 Clouds 29 1009 79 10000 9.77 260 09:51 06.08.2022
2326 Clouds 28 1009 77 10000 7.23 285 08:32 06.08.2022
2327 Clouds 28 1008 89 10000 7.72 250 03:51 06.08.2022
2328 Clouds 28 1008 83 10000 7.72 250 23:36 05.08.2022
2329 Clouds 28 1009 83 10000 8.23 250 22:23 05.08.2022
2330 Clouds 28 1010 89 10000 7.2 250 19:33 05.08.2022
2331 Clouds 28 1010 83 10000 6.69 250 18:44 05.08.2022
2332 Clouds 28 1009 83 10000 7.72 250 17:54 05.08.2022
2333 Rain 28 1009 83 10000 7.2 250 16:49 05.08.2022
2334 Rain 28 1009 77 10000 7.42 258 15:22 05.08.2022
2335 Clouds 27 1008 76 10000 7.48 263 14:19 05.08.2022
2336 Clouds 29 1007 84 10000 7.2 250 13:23 05.08.2022
2337 Clouds 30 1007 74 10000 7.2 250 12:29 05.08.2022
2338 Clouds 30 1008 79 10000 7.72 250 10:51 05.08.2022
2339 Clouds 29 1010 79 10000 8.23 250 08:27 05.08.2022
2340 Clouds 28 1010 83 10000 9.26 240 06:56 05.08.2022
2341 Clouds 28 1009 83 10000 8.23 240 00:46 05.08.2022
2342 Rain 28 1009 78 10000 9.26 250 22:31 04.08.2022
2343 Clouds 28 1010 83 10000 8.23 250 21:27 04.08.2022
2344 Rain 28 1010 83 10000 8.75 250 20:43 04.08.2022
2345 Clouds 28 1010 83 10000 8.23 250 19:46 04.08.2022
2346 Clouds 28 1010 83 10000 8.75 250 18:37 04.08.2022
2347 Clouds 27 1011 80 10000 8.52 265 18:18 04.08.2022
2348 Clouds 29 1008 79 10000 11.83 250 14:38 04.08.2022
2349 Clouds 27 1008 80 10000 9.04 253 13:18 04.08.2022
2350 Clouds 27 1008 79 10000 9.43 251 11:20 04.08.2022
2351 Clouds 28 1010 83 10000 10.29 270 07:54 04.08.2022
2352 Clouds 28 1011 78 10000 9.37 255 06:40 04.08.2022
2353 Clouds 28 1007 83 10000 9.77 270 02:33 04.08.2022
2354 Rain 29 1008 79 10000 9.77 270 23:45 03.08.2022
2355 Clouds 29 1009 79 10000 9.77 270 22:59 03.08.2022
2356 Clouds 27 1010 77 10000 10.37 262 20:50 03.08.2022
2357 Clouds 29 1010 79 10000 10.8 260 19:54 03.08.2022
2358 Clouds 29 1009 79 10000 10.29 270 18:37 03.08.2022
2359 Clouds 29 1008 79 10000 9.77 270 16:26 03.08.2022
2360 Clouds 29 1007 79 10000 10.8 270 15:45 03.08.2022
2361 Clouds 30 1007 79 10000 10.8 270 12:44 03.08.2022
2362 Clouds 30 1008 79 10000 8.23 270 09:46 03.08.2022
2363 Clouds 30 1009 74 10000 9.77 270 06:29 03.08.2022
2364 Clouds 28 1008 83 10000 9.26 270 04:21 03.08.2022
2365 Clouds 28 1007 83 10000 8.23 270 02:25 03.08.2022
2366 Clouds 28 1007 83 10000 9.26 270 23:54 02.08.2022
2367 Clouds 29 1009 79 10000 8.75 270 21:59 02.08.2022
2368 Clouds 29 1009 79 10000 8.75 270 21:40 02.08.2022
2369 Clouds 28 1011 75 10000 9.44 274 20:20 02.08.2022
2370 Clouds 29 1008 79 10000 9.77 270 16:51 02.08.2022
2371 Clouds 30 1007 74 10000 9.26 270 13:54 02.08.2022
2372 Clouds 30 1008 74 10000 10.29 260 10:34 02.08.2022
2373 Clouds 29 1010 79 10000 9.77 270 08:29 02.08.2022
2374 Clouds 29 1010 79 10000 11.32 270 07:50 02.08.2022
2375 Clouds 28 1009 83 10000 9.26 270 04:56 02.08.2022
2376 Clouds 28 1008 78 10000 10.8 260 02:30 02.08.2022
2377 Clouds 28 1008 78 10000 10.29 280 23:25 01.08.2022
2378 Rain 27 1009 78 10000 10.29 290 21:42 01.08.2022
2379 Rain 28 1012 74 10000 9.72 285 20:19 01.08.2022
2380 Clouds 27 1012 75 10000 9.58 286 18:56 01.08.2022
2381 Clouds 29 1009 79 10000 9.77 270 16:58 01.08.2022
2382 Clouds 29 1009 79 10000 9.77 270 16:39 01.08.2022
2383 Clouds 29 1008 79 10000 8.75 280 15:45 01.08.2022
2384 Clouds 29 1007 84 10000 9.77 270 14:57 01.08.2022
2385 Clouds 29 1007 79 10000 7.72 280 13:32 01.08.2022
2386 Clouds 28 1009 73 10000 9.3 285 11:18 01.08.2022
2387 Rain 29 1009 79 10000 7.72 300 09:34 01.08.2022
2388 Rain 27 1010 89 10000 7.2 300 07:37 01.08.2022
2389 Rain 28 1009 74 10000 10.29 300 04:37 01.08.2022
2390 Rain 28 1007 83 9000 8.75 300 01:33 01.08.2022
2391 Rain 28 1009 83 9000 9.26 260 22:54 31.07.2022
2392 Rain 28 1009 83 9000 9.26 260 22:35 31.07.2022
2393 Clouds 26 1010 83 9000 10.29 270 20:44 31.07.2022
2394 Rain 27 1010 83 9000 11.83 280 18:42 31.07.2022
2395 Clouds 27 1009 83 8000 11.83 280 17:29 31.07.2022
2396 Rain 27 1007 83 9000 11.83 290 14:44 31.07.2022
2397 Rain 26 1007 94 8000 14.4 290 12:59 31.07.2022
2398 Rain 27 1008 89 8000 11.83 270 11:44 31.07.2022
2399 Rain 28 1009 78 10000 11.32 290 08:47 31.07.2022
2400 Clouds 27 1009 89 8000 11.32 290 05:38 31.07.2022
2401 Clouds 27 1007 83 10000 9.77 290 02:29 31.07.2022
2402 Clouds 27 1008 89 10000 8.75 290 22:50 30.07.2022
2403 Rain 27 1009 83 10000 7.72 270 21:52 30.07.2022
2404 Rain 27 1009 83 10000 7.72 270 21:33 30.07.2022
2405 Rain 27 1010 83 9000 7.72 300 20:38 30.07.2022
2406 Rain 26 1010 89 9000 7.2 320 19:57 30.07.2022
2407 Clouds 26 1010 83 10000 9.05 279 18:20 30.07.2022
2408 Clouds 26 1009 89 8000 8.75 300 16:40 30.07.2022
2409 Clouds 26 1008 89 8000 8.75 290 15:33 30.07.2022
2410 Clouds 27 1007 83 9000 9.77 280 14:26 30.07.2022
2411 Clouds 26 1008 94 7000 7.2 350 12:33 30.07.2022
2412 Clouds 26 1008 89 6000 9.77 300 11:55 30.07.2022
2413 Clouds 27 1009 80 7029 7.09 286 10:20 30.07.2022
2414 Clouds 27 1009 80 7029 7.09 286 09:32 30.07.2022
2415 Clouds 29 1010 79 10000 6.17 320 07:44 30.07.2022
2416 Clouds 27 1008 83 10000 8.75 310 02:34 30.07.2022
2417 Clouds 27 1008 81 10000 6.73 303 00:32 30.07.2022
2418 Rain 28 1009 79 10000 6.75 299 21:39 29.07.2022
2419 Rain 28 1010 79 10000 6.7 303 20:57 29.07.2022
2420 Rain 28 1010 80 10000 5.89 302 19:48 29.07.2022
2421 Clouds 28 1010 78 10000 6.52 310 17:39 29.07.2022
2422 Rain 28 1009 78 10000 6.91 314 14:51 29.07.2022
2423 Clouds 28 1008 78 10000 7.42 305 12:55 29.07.2022
2424 Clouds 28 1009 78 10000 7.09 306 09:35 29.07.2022
2425 Clouds 31 1009 74 10000 7.2 330 08:46 29.07.2022
2426 Clouds 30 1010 79 10000 7.2 330 07:30 29.07.2022
2427 Clouds 28 1008 83 10000 4.63 310 01:46 29.07.2022
2428 Clouds 28 1010 78 10000 5.14 320 21:54 28.07.2022
2429 Clouds 28 1011 83 10000 4.63 330 20:54 28.07.2022
2430 Clouds 28 1011 75 10000 6.78 315 20:21 28.07.2022
2431 Clouds 28 1011 75 10000 6.78 315 19:41 28.07.2022
2432 Clouds 29 1010 79 10000 6.69 330 18:26 28.07.2022
2433 Clouds 29 1010 74 10000 6.17 330 17:42 28.07.2022
2434 Clouds 29 1009 74 10000 5.66 320 16:41 28.07.2022
2435 Clouds 27 1008 74 9000 6.69 310 14:50 28.07.2022
2436 Clouds 30 1008 74 10000 7.72 330 12:41 28.07.2022
2437 Clouds 30 1010 74 10000 7.72 330 09:45 28.07.2022
2438 Clouds 28 1011 74 10000 6.84 320 06:21 28.07.2022
2439 Clouds 29 1010 74 10000 5.66 330 05:26 28.07.2022
2440 Clouds 28 1008 83 10000 5.14 320 00:44 28.07.2022
2441 Clouds 28 1009 83 10000 5.66 320 22:26 27.07.2022
2442 Rain 28 1011 78 10000 5.14 330 20:25 27.07.2022
2443 Clouds 28 1011 83 10000 4.63 330 19:34 27.07.2022
2444 Clouds 28 1010 75 10000 7.45 309 16:54 27.07.2022
2445 Clouds 29 1009 79 10000 5.66 290 15:51 27.07.2022
2446 Clouds 29 1008 79 10000 5.66 280 14:46 27.07.2022
2447 Clouds 28 1008 74 10000 6.96 309 14:27 27.07.2022
2448 Clouds 30 1008 74 10000 6.17 290 12:19 27.07.2022
2449 Clouds 27 1011 78 9000 9.77 270 07:53 27.07.2022
2450 Clouds 29 1010 79 10000 6.17 330 05:33 27.07.2022
2451 Clouds 28 1008 83 10000 6.17 340 00:28 27.07.2022
2452 Clouds 29 1009 79 10000 7.72 330 22:24 26.07.2022
2453 Clouds 29 1010 79 10000 7.72 330 21:19 26.07.2022
2454 Clouds 28 1011 83 10000 6.17 340 19:40 26.07.2022
2455 Clouds 28 1010 83 10000 5.66 340 18:41 26.07.2022
2456 Clouds 29 1010 79 10000 7.2 330 17:57 26.07.2022
2457 Clouds 29 1008 79 10000 6.69 330 15:47 26.07.2022
2458 Clouds 30 1008 74 10000 7.2 330 14:44 26.07.2022
2459 Clouds 31 1008 70 10000 8.23 340 12:50 26.07.2022
2460 Clouds 30 1009 66 10000 5.66 350 10:57 26.07.2022
2461 Clouds 30 1009 74 10000 5.14 350 08:31 26.07.2022
2462 Clouds 28 1010 83 10000 10.29 340 05:30 26.07.2022
2463 Clouds 27 1010 79 10000 6.29 339 00:24 26.07.2022
2464 Clouds 27 1010 79 10000 6.23 343 22:43 25.07.2022
2465 Clouds 28 1010 77 10000 6.38 346 22:21 25.07.2022
2466 Clouds 28 1010 77 10000 6.38 346 21:38 25.07.2022
2467 Clouds 28 1011 77 10000 5.9 340 20:39 25.07.2022
2468 Clouds 27 1012 80 5881 5.63 322 19:26 25.07.2022
2469 Clouds 27 1012 80 10000 5.51 321 18:18 25.07.2022
2470 Clouds 27 1012 80 10000 5.51 321 18:18 25.07.2022
2471 Clouds 29 1010 79 10000 4.12 340 17:26 25.07.2022
2472 Clouds 28 1009 75 10000 5.98 297 14:23 25.07.2022
2473 Clouds 31 1009 70 10000 6.17 330 11:39 25.07.2022
2474 Clouds 30 1011 74 10000 4.12 320 08:22 25.07.2022
2475 Clouds 28 1009 77 10000 6.04 315 02:21 25.07.2022
2476 Clouds 28 1008 78 10000 3.6 320 23:51 24.07.2022
2477 Clouds 28 1009 78 10000 3.09 310 22:54 24.07.2022
2478 Clouds 28 1010 76 10000 5.5 313 22:24 24.07.2022
2479 Clouds 28 1010 76 10000 5.13 315 21:18 24.07.2022
2480 Clouds 28 1010 78 10000 2.57 310 20:46 24.07.2022
2481 Clouds 28 1010 83 10000 3.6 300 19:38 24.07.2022
2482 Clouds 28 1010 78 10000 3.6 290 18:30 24.07.2022
2483 Clouds 28 1010 78 10000 3.6 290 18:30 24.07.2022
2484 Clouds 29 1008 74 10000 4.12 330 15:57 24.07.2022
2485 Clouds 29 1008 74 10000 4.12 330 15:33 24.07.2022
2486 Clouds 31 1008 70 10000 4.12 330 13:54 24.07.2022
2487 Clouds 31 1008 70 10000 4.12 320 12:52 24.07.2022
2488 Clouds 30 1008 74 10000 4.12 330 11:37 24.07.2022
2489 Clouds 31 1009 70 10000 4.12 300 10:48 24.07.2022
2490 Clouds 28 1010 76 10000 5.51 292 08:30 24.07.2022
2491 Clouds 30 1010 70 10000 3.6 300 07:46 24.07.2022
2492 Clouds 29 1009 79 10000 4.12 300 04:45 24.07.2022
2493 Clouds 29 1009 79 10000 3.6 310 23:51 23.07.2022
2494 Clouds 29 1011 79 10000 5.14 310 20:59 23.07.2022
2495 Clouds 28 1011 89 10000 4.12 300 19:44 23.07.2022
2496 Clouds 28 1010 83 10000 5.14 290 18:50 23.07.2022
2497 Clouds 28 1010 83 10000 6.69 270 17:28 23.07.2022
2498 Clouds 29 1009 79 10000 7.2 290 16:31 23.07.2022
2499 Clouds 28 1009 75 10000 7.64 298 15:22 23.07.2022
2500 Clouds 29 1008 79 10000 6.17 290 14:58 23.07.2022
2501 Clouds 29 1008 79 10000 6.17 290 14:26 23.07.2022
2502 Rain 30 1009 74 10000 6.69 290 12:44 23.07.2022
2503 Clouds 30 1010 79 10000 3.09 290 10:45 23.07.2022
2504 Rain 30 1011 79 10000 5.66 280 09:54 23.07.2022
2505 Clouds 29 1011 79 10000 7.72 270 08:31 23.07.2022
2506 Clouds 29 1010 74 10000 4.12 310 03:38 23.07.2022
2507 Clouds 29 1009 79 10000 7.2 310 00:41 23.07.2022
2508 Clouds 28 1010 75 10000 7.87 294 22:19 22.07.2022
2509 Clouds 29 1011 79 10000 6.17 290 20:39 22.07.2022
2510 Clouds 29 1011 79 10000 6.17 280 19:34 22.07.2022
2511 Clouds 28 1012 78 10000 7.34 285 18:28 22.07.2022
2512 Clouds 29 1010 79 10000 6.17 280 16:48 22.07.2022
2513 Rain 29 1009 79 10000 6.69 280 14:40 22.07.2022
2514 Clouds 30 1009 74 10000 7.2 290 10:59 22.07.2022
2515 Rain 29 1010 79 10000 7.2 300 09:25 22.07.2022
2516 Clouds 29 1010 79 10000 6.17 320 08:27 22.07.2022
2517 Clouds 28 1012 73 10000 9.6 305 05:18 22.07.2022
2518 Clouds 29 1009 74 10000 7.2 320 00:40 22.07.2022
2519 Rain 28 1010 89 10000 5.66 310 22:25 21.07.2022
2520 Clouds 29 1011 79 10000 6.17 300 20:48 21.07.2022
2521 Rain 28 1012 89 8000 5.66 290 19:23 21.07.2022
2522 Rain 28 1010 83 10000 7.2 270 17:39 21.07.2022
2523 Rain 28 1011 72 10000 6.48 299 17:19 21.07.2022
2524 Rain 28 1008 74 10000 9.77 280 14:55 21.07.2022
2525 Rain 28 1008 74 10000 9.77 280 14:29 21.07.2022
2526 Clouds 29 1008 84 10000 4.63 290 12:27 21.07.2022
2527 Clouds 27 1010 89 10000 7.2 250 10:48 21.07.2022
2528 Clouds 28 1010 69 9000 4.63 260 09:27 21.07.2022
2529 Clouds 26 1011 78 8000 2.57 350 08:49 21.07.2022
2530 Clouds 25 1011 88 6000 7.72 270 07:32 21.07.2022
2531 Clouds 28 1009 74 10000 5.66 320 03:55 21.07.2022
2532 Clouds 27 1008 78 9000 10.8 340 00:24 21.07.2022
2533 Clouds 27 1010 75 10000 6.45 279 22:21 20.07.2022
2534 Clouds 28 1010 83 10000 4.63 320 20:51 20.07.2022
2535 Clouds 28 1010 74 10000 5.66 310 19:50 20.07.2022
2536 Clouds 28 1010 74 10000 5.66 310 19:24 20.07.2022
2537 Rain 28 1010 83 10000 6.17 300 18:33 20.07.2022
2538 Clouds 27 1009 89 10000 5.66 330 17:55 20.07.2022
2539 Rain 27 1009 83 10000 7.72 330 16:42 20.07.2022
2540 Rain 27 1009 89 10000 4.63 310 15:31 20.07.2022
2541 Rain 27 1009 81 4578 4.51 302 14:18 20.07.2022
2542 Rain 28 1010 89 10000 3.09 330 11:33 20.07.2022
2543 Rain 29 1011 70 9000 6.17 320 08:46 20.07.2022
2544 Rain 28 1009 78 10000 7.72 300 03:47 20.07.2022
2545 Clouds 28 1009 83 10000 8.23 330 00:49 20.07.2022
2546 Clouds 27 1009 83 10000 7.72 330 23:41 19.07.2022
2547 Clouds 28 1010 75 10000 7.21 299 22:33 19.07.2022
2548 Clouds 29 1010 79 10000 4.63 310 21:31 19.07.2022
2549 Clouds 28 1011 73 10000 8.22 312 20:28 19.07.2022
2550 Rain 27 1011 83 10000 7.72 340 18:44 19.07.2022
2551 Rain 29 1010 79 9000 5.66 320 17:58 19.07.2022
2552 Rain 29 1009 84 10000 5.14 290 16:37 19.07.2022
2553 Rain 29 1008 79 10000 5.14 310 14:53 19.07.2022
2554 Clouds 31 1008 74 10000 6.17 300 11:43 19.07.2022
2555 Clouds 31 1009 74 10000 5.14 310 10:52 19.07.2022
2556 Clouds 31 1009 74 10000 6.17 290 09:25 19.07.2022
2557 Clouds 31 1010 74 10000 5.14 320 08:39 19.07.2022
2558 Clouds 28 1011 77 10000 7.96 311 07:19 19.07.2022
2559 Clouds 28 1009 83 10000 5.66 320 05:30 19.07.2022
2560 Clouds 28 1009 89 9000 4.63 310 04:55 19.07.2022
2561 Clouds 28 1008 83 10000 6.69 330 01:49 19.07.2022
2562 Clouds 28 1008 83 10000 7.72 330 23:49 18.07.2022
2563 Clouds 28 1009 74 10000 8.02 314 23:18 18.07.2022
2564 Clouds 28 1010 73 10000 7.53 312 22:18 18.07.2022
2565 Clouds 28 1009 78 10000 7.72 290 20:51 18.07.2022
2566 Clouds 27 1010 83 9000 8.75 300 19:33 18.07.2022
2567 Clouds 27 1010 89 8000 11.32 340 17:38 18.07.2022
2568 Clouds 29 1009 79 10000 6.17 320 15:55 18.07.2022
2569 Clouds 29 1008 74 10000 8.23 320 14:51 18.07.2022
2570 Clouds 29 1007 74 10000 7.72 310 13:24 18.07.2022
2571 Rain 30 1007 79 10000 5.66 320 11:31 18.07.2022
2572 Rain 29 1008 79 10000 2.06 350 09:28 18.07.2022
2573 Rain 28 1010 83 10000 5.66 290 07:43 18.07.2022
2574 Rain 26 1009 82 10000 9.06 285 02:21 18.07.2022
2575 Rain 27 1010 78 6000 12.86 290 22:51 17.07.2022
2576 Rain 27 1010 81 5261 10.1 303 22:23 17.07.2022
2577 Rain 27 1011 83 6000 11.32 280 21:24 17.07.2022
2578 Rain 27 1011 83 6000 10.8 300 20:44 17.07.2022
2579 Rain 28 1011 80 9340 7.42 280 19:49 17.07.2022
2580 Rain 28 1011 78 10000 7.69 272 19:19 17.07.2022
2581 Rain 25 1010 100 3000 13.89 300 17:39 17.07.2022
2582 Rain 25 1010 100 6000 7.2 280 16:51 17.07.2022
2583 Rain 25 1009 100 3000 7.2 270 16:27 17.07.2022
2584 Rain 28 1009 78 8464 6.79 274 15:27 17.07.2022
2585 Rain 28 1008 75 10000 3.96 302 13:34 17.07.2022
2586 Clouds 28 1008 72 10000 3.97 304 12:22 17.07.2022
2587 Rain 29 1009 84 10000 4.63 280 09:30 17.07.2022
2588 Clouds 27 1009 89 10000 3.09 310 06:37 17.07.2022
2589 Clouds 28 1008 70 10000 1.91 241 02:33 17.07.2022
2590 Clouds 28 1009 74 10000 1.08 243 23:22 16.07.2022
2591 Clouds 28 1009 74 10000 1.08 243 23:22 16.07.2022
2592 Clouds 29 1009 84 10000 3.6 140 21:57 16.07.2022
2593 Clouds 29 1009 84 10000 3.09 170 20:26 16.07.2022
2594 Clouds 29 1008 84 10000 3.6 160 18:41 16.07.2022
2595 Clouds 28 1009 74 10000 2.97 203 17:20 16.07.2022
2596 Clouds 30 1007 79 10000 4.12 160 15:23 16.07.2022
2597 Clouds 33 1006 66 10000 4.12 180 11:54 16.07.2022
2598 Clouds 32 1008 74 10000 4.12 160 09:37 16.07.2022
2599 Clouds 31 1009 74 10000 4.12 190 08:48 16.07.2022
2600 Clouds 31 1009 74 10000 4.12 190 08:29 16.07.2022
2601 Clouds 29 1008 84 10000 4.12 190 04:28 16.07.2022
2602 Clouds 28 1008 89 10000 4.63 170 03:31 16.07.2022
2603 Clouds 26 1008 94 10000 3.09 110 23:51 15.07.2022
2604 Clouds 29 1009 84 10000 3.09 170 22:43 15.07.2022
2605 Clouds 29 1009 84 10000 3.09 170 21:31 15.07.2022
2606 Clouds 29 1009 84 10000 3.09 180 20:32 15.07.2022
2607 Clouds 29 1009 84 10000 4.12 210 18:44 15.07.2022
2608 Clouds 29 1008 84 10000 4.63 200 17:49 15.07.2022
2609 Clouds 30 1007 79 10000 4.12 210 15:41 15.07.2022
2610 Clouds 29 1007 74 10000 4.83 224 13:22 15.07.2022
2611 Clouds 32 1007 70 10000 4.63 200 11:48 15.07.2022
2612 Clouds 32 1007 70 10000 5.66 210 10:42 15.07.2022
2613 Clouds 32 1009 70 10000 5.66 210 07:43 15.07.2022
2614 Clouds 29 1006 79 10000 7.2 200 02:39 15.07.2022
2615 Clouds 29 1007 79 10000 6.17 210 00:38 15.07.2022
2616 Clouds 29 1008 84 10000 6.69 200 22:54 14.07.2022
2617 Clouds 29 1008 84 10000 7.2 200 21:56 14.07.2022
2618 Clouds 29 1008 84 10000 7.2 200 21:32 14.07.2022
2619 Clouds 28 1009 76 10000 6.75 209 20:46 14.07.2022
2620 Clouds 29 1009 75 10000 6.85 206 20:28 14.07.2022
2621 Clouds 30 1009 79 10000 6.17 200 19:58 14.07.2022
2622 Clouds 30 1007 79 10000 6.17 200 16:23 14.07.2022
2623 Clouds 30 1006 79 10000 6.17 210 15:54 14.07.2022
2624 Clouds 31 1006 74 10000 6.17 210 14:44 14.07.2022
2625 Clouds 32 1006 70 10000 5.66 210 13:32 14.07.2022
2626 Clouds 28 1007 75 10000 6.79 238 12:19 14.07.2022
2627 Clouds 32 1007 70 10000 5.66 200 11:25 14.07.2022
2628 Clouds 32 1008 70 10000 5.66 200 10:39 14.07.2022
2629 Clouds 28 1010 74 10000 6.18 237 08:22 14.07.2022
2630 Clouds 28 1007 83 10000 7.2 210 03:36 14.07.2022
2631 Clouds 29 1008 79 10000 6.17 200 00:54 14.07.2022
2632 Clouds 29 1008 84 10000 4.63 210 23:38 13.07.2022
2633 Clouds 29 1009 84 10000 5.14 210 22:26 13.07.2022
2634 Clouds 29 1010 84 10000 4.63 210 21:32 13.07.2022
2635 Clouds 29 1010 84 10000 5.14 210 20:38 13.07.2022
2636 Clouds 29 1009 79 10000 5.14 210 17:59 13.07.2022
2637 Clouds 28 1010 74 10000 5.9 224 17:20 13.07.2022
2638 Clouds 30 1008 79 10000 5.14 220 15:59 13.07.2022
2639 Clouds 31 1007 70 10000 5.14 200 13:50 13.07.2022
2640 Clouds 28 1009 73 10000 6.17 233 11:24 13.07.2022
2641 Clouds 32 1009 70 10000 4.63 200 10:40 13.07.2022
2642 Clouds 32 1010 70 10000 4.63 200 09:28 13.07.2022
2643 Clouds 32 1010 70 10000 4.12 220 08:21 13.07.2022
2644 Clouds 29 1010 79 10000 4.63 200 04:36 13.07.2022
2645 Clouds 28 1010 83 10000 4.63 210 00:47 13.07.2022
2646 Clouds 29 1012 79 10000 3.6 210 22:46 12.07.2022
2647 Clouds 29 1012 79 10000 3.6 200 21:46 12.07.2022
2648 Clouds 29 1013 79 10000 4.63 210 20:53 12.07.2022
2649 Clouds 29 1013 84 10000 3.6 220 19:54 12.07.2022
2650 Clouds 29 1012 79 10000 4.63 210 18:43 12.07.2022
2651 Clouds 29 1011 79 10000 3.09 220 16:36 12.07.2022
2652 Clouds 31 1010 74 10000 2.57 230 14:32 12.07.2022
2653 Clouds 31 1010 70 10000 3.09 200 13:43 12.07.2022
2654 Clouds 31 1011 70 10000 3.09 200 11:54 12.07.2022
2655 Clouds 31 1011 70 10000 3.09 200 10:26 12.07.2022
2656 Clouds 31 1013 70 10000 1.54 280 08:57 12.07.2022
2657 Clouds 30 1013 74 10000 1.54 300 07:48 12.07.2022
2658 Clouds 29 1012 84 10000 1.03 0 05:45 12.07.2022
2659 Clouds 27 1012 89 10000 1.03 0 04:57 12.07.2022
2660 Clouds 27 1010 89 10000 1.54 290 01:31 12.07.2022
2661 Clouds 28 1012 83 10000 1.54 280 22:43 11.07.2022
2662 Clouds 28 1013 83 10000 0 0 21:34 11.07.2022
2663 Clouds 28 1013 83 10000 0 0 20:32 11.07.2022
2664 Clouds 28 1013 83 10000 0 0 19:27 11.07.2022
2665 Clouds 29 1013 79 10000 1.03 0 18:30 11.07.2022
2666 Clouds 29 1012 79 10000 1.03 0 16:31 11.07.2022
2667 Clouds 30 1011 79 10000 2.06 320 15:28 11.07.2022
2668 Clouds 28 1010 76 10000 3.97 282 13:19 11.07.2022
2669 Clouds 28 1011 76 10000 4.3 287 11:24 11.07.2022
2670 Clouds 28 1011 76 10000 4.3 287 11:24 11.07.2022
2671 Clouds 31 1012 74 10000 2.57 300 09:58 11.07.2022
2672 Rain 31 1012 74 10000 2.57 300 09:35 11.07.2022
2673 Clouds 30 1012 79 10000 2.57 320 08:32 11.07.2022
2674 Clouds 28 1010 78 10000 6 293 01:20 11.07.2022
2675 Rain 28 1011 83 10000 3.09 310 23:55 10.07.2022
2676 Clouds 28 1011 83 10000 3.09 320 22:47 10.07.2022
2677 Rain 28 1012 83 10000 4.12 300 20:56 10.07.2022
2678 Clouds 28 1012 83 10000 4.12 300 20:36 10.07.2022
2679 Clouds 28 1012 83 10000 4.63 300 19:38 10.07.2022
2680 Clouds 29 1012 79 10000 5.66 300 18:35 10.07.2022
2681 Clouds 28 1011 78 10000 4.63 300 17:35 10.07.2022
2682 Clouds 28 1010 78 10000 4.12 310 16:24 10.07.2022
2683 Clouds 28 1009 78 10000 5.14 290 14:47 10.07.2022
2684 Clouds 28 1008 78 10000 6.69 290 13:31 10.07.2022
2685 Clouds 28 1008 78 10000 5.66 290 12:26 10.07.2022
2686 Clouds 29 1009 79 10000 6.69 300 09:47 10.07.2022
2687 Clouds 28 1010 75 10000 5.87 285 08:44 10.07.2022
2688 Clouds 28 1011 76 10000 5.64 286 07:24 10.07.2022
2689 Clouds 28 1008 83 10000 5.14 290 23:58 09.07.2022
2690 Clouds 28 1009 89 10000 5.66 300 22:27 09.07.2022
2691 Clouds 28 1010 89 10000 6.17 290 21:56 09.07.2022
2692 Clouds 28 1011 76 10000 7.22 279 20:23 09.07.2022
2693 Clouds 28 1009 83 10000 4.63 280 18:32 09.07.2022
2694 Clouds 28 1009 83 10000 7.2 290 17:32 09.07.2022
2695 Clouds 29 1008 70 10000 7.2 310 16:40 09.07.2022
2696 Clouds 29 1008 79 10000 5.66 290 15:39 09.07.2022
2697 Clouds 27 1009 78 10000 6.52 278 14:27 09.07.2022
2698 Clouds 29 1007 79 10000 7.2 280 13:49 09.07.2022
2699 Clouds 30 1007 74 10000 4.63 290 12:43 09.07.2022
2700 Clouds 28 1009 76 10000 6.82 289 11:19 09.07.2022
2701 Clouds 28 1009 77 10000 6.59 285 10:22 09.07.2022
2702 Clouds 30 1010 79 10000 7.2 310 07:45 09.07.2022
2703 Clouds 29 1008 84 10000 5.66 320 04:53 09.07.2022
2704 Clouds 29 1008 79 10000 5.14 300 00:59 09.07.2022
2705 Clouds 29 1008 74 10000 6.69 330 22:53 08.07.2022
2706 Clouds 29 1009 74 10000 7.2 330 21:34 08.07.2022
2707 Clouds 29 1010 74 10000 5.66 330 20:40 08.07.2022
2708 Clouds 29 1010 79 10000 5.66 330 19:48 08.07.2022
2709 Clouds 28 1011 77 10000 6.45 283 18:23 08.07.2022
2710 Clouds 28 1009 83 10000 4.63 330 16:40 08.07.2022
2711 Clouds 28 1008 74 8000 7.2 320 14:51 08.07.2022
2712 Clouds 28 1008 74 8000 7.2 320 14:51 08.07.2022
2713 Rain 28 1008 74 9000 6.69 300 13:26 08.07.2022
2714 Clouds 28 1009 77 10000 7.14 302 11:28 08.07.2022
2715 Clouds 31 1009 74 10000 6.69 300 10:27 08.07.2022
2716 Clouds 31 1011 74 10000 7.2 300 08:26 08.07.2022
2717 Clouds 30 1011 84 10000 6.17 300 06:47 08.07.2022
2718 Clouds 28 1009 78 10000 6.7 310 01:23 08.07.2022
2719 Clouds 29 1009 84 10000 6.17 330 22:57 07.07.2022
2720 Clouds 29 1009 84 10000 6.17 330 22:27 07.07.2022
2721 Clouds 28 1011 78 10000 7.18 309 20:22 07.07.2022
2722 Clouds 28 1011 76 10000 5.52 307 18:20 07.07.2022
2723 Clouds 29 1009 89 10000 5.14 330 16:46 07.07.2022
2724 Clouds 30 1008 79 10000 4.63 330 14:32 07.07.2022
2725 Clouds 30 1008 79 10000 4.12 310 12:53 07.07.2022
2726 Rain 28 1009 78 10000 5.32 271 12:23 07.07.2022
2727 Clouds 31 1008 74 10000 4.63 330 11:44 07.07.2022
2728 Clouds 28 1009 78 10000 4.97 275 11:24 07.07.2022
2729 Clouds 31 1009 74 10000 4.63 330 10:40 07.07.2022
2730 Clouds 28 1010 78 10000 5.04 271 10:22 07.07.2022
2731 Clouds 29 1011 84 10000 5.14 340 06:40 07.07.2022
2732 Rain 28 1009 76 10000 5 281 00:32 07.07.2022
2733 Rain 28 1009 77 10000 4.83 281 23:36 06.07.2022
2734 Rain 28 1009 77 10000 4.78 285 23:18 06.07.2022
2735 Rain 28 1009 77 10000 4.78 285 22:52 06.07.2022
2736 Rain 28 1009 77 10000 4.78 285 22:34 06.07.2022
2737 Clouds 28 1010 80 10000 5.04 291 20:30 06.07.2022
2738 Thunderstorm 29 1009 84 10000 4.63 330 19:33 06.07.2022
2739 Clouds 28 1010 79 10000 5.45 285 17:22 06.07.2022
2740 Rain 29 1007 89 10000 3.09 10 15:58 06.07.2022
2741 Clouds 28 1007 79 7760 5.06 282 13:21 06.07.2022
2742 Clouds 30 1006 84 10000 4.12 330 12:28 06.07.2022
2743 Clouds 31 1006 79 10000 4.12 340 11:44 06.07.2022
2744 Clouds 30 1008 79 10000 4.12 310 09:50 06.07.2022
2745 Clouds 30 1008 84 10000 2.06 330 07:44 06.07.2022
2746 Rain 29 1009 75 10000 4.62 288 07:19 06.07.2022
2747 Clouds 29 1006 84 10000 7.2 290 00:38 06.07.2022
2748 Rain 29 1007 84 10000 6.17 300 22:43 05.07.2022
2749 Rain 29 1008 84 10000 6.69 300 20:57 05.07.2022
2750 Clouds 29 1008 84 10000 6.69 300 20:33 05.07.2022
2751 Clouds 29 1008 84 10000 6.69 300 19:39 05.07.2022
2752 Clouds 28 1007 83 10000 7.72 300 17:55 05.07.2022
2753 Clouds 28 1007 83 10000 7.72 300 17:25 05.07.2022
2754 Clouds 28 1006 83 10000 10.8 290 16:36 05.07.2022
2755 Clouds 28 1007 80 10000 6.77 300 14:55 05.07.2022
2756 Clouds 28 1005 94 10000 4.63 320 13:36 05.07.2022
2757 Clouds 28 1006 77 10000 6.38 293 12:26 05.07.2022
2758 Rain 31 1006 79 10000 4.63 320 10:46 05.07.2022
2759 Rain 31 1007 74 10000 5.14 300 09:58 05.07.2022
2760 Clouds 31 1007 74 10000 5.66 300 08:23 05.07.2022
2761 Clouds 29 1009 77 10000 5.68 285 07:20 05.07.2022
2762 Clouds 29 1007 79 10000 6.69 290 04:39 05.07.2022
2763 Clouds 29 1007 79 10000 5.14 300 01:33 05.07.2022
2764 Clouds 29 1007 79 10000 6.69 310 23:38 04.07.2022
2765 Clouds 29 1008 79 10000 7.2 310 22:57 04.07.2022
2766 Clouds 28 1009 78 10000 7.31 292 22:19 04.07.2022
2767 Clouds 28 1009 83 10000 5.66 310 20:57 04.07.2022
2768 Clouds 28 1009 83 10000 5.66 310 20:36 04.07.2022
2769 Clouds 28 1009 83 10000 6.17 310 19:57 04.07.2022
2770 Clouds 28 1009 83 10000 6.17 310 19:37 04.07.2022
2771 Clouds 28 1009 89 10000 8.23 300 18:54 04.07.2022
2772 Clouds 29 1007 79 10000 5.66 300 16:58 04.07.2022
2773 Clouds 29 1007 79 10000 6.17 300 15:40 04.07.2022
2774 Clouds 28 1007 80 10000 6.65 294 14:19 04.07.2022
2775 Clouds 31 1006 74 10000 6.17 300 12:55 04.07.2022
2776 Clouds 31 1006 74 10000 6.17 290 11:32 04.07.2022
2777 Clouds 31 1006 74 10000 4.63 290 10:32 04.07.2022
2778 Clouds 31 1007 74 10000 4.63 290 09:23 04.07.2022
2779 Clouds 30 1008 79 10000 5.14 290 06:28 04.07.2022
2780 Clouds 28 1007 89 10000 3.09 320 02:59 04.07.2022
2781 Clouds 28 1007 83 10000 4.63 300 23:52 03.07.2022
2782 Clouds 29 1008 79 10000 5.66 300 22:36 03.07.2022
2783 Clouds 28 1009 83 10000 4.12 310 20:46 03.07.2022
2784 Clouds 28 1009 83 10000 6.17 300 19:52 03.07.2022
2785 Clouds 28 1009 83 10000 6.17 300 19:24 03.07.2022
2786 Clouds 28 1008 83 10000 6.17 290 18:27 03.07.2022
2787 Clouds 28 1008 83 10000 6.69 300 17:38 03.07.2022
2788 Rain 27 1007 89 8000 6.69 290 15:28 03.07.2022
2789 Rain 26 1007 89 7000 8.75 270 14:53 03.07.2022
2790 Rain 26 1007 83 7000 7.2 300 13:50 03.07.2022
2791 Rain 25 1008 94 7000 7.2 280 12:47 03.07.2022
2792 Rain 27 1007 80 10000 9.8 299 12:18 03.07.2022
2793 Clouds 30 1008 79 10000 3.6 300 10:54 03.07.2022
2794 Clouds 30 1008 79 10000 3.6 300 10:35 03.07.2022
2795 Clouds 30 1008 74 10000 3.09 260 07:38 03.07.2022
2796 Clouds 29 1009 74 10000 4.12 280 06:52 03.07.2022
2797 Rain 28 1008 89 10000 4.12 280 00:39 03.07.2022
2798 Clouds 28 1006 89 10000 3.09 240 23:37 02.07.2022
2799 Clouds 27 1007 94 10000 2.57 230 22:31 02.07.2022
2800 Rain 26 1008 94 10000 2.06 50 20:28 02.07.2022
2801 Rain 28 1009 78 5711 5.78 258 19:49 02.07.2022
2802 Clouds 25 1009 94 4000 5.14 10 18:24 02.07.2022
2803 Clouds 29 1008 84 10000 5.14 250 17:38 02.07.2022
2804 Clouds 29 1007 79 10000 6.69 250 15:56 02.07.2022
2805 Clouds 29 1006 84 10000 6.17 250 13:40 02.07.2022
2806 Rain 29 1007 79 10000 6.17 250 11:49 02.07.2022
2807 Rain 28 1007 83 10000 6.17 240 10:51 02.07.2022
2808 Rain 27 1009 80 6989 10.1 264 10:21 02.07.2022
2809 Rain 27 1010 81 9385 10.43 262 08:37 02.07.2022
2810 Rain 27 1010 81 7671 10.24 263 08:19 02.07.2022
2811 Clouds 27 1008 79 10000 9.29 289 02:59 02.07.2022
2812 Clouds 29 1007 74 10000 8.23 290 00:28 02.07.2022
2813 Clouds 29 1007 79 10000 8.75 290 23:26 01.07.2022
2814 Clouds 29 1008 74 10000 10.29 290 22:33 01.07.2022
2815 Clouds 29 1008 74 9000 11.83 300 21:38 01.07.2022
2816 Clouds 28 1008 78 9000 10.8 300 20:58 01.07.2022
2817 Clouds 28 1008 78 9000 10.8 300 20:32 01.07.2022
2818 Clouds 29 1010 76 10000 9.06 293 19:36 01.07.2022
2819 Clouds 27 1008 83 10000 15.95 300 16:42 01.07.2022
2820 Clouds 30 1007 74 10000 6.17 300 14:32 01.07.2022
2821 Clouds 30 1007 79 10000 8.23 290 13:51 01.07.2022
2822 Clouds 28 1008 75 10000 7.25 305 11:22 01.07.2022
2823 Rain 30 1008 74 10000 6.17 310 10:19 01.07.2022
2824 Clouds 30 1009 79 10000 3.6 310 07:32 01.07.2022
2825 Clouds 27 1007 83 10000 2.57 310 02:43 01.07.2022
2826 Clouds 28 1007 76 10000 5.17 289 00:21 01.07.2022
2827 Clouds 29 1008 84 10000 4.12 290 22:52 30.06.2022
2828 Clouds 29 1008 84 10000 4.12 290 22:32 30.06.2022
2829 Clouds 29 1008 84 10000 4.12 290 22:32 30.06.2022
2830 Clouds 29 1008 84 10000 3.09 290 21:54 30.06.2022
2831 Clouds 29 1009 84 10000 2.06 300 20:53 30.06.2022
2832 Clouds 28 1009 75 10000 5.84 295 20:21 30.06.2022
2833 Clouds 29 1008 84 10000 2.06 320 19:48 30.06.2022
2834 Clouds 29 1009 73 10000 4.31 296 19:18 30.06.2022
2835 Clouds 29 1008 84 10000 2.57 300 18:34 30.06.2022
2836 Clouds 29 1007 84 10000 1.54 340 17:37 30.06.2022
2837 Clouds 29 1007 84 10000 1.54 320 16:22 30.06.2022
2838 Clouds 30 1007 74 10000 2.57 340 14:20 30.06.2022
2839 Clouds 30 1007 74 10000 3.09 340 13:29 30.06.2022
2840 Rain 31 1007 70 10000 2.57 340 12:34 30.06.2022
2841 Rain 30 1008 74 10000 2.06 290 11:23 30.06.2022
2842 Rain 30 1008 74 10000 2.06 10 09:53 30.06.2022
2843 Rain 30 1008 74 10000 2.06 10 09:29 30.06.2022
2844 Rain 30 1009 74 10000 3.09 320 07:41 30.06.2022
2845 Rain 29 1009 79 10000 4.12 300 05:47 30.06.2022
2846 Rain 27 1008 78 10000 7.14 289 00:27 30.06.2022
2847 Rain 27 1008 83 10000 5.14 350 22:58 29.06.2022
2848 Rain 27 1008 83 10000 5.14 350 22:37 29.06.2022
2849 Rain 27 1009 83 10000 6.69 310 21:31 29.06.2022
2850 Rain 27 1010 89 10000 7.2 320 20:33 29.06.2022
2851 Clouds 27 1009 83 10000 8.23 320 19:36 29.06.2022
2852 Clouds 28 1010 76 10000 3.19 268 17:42 29.06.2022
2853 Clouds 29 1008 84 10000 5.66 250 16:35 29.06.2022
2854 Clouds 30 1006 79 10000 4.12 240 14:56 29.06.2022
2855 Clouds 31 1007 74 10000 3.6 230 12:39 29.06.2022
2856 Clouds 31 1008 74 6000 4.63 200 10:37 29.06.2022
2857 Clouds 32 1008 70 10000 3.6 200 09:32 29.06.2022
2858 Clouds 31 1009 74 10000 2.57 230 07:36 29.06.2022
2859 Clouds 29 1009 79 10000 2.57 270 04:50 29.06.2022
2860 Clouds 29 1007 84 10000 3.6 240 00:57 29.06.2022
2861 Clouds 29 1007 84 10000 3.6 240 00:35 29.06.2022
2862 Clouds 29 1008 84 10000 4.12 260 22:53 28.06.2022
2863 Clouds 29 1008 84 10000 4.12 260 22:24 28.06.2022
2864 Clouds 29 1009 84 10000 4.63 270 21:54 28.06.2022
2865 Clouds 29 1009 84 10000 4.63 270 21:32 28.06.2022
2866 Rain 28 1010 77 10000 4.76 288 20:34 28.06.2022
2867 Clouds 29 1010 84 10000 3.09 270 19:34 28.06.2022
2868 Clouds 29 1009 84 10000 2.57 290 18:45 28.06.2022
2869 Clouds 29 1009 84 10000 2.57 290 18:45 28.06.2022
2870 Clouds 29 1008 79 10000 2.57 290 17:40 28.06.2022
2871 Clouds 30 1007 79 10000 1.54 250 15:57 28.06.2022
2872 Clouds 30 1007 79 10000 1.54 250 15:36 28.06.2022
2873 Clouds 28 1008 76 10000 5.34 283 14:20 28.06.2022
2874 Clouds 31 1007 74 10000 1.54 270 13:51 28.06.2022
2875 Clouds 31 1007 74 10000 1.54 290 12:55 28.06.2022
2876 Clouds 28 1009 76 10000 5.4 283 11:18 28.06.2022
2877 Clouds 30 1010 79 10000 1.54 310 09:29 28.06.2022
2878 Clouds 28 1011 76 10000 5.41 278 08:43 28.06.2022
2879 Clouds 29 1010 74 10000 2.06 270 07:42 28.06.2022
2880 Clouds 28 1012 77 10000 4.71 271 06:20 28.06.2022
2881 Clouds 28 1009 73 10000 6.44 294 00:56 28.06.2022
2882 Clouds 28 1010 89 9000 3.09 210 23:37 27.06.2022
2883 Clouds 29 1009 79 10000 5.14 290 22:52 27.06.2022
2884 Clouds 29 1010 79 10000 4.63 300 21:37 27.06.2022
2885 Clouds 29 1011 79 10000 5.14 300 20:52 27.06.2022
2886 Clouds 30 1011 74 10000 5.66 290 19:31 27.06.2022
2887 Clouds 29 1011 84 10000 6.17 290 18:25 27.06.2022
2888 Clouds 29 1010 76 10000 6.1 288 16:20 27.06.2022
2889 Rain 29 1009 76 10000 6.32 288 15:22 27.06.2022
2890 Clouds 30 1008 74 10000 6.69 270 13:36 27.06.2022
2891 Clouds 30 1008 66 10000 8.23 270 12:56 27.06.2022
2892 Clouds 29 1008 79 10000 7.2 270 10:34 27.06.2022
2893 Clouds 28 1010 77 10000 7.05 284 09:18 27.06.2022
2894 Clouds 30 1009 70 10000 7.72 300 08:29 27.06.2022
2895 Clouds 30 1010 79 10000 4.12 280 06:38 27.06.2022
2896 Clouds 29 1009 74 10000 6.17 290 03:24 27.06.2022
2897 Clouds 28 1009 83 10000 5.14 270 23:56 26.06.2022
2898 Clouds 28 1009 78 10000 5.93 290 22:18 26.06.2022
2899 Clouds 29 1010 84 10000 5.14 280 20:44 26.06.2022
2900 Clouds 29 1010 84 10000 6.17 280 19:40 26.06.2022
2901 Clouds 29 1010 84 10000 5.14 280 18:31 26.06.2022
2902 Clouds 29 1009 84 10000 5.14 270 16:45 26.06.2022
2903 Clouds 30 1007 79 10000 5.66 270 14:42 26.06.2022
2904 Clouds 30 1007 79 10000 4.12 270 13:38 26.06.2022
2905 Rain 28 1008 78 10000 6.86 275 13:18 26.06.2022
2906 Clouds 28 1008 77 10000 7 277 11:26 26.06.2022
2907 Clouds 28 1009 76 10000 7.28 273 10:26 26.06.2022
2908 Rain 28 1009 75 10000 7.48 271 09:22 26.06.2022
2909 Clouds 29 1009 79 10000 7.2 280 07:44 26.06.2022
2910 Clouds 28 1007 83 10000 5.66 250 01:55 26.06.2022
2911 Clouds 28 1007 78 10000 8.09 291 00:21 26.06.2022
2912 Clouds 29 1007 79 10000 6.69 260 23:49 25.06.2022
2913 Clouds 28 1008 78 10000 7.95 290 23:20 25.06.2022
2914 Rain 29 1008 79 10000 7.72 270 22:27 25.06.2022
2915 Clouds 29 1008 79 10000 7.72 270 21:40 25.06.2022
2916 Clouds 28 1009 78 10000 7.8 296 21:18 25.06.2022
2917 Clouds 29 1008 79 10000 7.2 290 20:27 25.06.2022
2918 Clouds 28 1010 77 10000 7.55 293 19:21 25.06.2022
2919 Clouds 28 1009 78 10000 8.75 280 17:57 25.06.2022
2920 Clouds 28 1009 78 10000 7.46 292 17:22 25.06.2022
2921 Clouds 28 1008 78 10000 10.29 290 15:36 25.06.2022
2922 Clouds 27 1007 89 10000 10.8 290 13:34 25.06.2022
2923 Clouds 29 1007 74 10000 9.26 290 12:38 25.06.2022
2924 Clouds 29 1009 79 10000 12.86 260 10:35 25.06.2022
2925 Clouds 27 1010 78 9000 8.23 250 08:59 25.06.2022
2926 Clouds 27 1010 78 9000 8.23 250 08:37 25.06.2022
2927 Clouds 29 1010 75 10000 7.79 285 08:18 25.06.2022
2928 Clouds 29 1008 79 10000 5.14 300 03:34 25.06.2022
2929 Clouds 29 1008 79 10000 7.72 290 00:35 25.06.2022
2930 Clouds 29 1009 74 10000 5.66 290 22:55 24.06.2022
2931 Clouds 29 1010 84 10000 4.63 280 21:42 24.06.2022
2932 Clouds 28 1010 83 10000 8.75 260 20:48 24.06.2022
2933 Clouds 29 1011 75 10000 8.34 294 20:19 24.06.2022
2934 Clouds 29 1011 76 10000 7.99 290 19:21 24.06.2022
2935 Clouds 29 1010 84 10000 5.14 270 18:49 24.06.2022
2936 Clouds 29 1010 84 10000 5.14 270 18:30 24.06.2022
2937 Rain 28 1011 76 10000 8.02 279 17:21 24.06.2022
2938 Rain 29 1009 79 10000 4.12 270 15:47 24.06.2022
2939 Rain 29 1008 79 10000 4.12 270 14:28 24.06.2022
2940 Rain 29 1008 79 10000 5.66 270 13:55 24.06.2022
2941 Clouds 28 1009 83 10000 6.17 280 11:44 24.06.2022
2942 Clouds 29 1009 75 10000 7.78 283 11:18 24.06.2022
2943 Clouds 31 1010 70 10000 8.23 290 09:55 24.06.2022
2944 Clouds 31 1010 70 10000 8.23 290 09:29 24.06.2022
2945 Clouds 30 1011 70 10000 8.75 280 08:52 24.06.2022
2946 Clouds 30 1012 79 10000 5.66 300 06:48 24.06.2022
2947 Clouds 30 1012 79 10000 5.66 300 06:30 24.06.2022
2948 Clouds 30 1011 74 10000 8.23 280 05:52 24.06.2022
2949 Clouds 29 1009 79 10000 5.66 290 01:28 24.06.2022
2950 Clouds 29 1010 79 10000 6.17 290 22:45 23.06.2022
2951 Clouds 28 1010 74 10000 7.35 290 22:18 23.06.2022
2952 Clouds 29 1011 84 10000 5.14 300 20:54 23.06.2022
2953 Clouds 29 1011 84 10000 5.14 300 20:32 23.06.2022
2954 Clouds 26 1011 94 6000 2.06 330 18:49 23.06.2022
2955 Clouds 29 1011 84 10000 3.09 310 17:50 23.06.2022
2956 Clouds 29 1010 79 10000 5.14 290 16:42 23.06.2022
2957 Clouds 29 1009 84 10000 5.66 290 15:43 23.06.2022
2958 Clouds 29 1009 84 10000 5.66 290 15:23 23.06.2022
2959 Clouds 30 1008 74 10000 3.6 310 12:43 23.06.2022
2960 Clouds 30 1009 74 10000 4.12 310 11:23 23.06.2022
2961 Clouds 30 1010 74 10000 4.12 310 09:46 23.06.2022
2962 Clouds 30 1010 79 10000 4.63 340 08:18 23.06.2022
2963 Clouds 28 1009 74 10000 3.69 316 02:19 23.06.2022
2964 Clouds 28 1008 83 10000 2.06 350 00:25 23.06.2022
2965 Clouds 28 1009 89 10000 1.54 360 23:27 22.06.2022
2966 Clouds 29 1009 84 10000 1.03 0 22:24 22.06.2022
2967 Clouds 29 1011 79 10000 1.54 290 20:57 22.06.2022
2968 Clouds 29 1012 72 10000 3.75 293 20:21 22.06.2022
2969 Clouds 29 1012 72 10000 3.25 294 19:48 22.06.2022
2970 Clouds 29 1012 72 10000 3.65 294 18:21 22.06.2022
2971 Clouds 29 1009 79 10000 3.6 300 17:24 22.06.2022
2972 Clouds 29 1010 74 10000 4.23 292 16:18 22.06.2022
2973 Clouds 30 1009 74 10000 5.66 280 15:25 22.06.2022
2974 Clouds 31 1008 70 10000 4.63 300 13:52 22.06.2022
2975 Clouds 31 1008 70 10000 4.63 300 13:26 22.06.2022
2976 Clouds 31 1008 74 10000 5.14 290 12:56 22.06.2022
2977 Clouds 31 1008 70 10000 4.63 270 11:47 22.06.2022
2978 Clouds 31 1008 70 10000 5.14 280 10:54 22.06.2022
2979 Clouds 29 1009 73 10000 5.27 294 09:54 22.06.2022
2980 Clouds 31 1010 74 10000 2.57 290 07:56 22.06.2022
2981 Clouds 28 1008 83 10000 3.09 300 03:30 22.06.2022
2982 Clouds 28 1008 71 10000 4.84 304 01:22 22.06.2022
2983 Clouds 29 1007 74 10000 6.17 280 23:41 21.06.2022
2984 Clouds 27 1009 89 10000 3.6 280 21:32 21.06.2022
2985 Clouds 26 1009 94 6000 7.2 250 19:47 21.06.2022
2986 Clouds 28 1009 78 10000 3.6 280 18:30 21.06.2022
2987 Clouds 28 1009 83 10000 2.06 320 17:25 21.06.2022
2988 Clouds 31 1006 70 10000 4.12 280 13:33 21.06.2022
2989 Clouds 31 1007 70 10000 4.12 290 11:30 21.06.2022
2990 Clouds 31 1008 70 10000 5.66 300 09:48 21.06.2022
2991 Clouds 31 1009 66 10000 5.66 300 08:37 21.06.2022
2992 Clouds 30 1009 70 10000 6.17 300 05:41 21.06.2022
2993 Clouds 29 1007 74 10000 5.14 310 00:43 21.06.2022
2994 Clouds 28 1008 75 10000 7.17 294 23:18 20.06.2022
2995 Clouds 29 1009 79 10000 4.12 300 21:52 20.06.2022
2996 Clouds 29 1009 79 10000 4.63 290 20:47 20.06.2022
2997 Clouds 28 1009 74 10000 4.12 320 19:38 20.06.2022
2998 Clouds 29 1009 84 10000 3.6 0 18:44 20.06.2022
2999 Clouds 30 1009 74 10000 3.09 290 17:52 20.06.2022
3000 Clouds 30 1009 74 10000 3.09 290 17:29 20.06.2022
3001 Clouds 30 1008 79 10000 5.66 310 15:55 20.06.2022
3002 Clouds 31 1007 70 10000 4.12 300 12:44 20.06.2022
3003 Clouds 31 1009 74 10000 3.6 280 10:58 20.06.2022
3004 Clouds 29 1009 72 10000 5.42 283 09:41 20.06.2022
3005 Clouds 29 1009 72 10000 5.42 283 09:41 20.06.2022
3006 Clouds 28 1010 72 10000 5.41 282 08:44 20.06.2022
3007 Clouds 29 1010 79 10000 2.06 290 05:55 20.06.2022
3008 Clouds 28 1008 72 10000 5.34 289 02:27 20.06.2022
3009 Clouds 29 1008 79 10000 4.12 280 00:26 20.06.2022
3010 Clouds 29 1008 79 10000 4.12 270 22:59 19.06.2022
3011 Clouds 29 1009 79 10000 4.63 290 21:58 19.06.2022
3012 Clouds 29 1009 79 10000 4.63 290 21:40 19.06.2022
3013 Clouds 29 1009 74 10000 4.63 290 20:39 19.06.2022
3014 Clouds 29 1009 79 10000 4.12 290 19:48 19.06.2022
3015 Clouds 29 1009 79 10000 2.06 290 18:57 19.06.2022
3016 Clouds 29 1009 79 10000 2.06 290 18:30 19.06.2022
3017 Clouds 29 1010 72 10000 4.62 290 17:22 19.06.2022
3018 Clouds 29 1008 79 10000 3.09 290 16:35 19.06.2022
3019 Clouds 30 1008 74 10000 2.57 280 15:42 19.06.2022
3020 Clouds 30 1008 79 10000 3.09 270 14:58 19.06.2022
3021 Clouds 29 1008 73 10000 5.33 284 14:20 19.06.2022
3022 Clouds 31 1008 70 10000 2.57 290 13:36 19.06.2022
3023 Clouds 32 1009 66 10000 3.09 280 11:38 19.06.2022
3024 Clouds 31 1010 74 10000 3.09 270 10:47 19.06.2022
3025 Clouds 31 1010 74 10000 2.57 300 08:54 19.06.2022
3026 Clouds 28 1011 73 10000 3.94 298 08:19 19.06.2022
3027 Clouds 30 1009 79 10000 2.57 280 05:44 19.06.2022
3028 Clouds 28 1008 89 10000 2.06 240 02:32 19.06.2022
3029 Clouds 28 1008 89 10000 2.06 260 00:26 19.06.2022
3030 Clouds 28 1008 83 10000 2.06 260 23:36 18.06.2022
3031 Clouds 28 1009 83 10000 2.57 240 22:45 18.06.2022
3032 Clouds 28 1009 89 10000 2.57 240 21:43 18.06.2022
3033 Clouds 28 1009 89 10000 3.09 260 20:49 18.06.2022
3034 Clouds 29 1009 84 10000 2.57 260 19:40 18.06.2022
3035 Clouds 28 1009 89 10000 2.57 290 18:54 18.06.2022
3036 Clouds 29 1009 100 10000 2.57 270 17:43 18.06.2022
3037 Clouds 28 1010 73 10000 3.89 282 17:22 18.06.2022
3038 Clouds 29 1008 84 10000 2.06 290 15:37 18.06.2022
3039 Clouds 31 1008 70 10000 2.06 280 14:48 18.06.2022
3040 Clouds 31 1007 66 10000 2.57 310 13:53 18.06.2022
3041 Clouds 31 1008 74 10000 3.09 310 11:58 18.06.2022
3042 Clouds 30 1008 74 10000 2.06 310 10:57 18.06.2022
3043 Clouds 29 1009 79 10000 2.57 270 09:28 18.06.2022
3044 Clouds 26 1009 89 9000 2.57 260 08:33 18.06.2022
3045 Clouds 28 1010 71 10000 2.73 248 07:32 18.06.2022
3046 Rain 28 1009 75 10000 3.54 234 04:20 18.06.2022
3047 Clouds 28 1008 74 10000 3.64 255 01:27 18.06.2022
3048 Clouds 28 1008 74 10000 3.64 255 01:27 18.06.2022
3049 Rain 25 1008 94 10000 2.06 60 00:50 18.06.2022
3050 Rain 28 1008 75 10000 4.36 251 00:21 18.06.2022
3051 Clouds 26 1008 94 6000 6.69 310 23:29 17.06.2022
3052 Clouds 29 1009 84 10000 2.06 270 21:44 17.06.2022
3053 Clouds 29 1009 84 10000 1.54 290 20:29 17.06.2022
3054 Thunderstorm 29 1010 84 10000 2.57 300 18:59 17.06.2022
3055 Thunderstorm 29 1009 79 10000 3.6 300 17:47 17.06.2022
3056 Clouds 29 1008 79 10000 2.57 310 16:43 17.06.2022
3057 Clouds 28 1009 75 10000 4.37 278 16:19 17.06.2022
3058 Clouds 29 1008 84 10000 5.14 270 15:37 17.06.2022
3059 Clouds 28 1008 74 10000 4.64 286 14:22 17.06.2022
3060 Clouds 31 1007 74 10000 4.63 300 13:57 17.06.2022
3061 Clouds 31 1007 74 10000 4.63 300 13:37 17.06.2022
3062 Clouds 29 1008 74 10000 5.24 294 12:20 17.06.2022
3063 Clouds 31 1008 74 10000 5.14 290 11:49 17.06.2022
3064 Clouds 31 1008 74 10000 5.14 290 11:30 17.06.2022
3065 Clouds 31 1009 74 10000 5.14 320 08:45 17.06.2022
3066 Clouds 31 1009 74 10000 5.14 320 08:24 17.06.2022
3067 Clouds 30 1009 84 10000 4.63 290 06:35 17.06.2022
3068 Clouds 29 1008 84 10000 5.14 290 03:25 17.06.2022
3069 Clouds 28 1007 89 10000 3.09 310 01:27 17.06.2022
3070 Clouds 28 1008 75 10000 5.55 309 23:34 16.06.2022
3071 Clouds 28 1008 75 10000 5.84 310 22:40 16.06.2022
3072 Clouds 28 1010 75 10000 6.64 305 21:21 16.06.2022
3073 Clouds 29 1009 84 10000 2.57 300 20:50 16.06.2022
3074 Clouds 29 1009 84 10000 2.57 300 20:27 16.06.2022
3075 Rain 29 1010 79 10000 2.57 320 19:31 16.06.2022
3076 Clouds 29 1009 84 10000 4.12 330 17:54 16.06.2022
3077 Clouds 29 1009 84 10000 4.12 330 17:33 16.06.2022
3078 Clouds 29 1008 79 10000 4.63 340 16:24 16.06.2022
3079 Clouds 28 1009 76 10000 7.54 294 15:21 16.06.2022
3080 Thunderstorm 26 1008 83 10000 5.14 340 14:27 16.06.2022
3081 Clouds 31 1007 74 10000 5.14 290 12:56 16.06.2022
3082 Clouds 31 1007 74 10000 5.14 290 12:34 16.06.2022
3083 Clouds 31 1008 74 10000 4.63 300 11:49 16.06.2022
3084 Clouds 31 1008 74 10000 4.63 310 10:42 16.06.2022
3085 Clouds 31 1009 74 10000 4.12 310 09:43 16.06.2022
3086 Clouds 28 1010 74 10000 4.5 291 09:19 16.06.2022
3087 Clouds 31 1009 74 10000 4.63 300 07:57 16.06.2022
3088 Clouds 30 1009 74 10000 3.6 320 06:49 16.06.2022
3089 Clouds 29 1008 79 10000 5.66 290 04:27 16.06.2022
3090 Clouds 29 1007 84 10000 3.6 300 01:53 16.06.2022
3091 Clouds 29 1007 84 10000 3.6 300 01:32 16.06.2022
3092 Clouds 29 1007 84 10000 4.63 310 00:31 16.06.2022
3093 Clouds 29 1008 84 10000 5.66 280 23:23 15.06.2022
3094 Clouds 29 1009 79 10000 5.66 300 21:59 15.06.2022
3095 Rain 28 1010 76 10000 5.3 287 21:20 15.06.2022
3096 Clouds 29 1009 84 10000 6.17 290 20:38 15.06.2022
3097 Clouds 29 1011 74 9979 5.02 291 20:18 15.06.2022
3098 Clouds 29 1009 79 10000 5.66 290 18:48 15.06.2022
3099 Clouds 30 1009 79 10000 5.14 300 17:54 15.06.2022
3100 Clouds 30 1009 79 10000 6.17 300 16:37 15.06.2022
3101 Clouds 30 1008 79 10000 6.69 300 15:26 15.06.2022
3102 Clouds 31 1008 74 10000 5.66 290 13:43 15.06.2022
3103 Rain 31 1008 74 10000 4.63 280 12:53 15.06.2022
3104 Clouds 31 1009 74 10000 5.14 270 11:42 15.06.2022
3105 Clouds 31 1009 70 10000 6.17 290 10:23 15.06.2022
3106 Clouds 30 1009 74 10000 7.2 280 09:37 15.06.2022
3107 Clouds 32 1010 66 10000 5.66 280 08:27 15.06.2022
3108 Clouds 31 1010 74 10000 4.63 290 06:33 15.06.2022
3109 Clouds 29 1008 79 10000 3.6 280 03:30 15.06.2022
3110 Clouds 29 1007 79 10000 4.12 280 01:38 15.06.2022
3111 Clouds 29 1007 79 10000 4.63 280 00:50 15.06.2022
3112 Clouds 29 1008 79 10000 4.12 280 23:39 14.06.2022
3113 Clouds 29 1008 79 10000 4.12 290 22:52 14.06.2022
3114 Clouds 29 1009 79 10000 4.63 290 21:53 14.06.2022
3115 Clouds 29 1009 79 10000 4.63 290 21:27 14.06.2022
3116 Clouds 28 1010 73 10000 4.73 269 20:48 14.06.2022
3117 Clouds 29 1011 73 10000 4.7 272 20:28 14.06.2022
3118 Clouds 30 1010 74 10000 3.6 280 18:45 14.06.2022
3119 Clouds 30 1010 74 10000 4.12 280 17:29 14.06.2022
3120 Clouds 31 1009 74 10000 3.09 270 16:43 14.06.2022
3121 Clouds 31 1009 74 10000 3.09 270 15:49 14.06.2022
3122 Clouds 28 1010 73 10000 4.72 280 14:57 14.06.2022
3123 Clouds 29 1009 71 10000 4.54 286 14:23 14.06.2022
3124 Clouds 32 1008 70 10000 3.09 260 13:39 14.06.2022
3125 Clouds 32 1008 70 10000 4.12 280 12:27 14.06.2022
3126 Clouds 32 1008 70 10000 3.09 250 11:28 14.06.2022
3127 Clouds 32 1009 70 10000 3.09 250 10:35 14.06.2022
3128 Clouds 31 1009 74 10000 2.06 290 09:45 14.06.2022
3129 Clouds 32 1010 70 10000 2.06 270 08:45 14.06.2022
3130 Clouds 31 1010 74 10000 1.03 0 07:26 14.06.2022
3131 Clouds 29 1009 84 10000 2.06 250 04:44 14.06.2022
3132 Clouds 28 1009 83 10000 3.09 250 02:45 14.06.2022
3133 Clouds 28 1009 83 10000 3.6 260 00:27 14.06.2022
3134 Clouds 28 1009 75 10000 4.37 281 23:21 13.06.2022
3135 Clouds 29 1010 79 10000 3.09 270 22:25 13.06.2022
3136 Clouds 29 1010 79 10000 2.57 270 21:48 13.06.2022
3137 Clouds 28 1011 78 10000 4.29 276 20:23 13.06.2022
3138 Clouds 29 1011 84 10000 2.57 260 19:34 13.06.2022
3139 Clouds 29 1009 84 10000 2.06 250 17:58 13.06.2022
3140 Clouds 29 1009 84 10000 2.06 250 17:38 13.06.2022
3141 Clouds 29 1008 84 10000 2.06 260 16:40 13.06.2022
3142 Clouds 30 1008 74 10000 2.57 280 15:38 13.06.2022
3143 Clouds 30 1008 79 10000 3.6 270 14:43 13.06.2022
3144 Clouds 31 1008 70 10000 3.6 280 13:53 13.06.2022
3145 Clouds 32 1008 66 10000 3.09 270 12:47 13.06.2022
3146 Clouds 32 1009 70 10000 4.12 270 11:26 13.06.2022
3147 Clouds 32 1010 70 10000 3.09 270 10:27 13.06.2022
3148 Clouds 31 1010 74 10000 3.6 270 09:38 13.06.2022
3149 Clouds 31 1011 74 10000 2.57 290 07:51 13.06.2022
3150 Clouds 30 1010 79 10000 2.57 260 05:49 13.06.2022
3151 Clouds 28 1009 89 10000 3.6 260 02:55 13.06.2022
3152 Clouds 28 1009 83 10000 3.6 260 01:37 13.06.2022
3153 Clouds 28 1009 73 10000 3.84 263 00:21 13.06.2022
3154 Clouds 29 1009 84 10000 3.09 250 23:25 12.06.2022
3155 Clouds 29 1010 73 10000 4.28 259 22:22 12.06.2022
3156 Clouds 29 1010 84 10000 2.57 250 21:27 12.06.2022
3157 Clouds 29 1010 84 10000 2.57 260 20:33 12.06.2022
3158 Clouds 29 1011 84 10000 3.09 250 19:36 12.06.2022
3159 Clouds 29 1010 79 10000 3.09 260 17:54 12.06.2022
3160 Clouds 29 1010 84 10000 4.12 260 16:34 12.06.2022
3161 Clouds 29 1009 71 10000 5.3 261 15:18 12.06.2022
3162 Clouds 30 1008 74 10000 6.17 250 14:29 12.06.2022
3163 Clouds 31 1008 74 10000 5.14 260 13:55 12.06.2022
3164 Rain 31 1008 74 10000 5.14 280 12:46 12.06.2022
3165 Clouds 31 1008 74 10000 4.63 280 11:40 12.06.2022
3166 Clouds 31 1009 74 10000 3.6 280 10:45 12.06.2022
3167 Clouds 30 1010 79 10000 4.12 270 09:25 12.06.2022
3168 Clouds 31 1010 74 10000 5.14 260 08:46 12.06.2022
3169 Clouds 30 1011 79 10000 5.66 250 07:38 12.06.2022
3170 Clouds 30 1010 79 10000 4.63 250 05:29 12.06.2022
3171 Clouds 29 1010 84 10000 5.14 250 03:38 12.06.2022
3172 Clouds 28 1009 78 10000 3.09 290 01:43 12.06.2022
3173 Clouds 29 1009 84 10000 5.14 250 00:58 12.06.2022
3174 Clouds 29 1009 84 10000 5.14 250 00:25 12.06.2022
3175 Clouds 29 1009 84 10000 5.66 250 23:47 11.06.2022
3176 Clouds 29 1009 84 10000 5.66 250 23:47 11.06.2022
3177 Clouds 29 1010 79 10000 4.12 250 22:39 11.06.2022
3178 Clouds 28 1010 75 10000 4.89 256 22:18 11.06.2022
3179 Clouds 28 1011 74 10000 4.85 253 20:38 11.06.2022
3180 Clouds 29 1011 79 10000 3.09 250 19:59 11.06.2022
3181 Clouds 29 1011 79 10000 3.09 250 19:26 11.06.2022
3182 Clouds 29 1010 84 10000 4.12 240 18:34 11.06.2022
3183 Clouds 29 1010 84 10000 5.14 260 17:51 11.06.2022
3184 Clouds 29 1010 84 10000 5.14 260 17:28 11.06.2022
3185 Clouds 29 1010 79 10000 6.17 250 16:57 11.06.2022
3186 Clouds 29 1010 79 10000 6.17 250 16:30 11.06.2022
3187 Clouds 29 1009 79 10000 5.14 250 15:43 11.06.2022
3188 Clouds 29 1009 79 10000 5.14 250 15:43 11.06.2022
3189 Clouds 30 1008 74 10000 4.63 250 13:53 11.06.2022
3190 Clouds 32 1008 66 10000 4.63 250 12:57 11.06.2022
3191 Clouds 32 1010 66 10000 4.12 250 10:55 11.06.2022
3192 Clouds 28 1010 74 10000 4.47 251 10:19 11.06.2022
3193 Clouds 28 1010 74 10000 4.57 247 09:19 11.06.2022
3194 Clouds 31 1012 79 10000 4.12 250 07:43 11.06.2022
3195 Clouds 30 1011 79 10000 3.6 250 06:30 11.06.2022
3196 Clouds 28 1011 75 10000 5 230 05:19 11.06.2022
3197 Thunderstorm 28 1009 89 10000 7.2 240 01:53 11.06.2022
3198 Thunderstorm 28 1009 89 10000 7.2 240 01:33 11.06.2022
3199 Clouds 28 1010 77 10000 4.8 235 00:21 11.06.2022
3200 Clouds 29 1010 84 10000 4.63 220 22:32 10.06.2022
3201 Clouds 29 1010 79 10000 5.66 210 21:52 10.06.2022
3202 Clouds 29 1011 79 10000 5.66 220 20:42 10.06.2022
3203 Clouds 28 1012 77 10000 4.55 225 20:22 10.06.2022
3204 Clouds 29 1011 79 10000 5.14 220 19:38 10.06.2022
3205 Clouds 28 1012 75 10000 4.46 234 19:18 10.06.2022
3206 Clouds 28 1012 75 10000 4.46 234 19:18 10.06.2022
3207 Clouds 28 1012 75 10000 4.46 234 19:18 10.06.2022
3208 Clouds 28 1012 74 10000 4.25 237 18:18 10.06.2022
3209 Clouds 30 1010 74 10000 4.12 230 17:35 10.06.2022
3210 Clouds 29 1009 79 10000 4.63 220 16:51 10.06.2022
3211 Clouds 30 1009 74 10000 5.14 220 15:45 10.06.2022
3212 Clouds 28 1010 75 10000 4.49 243 14:57 10.06.2022
3213 Clouds 28 1009 75 10000 4.73 239 13:41 10.06.2022
3214 Clouds 28 1009 74 10000 4.55 239 12:24 10.06.2022
3215 Clouds 31 1009 70 10000 5.66 250 11:30 10.06.2022
3216 Clouds 31 1009 70 10000 5.14 250 10:36 10.06.2022
3217 Clouds 31 1009 74 10000 4.63 250 09:37 10.06.2022
3218 Clouds 31 1010 74 10000 5.14 250 08:23 10.06.2022
3219 Clouds 30 1010 74 10000 4.63 200 06:51 10.06.2022
3220 Clouds 30 1010 74 10000 4.63 200 06:32 10.06.2022
3221 Clouds 30 1010 74 10000 4.12 230 05:35 10.06.2022
3222 Clouds 28 1008 83 10000 2.57 250 02:54 10.06.2022
3223 Clouds 28 1008 83 10000 3.09 260 01:37 10.06.2022
3224 Clouds 28 1008 83 10000 3.6 250 23:58 09.06.2022
3225 Clouds 28 1009 83 10000 3.6 260 22:56 09.06.2022
3226 Clouds 29 1010 79 10000 3.09 250 21:46 09.06.2022
3227 Clouds 29 1010 79 10000 3.09 250 21:28 09.06.2022
3228 Clouds 29 1010 79 10000 4.12 250 20:40 09.06.2022
3229 Clouds 29 1010 79 10000 4.12 240 19:54 09.06.2022
3230 Clouds 29 1010 79 10000 3.09 250 18:43 09.06.2022
3231 Clouds 29 1010 79 10000 3.09 250 17:56 09.06.2022
3232 Clouds 29 1009 79 10000 2.57 250 16:44 09.06.2022
3233 Clouds 29 1008 79 10000 2.06 280 15:44 09.06.2022
3234 Clouds 30 1007 74 10000 2.57 270 14:34 09.06.2022
3235 Clouds 30 1007 74 10000 4.12 270 13:46 09.06.2022
3236 Clouds 30 1007 74 10000 4.12 270 13:26 09.06.2022
3237 Clouds 31 1008 70 10000 3.09 290 11:53 09.06.2022
3238 Clouds 31 1008 70 10000 3.09 290 10:40 09.06.2022
3239 Clouds 31 1009 66 10000 4.12 290 09:41 09.06.2022
3240 Clouds 28 1009 74 10000 3.88 272 09:23 09.06.2022
3241 Clouds 30 1010 74 10000 2.57 290 07:29 09.06.2022
3242 Clouds 28 1009 83 10000 2.57 270 04:47 09.06.2022
3243 Clouds 28 1008 83 10000 3.6 270 01:44 09.06.2022
3244 Clouds 29 1008 79 10000 3.09 290 23:24 08.06.2022
3245 Clouds 29 1009 79 10000 3.6 290 22:50 08.06.2022
3246 Clouds 29 1009 79 10000 3.6 290 22:25 08.06.2022
3247 Clouds 29 1010 74 10000 4.12 270 21:48 08.06.2022
3248 Clouds 29 1010 79 10000 4.63 280 20:33 08.06.2022
3249 Clouds 29 1010 79 10000 4.63 290 19:47 08.06.2022
3250 Clouds 29 1010 74 10000 4.63 290 18:56 08.06.2022
3251 Clouds 28 1011 73 10000 4.42 278 18:22 08.06.2022
3252 Clouds 29 1009 74 10000 5.14 280 16:30 08.06.2022
3253 Clouds 30 1008 70 10000 5.66 290 14:49 08.06.2022
3254 Clouds 31 1008 70 10000 5.14 290 13:36 08.06.2022
3255 Clouds 30 1009 74 10000 4.63 290 11:50 08.06.2022
3256 Clouds 28 1009 70 10000 3.69 285 11:22 08.06.2022
3257 Clouds 30 1010 74 10000 4.12 270 09:46 08.06.2022
3258 Clouds 28 1010 72 10000 3.57 285 09:19 08.06.2022
3259 Clouds 30 1011 74 10000 3.09 270 07:30 08.06.2022
3260 Clouds 29 1010 74 10000 2.57 290 05:20 08.06.2022
3261 Clouds 28 1008 78 10000 3.09 290 02:28 08.06.2022
3262 Clouds 28 1008 83 10000 3.09 280 23:41 07.06.2022
3263 Clouds 28 1009 73 10000 5.04 276 23:22 07.06.2022
3264 Clouds 29 1009 79 10000 4.12 260 22:38 07.06.2022
3265 Clouds 29 1010 79 10000 3.09 300 21:45 07.06.2022
3266 Clouds 29 1010 79 10000 3.09 300 21:25 07.06.2022
3267 Clouds 29 1010 79 10000 3.6 290 20:43 07.06.2022
3268 Clouds 29 1010 79 10000 3.6 290 20:23 07.06.2022
3269 Clouds 29 1011 79 10000 4.12 280 18:51 07.06.2022
3270 Clouds 29 1010 79 10000 3.09 290 17:54 07.06.2022
3271 Clouds 29 1009 79 10000 3.09 300 16:54 07.06.2022
3272 Clouds 29 1009 79 10000 3.09 300 16:32 07.06.2022
3273 Clouds 30 1009 74 10000 3.09 300 15:40 07.06.2022
3274 Clouds 28 1009 73 10000 4.34 256 15:22 07.06.2022
3275 Clouds 30 1008 74 10000 3.6 290 14:46 07.06.2022
3276 Clouds 31 1008 70 10000 4.12 290 13:46 07.06.2022
3277 Clouds 31 1008 70 10000 4.12 290 13:46 07.06.2022
3278 Clouds 31 1008 70 10000 4.12 290 13:27 07.06.2022
3279 Clouds 28 1008 73 10000 4.24 263 12:22 07.06.2022
3280 Clouds 32 1009 70 10000 4.63 270 10:57 07.06.2022
3281 Clouds 31 1009 74 10000 4.12 270 09:46 07.06.2022
3282 Clouds 31 1010 70 10000 4.12 270 08:32 07.06.2022
3283 Clouds 28 1011 75 10000 4.48 242 07:21 07.06.2022
3284 Clouds 29 1009 79 10000 4.12 270 05:47 07.06.2022
3285 Clouds 28 1009 76 10000 4.75 248 02:28 07.06.2022
3286 Clouds 28 1008 83 10000 4.12 260 00:33 07.06.2022
3287 Clouds 29 1008 84 10000 4.63 250 23:32 06.06.2022
3288 Clouds 29 1009 79 10000 5.14 240 22:37 06.06.2022
3289 Clouds 29 1010 79 10000 4.63 250 21:41 06.06.2022
3290 Clouds 29 1010 84 10000 4.12 250 19:59 06.06.2022
3291 Clouds 28 1011 76 10000 4.75 284 19:21 06.06.2022
3292 Clouds 29 1010 84 10000 4.12 270 18:38 06.06.2022
3293 Clouds 29 1009 84 10000 3.6 260 17:42 06.06.2022
3294 Clouds 29 1009 84 10000 3.6 260 16:39 06.06.2022
3295 Clouds 29 1008 84 10000 4.63 270 15:40 06.06.2022
3296 Clouds 30 1007 74 10000 3.6 250 14:40 06.06.2022
3297 Clouds 31 1007 74 10000 4.12 280 13:31 06.06.2022
3298 Clouds 31 1007 74 10000 4.63 270 12:39 06.06.2022
3299 Clouds 28 1007 74 10000 5.09 267 12:20 06.06.2022
3300 Clouds 31 1007 74 10000 4.63 270 11:42 06.06.2022
3301 Clouds 31 1008 74 10000 4.63 270 09:41 06.06.2022
3302 Clouds 31 1009 74 10000 5.14 270 08:35 06.06.2022
3303 Clouds 31 1010 70 10000 5.14 280 07:40 06.06.2022
3304 Clouds 30 1009 74 10000 5.14 280 05:48 06.06.2022
3305 Clouds 29 1008 79 10000 5.14 280 03:47 06.06.2022
3306 Clouds 29 1007 79 10000 5.66 270 01:30 06.06.2022
3307 Clouds 29 1007 79 10000 6.17 280 00:43 06.06.2022
3308 Clouds 28 1008 74 10000 5.52 283 00:19 06.06.2022
3309 Clouds 29 1008 84 10000 7.2 270 22:57 05.06.2022
3310 Clouds 29 1009 84 10000 5.66 290 21:56 05.06.2022
3311 Clouds 29 1009 84 10000 4.12 290 20:23 05.06.2022
3312 Clouds 29 1009 84 10000 5.66 280 18:47 05.06.2022
3313 Clouds 29 1008 84 10000 5.66 290 17:58 05.06.2022
3314 Clouds 29 1008 84 10000 5.66 290 17:38 05.06.2022
3315 Clouds 28 1009 74 10000 5.91 290 17:19 05.06.2022
3316 Clouds 29 1008 79 10000 5.66 300 16:46 05.06.2022
3317 Clouds 30 1007 66 10000 8.75 290 14:59 05.06.2022
3318 Clouds 30 1006 79 10000 5.66 300 13:55 05.06.2022
3319 Clouds 31 1007 74 10000 6.17 280 11:58 05.06.2022
3320 Clouds 31 1008 74 10000 6.17 280 10:45 05.06.2022
3321 Clouds 31 1008 74 10000 6.17 280 10:24 05.06.2022
3322 Clouds 28 1009 76 10000 6.37 270 09:21 05.06.2022
3323 Clouds 28 1010 76 10000 6.28 274 08:22 05.06.2022
3324 Clouds 30 1009 79 10000 6.69 270 05:24 05.06.2022
3325 Clouds 29 1008 84 10000 6.17 280 04:36 05.06.2022
3326 Clouds 28 1008 75 10000 7.09 279 02:23 05.06.2022
3327 Clouds 29 1007 84 10000 6.69 270 01:23 05.06.2022
3328 Clouds 29 1007 84 10000 6.69 270 01:23 05.06.2022
3329 Clouds 29 1008 84 10000 5.66 280 22:48 04.06.2022
3330 Clouds 29 1009 84 10000 5.14 280 21:25 04.06.2022
3331 Clouds 29 1010 84 10000 6.17 290 19:26 04.06.2022
3332 Clouds 29 1008 84 10000 6.69 290 16:48 04.06.2022
3333 Clouds 28 1009 76 10000 6.83 295 16:20 04.06.2022
3334 Clouds 30 1007 74 10000 7.2 290 15:35 04.06.2022
3335 Clouds 31 1007 70 10000 7.72 290 13:59 04.06.2022
3336 Clouds 31 1007 74 10000 7.72 290 11:38 04.06.2022
3337 Clouds 32 1008 70 10000 7.2 290 10:52 04.06.2022
3338 Clouds 32 1008 70 10000 6.17 290 09:56 04.06.2022
3339 Clouds 32 1008 70 10000 6.17 290 09:38 04.06.2022
3340 Clouds 31 1009 74 10000 6.17 290 08:38 04.06.2022
3341 Clouds 30 1009 79 10000 6.17 300 06:32 04.06.2022
3342 Clouds 29 1008 79 10000 7.2 300 03:57 04.06.2022
3343 Clouds 28 1008 77 10000 7.93 282 00:22 04.06.2022
3344 Clouds 29 1009 79 10000 7.2 290 22:57 03.06.2022
3345 Clouds 29 1009 84 10000 5.14 300 21:53 03.06.2022
3346 Clouds 29 1010 84 10000 6.69 300 20:40 03.06.2022
3347 Clouds 29 1010 84 10000 5.66 290 19:49 03.06.2022
3348 Clouds 29 1009 79 10000 7.2 300 16:59 03.06.2022
3349 Clouds 29 1008 79 10000 6.69 300 15:57 03.06.2022
3350 Clouds 31 1008 70 10000 7.2 290 14:42 03.06.2022
3351 Clear 28 1008 76 10000 7.81 298 12:21 03.06.2022
3352 Clouds 31 1009 70 10000 7.2 300 09:58 03.06.2022
3353 Clouds 31 1009 70 10000 7.2 300 09:29 03.06.2022
3354 Clouds 31 1010 74 10000 7.2 290 07:50 03.06.2022
3355 Clouds 28 1011 75 10000 6.84 292 07:19 03.06.2022
3356 Clouds 30 1010 74 10000 7.72 290 06:29 03.06.2022
3357 Clouds 29 1008 79 10000 7.2 280 03:52 03.06.2022
3358 Clouds 28 1008 75 10000 7.44 286 00:21 03.06.2022
3359 Clouds 29 1009 79 10000 7.2 280 22:34 02.06.2022
3360 Clouds 29 1010 79 10000 7.2 280 20:57 02.06.2022
3361 Clouds 29 1010 84 10000 6.69 260 19:59 02.06.2022
3362 Clouds 29 1010 84 10000 6.69 260 19:40 02.06.2022
3363 Clouds 29 1010 84 10000 6.69 290 18:59 02.06.2022
3364 Clouds 29 1009 79 10000 7.2 290 16:30 02.06.2022
3365 Clouds 30 1008 79 10000 5.14 290 15:47 02.06.2022
3366 Clouds 31 1007 74 10000 5.66 270 13:32 02.06.2022
3367 Clouds 31 1007 74 10000 4.63 290 12:51 02.06.2022
3368 Clouds 31 1008 74 10000 5.14 270 10:48 02.06.2022
3369 Clouds 31 1009 74 10000 5.66 270 09:45 02.06.2022
3370 Clouds 31 1009 74 10000 5.66 270 09:26 02.06.2022
3371 Clouds 31 1009 74 10000 5.66 280 08:23 02.06.2022
3372 Clouds 28 1011 75 10000 7.5 266 06:21 02.06.2022
3373 Clouds 28 1008 89 10000 7.2 270 03:51 02.06.2022
3374 Clouds 29 1009 79 10000 7.72 270 01:36 02.06.2022
3375 Clouds 29 1009 79 10000 7.2 270 23:36 01.06.2022
3376 Clouds 28 1010 74 10000 8.09 278 22:18 01.06.2022
3377 Clouds 29 1010 84 10000 7.2 270 21:25 01.06.2022
3378 Clouds 29 1010 84 10000 7.2 270 20:39 01.06.2022
3379 Clouds 29 1010 84 10000 7.72 270 19:52 01.06.2022
3380 Clouds 29 1010 84 10000 7.72 270 18:52 01.06.2022
3381 Clouds 29 1009 84 10000 8.23 280 17:38 01.06.2022
3382 Clouds 29 1008 84 10000 7.2 270 15:56 01.06.2022
3383 Clouds 29 1007 79 10000 5.14 290 14:50 01.06.2022
3384 Clouds 30 1007 79 10000 5.66 270 13:39 01.06.2022
3385 Clouds 31 1007 74 10000 4.63 280 11:32 01.06.2022
3386 Clouds 31 1009 74 10000 5.14 270 09:34 01.06.2022
3387 Clouds 31 1009 74 10000 3.6 280 08:28 01.06.2022
3388 Clouds 28 1011 76 10000 6.81 277 07:20 01.06.2022
3389 Clouds 29 1009 84 10000 5.66 300 04:58 01.06.2022
3390 Clouds 28 1008 76 10000 8.25 280 23:56 31.05.2022
3391 Thunderstorm 28 1009 74 10000 8.75 310 22:43 31.05.2022
3392 Thunderstorm 28 1009 74 10000 8.75 310 22:25 31.05.2022
3393 Thunderstorm 28 1010 78 10000 8.23 300 21:44 31.05.2022
3394 Thunderstorm 27 1011 78 10000 7.72 310 20:44 31.05.2022
3395 Clouds 28 1011 75 10000 7.29 276 19:46 31.05.2022
3396 Clouds 29 1010 79 10000 5.14 290 18:44 31.05.2022
3397 Clouds 29 1009 79 10000 5.66 280 17:49 31.05.2022
3398 Clouds 28 1009 83 10000 5.14 290 16:48 31.05.2022
3399 Clouds 29 1008 79 10000 6.69 280 15:40 31.05.2022
3400 Clouds 30 1007 70 10000 6.69 290 13:37 31.05.2022
3401 Rain 28 1008 75 10000 8.74 283 12:19 31.05.2022
3402 Clouds 29 1009 74 10000 7.2 290 10:52 31.05.2022
3403 Rain 28 1010 74 10000 6.17 290 08:37 31.05.2022
3404 Rain 27 1011 78 8000 10.29 280 06:52 31.05.2022
3405 Rain 27 1011 81 10000 8.91 293 04:34 31.05.2022
3406 Rain 28 1008 78 10000 9.26 270 23:49 30.05.2022
3407 Clouds 28 1008 78 10000 9.26 270 23:25 30.05.2022
3408 Clouds 28 1009 74 10000 7.72 290 22:42 30.05.2022
3409 Clouds 28 1010 74 10000 5.66 290 21:42 30.05.2022
3410 Clouds 28 1010 78 10000 8.99 272 21:21 30.05.2022
3411 Clouds 27 1011 83 10000 7.72 270 19:51 30.05.2022
3412 Clouds 28 1011 77 10000 8.44 280 18:26 30.05.2022
3413 Clouds 28 1011 78 10000 8.56 283 17:23 30.05.2022
3414 Rain 28 1010 83 10000 5.66 270 16:36 30.05.2022
3415 Clouds 27 1009 83 10000 5.66 260 13:44 30.05.2022
3416 Clouds 25 1009 94 6000 11.32 280 11:54 30.05.2022
3417 Rain 27 1010 80 10000 7.29 272 10:20 30.05.2022
3418 Clouds 27 1010 78 10000 6.66 261 09:18 30.05.2022
3419 Clouds 28 1012 78 10000 7.72 260 06:28 30.05.2022
3420 Clouds 27 1010 83 9000 10.29 260 05:38 30.05.2022
3421 Rain 27 1009 89 7000 8.75 250 01:30 30.05.2022
3422 Clouds 26 1009 89 10000 3.09 290 22:49 29.05.2022
3423 Clouds 26 1009 89 10000 3.09 290 22:29 29.05.2022
3424 Rain 27 1010 94 10000 5.66 260 20:38 29.05.2022
3425 Rain 27 1010 89 10000 3.6 230 19:30 29.05.2022
3426 Rain 28 1011 76 10000 6.19 247 18:34 29.05.2022
3427 Clouds 29 1009 79 10000 6.17 240 16:40 29.05.2022
3428 Clouds 28 1009 89 10000 4.63 260 15:47 29.05.2022
3429 Clouds 29 1008 84 10000 6.17 240 14:56 29.05.2022
3430 Clouds 29 1008 84 10000 4.63 240 13:46 29.05.2022
3431 Clouds 31 1008 74 10000 6.69 240 11:31 29.05.2022
3432 Clouds 30 1009 79 10000 6.17 240 10:37 29.05.2022
3433 Clouds 30 1011 79 10000 5.14 240 08:36 29.05.2022
3434 Rain 28 1010 83 10000 3.09 220 04:59 29.05.2022
3435 Rain 28 1010 83 10000 3.09 220 04:41 29.05.2022
3436 Rain 27 1009 89 10000 5.14 230 02:24 29.05.2022
3437 Clouds 28 1009 78 10000 8.13 241 23:48 28.05.2022
3438 Clouds 28 1009 78 10000 8.1 240 23:25 28.05.2022
3439 Clouds 28 1010 83 10000 4.63 280 22:25 28.05.2022
3440 Clouds 28 1011 83 10000 5.66 270 21:31 28.05.2022
3441 Clouds 29 1011 76 10000 6.92 236 19:21 28.05.2022
3442 Clouds 28 1011 89 10000 4.63 290 18:46 28.05.2022
3443 Clouds 28 1010 83 10000 2.57 200 17:35 28.05.2022
3444 Clouds 28 1009 83 10000 3.09 300 16:35 28.05.2022
3445 Clouds 29 1009 74 10000 3.09 290 15:38 28.05.2022
3446 Clouds 30 1009 79 10000 2.57 280 13:57 28.05.2022
3447 Clouds 30 1009 79 10000 5.66 250 12:44 28.05.2022
3448 Clouds 30 1009 74 10000 5.66 250 11:57 28.05.2022
3449 Clouds 30 1010 70 10000 5.14 250 10:49 28.05.2022
3450 Clouds 29 1011 79 10000 3.6 210 09:56 28.05.2022
3451 Clouds 29 1011 74 10000 4.12 200 08:45 28.05.2022
3452 Clouds 29 1012 74 10000 3.09 220 07:23 28.05.2022
3453 Clouds 28 1011 78 10000 5.66 210 05:24 28.05.2022
3454 Clouds 27 1009 83 10000 5.66 250 02:38 28.05.2022
3455 Clouds 27 1009 83 10000 3.6 220 00:31 28.05.2022
3456 Clouds 27 1010 89 10000 5.14 250 22:51 27.05.2022
3457 Clouds 27 1011 89 7000 3.6 160 21:43 27.05.2022
3458 Clouds 28 1011 78 10000 5.79 238 20:49 27.05.2022
3459 Clouds 28 1012 77 10000 5.35 241 20:23 27.05.2022
3460 Clouds 28 1011 83 10000 2.06 210 19:41 27.05.2022
3461 Clouds 28 1012 77 10000 5.41 242 19:21 27.05.2022
3462 Clouds 29 1010 84 7000 4.63 240 17:52 27.05.2022
3463 Clouds 29 1010 79 10000 3.6 250 16:38 27.05.2022
3464 Clear 28 1010 74 10000 5.27 250 15:22 27.05.2022
3465 Clouds 31 1009 74 10000 2.57 250 13:53 27.05.2022
3466 Clouds 31 1009 74 10000 4.12 250 12:39 27.05.2022
3467 Clouds 31 1009 74 10000 5.14 250 11:33 27.05.2022
3468 Clouds 31 1010 70 10000 5.66 250 10:54 27.05.2022
3469 Clouds 31 1010 70 10000 5.66 250 10:26 27.05.2022
3470 Clouds 31 1011 74 10000 5.66 250 09:32 27.05.2022
3471 Clouds 31 1012 74 10000 5.14 250 07:42 27.05.2022
3472 Clouds 30 1012 74 10000 5.14 250 05:32 27.05.2022
3473 Clouds 28 1010 78 10000 5.66 240 02:25 27.05.2022
3474 Clouds 28 1010 76 10000 5.64 259 00:19 27.05.2022
3475 Clouds 28 1011 78 10000 4.12 270 22:30 26.05.2022
3476 Clouds 27 1012 83 10000 3.09 270 21:34 26.05.2022
3477 Clouds 26 1013 89 8000 3.6 270 19:51 26.05.2022
3478 Clouds 28 1013 75 10000 6.07 255 19:19 26.05.2022
3479 Rain 26 1012 94 7000 12.86 300 17:37 26.05.2022
3480 Clouds 27 1011 89 10000 1.03 0 16:36 26.05.2022
3481 Clouds 30 1010 79 10000 5.14 250 15:45 26.05.2022
3482 Clouds 30 1010 74 10000 5.66 260 14:24 26.05.2022
3483 Clouds 31 1009 70 10000 5.14 250 12:36 26.05.2022
3484 Clouds 28 1010 73 10000 5.12 228 11:23 26.05.2022
3485 Clouds 32 1012 70 10000 5.66 250 09:40 26.05.2022
3486 Clouds 28 1012 73 10000 5.18 224 09:19 26.05.2022
3487 Clouds 31 1013 70 10000 4.63 250 07:51 26.05.2022
3488 Clouds 28 1011 83 10000 3.09 230 03:35 26.05.2022
3489 Clouds 29 1009 79 10000 4.12 230 00:33 26.05.2022
3490 Clouds 29 1010 79 10000 4.63 230 23:39 25.05.2022
3491 Clouds 29 1011 74 10000 3.6 230 21:47 25.05.2022
3492 Clouds 29 1011 74 10000 3.6 230 21:28 25.05.2022
3493 Clouds 29 1012 79 10000 3.09 240 20:34 25.05.2022
3494 Clouds 28 1012 72 10000 3.73 257 19:21 25.05.2022
3495 Clouds 28 1012 72 10000 3.88 264 17:33 25.05.2022
3496 Clouds 29 1010 84 10000 3.09 260 16:36 25.05.2022
3497 Clouds 30 1010 74 10000 3.6 270 15:53 25.05.2022
3498 Clouds 32 1009 66 10000 3.09 270 14:51 25.05.2022
3499 Clouds 32 1009 66 10000 3.09 270 14:32 25.05.2022
3500 Clouds 32 1009 66 10000 3.6 270 13:42 25.05.2022
3501 Clouds 28 1009 75 10000 4.13 259 12:36 25.05.2022
3502 Clouds 32 1010 70 10000 3.6 250 10:43 25.05.2022
3503 Clouds 32 1011 70 10000 3.6 260 09:54 25.05.2022
3504 Clouds 28 1012 77 10000 3.38 255 08:23 25.05.2022
3505 Clouds 28 1012 76 10000 2.98 268 07:22 25.05.2022
3506 Clouds 28 1010 77 10000 3.61 268 03:22 25.05.2022
3507 Clouds 29 1009 84 10000 3.6 270 23:56 24.05.2022
3508 Clouds 29 1009 84 10000 3.6 270 23:25 24.05.2022
3509 Clouds 28 1010 79 10000 3.27 272 22:19 24.05.2022
3510 Clouds 29 1010 84 10000 3.6 260 21:39 24.05.2022
3511 Clouds 29 1010 84 10000 3.6 260 21:20 24.05.2022
3512 Clouds 28 1011 78 10000 3.5 250 19:45 24.05.2022
3513 Clouds 29 1011 84 10000 4.12 250 18:53 24.05.2022
3514 Clouds 29 1010 84 10000 4.63 250 16:42 24.05.2022
3515 Clouds 28 1011 77 10000 2.82 287 16:22 24.05.2022
3516 Clouds 31 1009 74 10000 5.66 260 14:56 24.05.2022
3517 Clouds 31 1009 74 10000 5.66 260 14:20 24.05.2022
3518 Clouds 29 1009 76 10000 4.63 285 12:49 24.05.2022
3519 Clouds 32 1009 70 10000 5.14 250 11:26 24.05.2022
3520 Clouds 31 1010 74 10000 4.63 250 09:44 24.05.2022
3521 Clouds 29 1011 75 10000 5.14 269 08:50 24.05.2022
3522 Clouds 30 1011 79 10000 5.66 250 06:57 24.05.2022
3523 Clouds 29 1009 79 10000 6.17 270 03:56 24.05.2022
3524 Clouds 28 1008 76 10000 5.63 252 01:53 24.05.2022
3525 Clouds 28 1008 75 10000 6.14 258 01:33 24.05.2022
3526 Clouds 29 1007 84 10000 6.17 250 22:55 23.05.2022
3527 Clouds 29 1009 74 10000 6.13 264 21:55 23.05.2022
3528 Clouds 29 1009 75 10000 6.19 264 21:29 23.05.2022
3529 Clouds 29 1009 75 10000 6.19 264 20:35 23.05.2022
3530 Clouds 28 1010 77 10000 6.39 268 19:32 23.05.2022
3531 Clouds 29 1008 89 10000 5.66 260 18:58 23.05.2022
3532 Clouds 29 1008 89 10000 5.66 260 18:30 23.05.2022
3533 Clouds 29 1008 89 10000 6.17 260 17:24 23.05.2022
3534 Clouds 30 1007 79 10000 6.17 280 15:31 23.05.2022
3535 Clouds 29 1007 76 10000 6.58 266 13:22 23.05.2022
3536 Clouds 32 1007 74 10000 6.69 270 11:33 23.05.2022
3537 Clouds 32 1008 74 10000 6.17 260 10:31 23.05.2022
3538 Clouds 32 1008 70 10000 6.69 270 09:39 23.05.2022
3539 Clouds 31 1009 74 10000 6.17 270 08:32 23.05.2022
3540 Clouds 31 1008 74 10000 5.66 270 06:46 23.05.2022
3541 Clouds 29 1009 75 10000 5.91 283 06:22 23.05.2022
3542 Clouds 29 1006 84 10000 5.14 290 02:35 23.05.2022
3543 Clouds 29 1006 79 10000 5.14 290 01:42 23.05.2022
3544 Clouds 28 1007 89 10000 5.14 280 00:38 23.05.2022
3545 Clouds 28 1008 89 10000 4.63 300 22:42 22.05.2022
3546 Clouds 29 1009 84 10000 4.12 300 21:55 22.05.2022
3547 Clouds 29 1009 84 10000 4.12 300 21:36 22.05.2022
3548 Clouds 29 1009 84 10000 4.63 290 20:37 22.05.2022
3549 Clouds 29 1010 76 10000 5.99 278 20:18 22.05.2022
3550 Clouds 29 1009 84 10000 5.66 280 18:58 22.05.2022
3551 Clouds 29 1009 84 10000 5.66 280 18:31 22.05.2022
3552 Clouds 29 1008 84 10000 6.17 280 17:51 22.05.2022
3553 Clouds 29 1008 84 10000 6.69 280 16:51 22.05.2022
3554 Clouds 31 1007 74 10000 7.2 270 14:55 22.05.2022
3555 Clouds 31 1007 74 10000 6.69 270 13:57 22.05.2022
3556 Clouds 31 1007 74 10000 7.2 270 12:53 22.05.2022
3557 Clouds 30 1007 79 10000 5.66 290 11:52 22.05.2022
3558 Clouds 31 1008 74 10000 6.17 270 10:27 22.05.2022
3559 Clouds 28 1009 77 10000 6.72 273 09:19 22.05.2022
3560 Clouds 30 1010 79 10000 5.66 280 07:34 22.05.2022
3561 Clouds 31 1010 74 10000 6.17 260 06:40 22.05.2022
3562 Clouds 28 1008 89 10000 5.14 260 03:25 22.05.2022
3563 Clouds 29 1008 79 10000 5.66 250 00:48 22.05.2022
3564 Clouds 28 1009 89 10000 4.63 250 23:56 21.05.2022
3565 Clouds 28 1009 78 10000 6.32 255 23:22 21.05.2022
3566 Clouds 29 1010 84 10000 4.63 260 21:59 21.05.2022
3567 Clouds 29 1010 84 10000 4.63 260 21:30 21.05.2022
3568 Clouds 29 1011 84 10000 4.63 260 20:34 21.05.2022
3569 Clouds 29 1011 84 10000 5.14 260 19:44 21.05.2022
3570 Clouds 29 1010 84 10000 5.66 270 18:45 21.05.2022
3571 Clouds 29 1009 84 10000 5.14 260 16:57 21.05.2022
3572 Clouds 31 1008 74 10000 6.17 270 14:49 21.05.2022
3573 Clouds 31 1008 74 10000 6.69 250 13:55 21.05.2022
3574 Clouds 29 1008 75 10000 6.66 259 13:19 21.05.2022
3575 Clouds 31 1008 74 10000 6.17 250 12:38 21.05.2022
3576 Clouds 31 1008 74 10000 5.14 250 11:25 21.05.2022
3577 Clouds 29 1009 75 10000 6.1 257 10:21 21.05.2022
3578 Clouds 29 1010 75 10000 6.48 258 08:59 21.05.2022
3579 Clouds 29 1010 75 10000 6.48 258 08:38 21.05.2022
3580 Clouds 29 1011 74 10000 6.39 250 06:20 21.05.2022
3581 Clouds 29 1009 84 10000 4.63 240 01:41 21.05.2022
3582 Clouds 29 1010 84 10000 4.63 230 23:32 20.05.2022
3583 Clouds 29 1010 84 10000 5.14 230 22:30 20.05.2022
3584 Clouds 29 1011 84 10000 4.63 230 21:56 20.05.2022
3585 Clouds 28 1011 77 10000 5.4 243 21:19 20.05.2022
3586 Clouds 29 1011 79 10000 4.63 230 20:47 20.05.2022
3587 Clouds 29 1011 79 10000 5.66 240 19:45 20.05.2022
3588 Clouds 29 1011 84 10000 6.17 240 18:53 20.05.2022
3589 Clouds 29 1011 84 10000 5.66 240 17:53 20.05.2022
3590 Clouds 29 1011 77 10000 5.96 244 16:23 20.05.2022
3591 Clouds 30 1009 79 10000 6.69 240 15:54 20.05.2022
3592 Clouds 30 1009 79 10000 7.2 250 14:44 20.05.2022
3593 Clouds 30 1009 79 10000 7.2 250 14:26 20.05.2022
3594 Clouds 30 1009 79 10000 5.14 270 11:52 20.05.2022
3595 Clouds 31 1010 74 10000 9.77 250 10:45 20.05.2022
3596 Clouds 28 1011 79 10000 7.09 236 09:23 20.05.2022
3597 Clouds 30 1012 84 10000 5.14 210 07:43 20.05.2022
3598 Clouds 30 1010 79 10000 5.14 200 06:40 20.05.2022
3599 Clouds 29 1011 84 10000 5.66 210 05:39 20.05.2022
3600 Thunderstorm 27 1010 94 10000 5.14 220 01:29 20.05.2022
3601 Clouds 26 1009 94 8000 7.2 230 23:46 19.05.2022
3602 Clouds 26 1010 94 8000 7.72 230 22:35 19.05.2022
3603 Thunderstorm 28 1010 89 10000 4.12 240 21:50 19.05.2022
3604 Clouds 28 1011 81 10000 6.42 230 21:23 19.05.2022
3605 Thunderstorm 28 1011 83 10000 4.63 230 20:47 19.05.2022
3606 Clouds 28 1011 79 10000 6.2 232 19:54 19.05.2022
3607 Clouds 28 1012 79 10000 6.54 238 19:00 19.05.2022
3608 Clouds 27 1010 89 9000 7.72 260 17:44 19.05.2022
3609 Clouds 29 1009 84 10000 6.17 240 15:51 19.05.2022
3610 Clouds 30 1009 79 10000 5.66 240 14:47 19.05.2022
3611 Clouds 28 1010 80 10000 6.68 245 14:20 19.05.2022
3612 Clouds 31 1009 74 10000 7.2 240 11:54 19.05.2022
3613 Clouds 31 1010 74 10000 7.2 240 10:30 19.05.2022
3614 Clouds 31 1011 70 10000 7.2 240 08:39 19.05.2022
3615 Clouds 29 1012 78 10000 8.23 233 07:18 19.05.2022
3616 Clouds 29 1010 79 10000 5.66 230 03:41 19.05.2022
3617 Clouds 28 1009 83 10000 4.12 240 00:57 19.05.2022
3618 Rain 29 1009 79 10000 5.66 240 23:35 18.05.2022
3619 Clouds 29 1009 74 10000 7.2 240 22:43 18.05.2022
3620 Clouds 28 1009 78 10000 6.69 250 21:43 18.05.2022
3621 Clouds 28 1010 79 10000 7.36 248 21:23 18.05.2022
3622 Clouds 28 1011 79 10000 7.42 253 20:19 18.05.2022
3623 Clouds 28 1011 83 10000 8.75 270 18:53 18.05.2022
3624 Rain 27 1011 89 9000 6.69 280 17:42 18.05.2022
3625 Rain 28 1011 81 8022 8.73 261 17:24 18.05.2022
3626 Rain 28 1011 81 8022 8.73 261 16:53 18.05.2022
3627 Rain 27 1009 89 9000 9.26 270 15:52 18.05.2022
3628 Rain 27 1009 89 9000 9.26 270 15:33 18.05.2022
3629 Clouds 26 1009 94 10000 9.26 270 14:21 18.05.2022
3630 Rain 26 1009 94 10000 10.29 260 12:54 18.05.2022
3631 Rain 28 1009 75 10000 9.29 261 12:24 18.05.2022
3632 Clouds 28 1009 83 10000 12.86 260 11:33 18.05.2022
3633 Clouds 29 1010 79 10000 12.35 260 10:43 18.05.2022
3634 Clouds 28 1011 80 5507 8.65 250 08:19 18.05.2022
3635 Clouds 30 1010 79 10000 10.8 250 07:27 18.05.2022
3636 Clouds 28 1008 83 10000 8.75 250 03:40 18.05.2022
3637 Clouds 28 1007 83 10000 9.77 250 00:51 18.05.2022
3638 Clouds 28 1008 83 10000 10.29 250 23:41 17.05.2022
3639 Clouds 28 1009 81 10000 10.6 250 21:22 17.05.2022
3640 Clouds 28 1009 89 10000 11.32 240 20:44 17.05.2022
3641 Clouds 27 1009 89 10000 11.83 240 19:41 17.05.2022
3642 Rain 28 1010 80 10000 10.57 251 19:20 17.05.2022
3643 Clouds 27 1009 89 10000 11.83 270 17:34 17.05.2022
3644 Clouds 28 1010 80 10000 10.98 257 16:57 17.05.2022
3645 Rain 29 1008 74 10000 10.29 260 15:59 17.05.2022
3646 Rain 28 1007 78 10000 12.35 260 14:55 17.05.2022
3647 Clouds 28 1007 78 10000 12.35 260 14:28 17.05.2022
3648 Rain 28 1007 80 10000 10.93 266 13:24 17.05.2022
3649 Clouds 29 1008 74 10000 11.83 270 10:42 17.05.2022
3650 Clouds 30 1009 74 10000 10.29 270 08:51 17.05.2022
3651 Clouds 30 1009 74 10000 9.77 270 07:55 17.05.2022
3652 Clouds 28 1010 81 10000 10.3 260 06:23 17.05.2022
3653 Clouds 29 1006 84 10000 11.32 250 01:34 17.05.2022
3654 Clouds 28 1007 83 9000 11.83 250 23:46 16.05.2022
3655 Clouds 27 1008 83 6000 14.4 250 22:39 16.05.2022
3656 Clouds 28 1010 80 10000 10.17 266 21:24 16.05.2022
3657 Clouds 28 1010 80 10000 10.17 266 20:42 16.05.2022
3658 Clouds 29 1009 89 10000 8.23 270 18:51 16.05.2022
3659 Clouds 28 1008 89 10000 9.77 270 17:26 16.05.2022
3660 Rain 30 1007 79 9000 9.26 270 15:35 16.05.2022
3661 Clouds 30 1007 79 10000 9.77 260 13:48 16.05.2022
3662 Clouds 31 1007 79 10000 10.29 260 12:44 16.05.2022
3663 Clouds 31 1008 79 10000 9.77 260 10:38 16.05.2022
3664 Clouds 32 1010 74 10000 7.72 260 08:32 16.05.2022
3665 Clouds 30 1010 79 10000 9.26 260 06:30 16.05.2022
3666 Clouds 30 1010 79 10000 9.26 260 06:30 16.05.2022
3667 Clouds 29 1007 84 10000 9.77 250 01:43 16.05.2022
3668 Clouds 29 1009 84 10000 8.75 250 22:52 15.05.2022
3669 Clouds 29 1010 76 10000 8.13 259 22:20 15.05.2022
3670 Clouds 30 1010 79 10000 8.75 250 21:37 15.05.2022
3671 Clouds 29 1011 84 10000 8.75 260 20:47 15.05.2022
3672 Clouds 30 1010 79 10000 8.23 250 18:52 15.05.2022
3673 Clouds 30 1009 79 10000 8.75 270 17:29 15.05.2022
3674 Clouds 30 1008 79 10000 10.29 260 14:58 15.05.2022
3675 Clouds 31 1008 74 10000 8.75 270 13:46 15.05.2022
3676 Clouds 29 1009 76 10000 7.75 263 12:21 15.05.2022
3677 Clouds 31 1008 74 10000 9.26 250 11:27 15.05.2022
3678 Clouds 31 1010 79 10000 9.26 250 09:58 15.05.2022
3679 Clouds 31 1010 79 10000 8.23 250 07:25 15.05.2022
3680 Clouds 30 1010 79 10000 9.26 250 06:56 15.05.2022
3681 Rain 29 1008 89 10000 9.26 260 03:40 15.05.2022
3682 Clouds 29 1008 84 10000 9.26 250 00:42 15.05.2022
3683 Clouds 29 1008 84 10000 9.26 250 23:38 14.05.2022
3684 Clouds 29 1009 84 10000 9.77 250 22:39 14.05.2022
3685 Clouds 29 1010 84 9000 9.26 250 21:26 14.05.2022
3686 Rain 29 1011 84 10000 7.2 260 20:30 14.05.2022
3687 Rain 28 1011 77 10000 8.57 266 19:21 14.05.2022
3688 Clouds 29 1011 79 10000 7.72 270 18:59 14.05.2022
3689 Rain 29 1011 79 10000 8.23 260 17:53 14.05.2022
3690 Rain 29 1010 75 10000 9.27 263 16:23 14.05.2022
3691 Rain 28 1009 83 9000 8.23 270 14:50 14.05.2022
3692 Rain 28 1009 83 9000 8.23 270 14:26 14.05.2022
3693 Rain 28 1009 83 4000 14.4 260 11:51 14.05.2022
3694 Rain 30 1009 79 10000 11.83 250 10:53 14.05.2022
3695 Clouds 28 1010 73 10000 13.33 251 10:20 14.05.2022
3696 Clouds 31 1009 74 10000 12.35 250 09:46 14.05.2022
3697 Clouds 30 1010 74 7000 12.35 250 07:59 14.05.2022
3698 Rain 27 1011 90 3614 12 253 05:21 14.05.2022
3699 Clouds 29 1007 79 10000 15.95 240 01:57 14.05.2022
3700 Clouds 27 1007 89 6000 11.83 250 23:31 13.05.2022
3701 Clouds 28 1008 80 10000 9.32 242 22:56 13.05.2022
3702 Clouds 28 1008 79 10000 9.32 247 22:22 13.05.2022
3703 Clouds 28 1008 89 9000 8.23 270 21:24 13.05.2022
3704 Clouds 27 1010 89 8000 14.4 270 20:43 13.05.2022
3705 Clouds 28 1010 79 9683 8.86 251 20:23 13.05.2022
3706 Clouds 28 1010 80 10000 8.62 251 19:21 13.05.2022
3707 Clouds 29 1008 84 10000 8.75 240 17:50 13.05.2022
3708 Clouds 29 1008 84 10000 8.75 240 17:26 13.05.2022
3709 Clouds 29 1007 79 10000 8.75 240 15:53 13.05.2022
3710 Clouds 29 1006 79 10000 7.2 230 14:50 13.05.2022
3711 Rain 27 1006 89 9000 4.63 220 12:58 13.05.2022
3712 Rain 27 1006 89 9000 4.63 220 12:25 13.05.2022
3713 Rain 28 1008 83 10000 7.2 240 10:35 13.05.2022
3714 Clouds 31 1008 70 10000 5.14 200 09:29 13.05.2022
3715 Clouds 29 1010 75 10000 8.33 246 08:20 13.05.2022
3716 Clouds 31 1009 74 10000 7.2 240 07:31 13.05.2022
3717 Clouds 30 1009 79 10000 7.2 230 05:58 13.05.2022
3718 Clouds 29 1006 79 10000 9.26 240 01:49 13.05.2022
3719 Clouds 29 1006 84 10000 8.75 240 23:43 12.05.2022
3720 Clouds 29 1007 84 10000 9.26 240 22:42 12.05.2022
3721 Clouds 29 1008 79 10000 9.26 230 21:36 12.05.2022
3722 Clouds 28 1010 79 10000 8.53 242 20:23 12.05.2022
3723 Clouds 29 1009 84 10000 8.23 240 18:31 12.05.2022
3724 Clouds 29 1008 84 10000 8.23 240 16:57 12.05.2022
3725 Rain 28 1008 89 10000 6.69 240 15:49 12.05.2022
3726 Rain 26 1007 94 7000 6.69 260 13:59 12.05.2022
3727 Rain 28 1008 80 10000 8.57 239 13:21 12.05.2022
3728 Rain 31 1008 70 10000 8.75 250 10:40 12.05.2022
3729 Rain 31 1010 74 10000 6.69 250 08:59 12.05.2022
3730 Rain 31 1010 74 10000 6.69 250 08:39 12.05.2022
3731 Rain 30 1010 79 8000 8.23 240 07:37 12.05.2022
3732 Rain 29 1009 79 10000 7.2 240 05:30 12.05.2022
3733 Clouds 28 1008 80 9794 7.22 248 02:24 12.05.2022
3734 Clouds 28 1007 89 10000 4.63 260 23:56 11.05.2022
3735 Clouds 30 1008 79 10000 8.23 240 22:31 11.05.2022
3736 Clouds 28 1009 89 10000 5.14 240 21:32 11.05.2022
3737 Clouds 29 1009 89 10000 7.2 240 20:52 11.05.2022
3738 Clouds 29 1010 77 10000 7.82 252 18:24 11.05.2022
3739 Rain 29 1008 84 10000 7.2 240 16:50 11.05.2022
3740 Rain 29 1007 79 9000 8.75 250 14:50 11.05.2022
3741 Clouds 29 1007 79 9000 8.75 250 14:26 11.05.2022
3742 Rain 29 1006 84 8000 11.83 250 13:44 11.05.2022
3743 Rain 31 1007 74 10000 7.72 250 11:51 11.05.2022
3744 Rain 30 1008 79 10000 8.23 250 10:27 11.05.2022
3745 Rain 30 1010 79 10000 5.66 250 08:33 11.05.2022
3746 Rain 30 1008 79 10000 8.23 280 04:44 11.05.2022
3747 Thunderstorm 30 1006 79 10000 9.77 260 00:41 11.05.2022
3748 Thunderstorm 30 1007 79 10000 10.29 270 22:30 10.05.2022
3749 Thunderstorm 30 1009 79 10000 11.83 270 21:47 10.05.2022
3750 Thunderstorm 30 1009 84 10000 11.32 260 20:52 10.05.2022
3751 Clouds 29 1010 79 10000 9.56 262 19:26 10.05.2022
3752 Thunderstorm 30 1008 79 10000 10.8 260 17:49 10.05.2022
3753 Clouds 29 1009 77 10000 8.71 268 16:49 10.05.2022
3754 Clouds 31 1006 74 10000 10.8 270 14:33 10.05.2022
3755 Clouds 32 1006 74 10000 10.29 270 12:37 10.05.2022
3756 Clouds 31 1006 79 10000 10.8 270 11:49 10.05.2022
3757 Clouds 29 1007 77 10000 8.91 283 11:18 10.05.2022
3758 Clouds 32 1008 74 10000 10.8 270 09:59 10.05.2022
3759 Clouds 32 1008 74 10000 10.8 270 09:25 10.05.2022
3760 Clouds 31 1008 79 10000 7.72 270 06:44 10.05.2022
3761 Clouds 30 1006 79 9000 9.26 280 02:59 10.05.2022
3762 Clouds 30 1005 84 9000 10.8 290 00:33 10.05.2022
3763 Clouds 29 1007 76 10000 9.24 289 22:44 09.05.2022
3764 Clouds 30 1007 84 8000 9.77 280 21:48 09.05.2022
3765 Clouds 29 1008 84 8000 8.75 250 20:25 09.05.2022
3766 Clouds 30 1009 84 8000 10.8 280 18:43 09.05.2022
3767 Clouds 30 1008 84 8000 9.26 280 17:39 09.05.2022
3768 Clouds 30 1008 79 8000 9.26 280 16:29 09.05.2022
3769 Clouds 30 1007 84 8000 8.23 280 15:49 09.05.2022
3770 Rain 31 1007 74 8000 9.26 280 14:47 09.05.2022
3771 Rain 29 1006 78 10000 8.81 290 14:22 09.05.2022
3772 Clouds 31 1006 74 8000 9.26 280 13:36 09.05.2022
3773 Clouds 31 1006 74 8000 9.26 280 13:36 09.05.2022
3774 Clouds 32 1006 70 8000 9.77 280 11:57 09.05.2022
3775 Clouds 32 1007 66 8000 9.26 290 10:55 09.05.2022
3776 Clouds 32 1007 66 8000 9.26 290 10:36 09.05.2022
3777 Clouds 32 1008 70 8000 9.26 290 08:31 09.05.2022
3778 Clouds 32 1008 70 8000 8.75 300 07:49 09.05.2022
3779 Clouds 30 1005 79 9000 9.77 290 02:55 09.05.2022
3780 Clouds 30 1005 84 9000 8.23 280 23:29 08.05.2022
3781 Clouds 30 1006 84 9000 9.26 270 22:51 08.05.2022
3782 Clouds 30 1007 84 9000 8.23 280 21:48 08.05.2022
3783 Clouds 30 1007 84 9000 8.23 280 21:48 08.05.2022
3784 Clouds 30 1007 79 9000 8.23 270 20:33 08.05.2022
3785 Clouds 30 1008 79 9000 8.23 280 19:37 08.05.2022
3786 Clouds 30 1007 84 9000 8.75 290 18:52 08.05.2022
3787 Clouds 29 1008 78 10000 7.35 275 17:52 08.05.2022
3788 Clouds 29 1008 79 10000 7.56 274 16:33 08.05.2022
3789 Clouds 30 1005 84 9000 9.26 270 15:26 08.05.2022
3790 Clouds 29 1007 80 10000 7.62 274 14:39 08.05.2022
3791 Clouds 29 1006 78 10000 8.06 280 12:21 08.05.2022
3792 Clouds 32 1006 74 9000 8.23 270 10:27 08.05.2022
3793 Clouds 32 1007 74 9000 7.2 280 09:56 08.05.2022
3794 Clouds 32 1008 74 9000 7.2 270 08:52 08.05.2022
3795 Clouds 31 1008 74 9000 6.69 290 06:51 08.05.2022
3796 Clouds 30 1007 79 10000 6.69 270 03:26 08.05.2022
3797 Clouds 29 1007 76 10000 5.75 287 02:23 08.05.2022
3798 Clouds 29 1007 78 10000 5.1 291 00:21 08.05.2022
3799 Clouds 29 1007 84 10000 7.2 270 23:47 07.05.2022
3800 Clouds 29 1007 89 10000 5.66 270 22:46 07.05.2022
3801 Clouds 29 1008 89 10000 6.17 260 21:57 07.05.2022
3802 Clouds 29 1008 89 10000 6.17 260 21:33 07.05.2022
3803 Clouds 29 1008 89 10000 6.69 270 20:27 07.05.2022
3804 Clouds 29 1008 75 10000 6.35 296 19:22 07.05.2022
3805 Clouds 29 1007 84 10000 5.66 290 17:33 07.05.2022
3806 Clouds 29 1006 79 10000 4.63 290 15:34 07.05.2022
3807 Clouds 30 1006 79 10000 7.72 300 12:50 07.05.2022
3808 Clouds 29 1007 74 10000 7.46 294 10:33 07.05.2022
3809 Clouds 29 1009 76 10000 6.86 290 08:52 07.05.2022
3810 Clouds 31 1010 79 10000 6.69 270 07:43 07.05.2022
3811 Clouds 31 1010 74 10000 6.69 270 06:43 07.05.2022
3812 Clouds 30 1008 79 10000 7.2 270 04:24 07.05.2022
3813 Thunderstorm 29 1007 89 10000 6.69 260 00:56 07.05.2022
3814 Clouds 29 1008 76 10000 5.42 281 23:28 06.05.2022
3815 Clouds 29 1008 76 10000 5.48 283 22:21 06.05.2022
3816 Clouds 29 1008 76 10000 5.48 283 21:36 06.05.2022
3817 Clouds 29 1010 76 10000 6.08 290 20:20 06.05.2022
3818 Thunderstorm 30 1009 84 10000 6.69 270 19:29 06.05.2022
3819 Thunderstorm 30 1009 84 10000 6.69 270 19:29 06.05.2022
3820 Thunderstorm 30 1009 84 10000 6.69 270 18:54 06.05.2022
3821 Clouds 30 1008 79 10000 6.69 270 17:38 06.05.2022
3822 Clouds 30 1007 84 10000 6.69 270 15:56 06.05.2022
3823 Clouds 30 1007 84 10000 6.69 270 15:33 06.05.2022
3824 Clouds 29 1008 74 10000 6.84 280 14:23 06.05.2022
3825 Clouds 31 1006 74 10000 7.72 290 12:53 06.05.2022
3826 Clouds 31 1006 74 10000 7.72 290 12:30 06.05.2022
3827 Clouds 32 1007 74 10000 7.2 280 11:33 06.05.2022
3828 Clouds 31 1009 74 10000 6.69 270 09:49 06.05.2022
3829 Clouds 29 1009 72 10000 8.44 270 09:19 06.05.2022
3830 Clouds 31 1009 74 10000 6.17 280 07:57 06.05.2022
3831 Clouds 31 1009 74 10000 7.2 260 06:29 06.05.2022
3832 Clouds 29 1009 84 10000 6.69 250 04:32 06.05.2022
3833 Clouds 28 1009 76 10000 5.17 251 02:43 06.05.2022
3834 Rain 29 1008 84 10000 4.63 230 23:34 05.05.2022
3835 Clouds 29 1010 84 10000 5.14 250 21:52 05.05.2022
3836 Clouds 28 1010 79 10000 7.35 222 20:48 05.05.2022
3837 Clouds 29 1010 84 10000 7.2 250 19:49 05.05.2022
3838 Clouds 29 1010 75 10000 5.82 275 16:53 05.05.2022
3839 Clouds 29 1009 75 10000 6.23 290 15:52 05.05.2022
3840 Rain 29 1009 75 10000 5.95 295 14:37 05.05.2022
3841 Clouds 29 1008 74 10000 6.91 286 13:18 05.05.2022
3842 Clouds 29 1008 74 10000 7 285 11:48 05.05.2022
3843 Clouds 32 1008 70 10000 5.14 300 10:30 05.05.2022
3844 Clouds 32 1009 70 10000 5.66 300 09:34 05.05.2022
3845 Clouds 29 1010 75 10000 6.18 287 07:19 05.05.2022
3846 Rain 29 1007 84 10000 6.69 300 02:33 05.05.2022
3847 Clouds 30 1007 79 10000 7.2 300 01:47 05.05.2022
3848 Rain 28 1009 74 10000 6.43 281 01:20 05.05.2022
3849 Clouds 30 1008 79 10000 7.2 290 23:31 04.05.2022
3850 Clouds 28 1011 78 10000 6.91 245 22:25 04.05.2022
3851 Clouds 29 1010 79 10000 8.23 290 21:49 04.05.2022
3852 Clouds 28 1011 75 10000 7.65 244 21:26 04.05.2022
3853 Clouds 29 1012 72 10000 7.78 243 20:22 04.05.2022
3854 Clouds 30 1011 74 9000 7.72 270 19:51 04.05.2022
3855 Clouds 30 1010 79 10000 7.2 260 18:49 04.05.2022
3856 Clouds 29 1012 68 10000 8.41 249 18:20 04.05.2022
3857 Clouds 30 1010 79 10000 8.23 260 17:28 04.05.2022
3858 Clouds 30 1008 79 10000 7.72 260 15:38 04.05.2022
3859 Clouds 31 1008 74 10000 8.23 270 14:49 04.05.2022
3860 Clouds 30 1009 69 10000 7.07 270 14:20 04.05.2022
3861 Clouds 29 1009 70 10000 7.95 270 13:18 04.05.2022
3862 Clouds 31 1008 74 10000 7.72 270 12:28 04.05.2022
3863 Clouds 31 1009 74 10000 7.2 250 10:33 04.05.2022
3864 Clouds 32 1010 70 10000 6.17 280 09:28 04.05.2022
3865 Clouds 32 1010 66 10000 6.17 280 08:33 04.05.2022
3866 Clouds 30 1010 74 10000 5.14 280 05:50 04.05.2022
3867 Clouds 28 1008 83 10000 6.69 290 02:43 04.05.2022
3868 Thunderstorm 28 1008 89 10000 10.29 270 23:31 03.05.2022
3869 Rain 28 1010 81 10000 9.74 260 22:20 03.05.2022
3870 Thunderstorm 28 1009 89 9000 5.14 250 21:36 03.05.2022
3871 Clouds 28 1010 83 9000 4.12 230 20:52 03.05.2022
3872 Thunderstorm 27 1010 89 7000 6.17 230 19:45 03.05.2022
3873 Rain 28 1011 78 10000 8.44 242 18:50 03.05.2022
3874 Thunderstorm 30 1009 84 10000 4.12 250 17:45 03.05.2022
3875 Thunderstorm 30 1008 84 10000 3.09 250 16:35 03.05.2022
3876 Rain 31 1007 79 10000 3.6 270 14:51 03.05.2022
3877 Rain 32 1006 74 10000 4.12 300 12:47 03.05.2022
3878 Rain 29 1007 78 10000 6.57 318 12:25 03.05.2022
3879 Clouds 32 1008 74 10000 5.14 300 10:52 03.05.2022
3880 Clouds 32 1009 74 10000 5.66 290 08:58 03.05.2022
3881 Clouds 31 1009 74 10000 6.69 290 06:46 03.05.2022
3882 Clouds 30 1008 79 10000 7.2 300 04:58 03.05.2022
3883 Clouds 30 1007 79 10000 7.2 300 23:44 02.05.2022
3884 Clouds 30 1008 79 10000 7.2 300 22:36 02.05.2022
3885 Clouds 30 1008 79 10000 6.69 290 21:49 02.05.2022
3886 Clouds 30 1008 79 10000 5.66 280 20:51 02.05.2022
3887 Clouds 30 1008 79 10000 7.2 270 18:37 02.05.2022
3888 Clouds 30 1008 79 10000 8.23 270 17:53 02.05.2022
3889 Clouds 30 1008 79 10000 8.23 270 17:33 02.05.2022
3890 Clouds 30 1008 75 10000 8.2 288 16:20 02.05.2022
3891 Clouds 30 1007 79 10000 8.75 270 15:29 02.05.2022
3892 Clouds 31 1006 74 10000 7.2 280 13:50 02.05.2022
3893 Clouds 30 1006 76 9115 8.35 282 12:18 02.05.2022
3894 Clouds 29 1007 76 10000 7.91 275 10:25 02.05.2022
3895 Clouds 32 1009 70 10000 7.2 270 08:46 02.05.2022
3896 Clouds 31 1009 74 10000 8.23 270 07:39 02.05.2022
3897 Clouds 30 1007 74 10000 9.26 270 02:51 02.05.2022
3898 Clouds 30 1007 73 10000 8.92 277 00:24 02.05.2022
3899 Clouds 30 1007 74 10000 9.77 270 23:47 01.05.2022
3900 Clouds 30 1008 73 10000 9.2 274 22:20 01.05.2022
3901 Clouds 30 1009 73 10000 9.33 270 21:18 01.05.2022
3902 Clouds 29 1009 84 10000 8.23 260 19:50 01.05.2022
3903 Clouds 30 1009 70 10000 7.72 270 18:55 01.05.2022
3904 Clouds 30 1010 75 10000 8.51 273 18:22 01.05.2022
3905 Clouds 30 1009 74 10000 5.14 290 17:26 01.05.2022
3906 Clouds 30 1009 74 10000 8.36 274 16:23 01.05.2022
3907 Rain 30 1008 74 10000 8.54 274 15:24 01.05.2022
3908 Clouds 29 1007 79 10000 9.77 270 13:42 01.05.2022
3909 Clouds 28 1008 89 9000 11.32 260 10:53 01.05.2022
3910 Clouds 30 1009 73 10000 8.14 268 08:53 01.05.2022
3911 Clouds 30 1009 73 10000 8.14 268 08:53 01.05.2022
3912 Clouds 30 1010 79 7000 6.69 280 07:55 01.05.2022
3913 Clouds 30 1007 79 10000 8.23 260 03:31 01.05.2022
3914 Clouds 30 1007 79 10000 8.75 250 23:49 30.04.2022
3915 Clouds 30 1009 79 10000 7.72 250 21:44 30.04.2022
3916 Clouds 30 1009 74 10000 7.72 250 20:45 30.04.2022
3917 Clouds 30 1010 79 10000 7.72 250 19:41 30.04.2022
3918 Clouds 30 1009 79 10000 7.2 250 17:45 30.04.2022
3919 Clouds 30 1008 79 10000 8.23 250 16:42 30.04.2022
3920 Clouds 31 1007 70 10000 7.72 250 15:46 30.04.2022
3921 Clouds 31 1006 70 10000 7.72 260 14:43 30.04.2022
3922 Clouds 32 1007 66 10000 6.69 260 12:42 30.04.2022
3923 Clouds 32 1008 66 10000 7.72 270 11:34 30.04.2022
3924 Clouds 32 1009 70 10000 7.72 280 10:44 30.04.2022
3925 Clouds 30 1009 72 10000 5.81 266 09:25 30.04.2022
3926 Clouds 31 1010 70 10000 5.14 290 06:43 30.04.2022
3927 Clouds 29 1007 84 10000 5.66 240 01:53 30.04.2022
3928 Clouds 29 1007 84 10000 5.14 240 23:37 29.04.2022
3929 Clouds 29 1009 84 10000 5.14 240 22:31 29.04.2022
3930 Clouds 29 1010 84 10000 4.12 250 21:34 29.04.2022
3931 Clouds 30 1011 79 10000 4.63 250 20:49 29.04.2022
3932 Clouds 29 1011 84 10000 4.12 240 19:45 29.04.2022
3933 Clouds 30 1010 74 10000 7.2 250 17:55 29.04.2022
3934 Clouds 30 1010 73 10000 4.78 256 17:21 29.04.2022
3935 Clouds 30 1009 71 10000 4.08 268 15:23 29.04.2022
3936 Clouds 30 1008 71 10000 4.44 267 14:22 29.04.2022
3937 Clouds 31 1008 74 10000 7.2 240 12:52 29.04.2022
3938 Clouds 32 1009 74 10000 6.69 250 11:40 29.04.2022
3939 Clouds 30 1010 71 10000 4.19 234 08:51 29.04.2022
3940 Clouds 31 1011 74 10000 3.09 240 07:28 29.04.2022
3941 Rain 30 1011 74 10000 2.57 220 06:39 29.04.2022
3942 Thunderstorm 27 1010 89 9000 6.17 190 04:53 29.04.2022
3943 Clouds 29 1009 73 10000 3.78 222 00:39 29.04.2022
3944 Clouds 28 1008 94 10000 3.09 270 23:28 28.04.2022
3945 Clouds 28 1009 89 10000 1.54 220 22:41 28.04.2022
3946 Clouds 28 1010 89 10000 0.51 0 21:47 28.04.2022
3947 Clouds 29 1010 74 10000 2.9 211 21:19 28.04.2022
3948 Clouds 29 1010 84 10000 1.54 190 20:25 28.04.2022
3949 Clouds 28 1010 89 10000 1.54 170 19:41 28.04.2022
3950 Clouds 30 1011 72 10000 3.05 209 19:22 28.04.2022
3951 Clouds 28 1010 89 10000 1.03 0 18:35 28.04.2022
3952 Clouds 30 1010 72 10000 3.62 208 17:24 28.04.2022
3953 Clouds 30 1008 79 10000 1.54 200 16:40 28.04.2022
3954 Clouds 30 1009 72 10000 3.63 209 16:18 28.04.2022
3955 Clouds 31 1008 74 10000 1.54 220 15:28 28.04.2022
3956 Clouds 32 1007 74 10000 1.54 210 13:44 28.04.2022
3957 Clouds 31 1007 79 10000 1.54 250 12:44 28.04.2022
3958 Clouds 31 1008 79 10000 1.54 170 11:58 28.04.2022
3959 Clouds 31 1008 79 10000 1.54 250 10:46 28.04.2022
3960 Clouds 32 1009 74 10000 7.2 260 09:54 28.04.2022
3961 Clouds 33 1010 70 10000 3.09 200 08:31 28.04.2022
3962 Clouds 32 1010 70 10000 4.12 200 06:59 28.04.2022
3963 Clouds 31 1009 74 10000 3.09 220 05:56 28.04.2022
3964 Clouds 31 1009 74 10000 3.09 220 05:38 28.04.2022
3965 Clear 29 1010 72 10000 2.61 204 04:39 28.04.2022
3966 Thunderstorm 29 1007 84 10000 2.57 200 00:30 28.04.2022
3967 Thunderstorm 28 1008 89 10000 2.08 205 22:39 27.04.2022
3968 Rain 29 1008 70 10000 1.72 215 21:55 27.04.2022
3969 Clouds 29 1009 71 10000 1.74 214 21:18 27.04.2022
3970 Rain 29 1009 71 10000 1.74 214 20:37 27.04.2022
3971 Clouds 29 1010 71 10000 1.92 191 19:38 27.04.2022
3972 Clouds 29 1010 71 10000 1.86 193 19:18 27.04.2022
3973 Clouds 29 1009 71 10000 1.64 191 18:22 27.04.2022
3974 Clouds 29 1009 71 10000 1.64 191 18:22 27.04.2022
3975 Clouds 29 1009 71 10000 1.64 191 18:22 27.04.2022
3976 Clouds 30 1007 74 10000 1.54 290 16:58 27.04.2022
3977 Clouds 32 1006 70 10000 2.06 270 14:33 27.04.2022
3978 Clouds 30 1005 79 10000 2.06 310 12:25 27.04.2022
3979 Clouds 29 1006 67 10000 0.54 330 11:20 27.04.2022
3980 Clouds 32 1007 70 10000 2.57 340 09:43 27.04.2022
3981 Clouds 29 1009 69 10000 0.31 261 07:18 27.04.2022
3982 Clouds 29 1009 69 10000 0.28 123 04:45 27.04.2022
3983 Thunderstorm 29 1006 84 10000 2.57 220 01:34 27.04.2022
3984 Rain 29 1007 84 10000 2.57 220 00:37 27.04.2022
3985 Thunderstorm 28 1007 94 10000 2.57 220 23:39 26.04.2022
3986 Clouds 29 1007 70 10000 0.93 317 23:18 26.04.2022
3987 Thunderstorm 28 1008 94 8000 3.09 220 22:39 26.04.2022
3988 Clouds 29 1008 70 10000 1.51 326 21:37 26.04.2022
3989 Clouds 30 1009 79 10000 2.57 310 20:52 26.04.2022
3990 Clouds 30 1009 79 10000 2.57 310 20:30 26.04.2022
3991 Clouds 30 1009 79 10000 1.54 350 19:32 26.04.2022
3992 Clouds 30 1009 79 10000 1.54 260 18:45 26.04.2022
3993 Clouds 30 1009 79 10000 2.06 340 17:59 26.04.2022
3994 Clouds 30 1007 74 10000 2.06 320 16:58 26.04.2022
3995 Clouds 32 1006 66 10000 2.57 330 14:27 26.04.2022
3996 Clouds 32 1006 66 10000 3.09 320 13:33 26.04.2022
3997 Clouds 33 1007 66 10000 3.6 290 11:57 26.04.2022
3998 Clouds 32 1007 70 10000 3.09 280 10:37 26.04.2022
3999 Clouds 32 1008 70 10000 3.6 280 09:25 26.04.2022
4000 Clouds 32 1009 70 10000 3.09 280 07:38 26.04.2022
4001 Clouds 30 1008 74 10000 2.57 280 04:33 26.04.2022
4002 Clouds 29 1007 79 10000 4.12 260 01:30 26.04.2022
4003 Clouds 29 1007 79 10000 4.12 250 00:26 26.04.2022
4004 Clouds 29 1007 79 10000 2.57 260 22:36 25.04.2022
4005 Clouds 29 1008 79 10000 2.57 250 21:42 25.04.2022
4006 Clouds 30 1009 74 10000 2.06 280 20:40 25.04.2022
4007 Clouds 30 1009 74 10000 2.06 260 18:58 25.04.2022
4008 Clouds 30 1008 74 10000 2.57 270 17:54 25.04.2022
4009 Clouds 30 1007 74 10000 2.57 270 16:59 25.04.2022
4010 Clouds 31 1006 70 10000 3.6 270 15:29 25.04.2022
4011 Clouds 32 1006 66 10000 4.63 270 14:42 25.04.2022
4012 Clouds 32 1006 70 10000 4.12 260 13:33 25.04.2022
4013 Clouds 32 1006 70 10000 4.12 260 11:43 25.04.2022
4014 Clouds 33 1007 66 10000 3.6 270 10:26 25.04.2022
4015 Clouds 32 1008 70 10000 3.09 260 08:46 25.04.2022
4016 Clouds 31 1009 74 10000 2.06 250 06:45 25.04.2022
4017 Clouds 30 1008 79 10000 2.06 240 04:27 25.04.2022
4018 Clouds 29 1007 79 10000 3.6 250 00:58 25.04.2022
4019 Clouds 29 1007 79 10000 2.57 270 23:51 24.04.2022
4020 Clouds 30 1008 74 10000 2.57 260 22:45 24.04.2022
4021 Clouds 30 1008 74 10000 2.57 260 22:26 24.04.2022
4022 Clouds 30 1009 74 10000 2.06 270 21:26 24.04.2022
4023 Clouds 30 1010 74 10000 2.06 270 20:54 24.04.2022
4024 Clouds 30 1010 74 10000 2.06 270 20:35 24.04.2022
4025 Clouds 30 1009 74 10000 2.06 270 19:46 24.04.2022
4026 Clouds 29 1009 67 10000 2.08 258 18:20 24.04.2022
4027 Clouds 30 1008 74 10000 3.09 250 17:28 24.04.2022
4028 Clouds 30 1007 74 10000 3.6 250 16:59 24.04.2022
4029 Clouds 30 1007 74 10000 3.6 250 16:32 24.04.2022
4030 Clouds 31 1006 70 10000 4.12 260 15:54 24.04.2022
4031 Clouds 31 1006 70 10000 4.12 260 15:29 24.04.2022
4032 Clouds 32 1006 66 10000 3.09 280 13:56 24.04.2022
4033 Clouds 32 1006 66 10000 3.09 280 13:25 24.04.2022
4034 Clouds 32 1006 66 10000 2.06 280 11:56 24.04.2022
4035 Clouds 32 1006 66 10000 2.06 280 11:27 24.04.2022
4036 Clouds 32 1007 66 10000 2.57 270 10:24 24.04.2022
4037 Clouds 29 1008 66 10000 1.79 268 09:19 24.04.2022
4038 Clouds 29 1010 67 10000 1.11 225 06:18 24.04.2022
4039 Clouds 28 1008 83 10000 1.54 290 03:43 24.04.2022
4040 Clouds 29 1007 79 10000 2.06 260 01:38 24.04.2022
4041 Clouds 29 1008 74 10000 4.74 231 00:22 24.04.2022
4042 Clouds 29 1008 79 10000 3.6 230 23:26 23.04.2022
4043 Clouds 29 1009 79 10000 4.12 230 22:55 23.04.2022
4044 Clouds 29 1009 79 10000 3.09 230 21:51 23.04.2022
4045 Clouds 29 1009 79 10000 3.09 230 21:32 23.04.2022
4046 Clouds 30 1010 74 10000 4.63 250 20:36 23.04.2022
4047 Clouds 30 1010 74 10000 4.12 250 19:46 23.04.2022
4048 Clouds 29 1010 71 10000 3.95 216 19:19 23.04.2022
4049 Clouds 30 1010 74 10000 3.6 240 18:46 23.04.2022
4050 Clouds 30 1009 74 10000 5.14 260 17:50 23.04.2022
4051 Clouds 30 1008 74 10000 5.14 260 16:56 23.04.2022
4052 Clouds 30 1008 74 10000 5.14 260 16:23 23.04.2022
4053 Clouds 31 1008 70 10000 4.12 250 14:47 23.04.2022
4054 Clouds 29 1007 74 10000 5.91 236 12:22 23.04.2022
4055 Clouds 32 1009 66 10000 5.14 260 10:40 23.04.2022
4056 Clouds 32 1009 66 10000 5.14 260 10:40 23.04.2022
4057 Clouds 31 1010 66 10000 5.14 250 08:55 23.04.2022
4058 Clouds 29 1009 79 10000 4.63 240 05:47 23.04.2022
4059 Clouds 28 1007 78 10000 6.17 220 03:54 23.04.2022
4060 Clouds 27 1008 89 10000 5.14 220 00:46 23.04.2022
4061 Clouds 27 1009 89 10000 5.14 220 23:27 22.04.2022
4062 Clouds 27 1010 94 9000 1.03 0 21:59 22.04.2022
4063 Clouds 27 1010 94 9000 1.03 0 21:40 22.04.2022
4064 Clouds 27 1011 94 10000 1.54 100 20:44 22.04.2022
4065 Clouds 27 1011 94 10000 1.54 100 20:25 22.04.2022
4066 Rain 29 1010 71 10000 4.14 236 19:18 22.04.2022
4067 Thunderstorm 27 1010 89 4000 3.6 240 18:35 22.04.2022
4068 Rain 27 1010 89 8000 2.06 180 17:37 22.04.2022
4069 Rain 26 1010 94 8000 4.12 130 16:30 22.04.2022
4070 Thunderstorm 27 1009 89 7000 6.69 220 15:32 22.04.2022
4071 Clouds 30 1007 74 9000 4.63 270 14:41 22.04.2022
4072 Clouds 31 1007 74 10000 6.17 250 13:42 22.04.2022
4073 Clouds 31 1007 74 10000 6.17 260 12:55 22.04.2022
4074 Clouds 32 1007 70 10000 7.72 280 11:41 22.04.2022
4075 Clouds 29 1008 74 10000 4.48 255 11:18 22.04.2022
4076 Clouds 33 1008 66 10000 5.66 250 10:47 22.04.2022
4077 Clouds 33 1008 66 10000 5.66 250 10:25 22.04.2022
4078 Clouds 32 1009 70 10000 5.66 250 09:42 22.04.2022
4079 Clouds 32 1009 70 10000 5.14 250 08:49 22.04.2022
4080 Clouds 31 1009 79 10000 6.17 250 06:56 22.04.2022
4081 Clouds 29 1007 84 10000 4.12 250 01:49 22.04.2022
4082 Clouds 29 1007 84 10000 5.14 250 23:49 21.04.2022
4083 Clouds 30 1008 74 10000 5.14 250 22:52 21.04.2022
4084 Clouds 30 1009 79 10000 4.63 250 21:56 21.04.2022
4085 Clouds 30 1009 79 10000 5.14 240 20:34 21.04.2022
4086 Clouds 30 1009 79 10000 4.63 240 19:51 21.04.2022
4087 Clouds 30 1009 79 10000 4.12 240 18:34 21.04.2022
4088 Clouds 30 1008 79 10000 4.12 250 17:47 21.04.2022
4089 Clouds 31 1007 74 10000 4.63 250 16:24 21.04.2022
4090 Clouds 29 1007 72 10000 3.68 245 15:19 21.04.2022
4091 Clouds 31 1007 74 10000 4.12 240 14:38 21.04.2022
4092 Clouds 29 1007 72 10000 4.83 256 13:23 21.04.2022
4093 Clouds 33 1006 66 10000 3.6 250 12:36 21.04.2022
4094 Clouds 29 1008 72 10000 4.21 258 10:20 21.04.2022
4095 Clouds 32 1009 70 10000 2.06 300 08:54 21.04.2022
4096 Clouds 31 1009 70 10000 2.57 320 06:55 21.04.2022
4097 Clouds 31 1009 70 10000 2.57 320 06:55 21.04.2022
4098 Clouds 30 1008 74 10000 2.06 340 04:36 21.04.2022
4099 Clouds 29 1008 72 10000 2.88 279 03:26 21.04.2022
4100 Clouds 29 1008 72 10000 2.88 279 02:46 21.04.2022
4101 Clouds 29 1008 72 10000 2.88 279 02:46 21.04.2022
4102 Clouds 29 1007 72 10000 2.76 280 00:43 21.04.2022
4103 Clouds 29 1007 84 10000 3.6 320 23:49 20.04.2022
4104 Clouds 28 1007 76 10000 3.48 291 23:21 20.04.2022
4105 Clouds 29 1007 84 10000 3.09 320 22:45 20.04.2022
4106 Clouds 29 1007 84 10000 3.09 320 22:26 20.04.2022
4107 Clouds 29 1008 79 10000 3.09 270 21:24 20.04.2022
4108 Clouds 29 1009 73 10000 3.27 297 20:23 20.04.2022
4109 Clouds 29 1009 73 10000 2.87 272 20:23 20.04.2022
4110 Clouds 29 1009 79 10000 4.63 300 19:51 20.04.2022
4111 Clouds 29 1008 79 10000 6.17 310 18:55 20.04.2022
4112 Clouds 30 1008 74 10000 5.14 290 17:53 20.04.2022
4113 Clouds 30 1007 74 10000 4.63 280 16:40 20.04.2022
4114 Clouds 30 1007 79 10000 5.14 280 15:50 20.04.2022
4115 Clouds 32 1006 70 10000 4.63 290 13:50 20.04.2022
4116 Clouds 32 1007 70 10000 5.14 290 11:44 20.04.2022
4117 Clouds 32 1008 70 10000 4.63 290 10:56 20.04.2022
4118 Clouds 32 1009 70 10000 5.14 290 09:46 20.04.2022
4119 Clouds 32 1010 66 10000 5.14 280 08:59 20.04.2022
4120 Clouds 29 1011 67 10000 5.22 294 08:20 20.04.2022
4121 Clouds 31 1010 74 10000 2.57 280 06:56 20.04.2022
4122 Clouds 29 1010 79 10000 2.06 340 03:34 20.04.2022
4123 Rain 29 1009 65 10000 3.01 314 00:22 20.04.2022
4124 Clouds 29 1009 79 10000 3.6 270 23:37 19.04.2022
4125 Clouds 29 1009 74 10000 4.63 260 22:25 19.04.2022
4126 Clouds 29 1010 79 10000 3.6 280 21:55 19.04.2022
4127 Clouds 29 1011 64 10000 2.97 311 21:22 19.04.2022
4128 Clouds 29 1011 64 10000 2.97 311 20:41 19.04.2022
4129 Clouds 30 1011 70 10000 3.6 280 19:52 19.04.2022
4130 Clouds 30 1011 74 10000 2.57 300 18:47 19.04.2022
4131 Clouds 30 1011 74 10000 2.57 330 17:32 19.04.2022
4132 Clouds 30 1011 74 10000 3.09 330 16:43 19.04.2022
4133 Clouds 30 1011 63 10000 3.75 318 16:22 19.04.2022
4134 Clouds 32 1010 66 10000 3.6 310 14:50 19.04.2022
4135 Clouds 32 1009 70 10000 2.57 310 13:49 19.04.2022
4136 Clouds 32 1010 66 10000 3.09 310 12:50 19.04.2022
4137 Clouds 33 1010 58 10000 2.57 300 11:55 19.04.2022
4138 Clouds 32 1011 70 10000 3.09 290 10:46 19.04.2022
4139 Clouds 29 1012 66 10000 3.13 259 09:19 19.04.2022
4140 Clouds 30 1012 74 10000 4.12 240 05:56 19.04.2022
4141 Clouds 29 1011 74 10000 3.6 230 03:26 19.04.2022
4142 Clouds 29 1010 74 10000 3.09 230 00:55 19.04.2022
4143 Clouds 29 1010 74 10000 3.6 230 23:30 18.04.2022
4144 Clouds 29 1011 74 10000 4.12 220 21:30 18.04.2022
4145 Clouds 29 1011 72 10000 3.24 214 20:55 18.04.2022
4146 Clouds 29 1011 72 10000 3.24 214 20:32 18.04.2022
4147 Clouds 30 1011 70 10000 3.6 230 19:51 18.04.2022
4148 Clouds 30 1011 70 10000 5.14 210 18:57 18.04.2022
4149 Clouds 30 1010 70 10000 5.66 210 17:57 18.04.2022
4150 Clouds 30 1010 70 10000 5.66 210 17:34 18.04.2022
4151 Clouds 30 1009 70 10000 5.66 210 16:59 18.04.2022
4152 Clouds 30 1009 70 10000 5.66 210 16:32 18.04.2022
4153 Clouds 32 1009 62 10000 5.14 210 14:51 18.04.2022
4154 Clouds 32 1009 66 10000 4.63 210 13:39 18.04.2022
4155 Clouds 33 1009 62 10000 4.63 200 12:32 18.04.2022
4156 Clouds 34 1009 59 10000 5.14 200 11:35 18.04.2022
4157 Clouds 33 1010 62 10000 4.63 200 10:32 18.04.2022
4158 Clouds 33 1011 62 10000 4.63 210 09:31 18.04.2022
4159 Clouds 32 1011 70 10000 4.63 210 07:54 18.04.2022
4160 Clouds 31 1010 70 10000 3.6 200 05:41 18.04.2022
4161 Clouds 30 1008 74 10000 4.12 190 00:49 18.04.2022
4162 Clouds 30 1009 74 10000 4.63 180 22:42 17.04.2022
4163 Clouds 30 1010 74 10000 3.6 190 21:49 17.04.2022
4164 Clouds 30 1010 74 10000 3.6 190 21:26 17.04.2022
4165 Clouds 30 1010 79 10000 4.12 180 20:41 17.04.2022
4166 Clouds 30 1010 74 10000 4.12 180 19:40 17.04.2022
4167 Clouds 29 1010 70 10000 5.29 179 18:21 17.04.2022
4168 Clouds 31 1008 74 10000 5.14 160 16:27 17.04.2022
4169 Clouds 31 1007 74 10000 4.63 170 15:26 17.04.2022
4170 Clouds 32 1007 70 10000 4.12 160 14:25 17.04.2022
4171 Clouds 29 1007 73 10000 4.35 193 13:18 17.04.2022
4172 Clouds 33 1007 66 10000 4.12 160 12:27 17.04.2022
4173 Clouds 33 1008 66 10000 3.6 190 10:46 17.04.2022
4174 Clouds 33 1008 66 10000 3.6 190 10:28 17.04.2022
4175 Clouds 34 1009 62 10000 4.63 180 09:37 17.04.2022
4176 Clouds 33 1009 66 10000 4.12 180 08:54 17.04.2022
4177 Clouds 32 1009 70 10000 2.57 170 07:53 17.04.2022
4178 Clouds 30 1008 74 10000 3.09 190 04:51 17.04.2022
4179 Clouds 29 1006 84 10000 3.09 190 01:38 17.04.2022
4180 Clouds 30 1006 74 10000 3.09 190 23:57 16.04.2022
4181 Clouds 30 1007 74 10000 2.57 190 22:41 16.04.2022
4182 Clouds 30 1007 74 10000 2.57 190 21:41 16.04.2022
4183 Clouds 30 1008 79 10000 4.63 200 20:35 16.04.2022
4184 Clouds 29 1009 71 10000 3.89 201 19:18 16.04.2022
4185 Clouds 30 1007 79 10000 3.6 160 18:32 16.04.2022
4186 Clouds 31 1006 70 10000 3.6 200 16:41 16.04.2022
4187 Clouds 31 1006 74 10000 4.12 180 15:46 16.04.2022
4188 Clouds 32 1005 70 10000 4.12 160 14:57 16.04.2022
4189 Clouds 33 1005 66 10000 3.6 170 13:58 16.04.2022
4190 Clouds 33 1005 66 10000 3.6 170 13:40 16.04.2022
4191 Clouds 33 1005 66 10000 3.6 200 12:33 16.04.2022
4192 Clouds 29 1006 71 10000 2.85 210 11:19 16.04.2022
4193 Clouds 33 1008 70 10000 3.6 160 09:57 16.04.2022
4194 Clouds 33 1008 66 10000 4.12 210 08:59 16.04.2022
4195 Clouds 29 1009 73 10000 3.33 193 08:18 16.04.2022
4196 Clouds 32 1009 66 10000 3.09 210 06:59 16.04.2022
4197 Clouds 29 1007 84 10000 3.09 170 03:48 16.04.2022
4198 Clouds 29 1006 79 10000 2.57 180 00:35 16.04.2022
4199 Clouds 29 1006 79 10000 2.06 180 23:27 15.04.2022
4200 Clouds 29 1007 79 10000 2.57 170 22:37 15.04.2022
4201 Clouds 30 1008 74 10000 2.06 170 21:59 15.04.2022
4202 Clouds 29 1008 72 10000 3.64 198 21:18 15.04.2022
4203 Clouds 29 1008 72 10000 3.64 198 21:18 15.04.2022
4204 Clouds 29 1008 72 10000 3.64 198 21:18 15.04.2022
4205 Clouds 30 1008 79 10000 1.54 190 20:27 15.04.2022
4206 Clouds 30 1008 74 10000 1.54 150 19:40 15.04.2022
4207 Clouds 30 1008 79 10000 2.57 190 18:54 15.04.2022
4208 Clouds 30 1008 79 10000 2.57 190 18:25 15.04.2022
4209 Clouds 30 1007 79 10000 2.57 140 17:48 15.04.2022
4210 Clear 29 1009 69 10000 2.61 204 17:21 15.04.2022
4211 Clouds 30 1007 79 10000 2.57 200 16:23 15.04.2022
4212 Clouds 31 1006 74 10000 2.57 230 15:37 15.04.2022
4213 Clouds 32 1006 66 10000 3.09 250 13:55 15.04.2022
4214 Clouds 32 1006 70 10000 3.6 250 12:46 15.04.2022
4215 Clouds 33 1007 66 10000 3.6 250 11:59 15.04.2022
4216 Clouds 33 1007 66 10000 3.6 250 11:40 15.04.2022
4217 Clouds 32 1008 70 10000 3.6 240 10:45 15.04.2022
4218 Clouds 33 1009 66 10000 4.12 250 09:50 15.04.2022
4219 Clear 29 1009 69 10000 2.8 219 09:21 15.04.2022
4220 Clouds 32 1010 70 10000 3.6 250 07:53 15.04.2022
4221 Clouds 31 1010 70 10000 3.6 240 06:46 15.04.2022
4222 Clouds 29 1007 79 10000 2.57 230 03:47 15.04.2022
4223 Clouds 29 1006 79 10000 3.09 240 23:42 14.04.2022
4224 Clouds 29 1007 72 10000 4.31 247 23:19 14.04.2022
4225 Clouds 29 1007 79 10000 3.6 240 22:42 14.04.2022
4226 Clouds 29 1007 79 10000 3.6 240 22:24 14.04.2022
4227 Clouds 29 1008 79 10000 4.12 260 21:32 14.04.2022
4228 Clouds 29 1009 84 10000 5.14 290 19:24 14.04.2022
4229 Clouds 29 1009 84 10000 2.06 290 18:31 14.04.2022
4230 Clouds 28 1008 83 10000 2.06 270 17:45 14.04.2022
4231 Clouds 27 1007 83 10000 3.6 260 16:49 14.04.2022
4232 Clouds 30 1007 79 10000 4.12 290 15:48 14.04.2022
4233 Clouds 31 1006 74 10000 4.12 250 13:49 14.04.2022
4234 Clouds 29 1007 72 10000 4.38 253 13:18 14.04.2022
4235 Clouds 32 1006 70 10000 4.12 250 12:32 14.04.2022
4236 Clouds 32 1007 70 10000 4.63 250 11:36 14.04.2022
4237 Clouds 32 1008 70 10000 5.66 250 10:57 14.04.2022
4238 Clouds 32 1008 70 10000 5.66 250 10:29 14.04.2022
4239 Clouds 32 1009 70 10000 5.66 250 09:26 14.04.2022
4240 Clouds 31 1009 79 10000 5.66 270 07:52 14.04.2022
4241 Clouds 30 1008 79 10000 5.14 250 05:35 14.04.2022
4242 Clouds 29 1006 75 10000 5.96 252 00:22 14.04.2022
4243 Clouds 29 1007 79 10000 2.57 280 22:37 13.04.2022
4244 Clouds 29 1008 79 10000 3.6 280 21:42 13.04.2022
4245 Clouds 29 1008 84 10000 7.2 290 20:39 13.04.2022
4246 Clouds 29 1009 79 10000 6.69 280 19:48 13.04.2022
4247 Clouds 29 1008 79 10000 6.69 280 18:37 13.04.2022
4248 Clouds 29 1008 74 10000 6.36 254 17:25 13.04.2022
4249 Clouds 29 1007 79 10000 5.66 270 16:52 13.04.2022
4250 Clouds 29 1006 79 10000 7.72 270 15:45 13.04.2022
4251 Clouds 29 1006 79 10000 7.72 270 15:23 13.04.2022
4252 Clouds 27 1006 89 10000 5.66 270 14:34 13.04.2022
4253 Clouds 29 1006 74 10000 7.2 260 13:37 13.04.2022
4254 Clouds 30 1006 70 10000 7.72 260 12:51 13.04.2022
4255 Clouds 30 1006 79 10000 7.2 250 11:32 13.04.2022
4256 Clouds 29 1007 84 10000 8.23 250 10:27 13.04.2022
4257 Rain 29 1007 84 9000 6.17 250 08:45 13.04.2022
4258 Clouds 28 1007 89 9000 7.72 260 07:44 13.04.2022
4259 Clouds 27 1008 89 9000 6.17 260 06:47 13.04.2022
4260 Clouds 27 1008 89 9000 6.17 260 06:23 13.04.2022
4261 Rain 29 1007 73 10000 5.52 263 01:51 13.04.2022
4262 Rain 29 1006 74 10000 5.15 264 00:19 13.04.2022
4263 Rain 26 1007 94 7000 6.17 260 22:33 12.04.2022
4264 Thunderstorm 28 1007 83 10000 6.17 250 21:51 12.04.2022
4265 Rain 29 1008 74 10000 5.69 271 20:48 12.04.2022
4266 Clouds 29 1008 74 10000 5.34 267 20:19 12.04.2022
4267 Clouds 29 1008 71 10000 5.63 259 19:40 12.04.2022
4268 Clouds 29 1008 71 10000 5.63 259 19:40 12.04.2022
4269 Clouds 29 1009 71 10000 5.65 259 18:56 12.04.2022
4270 Clouds 28 1007 89 6000 6.17 290 17:38 12.04.2022
4271 Clouds 30 1006 79 10000 7.2 260 16:46 12.04.2022
4272 Clouds 30 1006 79 10000 6.17 260 15:34 12.04.2022
4273 Clouds 29 1005 84 10000 5.66 250 14:48 12.04.2022
4274 Clouds 31 1005 74 10000 7.72 250 13:45 12.04.2022
4275 Clouds 31 1005 74 10000 7.72 250 13:24 12.04.2022
4276 Clouds 32 1006 70 10000 6.69 270 11:57 12.04.2022
4277 Clouds 32 1006 70 10000 6.69 270 11:32 12.04.2022
4278 Clouds 32 1008 74 10000 5.14 280 09:47 12.04.2022
4279 Clouds 32 1009 66 10000 5.14 280 08:38 12.04.2022
4280 Clouds 31 1009 74 10000 6.17 270 06:46 12.04.2022
4281 Clouds 32 1009 70 10000 5.66 260 05:40 12.04.2022
4282 Clouds 29 1006 84 10000 5.66 250 02:36 12.04.2022
4283 Clouds 29 1007 74 10000 5.48 277 23:20 11.04.2022
4284 Clouds 30 1009 79 10000 4.63 270 21:59 11.04.2022
4285 Clouds 29 1009 73 10000 4.91 277 21:18 11.04.2022
4286 Clouds 28 1009 89 10000 4.63 310 20:34 11.04.2022
4287 Clouds 29 1009 84 10000 5.66 290 19:58 11.04.2022
4288 Clouds 29 1009 84 10000 5.66 290 19:26 11.04.2022
4289 Clouds 29 1009 84 10000 4.12 340 18:53 11.04.2022
4290 Clouds 30 1008 79 10000 3.6 310 17:58 11.04.2022
4291 Clouds 30 1008 79 10000 3.6 310 17:33 11.04.2022
4292 Clouds 30 1007 79 10000 5.14 280 16:26 11.04.2022
4293 Clouds 31 1006 74 10000 5.14 280 14:42 11.04.2022
4294 Clouds 32 1006 70 10000 6.69 280 13:34 11.04.2022
4295 Clouds 31 1006 74 10000 6.69 280 12:38 11.04.2022
4296 Clouds 32 1007 62 10000 6.69 290 11:54 11.04.2022
4297 Clouds 31 1008 70 10000 6.17 280 10:35 11.04.2022
4298 Clouds 32 1009 70 10000 6.17 280 09:41 11.04.2022
4299 Clouds 32 1010 70 10000 4.12 280 07:53 11.04.2022
4300 Clouds 29 1009 72 10000 5.93 278 03:19 11.04.2022
4301 Clouds 29 1008 73 10000 6.14 269 23:22 10.04.2022
4302 Clouds 29 1008 79 10000 4.63 290 22:26 10.04.2022
4303 Clouds 30 1009 74 10000 4.63 290 21:35 10.04.2022
4304 Clouds 29 1010 79 10000 5.14 300 20:50 10.04.2022
4305 Clouds 29 1010 79 10000 4.63 290 19:53 10.04.2022
4306 Clouds 29 1010 79 10000 4.63 290 19:30 10.04.2022
4307 Clouds 29 1010 79 10000 4.12 280 18:46 10.04.2022
4308 Clouds 29 1009 74 10000 5.14 270 17:58 10.04.2022
4309 Clouds 29 1009 74 10000 5.14 270 17:58 10.04.2022
4310 Clouds 29 1009 74 10000 5.14 270 17:39 10.04.2022
4311 Clouds 29 1009 74 10000 5.66 260 16:44 10.04.2022
4312 Clouds 28 1008 83 10000 5.14 270 15:37 10.04.2022
4313 Clouds 29 1008 84 10000 9.26 250 14:34 10.04.2022
4314 Clouds 28 1008 83 10000 7.72 290 12:40 10.04.2022
4315 Clouds 29 1008 72 10000 6.35 271 12:21 10.04.2022
4316 Clouds 30 1009 70 10000 9.26 320 11:29 10.04.2022
4317 Clouds 32 1009 70 10000 6.17 250 10:56 10.04.2022
4318 Clouds 29 1009 73 10000 6.21 263 10:00 10.04.2022
4319 Clouds 32 1010 70 10000 5.66 250 09:39 10.04.2022
4320 Clouds 31 1011 74 10000 6.69 250 08:24 10.04.2022
4321 Clouds 31 1011 70 10000 6.17 250 07:42 10.04.2022
4322 Clouds 29 1011 79 10000 5.14 240 05:57 10.04.2022
4323 Clouds 29 1010 72 10000 5.32 255 02:34 10.04.2022
4324 Thunderstorm 29 1008 79 10000 6.17 270 00:34 10.04.2022
4325 Thunderstorm 29 1008 79 10000 5.66 270 23:49 09.04.2022
4326 Clouds 29 1008 73 10000 5.57 272 22:50 09.04.2022
4327 Clouds 29 1010 84 10000 5.66 260 21:46 09.04.2022
4328 Clouds 30 1010 79 10000 5.14 260 20:50 09.04.2022
4329 Clouds 30 1010 79 10000 5.14 260 20:26 09.04.2022
4330 Clouds 30 1010 79 10000 5.14 260 19:42 09.04.2022
4331 Clouds 29 1011 71 10000 4.8 264 19:18 09.04.2022
4332 Clouds 29 1011 72 10000 5.04 263 18:21 09.04.2022
4333 Clouds 30 1010 70 10000 5.66 250 17:39 09.04.2022
4334 Clouds 30 1009 70 10000 5.14 250 16:53 09.04.2022
4335 Clouds 30 1008 74 10000 4.63 250 15:57 09.04.2022
4336 Clouds 30 1008 74 10000 4.63 250 15:39 09.04.2022
4337 Clouds 31 1008 74 10000 5.14 250 14:44 09.04.2022
4338 Clouds 31 1008 74 10000 5.14 250 14:23 09.04.2022
4339 Clouds 29 1008 72 10000 6.02 248 13:18 09.04.2022
4340 Clouds 29 1008 72 10000 6.02 248 12:41 09.04.2022
4341 Clouds 31 1008 74 10000 6.17 250 11:38 09.04.2022
4342 Clouds 29 1009 71 10000 4.75 248 10:21 09.04.2022
4343 Rain 29 1010 79 10000 6.69 230 09:42 09.04.2022
4344 Clouds 29 1010 71 10000 4.27 251 08:54 09.04.2022
4345 Clouds 29 1012 70 10000 4.01 260 07:22 09.04.2022
4346 Clouds 28 1010 83 10000 3.6 240 02:53 09.04.2022
4347 Clouds 29 1009 84 10000 3.6 230 23:53 08.04.2022
4348 Clouds 30 1010 74 10000 3.6 240 22:55 08.04.2022
4349 Clouds 29 1011 68 10000 2.77 246 21:29 08.04.2022
4350 Clouds 29 1011 68 10000 2.77 246 20:39 08.04.2022
4351 Clouds 30 1011 74 10000 3.09 250 19:32 08.04.2022
4352 Clouds 30 1011 74 10000 3.09 250 18:31 08.04.2022
4353 Clouds 30 1010 74 10000 3.6 240 17:52 08.04.2022
4354 Clouds 30 1010 74 10000 3.6 240 17:26 08.04.2022
4355 Clouds 30 1009 74 10000 3.6 240 16:49 08.04.2022
4356 Clouds 30 1009 70 10000 4.12 240 15:59 08.04.2022
4357 Clouds 30 1009 70 10000 4.12 240 15:27 08.04.2022
4358 Clouds 31 1008 70 10000 4.12 250 14:39 08.04.2022
4359 Clouds 32 1008 66 10000 3.6 250 13:48 08.04.2022
4360 Clouds 32 1008 66 10000 3.6 250 13:29 08.04.2022
4361 Clouds 32 1009 66 10000 3.09 260 12:32 08.04.2022
4362 Clouds 32 1010 62 10000 3.6 280 10:38 08.04.2022
4363 Clouds 32 1011 62 10000 3.6 260 09:39 08.04.2022
4364 Clouds 32 1012 58 10000 3.6 250 08:58 08.04.2022
4365 Clouds 32 1012 58 10000 2.57 220 07:31 08.04.2022
4366 Clouds 32 1012 58 10000 3.09 200 06:38 08.04.2022
4367 Clouds 29 1009 74 10000 1.54 210 01:45 08.04.2022
4368 Clouds 29 1009 74 10000 2.06 200 00:26 08.04.2022
4369 Clouds 28 1010 66 10000 0.68 203 23:00 07.04.2022
4370 Clouds 29 1010 74 10000 2.06 200 22:40 07.04.2022
4371 Clouds 29 1010 66 10000 0.29 225 22:22 07.04.2022
4372 Clouds 29 1011 74 10000 1.54 210 21:56 07.04.2022
4373 Clouds 29 1011 66 10000 0.32 321 21:19 07.04.2022
4374 Clouds 29 1011 79 10000 1.03 0 20:41 07.04.2022
4375 Clouds 29 1012 79 10000 2.06 260 18:54 07.04.2022
4376 Clouds 30 1011 74 10000 1.54 280 17:27 07.04.2022
4377 Clouds 30 1010 74 10000 2.06 290 16:45 07.04.2022
4378 Clouds 29 1011 64 10000 1.25 330 16:23 07.04.2022
4379 Clouds 29 1010 64 10000 1.25 320 15:19 07.04.2022
4380 Clouds 32 1009 70 10000 2.57 300 13:45 07.04.2022
4381 Clouds 29 1009 66 10000 1.71 305 13:22 07.04.2022
4382 Clouds 32 1009 66 10000 2.57 310 11:40 07.04.2022
4383 Clouds 32 1010 66 10000 2.57 300 10:27 07.04.2022
4384 Clouds 31 1012 70 10000 2.57 300 08:39 07.04.2022
4385 Clouds 31 1013 66 10000 2.06 300 06:58 07.04.2022
4386 Clouds 28 1010 89 10000 1.03 0 03:59 07.04.2022
4387 Clouds 28 1010 83 10000 0 0 02:29 07.04.2022
4388 Clouds 28 1010 83 10000 0 0 00:42 07.04.2022
4389 Clouds 28 1011 83 10000 0 0 22:58 06.04.2022
4390 Clouds 28 1011 83 10000 0 0 22:39 06.04.2022
4391 Clouds 29 1012 79 10000 0 0 21:47 06.04.2022
4392 Clouds 29 1012 79 10000 1.54 30 20:41 06.04.2022
4393 Clouds 29 1013 79 10000 1.54 10 19:59 06.04.2022
4394 Clouds 29 1012 79 10000 1.54 10 18:53 06.04.2022
4395 Clouds 29 1012 79 10000 1.54 10 18:34 06.04.2022
4396 Clouds 29 1012 79 10000 1.03 0 17:35 06.04.2022
4397 Clouds 29 1011 79 10000 1.54 320 16:39 06.04.2022
4398 Clouds 30 1010 74 10000 1.54 300 15:57 06.04.2022
4399 Clouds 30 1010 74 10000 1.54 300 15:39 06.04.2022
4400 Clouds 29 1011 64 10000 2.61 316 13:31 06.04.2022
4401 Clouds 32 1010 62 10000 2.57 310 12:28 06.04.2022
4402 Clouds 32 1012 66 10000 2.57 330 10:57 06.04.2022
4403 Clouds 32 1012 66 10000 2.57 330 10:32 06.04.2022
4404 Clouds 31 1013 70 10000 1.54 310 09:43 06.04.2022
4405 Clouds 31 1014 66 10000 2.06 340 08:39 06.04.2022
4406 Clouds 29 1014 67 10000 1.63 265 07:57 06.04.2022
4407 Clouds 28 1014 66 10000 1.59 248 05:23 06.04.2022
4408 Thunderstorm 28 1011 78 10000 3.09 180 23:58 05.04.2022
4409 Thunderstorm 28 1011 78 10000 3.09 180 23:33 05.04.2022
4410 Clouds 28 1012 65 10000 1.55 250 21:48 05.04.2022
4411 Clouds 28 1012 65 10000 1.55 250 21:48 05.04.2022
4412 Clouds 28 1013 83 10000 1.54 120 20:54 05.04.2022
4413 Clouds 29 1013 64 10000 0.85 224 20:23 05.04.2022
4414 Clouds 29 1012 79 10000 1.54 130 18:28 05.04.2022
4415 Clouds 29 1013 62 10000 0.72 241 17:20 05.04.2022
4416 Clouds 29 1010 74 10000 2.06 100 16:42 05.04.2022
4417 Clouds 29 1010 74 10000 1.03 0 15:50 05.04.2022
4418 Clouds 29 1010 74 10000 1.03 0 15:30 05.04.2022
4419 Clouds 28 1010 89 9000 1.54 70 13:45 05.04.2022
4420 Clouds 31 1011 74 10000 1.03 0 11:55 05.04.2022
4421 Clouds 31 1011 74 10000 1.03 0 11:33 05.04.2022
4422 Clouds 32 1012 66 10000 3.09 260 10:58 05.04.2022
4423 Clouds 29 1012 61 10000 1.01 273 09:31 05.04.2022
4424 Clouds 32 1013 66 10000 3.09 210 08:27 05.04.2022
4425 Clouds 29 1011 79 10000 1.54 190 03:38 05.04.2022
4426 Clouds 29 1011 74 10000 1.54 200 23:38 04.04.2022
4427 Clouds 29 1011 79 10000 1.54 180 22:37 04.04.2022
4428 Clouds 29 1012 74 10000 2.06 200 21:48 04.04.2022
4429 Clouds 28 1012 65 10000 0.64 220 21:19 04.04.2022
4430 Clouds 29 1012 74 10000 1.03 0 20:47 04.04.2022
4431 Clouds 29 1012 74 10000 1.54 160 19:28 04.04.2022
4432 Clouds 30 1012 70 10000 1.03 0 18:43 04.04.2022
4433 Clouds 29 1012 62 10000 0.59 172 17:20 04.04.2022
4434 Clouds 30 1010 70 10000 2.06 180 16:31 04.04.2022
4435 Clouds 31 1009 66 10000 2.57 210 15:33 04.04.2022
4436 Clouds 32 1009 62 10000 2.57 200 14:46 04.04.2022
4437 Clouds 32 1009 62 10000 2.57 200 14:27 04.04.2022
4438 Clouds 33 1009 58 10000 3.09 210 12:59 04.04.2022
4439 Clouds 33 1009 55 10000 2.06 190 11:29 04.04.2022
4440 Clouds 33 1010 58 10000 2.57 210 10:29 04.04.2022
4441 Clouds 31 1011 70 10000 2.06 210 06:58 04.04.2022
4442 Clouds 28 1010 64 10000 0.83 260 03:18 04.04.2022
4443 Clouds 28 1009 78 10000 0 0 23:42 03.04.2022
4444 Clouds 28 1009 78 10000 0 0 22:24 03.04.2022
4445 Clouds 29 1009 74 10000 0.51 0 21:32 03.04.2022
4446 Clear 28 1010 66 10000 1.48 336 20:35 03.04.2022
4447 Clouds 29 1010 74 10000 1.03 0 18:51 03.04.2022
4448 Clouds 29 1009 74 10000 1.03 0 17:57 03.04.2022
4449 Clouds 29 1009 74 10000 1.03 0 17:37 03.04.2022
4450 Clouds 30 1008 70 10000 1.54 320 16:50 03.04.2022
4451 Clouds 30 1008 70 10000 1.54 300 15:57 03.04.2022
4452 Clouds 31 1007 66 10000 2.06 280 14:27 03.04.2022
4453 Clouds 32 1008 62 10000 2.57 260 13:34 03.04.2022
4454 Clouds 32 1008 66 10000 2.57 210 11:51 03.04.2022
4455 Clear 28 1010 70 10000 1.94 238 10:22 03.04.2022
4456 Clear 28 1011 70 10000 1.62 231 09:19 03.04.2022
4457 Clouds 30 1012 70 10000 2.06 210 06:41 03.04.2022
4458 Clouds 29 1009 74 10000 2.57 240 02:56 03.04.2022
4459 Clouds 29 1009 79 10000 2.57 230 00:29 03.04.2022
4460 Clouds 29 1010 79 10000 1.54 250 22:52 02.04.2022
4461 Clouds 29 1011 79 10000 0.51 0 21:56 02.04.2022
4462 Clouds 29 1011 79 10000 0.51 0 21:26 02.04.2022
4463 Clouds 29 1011 79 10000 1.54 220 20:39 02.04.2022
4464 Clouds 30 1011 74 10000 1.54 270 18:51 02.04.2022
4465 Clouds 29 1012 69 10000 1.29 284 18:20 02.04.2022
4466 Clouds 30 1011 70 10000 2.06 250 17:43 02.04.2022
4467 Clouds 31 1009 66 10000 2.57 250 15:59 02.04.2022
4468 Clouds 29 1010 69 10000 1.8 260 15:20 02.04.2022
4469 Clouds 32 1009 66 10000 3.09 260 14:32 02.04.2022
4470 Clouds 32 1009 66 10000 3.09 260 13:34 02.04.2022
4471 Clouds 32 1009 70 10000 3.09 260 12:34 02.04.2022
4472 Clouds 32 1011 66 10000 2.57 260 10:50 02.04.2022
4473 Clouds 32 1012 66 10000 2.57 270 08:44 02.04.2022
4474 Clouds 31 1013 70 10000 2.06 280 06:43 02.04.2022
4475 Clouds 29 1010 79 10000 3.09 250 03:31 02.04.2022
4476 Clouds 29 1010 79 10000 2.06 240 23:55 01.04.2022
4477 Clouds 29 1011 79 10000 2.06 240 22:55 01.04.2022
4478 Clouds 29 1012 79 10000 2.06 230 21:32 01.04.2022
4479 Clouds 30 1012 70 10000 2.57 230 20:50 01.04.2022
4480 Clouds 30 1012 70 10000 2.06 220 19:51 01.04.2022
4481 Clouds 30 1012 70 10000 2.06 220 19:30 01.04.2022
4482 Clouds 30 1011 70 10000 2.57 230 18:44 01.04.2022
4483 Clouds 30 1010 74 10000 2.06 250 17:46 01.04.2022
4484 Clouds 30 1009 74 10000 2.06 270 16:42 01.04.2022
4485 Clear 29 1010 65 10000 1.14 279 15:23 01.04.2022
4486 Clear 29 1009 65 10000 1.52 273 14:19 01.04.2022
4487 Clouds 32 1008 66 10000 2.57 270 13:33 01.04.2022
4488 Clouds 31 1009 70 10000 2.57 260 12:32 01.04.2022
4489 Clouds 32 1009 66 10000 2.06 270 11:33 01.04.2022
4490 Clear 29 1010 67 10000 1.43 255 10:18 01.04.2022
4491 Clouds 32 1012 62 10000 2.57 250 07:59 01.04.2022
4492 Clouds 31 1012 66 10000 2.57 250 06:39 01.04.2022
4493 Clouds 29 1011 79 10000 1.54 260 04:47 01.04.2022
4494 Clouds 29 1011 79 10000 1.54 260 04:28 01.04.2022
4495 Clouds 29 1009 79 10000 1.54 230 01:54 01.04.2022
4496 Clouds 29 1009 79 10000 1.03 0 22:58 31.03.2022
4497 Clouds 29 1010 79 10000 1.54 260 21:50 31.03.2022
4498 Clouds 29 1010 79 10000 1.54 260 21:31 31.03.2022
4499 Clouds 29 1010 79 10000 1.03 0 20:29 31.03.2022
4500 Clouds 29 1010 74 10000 1.03 0 19:48 31.03.2022
4501 Clouds 29 1010 79 10000 1.54 300 18:43 31.03.2022
4502 Clouds 29 1010 79 10000 1.03 0 17:41 31.03.2022
4503 Clouds 29 1009 79 10000 2.06 320 16:34 31.03.2022
4504 Clouds 30 1008 74 10000 2.06 300 15:35 31.03.2022
4505 Clear 29 1009 68 10000 1.27 360 14:54 31.03.2022
4506 Clear 29 1008 68 10000 1.14 353 14:20 31.03.2022
4507 Clouds 31 1008 70 10000 2.06 270 11:34 31.03.2022
4508 Clouds 30 1009 74 10000 1.54 230 10:41 31.03.2022
4509 Clouds 31 1010 74 10000 2.06 250 09:44 31.03.2022
4510 Clouds 30 1012 74 10000 2.06 260 07:53 31.03.2022
4511 Clouds 29 1010 74 10000 2.06 200 04:42 31.03.2022
4512 Clouds 29 1009 74 10000 2.06 240 23:34 30.03.2022
4513 Clouds 28 1010 74 10000 2.32 233 22:23 30.03.2022
4514 Clouds 29 1010 74 10000 2.06 210 21:33 30.03.2022
4515 Clouds 29 1011 74 10000 2.06 210 20:44 30.03.2022
4516 Clouds 29 1011 74 10000 1.54 210 19:59 30.03.2022
4517 Clouds 30 1011 70 10000 2.06 210 18:50 30.03.2022
4518 Clouds 30 1010 70 10000 1.54 200 17:53 30.03.2022
4519 Clouds 30 1010 70 10000 1.54 200 17:34 30.03.2022
4520 Clouds 30 1009 74 10000 1.54 260 16:51 30.03.2022
4521 Clouds 30 1009 74 10000 1.54 260 16:30 30.03.2022
4522 Clouds 31 1008 70 10000 1.54 240 14:55 30.03.2022
4523 Clouds 31 1008 70 10000 1.03 0 13:32 30.03.2022
4524 Clouds 31 1008 70 10000 1.03 0 12:36 30.03.2022
4525 Clouds 31 1009 70 10000 1.54 240 10:54 30.03.2022
4526 Clouds 31 1011 66 10000 1.54 230 09:58 30.03.2022
4527 Clouds 32 1011 66 10000 1.54 150 08:29 30.03.2022
4528 Clouds 31 1011 70 10000 2.06 140 07:29 30.03.2022
4529 Clouds 30 1011 70 10000 2.06 170 05:40 30.03.2022
4530 Clear 28 1010 74 10000 2.81 197 03:20 30.03.2022
4531 Clouds 28 1009 83 10000 2.57 200 23:32 29.03.2022
4532 Clear 28 1010 70 10000 2.16 212 22:18 29.03.2022
4533 Clouds 28 1010 83 10000 2.06 210 21:40 29.03.2022
4534 Clouds 28 1011 83 10000 2.57 200 20:39 29.03.2022
4535 Clouds 28 1011 83 10000 2.06 230 19:35 29.03.2022
4536 Clouds 28 1011 83 10000 2.57 230 18:54 29.03.2022
4537 Clouds 28 1010 83 10000 2.57 210 17:57 29.03.2022
4538 Clear 28 1011 68 10000 0.94 252 17:20 29.03.2022
4539 Clouds 28 1009 83 10000 2.57 220 16:54 29.03.2022
4540 Clouds 29 1009 79 10000 2.57 210 15:44 29.03.2022
4541 Clouds 29 1008 79 10000 2.57 220 14:43 29.03.2022
4542 Clear 28 1009 69 10000 1.64 264 13:41 29.03.2022
4543 Clouds 28 1008 83 9000 3.6 290 12:40 29.03.2022
4544 Clouds 30 1009 74 10000 2.57 240 11:27 29.03.2022
4545 Clear 28 1010 71 10000 1.98 265 10:23 29.03.2022
4546 Clouds 31 1011 70 10000 2.57 200 08:57 29.03.2022
4547 Clouds 30 1012 70 10000 2.06 210 06:53 29.03.2022
4548 Clouds 29 1009 74 10000 2.57 210 02:55 29.03.2022
4549 Clear 28 1009 72 10000 2.17 224 23:40 28.03.2022
4550 Clear 28 1010 71 10000 1.79 218 22:58 28.03.2022
4551 Clear 28 1010 71 10000 1.79 218 22:58 28.03.2022
4552 Clear 28 1010 71 10000 1.79 218 22:35 28.03.2022
4553 Clouds 29 1011 79 10000 1.54 350 21:47 28.03.2022
4554 Clouds 29 1012 74 10000 2.06 140 20:37 28.03.2022
4555 Clouds 29 1011 74 10000 2.06 140 19:57 28.03.2022
4556 Clouds 29 1011 74 10000 2.06 140 19:38 28.03.2022
4557 Clouds 29 1011 74 10000 1.54 140 18:51 28.03.2022
4558 Clouds 30 1010 70 10000 2.57 140 17:41 28.03.2022
4559 Clouds 30 1010 70 10000 2.57 130 16:58 28.03.2022
4560 Clouds 31 1009 70 10000 2.57 130 15:35 28.03.2022
4561 Clouds 31 1009 70 10000 3.09 140 14:24 28.03.2022
4562 Clear 28 1009 67 10000 2.22 144 13:19 28.03.2022
4563 Clouds 32 1009 66 10000 2.57 140 11:52 28.03.2022
4564 Clear 28 1010 67 10000 2.27 128 09:58 28.03.2022
4565 Clear 28 1011 68 10000 2.69 127 09:21 28.03.2022
4566 Clouds 32 1012 66 10000 2.57 130 08:39 28.03.2022
4567 Clouds 32 1012 66 10000 2.57 130 08:18 28.03.2022
4568 Clouds 31 1012 70 10000 3.09 130 06:55 28.03.2022
4569 Clouds 28 1010 71 10000 2.65 88 02:20 28.03.2022
4570 Clouds 29 1010 74 10000 3.6 100 22:36 27.03.2022
4571 Clouds 29 1011 74 10000 4.12 100 21:47 27.03.2022
4572 Clouds 29 1011 74 10000 4.12 100 21:25 27.03.2022
4573 Clouds 29 1012 74 10000 4.12 100 20:41 27.03.2022
4574 Clouds 29 1012 74 10000 4.63 90 19:37 27.03.2022
4575 Clouds 29 1012 74 10000 4.12 90 18:44 27.03.2022
4576 Clear 28 1012 72 10000 5.01 52 18:23 27.03.2022
4577 Clear 28 1012 72 10000 5.01 52 18:23 27.03.2022
4578 Clouds 29 1010 74 10000 4.63 90 17:35 27.03.2022
4579 Clouds 30 1008 66 10000 4.63 70 15:51 27.03.2022
4580 Clouds 32 1008 62 10000 4.63 60 13:58 27.03.2022
4581 Clear 28 1008 67 10000 3.97 44 13:21 27.03.2022
4582 Clouds 32 1009 58 10000 4.63 80 11:35 27.03.2022
4583 Clouds 31 1011 62 10000 3.6 90 09:37 27.03.2022
4584 Clouds 30 1012 66 10000 3.09 110 07:31 27.03.2022
4585 Clouds 27 1010 74 10000 2.57 100 03:45 27.03.2022
4586 Clouds 27 1009 78 10000 2.57 80 00:26 27.03.2022
4587 Clouds 28 1010 74 10000 2.57 100 22:52 26.03.2022
4588 Clouds 28 1011 74 10000 3.09 110 21:57 26.03.2022
4589 Clouds 28 1011 74 10000 3.09 110 21:30 26.03.2022
4590 Clear 28 1012 62 10000 2.45 39 19:32 26.03.2022
4591 Clouds 29 1012 70 10000 2.57 80 18:44 26.03.2022
4592 Clouds 29 1012 70 10000 2.57 80 17:36 26.03.2022
4593 Clouds 29 1011 70 10000 2.57 80 16:34 26.03.2022
4594 Clouds 29 1010 70 10000 1.54 30 15:42 26.03.2022
4595 Clouds 31 1009 62 10000 2.06 50 13:56 26.03.2022
4596 Clouds 31 1009 62 10000 2.06 50 13:36 26.03.2022
4597 Clouds 32 1009 58 10000 3.6 80 11:50 26.03.2022
4598 Clouds 32 1009 58 10000 2.57 20 10:48 26.03.2022
4599 Clouds 31 1011 62 10000 2.06 330 08:50 26.03.2022
4600 Clouds 30 1012 66 10000 2.06 350 06:39 26.03.2022
4601 Clouds 31 1012 62 10000 3.09 90 05:30 26.03.2022
4602 Clear 28 1010 65 10000 2.04 299 02:24 26.03.2022
4603 Clouds 27 1009 78 10000 1.54 300 22:30 25.03.2022
4604 Clouds 28 1010 74 10000 1.54 300 20:58 25.03.2022
4605 Clouds 28 1010 74 10000 1.54 300 20:26 25.03.2022
4606 Clear 28 1012 63 10000 1.96 314 19:19 25.03.2022
4607 Clouds 28 1011 74 10000 2.06 340 18:34 25.03.2022
4608 Clouds 29 1010 70 10000 2.06 300 17:29 25.03.2022
4609 Clouds 29 1010 70 10000 2.06 320 16:27 25.03.2022
4610 Clouds 29 1009 74 10000 2.57 290 15:33 25.03.2022
4611 Clouds 28 1008 63 10000 4.41 320 13:28 25.03.2022
4612 Clouds 28 1008 63 10000 4.66 309 11:21 25.03.2022
4613 Clouds 32 1009 58 10000 3.6 290 09:31 25.03.2022
4614 Clouds 32 1010 58 10000 3.09 290 08:49 25.03.2022
4615 Clouds 32 1010 58 10000 3.6 290 07:42 25.03.2022
4616 Clouds 31 1011 62 10000 4.12 290 06:59 25.03.2022
4617 Clouds 28 1008 74 10000 4.12 280 02:37 25.03.2022
4618 Clouds 29 1008 74 10000 4.63 270 22:59 24.03.2022
4619 Clouds 28 1008 74 10000 5.59 279 22:19 24.03.2022
4620 Clouds 28 1009 74 10000 3.09 260 20:52 24.03.2022
4621 Clouds 29 1009 70 10000 3.6 260 19:49 24.03.2022
4622 Clouds 29 1009 70 10000 3.09 300 18:44 24.03.2022
4623 Clouds 29 1009 70 10000 3.6 300 17:33 24.03.2022
4624 Clouds 29 1008 70 10000 3.6 300 16:24 24.03.2022
4625 Clouds 30 1007 70 10000 4.63 290 14:51 24.03.2022
4626 Clear 29 1008 65 10000 5.29 294 14:21 24.03.2022
4627 Clouds 30 1006 66 10000 3.6 280 13:33 24.03.2022
4628 Clouds 28 1007 64 10000 5.8 298 12:24 24.03.2022
4629 Clouds 32 1007 62 8000 4.12 280 10:48 24.03.2022
4630 Clouds 29 1009 62 10000 5.92 290 09:24 24.03.2022
4631 Clouds 32 1010 58 8000 4.12 280 07:42 24.03.2022
4632 Clouds 30 1010 70 10000 5.14 260 04:52 24.03.2022
4633 Clouds 28 1007 74 10000 5.66 260 23:41 23.03.2022
4634 Clouds 28 1008 67 10000 5.11 280 22:18 23.03.2022
4635 Clouds 28 1009 66 10000 4.86 283 21:21 23.03.2022
4636 Clouds 29 1009 70 10000 4.12 280 19:51 23.03.2022
4637 Clouds 29 1009 70 10000 4.12 280 19:25 23.03.2022
4638 Clouds 29 1008 70 10000 4.12 300 17:47 23.03.2022
4639 Clear 28 1010 67 10000 5.62 291 17:18 23.03.2022
4640 Clear 28 1009 67 10000 5.32 287 15:21 23.03.2022
4641 Clouds 30 1007 70 10000 4.63 290 14:42 23.03.2022
4642 Clouds 31 1006 66 10000 4.63 290 13:30 23.03.2022
4643 Clouds 31 1007 66 8000 5.66 300 10:37 23.03.2022
4644 Clouds 31 1010 66 8000 4.63 300 07:56 23.03.2022
4645 Clouds 30 1010 70 7000 4.12 320 05:40 23.03.2022
4646 Clouds 28 1007 78 10000 5.14 290 01:59 23.03.2022
4647 Clouds 29 1007 74 10000 6.17 290 00:25 23.03.2022
4648 Clouds 29 1007 74 10000 6.17 290 00:25 23.03.2022
4649 Clouds 29 1009 79 10000 5.14 300 21:36 22.03.2022
4650 Clouds 29 1009 74 10000 3.6 310 20:57 22.03.2022
4651 Clouds 29 1010 74 10000 5.14 300 19:59 22.03.2022
4652 Clouds 29 1010 74 10000 5.14 300 19:25 22.03.2022
4653 Clouds 29 1010 74 10000 5.14 300 18:45 22.03.2022
4654 Clouds 29 1009 70 10000 5.66 290 17:42 22.03.2022
4655 Clouds 29 1009 74 10000 5.66 300 16:37 22.03.2022
4656 Clouds 29 1008 74 10000 5.14 300 15:40 22.03.2022
4657 Clear 28 1009 68 10000 6.71 308 15:19 22.03.2022
4658 Clouds 30 1008 70 10000 4.63 310 14:42 22.03.2022
4659 Clouds 30 1007 70 10000 5.14 300 13:42 22.03.2022
4660 Clouds 31 1007 66 10000 7.2 300 11:52 22.03.2022
4661 Clouds 31 1008 66 10000 6.69 300 10:53 22.03.2022
4662 Clouds 31 1010 66 9000 6.17 290 08:43 22.03.2022
4663 Clear 28 1011 69 10000 6.31 315 07:21 22.03.2022
4664 Clouds 29 1009 70 8000 7.2 300 03:55 22.03.2022
4665 Clouds 29 1008 74 8000 7.2 300 00:46 22.03.2022
4666 Clouds 29 1009 79 8000 7.72 280 22:46 21.03.2022
4667 Clouds 29 1009 79 8000 6.69 280 21:25 21.03.2022
4668 Clouds 29 1009 79 8000 6.69 280 20:43 21.03.2022
4669 Clear 28 1010 71 10000 6.91 297 20:21 21.03.2022
4670 Clouds 29 1010 79 8000 7.2 290 19:35 21.03.2022
4671 Clouds 29 1010 79 8000 7.2 290 19:35 21.03.2022
4672 Clouds 29 1010 79 7000 7.2 280 18:47 21.03.2022
4673 Clouds 29 1010 79 7000 7.72 280 17:35 21.03.2022
4674 Clouds 29 1010 74 7000 7.72 280 16:59 21.03.2022
4675 Clouds 29 1010 74 7000 7.72 280 16:26 21.03.2022
4676 Clouds 30 1009 74 7000 8.75 280 15:37 21.03.2022
4677 Clouds 30 1008 74 7000 8.23 280 14:29 21.03.2022
4678 Clouds 31 1007 70 7000 8.23 280 12:58 21.03.2022
4679 Clouds 31 1007 70 7000 8.75 270 11:57 21.03.2022
4680 Clear 29 1008 64 10000 6.21 293 11:20 21.03.2022
4681 Clouds 31 1009 74 7000 7.72 270 09:42 21.03.2022
4682 Clouds 29 1011 64 10000 6.23 303 07:22 21.03.2022
4683 Clouds 30 1010 74 7000 6.69 270 05:42 21.03.2022
4684 Clouds 29 1008 79 8000 6.69 280 01:39 21.03.2022
4685 Clouds 29 1008 79 8000 6.69 280 22:57 20.03.2022
4686 Clouds 28 1008 73 10000 5.92 282 22:23 20.03.2022
4687 Clouds 29 1008 79 8000 7.2 280 21:31 20.03.2022
4688 Clouds 29 1009 79 8000 6.69 280 20:54 20.03.2022
4689 Clouds 29 1009 79 8000 6.69 280 20:27 20.03.2022
4690 Clouds 29 1010 74 8000 6.69 270 19:48 20.03.2022
4691 Clouds 29 1010 71 10000 5.84 282 19:19 20.03.2022
4692 Clouds 29 1009 79 8000 6.69 290 17:43 20.03.2022
4693 Clouds 29 1010 70 10000 6.08 283 17:24 20.03.2022
4694 Clouds 30 1008 74 8000 6.69 290 15:57 20.03.2022
4695 Clouds 30 1007 74 8000 6.69 290 14:38 20.03.2022
4696 Clouds 30 1007 74 8000 7.2 290 13:38 20.03.2022
4697 Clouds 31 1007 74 8000 7.2 280 11:58 20.03.2022
4698 Clouds 31 1009 70 8000 7.2 280 09:58 20.03.2022
4699 Clouds 28 1010 71 10000 7.04 290 08:19 20.03.2022
4700 Clouds 30 1011 74 9000 4.63 290 05:49 20.03.2022
4701 Clouds 28 1011 73 10000 6.94 281 03:18 20.03.2022
4702 Clouds 28 1008 83 9000 6.69 260 00:53 20.03.2022
4703 Clouds 28 1008 78 9000 5.66 260 23:37 19.03.2022
4704 Clouds 28 1009 75 10000 7.71 286 21:58 19.03.2022
4705 Clear 28 1009 76 10000 7.89 284 21:25 19.03.2022
4706 Clouds 28 1011 75 10000 7.25 279 19:22 19.03.2022
4707 Clouds 29 1010 79 9000 7.2 250 18:30 19.03.2022
4708 Clouds 29 1009 79 9000 7.2 250 17:48 19.03.2022
4709 Clouds 29 1008 74 9000 7.72 260 16:46 19.03.2022
4710 Clouds 28 1009 74 10000 6.98 282 15:22 19.03.2022
4711 Clouds 30 1007 74 9000 7.72 270 13:45 19.03.2022
4712 Clouds 30 1007 79 9000 6.69 250 12:42 19.03.2022
4713 Clear 28 1007 74 10000 7.66 281 12:20 19.03.2022
4714 Clouds 30 1007 74 9000 7.72 280 11:42 19.03.2022
4715 Clouds 31 1009 74 9000 9.77 250 08:57 19.03.2022
4716 Clouds 29 1010 84 8000 6.69 260 04:42 19.03.2022
4717 Clouds 29 1008 79 9000 7.72 250 02:32 19.03.2022
4718 Clouds 29 1008 79 9000 8.23 250 23:50 18.03.2022
4719 Clouds 29 1008 84 9000 7.2 230 22:48 18.03.2022
4720 Clear 28 1008 75 10000 6.79 267 22:21 18.03.2022
4721 Clouds 29 1009 89 9000 6.17 230 20:25 18.03.2022
4722 Clouds 29 1009 89 9000 6.17 230 20:25 18.03.2022
4723 Clouds 29 1009 89 9000 6.17 230 20:25 18.03.2022
4724 Clouds 28 1010 74 10000 6.46 278 19:24 18.03.2022
4725 Clouds 29 1010 84 9000 5.66 240 18:35 18.03.2022
4726 Clouds 29 1008 79 9000 6.69 250 16:53 18.03.2022
4727 Clouds 28 1009 73 10000 6.32 287 16:18 18.03.2022
4728 Clouds 30 1007 74 9000 6.17 200 14:26 18.03.2022
4729 Clouds 30 1006 79 8000 6.69 270 13:36 18.03.2022
4730 Clouds 31 1006 74 9000 6.69 270 11:29 18.03.2022
4731 Clouds 31 1008 74 8000 6.69 260 09:52 18.03.2022
4732 Clouds 32 1009 79 8000 6.69 260 08:46 18.03.2022
4733 Clouds 31 1010 74 8000 7.2 250 06:45 18.03.2022
4734 Clouds 30 1010 79 8000 5.66 250 04:39 18.03.2022
4735 Clouds 29 1007 84 8000 4.12 250 00:55 18.03.2022
4736 Clouds 29 1007 84 8000 5.14 260 23:52 17.03.2022
4737 Clouds 29 1008 84 8000 5.14 270 22:45 17.03.2022
4738 Clouds 28 1008 77 10000 5.06 270 22:19 17.03.2022
4739 Clouds 29 1009 84 8000 4.63 260 21:27 17.03.2022
4740 Clouds 30 1009 79 8000 4.63 250 20:53 17.03.2022
4741 Clouds 30 1009 79 8000 4.63 250 20:19 17.03.2022
4742 Clouds 29 1010 84 8000 3.6 270 19:37 17.03.2022
4743 Clouds 29 1010 84 8000 3.6 290 18:51 17.03.2022
4744 Clouds 29 1009 84 8000 3.6 290 17:29 17.03.2022
4745 Clouds 29 1010 74 10000 4.48 289 16:20 17.03.2022
4746 Clouds 30 1008 79 8000 5.14 290 15:43 17.03.2022
4747 Clouds 30 1008 79 8000 4.63 290 14:59 17.03.2022
4748 Clouds 29 1008 72 10000 4.88 290 13:35 17.03.2022
4749 Clouds 31 1006 74 8000 4.63 290 12:44 17.03.2022
4750 Clouds 31 1006 74 8000 4.63 290 11:32 17.03.2022
4751 Clouds 31 1006 74 8000 4.12 310 10:41 17.03.2022
4752 Clouds 31 1007 74 8000 4.12 300 09:36 17.03.2022
4753 Clouds 28 1009 75 10000 2.93 306 08:19 17.03.2022
4754 Clouds 30 1009 79 7000 3.09 280 05:49 17.03.2022
4755 Clouds 30 1009 74 7000 4.12 270 04:30 17.03.2022
4756 Clouds 29 1007 84 8000 4.63 260 00:25 17.03.2022
4757 Clouds 29 1007 84 8000 5.14 270 22:52 16.03.2022
4758 Clouds 29 1007 84 8000 5.14 270 22:34 16.03.2022
4759 Clouds 29 1008 84 8000 3.6 270 21:55 16.03.2022
4760 Clouds 29 1009 84 8000 4.12 270 20:40 16.03.2022
4761 Clouds 29 1010 84 8000 4.12 270 19:23 16.03.2022
4762 Clouds 29 1010 84 8000 4.12 290 18:42 16.03.2022
4763 Clouds 29 1010 84 9000 4.12 280 17:46 16.03.2022
4764 Clouds 29 1010 84 9000 4.12 280 17:28 16.03.2022
4765 Clouds 30 1009 74 7000 3.09 280 15:56 16.03.2022
4766 Clouds 30 1008 79 7000 3.09 280 14:38 16.03.2022
4767 Clouds 29 1008 72 10000 4.78 288 13:35 16.03.2022
4768 Clouds 29 1008 70 10000 4.37 294 12:43 16.03.2022
4769 Clouds 28 1007 71 10000 4.5 303 11:23 16.03.2022
4770 Clouds 32 1007 66 7000 4.12 300 10:30 16.03.2022
4771 Clouds 32 1008 66 7000 3.6 300 09:56 16.03.2022
4772 Clouds 28 1011 72 10000 4.54 282 07:23 16.03.2022
4773 Clouds 29 1008 79 8000 5.14 280 02:45 16.03.2022
4774 Clouds 29 1008 74 8000 3.6 270 22:55 15.03.2022
4775 Clouds 29 1008 74 8000 3.6 270 22:35 15.03.2022
4776 Clouds 29 1010 79 8000 3.6 280 20:55 15.03.2022
4777 Clouds 29 1011 79 8000 3.09 270 19:37 15.03.2022
4778 Clouds 29 1010 79 8000 2.57 300 17:42 15.03.2022
4779 Clouds 29 1010 79 8000 2.57 290 16:35 15.03.2022
4780 Clouds 30 1009 74 7000 2.57 290 15:38 15.03.2022
4781 Clouds 30 1008 74 7000 3.09 290 14:52 15.03.2022
4782 Clouds 31 1008 70 7000 2.57 300 13:56 15.03.2022
4783 Clouds 31 1008 70 7000 2.57 300 13:21 15.03.2022
4784 Clouds 31 1007 70 7000 2.57 320 11:32 15.03.2022
4785 Clouds 28 1008 71 10000 2.69 328 10:22 15.03.2022
4786 Clouds 31 1010 70 7000 3.09 330 08:53 15.03.2022
4787 Clouds 28 1010 73 10000 2.82 333 08:21 15.03.2022
4788 Clouds 31 1011 70 7000 3.09 310 07:36 15.03.2022
4789 Clouds 30 1011 74 7000 2.57 330 05:55 15.03.2022
4790 Clouds 28 1008 78 8000 2.06 320 00:25 15.03.2022
4791 Clouds 27 1008 89 8000 1.54 340 23:27 14.03.2022
4792 Clouds 28 1008 83 8000 1.54 360 22:44 14.03.2022
4793 Clouds 28 1009 78 8000 1.54 20 21:51 14.03.2022
4794 Clouds 29 1010 79 8000 1.54 10 20:55 14.03.2022
4795 Clouds 29 1010 79 8000 1.54 10 20:24 14.03.2022
4796 Clouds 29 1011 68 10000 3.16 31 19:22 14.03.2022
4797 Clouds 29 1010 74 8000 2.57 30 17:55 14.03.2022
4798 Clouds 29 1010 74 8000 2.57 30 17:33 14.03.2022
4799 Clouds 30 1010 70 8000 3.6 30 16:27 14.03.2022
4800 Clouds 30 1008 74 8000 5.14 20 14:42 14.03.2022
4801 Clouds 31 1007 74 8000 2.06 50 13:20 14.03.2022
4802 Clouds 30 1008 74 8000 3.6 360 10:59 14.03.2022
4803 Clouds 31 1009 74 8000 2.57 340 09:56 14.03.2022
4804 Clouds 29 1009 67 10000 4.57 24 09:24 14.03.2022
4805 Clouds 31 1009 74 8000 2.57 340 08:57 14.03.2022
4806 Clouds 29 1010 70 10000 4.26 22 08:24 14.03.2022
4807 Clouds 30 1011 74 8000 2.06 330 05:51 14.03.2022
4808 Clouds 28 1008 83 8000 2.06 280 02:57 14.03.2022
4809 Clouds 28 1008 83 8000 2.06 290 01:36 14.03.2022
4810 Clouds 28 1007 83 8000 1.54 280 23:29 13.03.2022
4811 Clouds 29 1009 79 8000 1.54 50 21:41 13.03.2022
4812 Clouds 28 1008 72 10000 2.14 51 21:19 13.03.2022
4813 Clouds 29 1009 79 8000 1.54 10 20:46 13.03.2022
4814 Clouds 28 1009 71 10000 2.67 61 20:21 13.03.2022
4815 Clouds 29 1010 79 8000 1.54 10 19:41 13.03.2022
4816 Clouds 28 1010 71 10000 3.33 60 19:21 13.03.2022
4817 Clouds 29 1010 79 8000 1.54 10 18:41 13.03.2022
4818 Clouds 29 1010 74 8000 2.06 60 17:52 13.03.2022
4819 Clouds 29 1010 74 8000 2.06 60 17:33 13.03.2022
4820 Clouds 29 1009 74 8000 2.57 70 16:44 13.03.2022
4821 Clear 29 1010 69 10000 4.94 48 16:21 13.03.2022
4822 Clouds 30 1008 74 8000 2.57 60 15:36 13.03.2022
4823 Clear 29 1008 71 10000 4.97 44 14:20 13.03.2022
4824 Clouds 31 1007 70 8000 2.06 360 13:27 13.03.2022
4825 Clear 29 1007 71 10000 4.74 42 12:21 13.03.2022
4826 Clouds 30 1006 74 8000 2.57 360 11:36 13.03.2022
4827 Clouds 31 1007 70 8000 3.09 360 10:49 13.03.2022
4828 Clouds 31 1007 70 8000 3.09 360 10:25 13.03.2022
4829 Clouds 32 1008 66 8000 3.6 80 09:41 13.03.2022
4830 Clouds 32 1009 66 8000 4.12 70 08:49 13.03.2022
4831 Clear 28 1009 71 10000 4.34 43 08:21 13.03.2022
4832 Clouds 31 1010 74 8000 3.09 80 05:59 13.03.2022
4833 Clouds 28 1008 83 9000 1.54 350 03:33 13.03.2022
4834 Clouds 28 1006 83 9000 2.06 20 00:48 13.03.2022
4835 Clouds 28 1007 78 9000 2.57 40 22:48 12.03.2022
4836 Clouds 29 1009 74 9000 2.57 40 20:59 12.03.2022
4837 Clear 28 1009 70 10000 3.7 32 19:58 12.03.2022
4838 Clear 28 1009 70 10000 3.7 32 19:39 12.03.2022
4839 Clouds 29 1010 74 9000 2.57 20 18:34 12.03.2022
4840 Clouds 29 1009 74 9000 2.57 10 17:46 12.03.2022
4841 Clouds 29 1008 74 9000 2.57 360 16:25 12.03.2022
4842 Clouds 29 1008 74 9000 3.09 360 15:25 12.03.2022
4843 Clouds 30 1007 74 9000 2.57 360 14:52 12.03.2022
4844 Clouds 31 1006 70 8000 3.6 350 13:53 12.03.2022
4845 Clouds 32 1006 66 8000 4.12 350 12:25 12.03.2022
4846 Clouds 32 1006 66 8000 3.09 350 11:51 12.03.2022
4847 Clear 28 1007 69 10000 4.1 13 11:20 12.03.2022
4848 Clouds 32 1008 66 8000 3.09 360 09:59 12.03.2022
4849 Clouds 32 1008 66 8000 3.09 360 09:40 12.03.2022
4850 Clouds 30 1010 74 9000 2.57 350 07:51 12.03.2022
4851 Clouds 30 1010 74 9000 2.06 290 05:44 12.03.2022
4852 Clouds 27 1008 83 9000 2.06 40 00:24 12.03.2022
4853 Clouds 27 1008 83 9000 1.54 30 23:37 11.03.2022
4854 Clouds 28 1009 78 9000 2.06 20 21:55 11.03.2022
4855 Clouds 28 1010 78 9000 2.06 20 20:59 11.03.2022
4856 Clouds 28 1010 78 9000 2.06 20 20:40 11.03.2022
4857 Clear 28 1009 71 10000 2.54 43 19:54 11.03.2022
4858 Clouds 28 1010 70 10000 2.84 39 19:28 11.03.2022
4859 Clouds 29 1010 74 9000 2.57 20 17:38 11.03.2022
4860 Clouds 28 1010 68 10000 2.98 46 17:19 11.03.2022
4861 Clouds 29 1008 74 9000 2.06 360 15:57 11.03.2022
4862 Clouds 29 1008 74 9000 2.06 360 15:29 11.03.2022
4863 Clouds 29 1008 66 10000 2.57 19 13:27 11.03.2022
4864 Clear 29 1007 65 10000 3.37 26 12:23 11.03.2022
4865 Clouds 30 1007 70 9000 4.12 80 11:57 11.03.2022
4866 Clear 28 1008 66 10000 3.5 31 10:24 11.03.2022
4867 Clouds 30 1008 74 8000 3.6 360 09:32 11.03.2022
4868 Clouds 30 1009 74 8000 3.09 360 08:27 11.03.2022
4869 Clouds 31 1010 70 8000 4.12 70 07:46 11.03.2022
4870 Clouds 31 1010 70 8000 3.6 90 06:25 11.03.2022
4871 Clouds 29 1010 79 8000 2.06 80 04:24 11.03.2022
4872 Clouds 27 1008 83 8000 3.09 70 00:39 11.03.2022
4873 Clouds 28 1009 83 8000 2.57 60 22:32 10.03.2022
4874 Clouds 28 1009 83 8000 2.57 80 21:52 10.03.2022
4875 Clear 28 1009 68 10000 3.62 46 21:24 10.03.2022
4876 Clouds 29 1010 74 8000 3.09 70 19:54 10.03.2022
4877 Clouds 29 1011 74 8000 3.09 40 18:56 10.03.2022
4878 Clouds 29 1010 74 8000 3.6 30 17:37 10.03.2022
4879 Clouds 29 1010 74 8000 4.12 30 16:42 10.03.2022
4880 Clouds 30 1009 70 8000 4.12 30 15:27 10.03.2022
4881 Clouds 31 1008 66 8000 4.63 30 13:30 10.03.2022
4882 Clouds 30 1007 70 8000 3.6 70 12:35 10.03.2022
4883 Clouds 31 1007 66 8000 3.6 70 11:26 10.03.2022
4884 Clouds 32 1009 62 8000 5.14 80 09:28 10.03.2022
4885 Clouds 31 1011 66 8000 4.63 70 07:46 10.03.2022
4886 Clouds 30 1011 74 8000 5.14 70 05:30 10.03.2022
4887 Clouds 27 1009 83 10000 2.57 90 01:56 10.03.2022
4888 Clouds 26 1008 89 10000 2.06 170 23:30 09.03.2022
4889 Clouds 28 1009 83 10000 1.54 150 21:56 09.03.2022
4890 Clouds 28 1009 83 10000 1.54 150 21:36 09.03.2022
4891 Clouds 28 1010 83 10000 1.54 100 19:56 09.03.2022
4892 Clouds 28 1010 83 10000 2.06 110 18:34 09.03.2022
4893 Clouds 29 1010 79 10000 2.57 100 17:27 09.03.2022
4894 Clouds 29 1010 79 10000 3.09 80 16:35 09.03.2022
4895 Clouds 29 1009 79 10000 2.57 70 15:31 09.03.2022
4896 Clouds 30 1007 74 10000 3.6 70 13:54 09.03.2022
4897 Clouds 31 1007 66 10000 4.63 80 12:56 09.03.2022
4898 Clouds 28 1007 74 10000 4.71 64 12:18 09.03.2022
4899 Clouds 31 1007 70 10000 5.14 80 11:36 09.03.2022
4900 Clouds 32 1007 66 10000 4.63 70 10:38 09.03.2022
4901 Clouds 31 1010 70 10000 5.14 70 08:59 09.03.2022
4902 Clouds 31 1010 70 10000 5.14 70 08:25 09.03.2022
4903 Clouds 29 1010 74 10000 4.63 80 03:50 09.03.2022
4904 Clouds 28 1008 78 10000 4.12 60 00:47 09.03.2022
4905 Clouds 28 1008 78 10000 3.6 60 22:48 08.03.2022
4906 Clouds 28 1008 78 10000 3.6 60 22:29 08.03.2022
4907 Clouds 28 1009 83 10000 3.6 70 21:24 08.03.2022
4908 Clouds 28 1010 83 10000 3.6 80 20:49 08.03.2022
4909 Clouds 29 1011 74 10000 3.6 80 19:53 08.03.2022
4910 Clouds 29 1011 74 10000 3.6 80 18:44 08.03.2022
4911 Clouds 29 1010 74 10000 4.12 70 17:40 08.03.2022
4912 Clouds 29 1010 74 10000 3.6 70 16:29 08.03.2022
4913 Clouds 28 1009 68 10000 3.47 46 14:20 08.03.2022
4914 Clouds 31 1007 66 10000 4.63 80 12:44 08.03.2022
4915 Clouds 31 1008 66 10000 4.63 70 11:45 08.03.2022
4916 Clouds 31 1008 66 9000 4.63 60 10:55 08.03.2022
4917 Clouds 28 1009 69 10000 4.33 53 10:19 08.03.2022
4918 Clouds 31 1011 66 9000 4.63 70 07:34 08.03.2022
4919 Clouds 30 1011 70 9000 4.12 100 05:44 08.03.2022
4920 Clouds 27 1008 78 10000 2.57 60 23:58 07.03.2022
4921 Clouds 27 1009 72 10000 2.78 53 22:23 07.03.2022
4922 Clouds 28 1009 74 10000 3.09 80 21:34 07.03.2022
4923 Clouds 28 1010 74 10000 3.6 90 20:52 07.03.2022
4924 Clouds 27 1011 71 10000 2.72 71 20:20 07.03.2022
4925 Clouds 28 1011 78 10000 4.12 100 19:34 07.03.2022
4926 Clouds 29 1011 70 10000 4.12 100 18:46 07.03.2022
4927 Clouds 29 1011 74 10000 3.09 90 17:52 07.03.2022
4928 Clouds 29 1010 70 10000 2.57 80 16:56 07.03.2022
4929 Clouds 28 1011 71 10000 3.44 70 16:20 07.03.2022
4930 Clouds 28 1009 69 10000 2.91 39 14:18 07.03.2022
4931 Clouds 31 1007 62 9000 4.63 80 12:33 07.03.2022
4932 Clouds 31 1008 66 9000 4.63 80 10:39 07.03.2022
4933 Clouds 32 1009 62 9000 4.12 90 09:47 07.03.2022
4934 Clouds 27 1011 68 10000 2.82 69 06:20 07.03.2022
4935 Clouds 27 1008 71 10000 2.62 58 00:23 07.03.2022
4936 Clouds 27 1008 83 9000 1.03 0 23:35 06.03.2022
4937 Clouds 28 1009 83 9000 0 0 22:57 06.03.2022
4938 Clouds 27 1009 71 10000 3.23 55 22:24 06.03.2022
4939 Clouds 28 1010 78 9000 0 0 20:51 06.03.2022
4940 Clouds 28 1010 78 9000 0 0 20:26 06.03.2022
4941 Clouds 28 1011 70 10000 3.92 20 19:23 06.03.2022
4942 Clouds 29 1011 74 9000 2.06 350 18:25 06.03.2022
4943 Clouds 28 1011 70 10000 4.48 15 17:21 06.03.2022
4944 Clouds 29 1010 74 9000 2.06 360 16:43 06.03.2022
4945 Clouds 28 1011 69 10000 4.6 10 16:18 06.03.2022
4946 Clouds 30 1008 70 9000 3.09 360 14:57 06.03.2022
4947 Clouds 30 1008 70 9000 3.09 360 14:33 06.03.2022
4948 Clouds 31 1008 66 9000 2.57 350 13:30 06.03.2022
4949 Clouds 31 1007 66 9000 2.57 350 12:35 06.03.2022
4950 Clouds 28 1008 70 10000 4.59 353 11:21 06.03.2022
4951 Clouds 32 1008 62 9000 3.09 360 10:28 06.03.2022
4952 Clouds 31 1010 66 9000 2.57 350 08:32 06.03.2022
4953 Clouds 30 1011 74 9000 2.57 330 07:45 06.03.2022
4954 Clear 27 1012 71 10000 2.91 344 06:22 06.03.2022
4955 Clouds 28 1008 78 9000 2.06 360 00:55 06.03.2022
4956 Clouds 28 1008 78 9000 2.06 360 00:33 06.03.2022
4957 Clouds 28 1008 78 9000 2.06 360 00:33 06.03.2022
4958 Clouds 28 1008 78 9000 2.06 360 23:26 05.03.2022
4959 Clouds 28 1008 78 9000 2.06 360 22:57 05.03.2022
4960 Clear 27 1009 72 10000 2.84 346 22:23 05.03.2022
4961 Clear 27 1009 71 10000 2.17 349 21:23 05.03.2022
4962 Clouds 29 1010 74 9000 2.06 10 19:49 05.03.2022
4963 Clouds 29 1011 74 9000 2.57 20 18:56 05.03.2022
4964 Clouds 29 1011 74 9000 2.57 20 18:27 05.03.2022
4965 Clouds 29 1010 74 9000 3.6 10 16:52 05.03.2022
4966 Clouds 30 1009 70 9000 3.09 10 15:40 05.03.2022
4967 Clouds 30 1008 70 9000 2.57 360 14:52 05.03.2022
4968 Clouds 30 1008 70 9000 2.57 360 14:33 05.03.2022
4969 Clear 28 1009 69 10000 4.15 0 13:34 05.03.2022
4970 Clouds 31 1008 66 9000 2.57 340 11:49 05.03.2022
4971 Clear 28 1008 65 10000 3.04 349 11:20 05.03.2022
4972 Clear 28 1009 66 10000 3.17 351 10:20 05.03.2022
4973 Clouds 31 1009 70 10000 2.57 360 09:26 05.03.2022
4974 Clouds 31 1012 66 9000 2.06 60 07:58 05.03.2022
4975 Clouds 29 1012 74 9000 3.6 30 05:43 05.03.2022
4976 Clouds 29 1011 74 9000 2.57 30 04:33 05.03.2022
4977 Clouds 27 1010 78 9000 1.54 20 23:38 04.03.2022
4978 Clouds 27 1010 78 9000 1.54 10 22:44 04.03.2022
4979 Clear 27 1010 68 10000 2.52 327 22:23 04.03.2022
4980 Clouds 28 1012 78 9000 1.54 340 20:57 04.03.2022
4981 Clouds 28 1012 78 9000 1.54 340 20:28 04.03.2022
4982 Clouds 29 1012 70 9000 2.06 360 19:36 04.03.2022
4983 Clouds 29 1012 74 9000 2.06 360 18:46 04.03.2022
4984 Clear 28 1012 66 10000 3.5 3 18:20 04.03.2022
4985 Clouds 29 1012 74 9000 2.06 10 17:28 04.03.2022
4986 Clouds 30 1010 70 9000 3.6 30 15:31 04.03.2022
4987 Clouds 31 1008 66 9000 4.12 30 14:36 04.03.2022
4988 Clouds 31 1008 66 9000 3.6 30 13:27 04.03.2022
4989 Clouds 31 1008 66 8000 5.14 70 11:56 04.03.2022
4990 Clouds 32 1009 62 8000 4.63 70 10:57 04.03.2022
4991 Clouds 28 1009 71 10000 5.15 46 10:18 04.03.2022
4992 Clouds 32 1011 62 8000 5.14 60 08:40 04.03.2022
4993 Clouds 32 1012 62 8000 5.14 60 07:41 04.03.2022
4994 Clouds 29 1012 79 8000 2.57 60 04:59 04.03.2022
4995 Clouds 28 1009 83 9000 3.6 60 00:41 04.03.2022
4996 Clouds 28 1010 78 8000 5.14 70 22:39 03.03.2022
4997 Clouds 28 1010 78 8000 5.66 50 21:57 03.03.2022
4998 Clouds 28 1010 78 8000 5.66 50 21:34 03.03.2022
4999 Clouds 28 1012 69 10000 6.19 54 20:21 03.03.2022
5000 Clouds 29 1011 74 9000 6.69 50 18:57 03.03.2022
5001 Clouds 28 1012 70 10000 7.28 43 18:24 03.03.2022
5002 Clouds 29 1011 74 9000 5.66 50 17:31 03.03.2022
5003 Clouds 29 1010 74 9000 6.17 50 16:26 03.03.2022
5004 Clouds 30 1009 70 9000 7.2 50 15:32 03.03.2022
5005 Clouds 30 1008 70 9000 8.23 50 14:43 03.03.2022
5006 Clouds 30 1008 70 9000 8.23 50 14:24 03.03.2022
5007 Clouds 32 1007 62 9000 7.2 30 12:27 03.03.2022
5008 Clouds 31 1008 70 9000 6.17 40 10:56 03.03.2022
5009 Clouds 31 1009 70 9000 5.14 360 09:56 03.03.2022
5010 Clouds 32 1010 62 9000 5.66 20 08:34 03.03.2022
5011 Clouds 31 1011 66 9000 3.6 10 06:38 03.03.2022
5012 Clouds 29 1011 70 8000 3.6 20 04:47 03.03.2022
5013 Clouds 28 1008 74 9000 3.6 50 23:41 02.03.2022
5014 Clouds 28 1009 74 9000 5.14 50 22:53 02.03.2022
5015 Clouds 28 1009 74 9000 5.14 50 22:53 02.03.2022
5016 Clouds 28 1009 74 9000 5.14 50 22:31 02.03.2022
5017 Clouds 29 1010 70 9000 4.12 50 20:59 02.03.2022
5018 Clouds 29 1010 70 9000 4.12 50 20:25 02.03.2022
5019 Clouds 29 1011 70 9000 4.12 50 19:37 02.03.2022
5020 Clouds 29 1011 74 9000 3.6 50 18:58 02.03.2022
5021 Clouds 29 1011 74 9000 3.6 50 18:26 02.03.2022
5022 Clouds 29 1010 70 9000 4.12 40 17:37 02.03.2022
5023 Clouds 29 1009 74 9000 4.12 40 16:52 02.03.2022
5024 Clouds 30 1009 62 9000 5.66 40 15:46 02.03.2022
5025 Clouds 29 1009 68 10000 7.93 36 13:52 02.03.2022
5026 Clouds 32 1008 58 9000 6.69 40 12:46 02.03.2022
5027 Clouds 32 1008 58 9000 6.69 40 12:46 02.03.2022
5028 Clouds 29 1008 65 10000 8.06 32 12:24 02.03.2022
5029 Clouds 32 1008 58 9000 6.69 30 11:26 02.03.2022
5030 Clouds 32 1009 58 9000 7.2 20 10:39 02.03.2022
5031 Clouds 32 1010 58 9000 7.2 50 09:36 02.03.2022
5032 Clouds 32 1011 62 9000 7.2 50 08:34 02.03.2022
5033 Clouds 28 1012 67 10000 6.71 38 07:23 02.03.2022
5034 Clouds 29 1012 79 9000 3.6 20 04:51 02.03.2022
5035 Clouds 28 1009 78 10000 3.09 10 00:40 02.03.2022
5036 Clouds 28 1009 78 9000 3.6 10 23:27 01.03.2022
5037 Clouds 28 1010 78 9000 2.57 30 22:38 01.03.2022
5038 Clouds 28 1011 78 9000 3.09 30 21:44 01.03.2022
5039 Clouds 28 1011 78 9000 2.57 30 20:40 01.03.2022
5040 Clouds 28 1011 69 10000 5.14 33 20:19 01.03.2022
5041 Clouds 29 1012 74 9000 2.57 30 18:58 01.03.2022
5042 Clouds 28 1012 69 10000 5.56 38 18:24 01.03.2022
5043 Clouds 29 1012 74 9000 3.09 30 17:54 01.03.2022
5044 Clouds 29 1011 74 9000 3.6 60 16:37 01.03.2022
5045 Clouds 29 1010 74 9000 4.12 50 15:48 01.03.2022
5046 Clouds 30 1010 70 9000 6.17 50 14:54 01.03.2022
5047 Clouds 30 1010 70 9000 6.17 50 14:31 01.03.2022
5048 Clouds 30 1009 66 9000 6.69 50 13:26 01.03.2022
5049 Clouds 31 1009 70 9000 7.2 50 12:38 01.03.2022
5050 Clouds 32 1009 62 9000 7.2 60 11:38 01.03.2022
5051 Clouds 32 1010 66 9000 5.14 50 09:53 01.03.2022
5052 Clouds 32 1011 66 9000 5.66 50 08:30 01.03.2022
5053 Clouds 32 1012 62 9000 5.66 60 07:32 01.03.2022
5054 Clouds 28 1011 78 10000 4.63 40 03:27 01.03.2022
5055 Clouds 28 1010 83 10000 3.6 30 00:49 01.03.2022
5056 Clouds 28 1011 83 10000 3.6 50 23:47 28.02.2022
5057 Clouds 28 1011 83 10000 3.6 60 22:50 28.02.2022
5058 Clouds 29 1012 74 10000 6.17 60 21:48 28.02.2022
5059 Clouds 29 1013 74 10000 6.17 60 20:56 28.02.2022
5060 Clouds 29 1013 74 10000 6.69 70 19:51 28.02.2022
5061 Clouds 28 1013 70 10000 6.64 58 19:22 28.02.2022
5062 Clouds 29 1013 74 10000 7.2 70 18:35 28.02.2022
5063 Clouds 29 1012 68 10000 7.48 56 17:23 28.02.2022
5064 Clouds 29 1011 70 10000 7.72 70 16:32 28.02.2022
5065 Clouds 29 1011 68 10000 7.68 54 15:21 28.02.2022
5066 Clouds 29 1010 74 10000 7.2 80 14:29 28.02.2022
5067 Clouds 30 1009 66 9000 8.23 70 13:34 28.02.2022
5068 Clouds 31 1009 70 10000 6.69 60 12:31 28.02.2022
5069 Clouds 32 1009 66 10000 6.17 60 11:37 28.02.2022
5070 Clouds 32 1010 66 10000 6.17 80 10:44 28.02.2022
5071 Clouds 29 1009 69 10000 7.07 59 10:19 28.02.2022
5072 Clouds 32 1010 66 10000 7.2 70 09:30 28.02.2022
5073 Clouds 32 1011 66 10000 7.2 60 08:26 28.02.2022
5074 Clouds 29 1012 68 10000 6.73 60 07:19 28.02.2022
5075 Clouds 29 1012 79 10000 6.17 70 04:31 28.02.2022
5076 Clouds 28 1011 89 10000 5.14 80 03:30 28.02.2022
5077 Clouds 26 1011 89 10000 5.14 100 23:26 27.02.2022
5078 Clouds 28 1010 77 10000 5.97 72 22:33 27.02.2022
5079 Clouds 28 1011 76 10000 6.04 74 21:47 27.02.2022
5080 Clouds 29 1013 79 10000 3.6 90 20:55 27.02.2022
5081 Clouds 29 1013 79 10000 3.6 90 20:27 27.02.2022
5082 Clouds 28 1013 83 10000 4.12 90 19:56 27.02.2022
5083 Clouds 28 1013 83 10000 4.12 90 19:26 27.02.2022
5084 Clouds 29 1013 84 10000 7.2 80 18:40 27.02.2022
5085 Clouds 29 1013 84 10000 4.12 80 17:54 27.02.2022
5086 Clouds 29 1012 79 10000 5.14 80 16:38 27.02.2022
5087 Clouds 29 1011 79 10000 5.66 70 15:59 27.02.2022
5088 Clouds 28 1009 73 10000 6.43 56 13:21 27.02.2022
5089 Clouds 31 1009 70 10000 7.2 70 12:32 27.02.2022
5090 Clouds 32 1010 66 10000 6.69 70 10:56 27.02.2022
5091 Clouds 28 1010 72 10000 5.92 58 10:18 27.02.2022
5092 Clouds 32 1012 62 9000 6.17 90 09:44 27.02.2022
5093 Clouds 28 1011 74 10000 5.93 59 09:19 27.02.2022
5094 Clouds 31 1013 74 9000 6.69 90 07:34 27.02.2022
5095 Clouds 30 1013 70 9000 6.17 70 05:38 27.02.2022
5096 Clouds 29 1010 79 9000 5.66 90 00:53 27.02.2022
5097 Clouds 29 1011 79 9000 6.69 80 22:58 26.02.2022
5098 Clouds 29 1012 79 9000 7.2 90 21:49 26.02.2022
5099 Clouds 29 1012 79 9000 7.2 90 20:58 26.02.2022
5100 Clear 28 1012 74 10000 6.97 61 20:20 26.02.2022
5101 Clouds 29 1013 79 9000 7.2 70 19:46 26.02.2022
5102 Clouds 28 1012 74 10000 7.12 59 19:22 26.02.2022
5103 Clouds 29 1012 84 9000 6.69 70 17:46 26.02.2022
5104 Clouds 29 1011 84 9000 7.2 70 16:52 26.02.2022
5105 Clouds 29 1010 84 9000 7.2 70 15:57 26.02.2022
5106 Clouds 28 1011 76 10000 7.21 56 15:23 26.02.2022
5107 Clouds 30 1009 74 9000 7.2 60 14:54 26.02.2022
5108 Clouds 30 1009 74 9000 7.2 60 14:36 26.02.2022
5109 Clouds 30 1009 74 9000 8.23 70 13:24 26.02.2022
5110 Clouds 31 1008 70 9000 6.69 70 12:31 26.02.2022
5111 Clouds 32 1009 66 9000 6.69 70 11:29 26.02.2022
5112 Clouds 32 1009 66 9000 7.2 80 10:51 26.02.2022
5113 Clouds 32 1011 62 9000 7.72 80 08:59 26.02.2022
5114 Clouds 32 1012 62 8000 7.2 80 07:43 26.02.2022
5115 Clouds 28 1010 78 10000 6.17 90 01:53 26.02.2022
5116 Clouds 28 1010 78 10000 6.17 90 22:57 25.02.2022
5117 Clouds 29 1011 74 10000 7.2 80 21:46 25.02.2022
5118 Clouds 29 1011 74 10000 7.2 80 21:26 25.02.2022
5119 Clouds 29 1011 74 10000 7.72 80 20:33 25.02.2022
5120 Clouds 29 1012 74 10000 8.23 80 19:39 25.02.2022
5121 Clouds 29 1012 74 10000 8.75 70 17:33 25.02.2022
5122 Clouds 30 1011 70 10000 8.75 80 16:44 25.02.2022
5123 Clouds 29 1010 74 10000 8.23 70 15:48 25.02.2022
5124 Clouds 28 1011 76 10000 7.02 52 15:23 25.02.2022
5125 Clouds 30 1010 70 10000 8.75 70 14:45 25.02.2022
5126 Clouds 28 1010 75 10000 6.75 47 14:18 25.02.2022
5127 Clear 28 1010 74 10000 6.52 47 13:20 25.02.2022
5128 Clouds 32 1009 70 10000 6.69 70 11:30 25.02.2022
5129 Clouds 32 1009 70 10000 7.2 80 10:54 25.02.2022
5130 Clear 29 1010 72 10000 6.47 58 10:23 25.02.2022
5131 Clouds 32 1010 66 10000 7.2 80 09:35 25.02.2022
5132 Clouds 31 1013 70 10000 6.69 80 07:44 25.02.2022
5133 Clouds 31 1013 74 8000 6.69 70 06:45 25.02.2022
5134 Clouds 30 1013 74 8000 6.17 80 05:37 25.02.2022
5135 Clouds 28 1010 83 10000 6.69 60 00:31 25.02.2022
5136 Clouds 28 1010 78 10000 7.72 60 22:29 24.02.2022
5137 Clouds 29 1011 74 10000 8.23 60 21:43 24.02.2022
5138 Clouds 29 1011 74 10000 8.23 60 21:43 24.02.2022
5139 Clear 28 1011 74 10000 5.8 52 21:21 24.02.2022
5140 Clouds 29 1012 79 10000 8.23 70 20:42 24.02.2022
5141 Clouds 29 1013 79 10000 7.2 70 19:29 24.02.2022
5142 Clear 28 1013 73 10000 5.74 53 18:20 24.02.2022
5143 Clouds 29 1013 79 10000 7.2 70 17:51 24.02.2022
5144 Clear 28 1013 72 10000 5.37 55 17:18 24.02.2022
5145 Clouds 29 1012 79 10000 5.66 60 16:25 24.02.2022
5146 Clouds 29 1012 74 10000 5.66 70 15:41 24.02.2022
5147 Clouds 29 1011 74 10000 5.66 70 14:44 24.02.2022
5148 Clouds 30 1010 74 10000 5.66 70 13:51 24.02.2022
5149 Clouds 30 1010 74 10000 5.66 70 13:30 24.02.2022
5150 Clouds 32 1010 66 10000 5.66 70 11:32 24.02.2022
5151 Clouds 32 1011 66 9000 5.14 70 10:31 24.02.2022
5152 Clouds 32 1013 66 9000 5.66 80 08:43 24.02.2022
5153 Clear 28 1015 70 10000 4.3 50 06:28 24.02.2022
5154 Clouds 30 1014 70 9000 4.63 80 05:37 24.02.2022
5155 Clouds 28 1011 74 10000 5.14 80 00:30 24.02.2022
5156 Clear 28 1011 72 10000 4.4 68 22:19 23.02.2022
5157 Clouds 29 1012 79 10000 5.14 70 20:44 23.02.2022
5158 Clear 28 1013 72 10000 5.08 74 20:23 23.02.2022
5159 Clear 28 1013 72 10000 5.08 74 19:34 23.02.2022
5160 Clear 28 1013 72 10000 5.1 71 18:22 23.02.2022
5161 Clouds 29 1012 74 10000 4.63 80 16:27 23.02.2022
5162 Clouds 31 1009 66 10000 4.12 80 13:45 23.02.2022
5163 Clouds 31 1009 70 10000 4.12 80 12:31 23.02.2022
5164 Clouds 32 1010 66 10000 4.63 80 10:56 23.02.2022
5165 Clouds 28 1010 73 10000 4.02 54 09:38 23.02.2022
5166 Clear 28 1011 73 10000 3.35 67 08:54 23.02.2022
5167 Clear 28 1012 72 10000 3.54 85 07:53 23.02.2022
5168 Clouds 27 1011 83 10000 2.57 120 02:31 23.02.2022
5169 Clear 27 1009 76 10000 2.76 78 00:18 23.02.2022
5170 Clouds 28 1009 78 10000 3.09 100 23:33 22.02.2022
5171 Clouds 28 1010 78 10000 3.09 100 22:28 22.02.2022
5172 Clouds 28 1011 78 10000 3.09 100 21:44 22.02.2022
5173 Clear 27 1010 73 10000 2.37 76 21:21 22.02.2022
5174 Clouds 28 1011 78 10000 2.57 90 20:41 22.02.2022
5175 Clear 28 1011 72 10000 2.6 75 20:22 22.02.2022
5176 Clouds 28 1012 78 10000 3.09 90 19:34 22.02.2022
5177 Clouds 29 1012 74 10000 3.09 80 18:42 22.02.2022
5178 Clouds 29 1011 74 10000 3.6 80 17:35 22.02.2022
5179 Clouds 29 1010 74 10000 3.09 80 16:57 22.02.2022
5180 Clear 28 1011 69 10000 2.46 66 16:21 22.02.2022
5181 Clouds 29 1010 74 10000 2.57 90 15:31 22.02.2022
5182 Clouds 30 1009 70 10000 2.57 80 14:33 22.02.2022
5183 Clouds 31 1008 66 10000 3.6 90 11:39 22.02.2022
5184 Clouds 31 1008 66 10000 3.6 90 11:39 22.02.2022
5185 Clouds 31 1010 66 9000 4.12 90 09:48 22.02.2022
5186 Clouds 31 1012 70 9000 4.12 90 07:38 22.02.2022
5187 Clear 28 1012 70 10000 3.45 37 07:19 22.02.2022
5188 Clear 28 1012 70 10000 3.45 37 07:19 22.02.2022
5189 Clouds 27 1010 83 10000 2.06 20 02:51 22.02.2022
5190 Clouds 27 1009 83 10000 1.03 0 23:42 21.02.2022
5191 Clouds 27 1009 83 10000 1.03 0 22:37 21.02.2022
5192 Clouds 27 1010 83 10000 0 0 21:23 21.02.2022
5193 Clouds 28 1011 78 10000 1.54 40 18:58 21.02.2022
5194 Clouds 28 1011 78 10000 1.54 40 18:39 21.02.2022
5195 Clouds 28 1010 74 10000 2.06 70 16:37 21.02.2022
5196 Clouds 29 1008 74 10000 2.57 80 14:24 21.02.2022
5197 Clouds 30 1007 70 10000 3.09 70 13:40 21.02.2022
5198 Clouds 31 1007 70 10000 3.6 90 12:57 21.02.2022
5199 Clouds 28 1007 64 10000 2.08 42 12:21 21.02.2022
5200 Clouds 31 1008 66 10000 3.09 90 10:31 21.02.2022
5201 Clouds 31 1010 70 10000 3.6 70 07:52 21.02.2022
5202 Clouds 27 1008 83 10000 2.57 70 00:36 21.02.2022
5203 Clouds 27 1008 83 10000 2.06 80 22:37 20.02.2022
5204 Clouds 27 1009 83 10000 2.57 90 21:51 20.02.2022
5205 Clouds 27 1009 83 10000 2.57 90 21:25 20.02.2022
5206 Clouds 28 1010 78 10000 3.09 100 20:45 20.02.2022
5207 Clouds 28 1011 78 10000 3.09 100 19:51 20.02.2022
5208 Clouds 28 1011 78 10000 2.57 110 18:57 20.02.2022
5209 Clouds 28 1011 78 10000 2.57 110 18:37 20.02.2022
5210 Clouds 28 1011 78 10000 3.09 100 17:56 20.02.2022
5211 Clouds 28 1011 78 10000 3.09 100 17:24 20.02.2022
5212 Clouds 29 1009 74 10000 3.09 100 15:29 20.02.2022
5213 Clouds 31 1008 70 10000 4.63 100 13:59 20.02.2022
5214 Clouds 31 1008 66 10000 4.63 100 12:49 20.02.2022
5215 Clouds 31 1008 70 10000 5.14 90 11:56 20.02.2022
5216 Clouds 28 1009 68 10000 3.16 87 10:21 20.02.2022
5217 Clouds 32 1010 66 10000 4.63 110 09:51 20.02.2022
5218 Clouds 31 1012 66 10000 5.14 110 06:30 20.02.2022
5219 Clouds 28 1009 78 10000 5.14 100 00:33 20.02.2022
5220 Clouds 28 1009 78 10000 5.14 100 00:33 20.02.2022
5221 Clouds 28 1009 74 10000 5.14 110 23:39 19.02.2022
5222 Clouds 28 1009 74 10000 5.66 100 22:24 19.02.2022
5223 Clouds 28 1010 74 10000 5.14 100 21:50 19.02.2022
5224 Clouds 28 1010 78 10000 5.14 110 20:45 19.02.2022
5225 Clouds 28 1011 78 10000 6.69 100 19:36 19.02.2022
5226 Clouds 28 1011 78 10000 6.69 100 18:41 19.02.2022
5227 Clouds 29 1010 74 10000 6.69 100 17:58 19.02.2022
5228 Clouds 29 1010 74 10000 6.69 100 17:32 19.02.2022
5229 Clouds 29 1008 79 10000 7.2 100 15:59 19.02.2022
5230 Clouds 29 1008 79 10000 6.69 100 14:55 19.02.2022
5231 Clouds 31 1007 70 10000 6.69 110 13:58 19.02.2022
5232 Clouds 31 1008 70 10000 6.17 100 11:58 19.02.2022
5233 Clouds 31 1008 70 10000 6.17 100 11:29 19.02.2022
5234 Clouds 28 1009 70 10000 4.23 94 09:21 19.02.2022
5235 Clouds 30 1010 70 10000 6.17 100 06:49 19.02.2022
5236 Clouds 28 1007 74 10000 6.69 90 00:50 19.02.2022
5237 Clouds 28 1008 74 10000 7.2 90 22:41 18.02.2022
5238 Clouds 28 1008 74 10000 7.2 90 21:27 18.02.2022
5239 Clouds 28 1009 74 10000 7.2 90 20:25 18.02.2022
5240 Clouds 29 1009 70 10000 7.2 90 19:51 18.02.2022
5241 Clouds 29 1009 70 10000 7.2 90 19:51 18.02.2022
5242 Clouds 29 1009 74 10000 8.75 80 18:38 18.02.2022
5243 Clouds 28 1010 69 10000 6.23 71 18:18 18.02.2022
5244 Clouds 28 1009 68 10000 6 68 17:18 18.02.2022
5245 Clouds 30 1006 66 10000 5.66 80 14:31 18.02.2022
5246 Clouds 30 1005 70 10000 5.14 80 13:47 18.02.2022
5247 Clouds 31 1005 66 10000 5.66 90 12:50 18.02.2022
5248 Clouds 31 1006 66 10000 5.66 90 11:57 18.02.2022
5249 Clouds 31 1006 70 10000 6.17 90 10:47 18.02.2022
5250 Clouds 27 1007 71 10000 4.14 71 09:20 18.02.2022
5251 Clouds 30 1009 66 10000 4.12 100 06:50 18.02.2022
5252 Clouds 29 1008 70 10000 2.06 90 05:36 18.02.2022
5253 Clouds 27 1007 78 10000 2.57 50 22:43 17.02.2022
5254 Clouds 27 1007 78 10000 2.57 70 21:42 17.02.2022
5255 Clouds 28 1008 74 10000 2.57 30 20:52 17.02.2022
5256 Clouds 28 1008 74 10000 2.57 30 20:33 17.02.2022
5257 Clouds 28 1008 74 10000 2.57 30 19:42 17.02.2022
5258 Clouds 28 1008 74 10000 3.09 30 18:29 17.02.2022
5259 Clouds 28 1007 83 10000 2.57 30 17:46 17.02.2022
5260 Clouds 27 1007 67 10000 2.97 5 16:19 17.02.2022
5261 Clouds 29 1005 70 10000 2.57 350 14:30 17.02.2022
5262 Clouds 30 1004 66 10000 2.06 350 13:47 17.02.2022
5263 Clouds 31 1004 66 10000 2.06 320 11:55 17.02.2022
5264 Clouds 31 1005 66 10000 2.57 330 10:57 17.02.2022
5265 Clouds 29 1007 74 10000 3.6 60 07:57 17.02.2022
5266 Clouds 27 1006 71 10000 3.46 345 00:20 17.02.2022
5267 Clouds 28 1006 78 10000 2.06 30 22:38 16.02.2022
5268 Clouds 29 1008 74 10000 2.57 20 20:24 16.02.2022
5269 Clouds 29 1008 74 10000 3.09 20 19:27 16.02.2022
5270 Clouds 29 1008 79 10000 2.57 20 18:35 16.02.2022
5271 Clouds 29 1008 79 10000 2.06 360 17:27 16.02.2022
5272 Clouds 29 1007 74 10000 3.09 330 15:24 16.02.2022
5273 Clouds 30 1005 74 10000 2.57 310 13:47 16.02.2022
5274 Clouds 30 1005 79 10000 3.09 330 12:27 16.02.2022
5275 Clouds 31 1005 70 10000 3.6 330 11:46 16.02.2022
5276 Clouds 31 1006 70 9000 3.6 310 10:35 16.02.2022
5277 Clouds 31 1007 70 9000 3.6 340 09:54 16.02.2022
5278 Clouds 30 1009 70 8000 2.57 20 06:44 16.02.2022
5279 Clouds 27 1007 83 10000 3.6 40 02:48 16.02.2022
5280 Clouds 28 1008 83 10000 3.09 30 22:34 15.02.2022
5281 Clouds 28 1009 78 10000 2.06 50 21:51 15.02.2022
5282 Clouds 28 1009 78 10000 2.06 50 21:31 15.02.2022
5283 Clouds 28 1010 78 10000 5.14 50 20:58 15.02.2022
5284 Clouds 28 1010 78 10000 5.14 50 20:27 15.02.2022
5285 Clouds 29 1010 74 10000 3.6 30 19:48 15.02.2022
5286 Clouds 29 1010 79 10000 4.12 40 18:28 15.02.2022
5287 Clouds 29 1009 79 10000 5.14 40 17:57 15.02.2022
5288 Clouds 29 1009 79 10000 5.14 40 17:38 15.02.2022
5289 Clouds 29 1008 79 10000 4.12 30 15:44 15.02.2022
5290 Clouds 30 1007 70 10000 4.12 10 14:31 15.02.2022
5291 Clouds 30 1006 70 10000 3.6 30 13:26 15.02.2022
5292 Clouds 31 1006 70 10000 3.09 360 11:43 15.02.2022
5293 Clouds 31 1007 70 10000 3.6 360 10:32 15.02.2022
5294 Clouds 31 1009 70 10000 3.09 30 08:56 15.02.2022
5295 Clouds 30 1011 74 10000 3.6 50 06:47 15.02.2022
5296 Clouds 26 1008 94 8000 4.12 30 00:26 15.02.2022
5297 Clouds 28 1009 83 10000 4.12 90 21:59 14.02.2022
5298 Clouds 29 1010 84 10000 5.14 80 20:57 14.02.2022
5299 Clouds 29 1011 84 10000 3.6 80 19:52 14.02.2022
5300 Clouds 29 1011 84 10000 3.6 80 19:30 14.02.2022
5301 Clouds 28 1011 83 10000 4.12 80 18:24 14.02.2022
5302 Clouds 29 1010 79 10000 4.12 70 17:31 14.02.2022
5303 Rain 29 1009 79 10000 3.6 50 16:49 14.02.2022
5304 Rain 29 1008 79 10000 4.12 60 15:52 14.02.2022
5305 Clouds 30 1007 74 10000 4.12 60 13:36 14.02.2022
5306 Clouds 31 1007 70 10000 4.63 50 12:59 14.02.2022
5307 Clouds 31 1007 70 10000 4.63 50 12:32 14.02.2022
5308 Clouds 31 1006 70 10000 6.69 60 11:39 14.02.2022
5309 Clouds 28 1007 72 10000 3.48 36 10:22 14.02.2022
5310 Clouds 32 1008 66 10000 6.69 60 08:26 14.02.2022
5311 Clouds 31 1010 70 10000 6.17 70 07:26 14.02.2022
5312 Clouds 27 1007 78 10000 4.75 43 23:19 13.02.2022
5313 Clouds 28 1008 78 10000 5.66 70 22:41 13.02.2022
5314 Clouds 27 1007 78 10000 4.95 46 22:22 13.02.2022
5315 Clouds 27 1008 83 10000 6.69 70 21:24 13.02.2022
5316 Clouds 29 1009 74 10000 6.69 70 20:30 13.02.2022
5317 Clouds 27 1010 78 10000 6.59 45 19:23 13.02.2022
5318 Clouds 28 1010 78 10000 6.69 60 18:41 13.02.2022
5319 Clouds 29 1010 79 10000 7.2 60 17:41 13.02.2022
5320 Clouds 28 1008 83 10000 3.09 20 15:53 13.02.2022
5321 Rain 30 1007 70 10000 2.57 10 14:52 13.02.2022
5322 Clouds 30 1007 70 10000 3.09 360 13:42 13.02.2022
5323 Clouds 31 1006 66 10000 2.57 360 12:49 13.02.2022
5324 Clouds 31 1007 70 10000 4.12 360 10:50 13.02.2022
5325 Clouds 31 1007 70 10000 4.12 360 10:27 13.02.2022
5326 Clouds 31 1009 70 10000 3.6 360 08:59 13.02.2022
5327 Clouds 27 1011 73 10000 1.66 59 06:21 13.02.2022
5328 Clouds 27 1007 89 10000 2.57 100 00:35 13.02.2022
5329 Clouds 28 1008 83 10000 4.12 70 22:59 12.02.2022
5330 Clouds 28 1008 83 10000 4.12 70 22:33 12.02.2022
5331 Clouds 26 1009 80 10000 2.83 71 21:19 12.02.2022
5332 Clouds 28 1010 83 10000 4.63 80 20:25 12.02.2022
5333 Rain 27 1011 79 9638 3.7 76 19:21 12.02.2022
5334 Clouds 28 1011 78 10000 3.6 50 18:50 12.02.2022
5335 Rain 28 1011 78 10000 3.6 50 18:32 12.02.2022
5336 Clouds 28 1010 83 10000 3.6 70 16:55 12.02.2022
5337 Clouds 28 1010 83 10000 3.6 70 16:25 12.02.2022
5338 Clouds 28 1009 83 10000 4.12 60 15:49 12.02.2022
5339 Clouds 29 1007 74 10000 4.63 70 14:30 12.02.2022
5340 Clouds 30 1007 74 10000 5.66 60 12:55 12.02.2022
5341 Clouds 31 1007 70 10000 6.69 50 10:36 12.02.2022
5342 Clouds 31 1009 74 10000 6.17 70 09:39 12.02.2022
5343 Clouds 30 1010 74 10000 5.14 70 08:48 12.02.2022
5344 Clouds 31 1010 70 10000 2.57 100 07:53 12.02.2022
5345 Clouds 29 1011 79 9000 2.06 70 05:33 12.02.2022
5346 Clouds 27 1010 83 10000 1.54 150 03:32 12.02.2022
5347 Clouds 27 1009 69 10000 1.18 335 02:18 12.02.2022
5348 Clouds 28 1008 78 10000 2.57 70 22:28 11.02.2022
5349 Clouds 28 1009 78 10000 3.6 80 21:47 11.02.2022
5350 Clouds 28 1010 78 10000 4.12 80 20:40 11.02.2022
5351 Clouds 28 1010 78 10000 5.14 70 19:40 11.02.2022
5352 Clouds 28 1010 72 10000 2.67 53 19:20 11.02.2022
5353 Clouds 28 1011 78 10000 4.12 80 17:48 11.02.2022
5354 Clouds 28 1010 70 10000 2.85 55 17:22 11.02.2022
5355 Clouds 29 1009 74 10000 4.12 90 15:56 11.02.2022
5356 Clouds 29 1008 74 10000 4.12 100 14:43 11.02.2022
5357 Clouds 28 1008 68 10000 4.1 55 14:21 11.02.2022
5358 Clouds 30 1007 70 10000 3.09 80 13:57 11.02.2022
5359 Clouds 30 1007 70 10000 3.09 80 13:39 11.02.2022
5360 Clouds 31 1007 66 10000 5.14 80 11:41 11.02.2022
5361 Clouds 31 1009 70 8000 3.6 70 09:57 11.02.2022
5362 Clouds 31 1009 70 8000 4.63 80 08:42 11.02.2022
5363 Clouds 31 1009 70 8000 4.63 80 08:42 11.02.2022
5364 Clouds 28 1010 71 10000 4.94 63 08:22 11.02.2022
5365 Clouds 27 1011 68 10000 4.69 69 07:18 11.02.2022
5366 Clouds 27 1009 83 10000 5.66 80 02:26 11.02.2022
5367 Clouds 26 1008 89 7000 4.12 100 00:51 11.02.2022
5368 Clouds 26 1009 94 10000 2.06 150 22:49 10.02.2022
5369 Clouds 26 1010 89 10000 2.57 130 21:45 10.02.2022
5370 Clouds 25 1010 94 9000 2.57 60 20:59 10.02.2022
5371 Clouds 25 1010 94 9000 2.57 60 20:35 10.02.2022
5372 Clouds 28 1011 72 10000 4.43 50 19:25 10.02.2022
5373 Clouds 27 1011 83 10000 2.57 320 18:45 10.02.2022
5374 Clouds 27 1011 83 10000 3.6 320 17:26 10.02.2022
5375 Clouds 27 1010 89 10000 3.09 320 16:50 10.02.2022
5376 Clouds 27 1009 89 10000 4.63 310 15:51 10.02.2022
5377 Clouds 27 1009 89 10000 4.63 310 15:30 10.02.2022
5378 Clouds 28 1008 89 9000 2.06 60 14:48 10.02.2022
5379 Clouds 28 1008 89 9000 2.06 60 14:24 10.02.2022
5380 Clouds 30 1008 70 9000 2.57 360 13:29 10.02.2022
5381 Clouds 31 1007 66 10000 3.09 340 12:45 10.02.2022
5382 Clouds 31 1008 70 10000 3.09 350 11:33 10.02.2022
5383 Clouds 30 1008 74 10000 3.09 340 10:44 10.02.2022
5384 Clouds 30 1009 74 10000 3.09 340 09:59 10.02.2022
5385 Clouds 30 1009 74 10000 3.09 340 09:24 10.02.2022
5386 Clouds 29 1011 79 10000 3.6 330 07:28 10.02.2022
5387 Clouds 28 1010 83 9000 2.57 30 04:55 10.02.2022
5388 Clouds 28 1009 78 10000 3.09 320 01:48 10.02.2022
5389 Rain 28 1009 78 10000 3.09 310 00:47 10.02.2022
5390 Clouds 28 1009 78 10000 3.09 310 00:28 10.02.2022
5391 Clouds 28 1009 78 10000 3.09 310 23:23 09.02.2022
5392 Clouds 28 1009 78 10000 2.57 320 22:35 09.02.2022
5393 Clouds 28 1010 78 10000 3.09 330 21:51 09.02.2022
5394 Clouds 28 1010 78 10000 3.09 330 21:29 09.02.2022
5395 Clouds 28 1011 78 10000 3.09 330 20:47 09.02.2022
5396 Clouds 28 1011 78 10000 3.09 330 20:27 09.02.2022
5397 Clouds 29 1011 74 10000 2.57 350 19:54 09.02.2022
5398 Clouds 29 1011 74 10000 2.57 350 19:31 09.02.2022
5399 Clouds 29 1011 74 10000 3.6 340 17:37 09.02.2022
5400 Clouds 29 1011 70 10000 4.12 340 16:48 09.02.2022
5401 Clouds 29 1010 74 10000 4.12 330 15:50 09.02.2022
5402 Clouds 31 1010 62 10000 3.6 350 14:35 09.02.2022
5403 Clouds 31 1009 66 10000 5.14 330 12:28 09.02.2022
5404 Clouds 31 1009 66 10000 5.14 340 10:54 09.02.2022
5405 Clouds 31 1009 66 10000 5.14 340 10:26 09.02.2022
5406 Clouds 31 1010 66 10000 4.12 350 09:40 09.02.2022
5407 Clouds 28 1010 68 10000 6.51 358 09:19 09.02.2022
5408 Clouds 31 1012 66 10000 4.12 360 07:53 09.02.2022
5409 Clouds 30 1012 70 10000 3.6 360 05:30 09.02.2022
5410 Clouds 30 1012 70 10000 3.6 360 05:30 09.02.2022
5411 Clouds 28 1010 74 10000 4.12 30 03:50 09.02.2022
5412 Clouds 28 1010 74 10000 4.12 30 03:50 09.02.2022
5413 Clouds 28 1009 74 10000 3.6 30 00:39 09.02.2022
5414 Clouds 28 1009 74 10000 4.63 40 23:31 08.02.2022
5415 Clouds 28 1009 74 10000 4.63 40 23:31 08.02.2022
5416 Clouds 28 1009 74 10000 4.63 40 23:31 08.02.2022
5417 Clouds 28 1009 74 10000 4.63 40 23:31 08.02.2022
5418 Clouds 28 1010 74 10000 4.12 30 22:46 08.02.2022
5419 Clouds 27 1010 74 10000 5.21 6 22:21 08.02.2022
5420 Clouds 29 1010 70 10000 5.14 20 21:39 08.02.2022
5421 Clouds 27 1011 74 10000 5.51 13 21:20 08.02.2022
5422 Clouds 29 1011 74 10000 4.63 20 20:42 08.02.2022
5423 Clouds 29 1012 74 10000 3.6 10 19:46 08.02.2022
5424 Clouds 29 1012 74 10000 4.12 30 18:35 08.02.2022
5425 Clouds 29 1011 74 10000 4.63 20 17:40 08.02.2022
5426 Clouds 29 1010 74 10000 4.63 20 16:29 08.02.2022
5427 Clouds 29 1010 74 10000 4.63 20 15:29 08.02.2022
5428 Clouds 30 1009 70 10000 5.66 20 14:26 08.02.2022
5429 Clouds 31 1008 66 10000 4.12 360 12:41 08.02.2022
5430 Clouds 31 1011 66 10000 4.12 360 11:33 08.02.2022
5431 Clouds 28 1010 70 10000 5.75 5 10:18 08.02.2022
5432 Clouds 32 1010 62 10000 4.12 360 09:41 08.02.2022
5433 Clouds 31 1012 66 10000 4.12 10 07:46 08.02.2022
5434 Clouds 30 1012 66 10000 2.57 30 05:37 08.02.2022
5435 Clouds 29 1012 74 10000 5.66 30 04:39 08.02.2022
5436 Clouds 28 1012 69 10000 7.66 20 04:21 08.02.2022
5437 Clouds 28 1011 74 10000 4.63 30 03:36 08.02.2022
5438 Clouds 28 1011 68 10000 7 16 03:18 08.02.2022
5439 Clouds 27 1011 74 10000 3.09 30 02:58 08.02.2022
5440 Clouds 27 1011 74 10000 3.09 30 02:36 08.02.2022
5441 Clouds 27 1011 68 10000 6.42 14 02:18 08.02.2022
5442 Clouds 27 1010 78 10000 3.6 30 01:43 08.02.2022
5443 Clouds 27 1010 68 10000 5.98 13 01:24 08.02.2022
5444 Clouds 28 1010 74 10000 2.06 20 00:49 08.02.2022
5445 Clouds 28 1011 74 10000 2.57 10 23:45 07.02.2022
5446 Clouds 27 1010 73 10000 5.59 19 23:19 07.02.2022
5447 Clouds 27 1010 73 10000 5.59 19 23:00 07.02.2022
5448 Clouds 27 1011 74 10000 5.47 13 22:19 07.02.2022
5449 Clouds 28 1012 74 10000 2.06 30 21:52 07.02.2022
5450 Clouds 28 1012 74 10000 2.06 30 21:29 07.02.2022
5451 Clouds 28 1012 74 10000 2.06 30 21:29 07.02.2022
5452 Clouds 28 1013 74 10000 2.57 20 20:56 07.02.2022
5453 Clouds 28 1013 74 10000 2.57 20 20:38 07.02.2022
5454 Clouds 28 1013 74 10000 3.09 30 19:49 07.02.2022
5455 Clouds 28 1013 74 10000 3.09 30 19:31 07.02.2022
5456 Clouds 29 1013 70 10000 4.12 40 17:41 07.02.2022
5457 Clouds 29 1012 70 10000 3.6 20 16:52 07.02.2022
5458 Clouds 29 1011 70 10000 3.6 20 15:49 07.02.2022
5459 Clouds 29 1011 70 10000 4.12 30 14:44 07.02.2022
5460 Clouds 30 1010 66 10000 3.6 10 13:28 07.02.2022
5461 Clouds 31 1010 62 10000 4.63 10 12:38 07.02.2022
5462 Clouds 32 1010 62 10000 4.12 360 11:55 07.02.2022
5463 Clouds 32 1010 62 10000 4.12 360 11:33 07.02.2022
5464 Clouds 32 1011 58 10000 4.63 360 10:47 07.02.2022
5465 Clouds 32 1011 58 10000 4.63 360 10:28 07.02.2022
5466 Clouds 31 1012 66 10000 4.63 360 09:52 07.02.2022
5467 Clouds 31 1012 66 10000 4.63 360 09:18 07.02.2022
5468 Clouds 31 1013 62 10000 4.12 360 08:24 07.02.2022
5469 Clouds 31 1014 62 10000 4.12 350 06:52 07.02.2022
5470 Clouds 31 1014 62 10000 4.12 350 06:33 07.02.2022
5471 Clouds 27 1012 74 10000 2.57 300 02:56 07.02.2022
5472 Clouds 27 1012 78 10000 3.09 30 00:44 07.02.2022
5473 Clouds 27 1012 78 10000 2.57 360 23:42 06.02.2022
5474 Clouds 28 1012 74 10000 3.09 360 22:47 06.02.2022
5475 Clouds 28 1013 74 10000 3.09 30 21:52 06.02.2022
5476 Clouds 28 1013 74 10000 3.09 30 21:30 06.02.2022
5477 Clouds 28 1013 74 10000 3.6 30 20:53 06.02.2022
5478 Clouds 28 1013 74 10000 3.6 30 20:31 06.02.2022
5479 Clouds 28 1013 74 10000 4.12 30 19:37 06.02.2022
5480 Clouds 28 1013 74 10000 4.63 30 18:38 06.02.2022
5481 Clouds 28 1013 74 10000 5.66 30 17:55 06.02.2022
5482 Clouds 28 1013 63 10000 5.38 25 17:18 06.02.2022
5483 Clouds 28 1012 74 10000 5.14 30 16:38 06.02.2022
5484 Clouds 29 1011 70 10000 5.14 30 15:48 06.02.2022
5485 Clouds 29 1011 70 10000 5.14 30 15:26 06.02.2022
5486 Clouds 29 1011 65 10000 4.63 40 14:36 06.02.2022
5487 Clear 30 1010 62 10000 5.14 30 13:25 06.02.2022
5488 Clear 31 1009 58 10000 5.66 20 12:51 06.02.2022
5489 Clouds 31 1010 62 10000 5.14 50 11:27 06.02.2022
5490 Clear 31 1010 62 10000 3.6 350 10:30 06.02.2022
5491 Clear 31 1012 62 10000 5.14 70 08:53 06.02.2022
5492 Clear 31 1013 58 10000 5.14 50 07:51 06.02.2022
5493 Clouds 30 1014 66 10000 4.63 60 05:30 06.02.2022
5494 Clouds 30 1014 66 10000 4.63 60 05:30 06.02.2022
5495 Clouds 26 1011 83 10000 3.09 50 02:49 06.02.2022
5496 Clouds 26 1011 83 10000 3.09 50 02:24 06.02.2022
5497 Clouds 27 1010 78 10000 2.57 40 00:27 06.02.2022
5498 Clear 27 1010 69 10000 4.32 39 22:22 05.02.2022
5499 Clear 27 1011 69 10000 4.14 33 21:18 05.02.2022
5500 Clouds 28 1011 78 10000 2.06 50 20:24 05.02.2022
5501 Clouds 29 1011 70 10000 2.57 20 19:46 05.02.2022
5502 Clouds 29 1011 70 10000 3.6 30 18:58 05.02.2022
5503 Clouds 29 1011 74 10000 3.6 20 17:39 05.02.2022
5504 Clouds 29 1011 74 10000 3.6 20 17:39 05.02.2022
5505 Clouds 29 1010 74 10000 3.6 20 16:58 05.02.2022
5506 Clouds 29 1009 74 10000 4.12 30 15:34 05.02.2022
5507 Clouds 30 1008 66 10000 3.6 360 14:55 05.02.2022
5508 Clouds 31 1007 66 10000 4.12 360 12:47 05.02.2022
5509 Clouds 31 1007 66 10000 4.12 360 12:27 05.02.2022
5510 Clouds 31 1008 62 10000 4.63 360 10:48 05.02.2022
5511 Clouds 28 1008 65 10000 5.18 21 10:20 05.02.2022
5512 Clouds 31 1008 62 10000 4.12 20 09:43 05.02.2022
5513 Clouds 31 1010 62 10000 4.63 30 07:51 05.02.2022
5514 Clouds 31 1010 62 10000 4.63 30 07:51 05.02.2022
5515 Clouds 31 1010 62 10000 4.63 20 06:57 05.02.2022
5516 Clouds 30 1010 66 10000 4.63 30 04:29 05.02.2022
5517 Clouds 27 1008 71 10000 5.21 2 01:19 05.02.2022
5518 Clouds 27 1008 83 10000 2.57 30 00:53 05.02.2022
5519 Clouds 28 1008 78 10000 3.6 20 23:41 04.02.2022
5520 Clouds 28 1008 78 10000 3.6 20 23:23 04.02.2022
5521 Clouds 28 1009 78 10000 3.09 20 21:54 04.02.2022
5522 Clouds 28 1009 78 10000 3.09 20 21:36 04.02.2022
5523 Clouds 28 1009 73 10000 5.39 4 21:18 04.02.2022
5524 Clouds 29 1011 74 10000 3.6 360 19:59 04.02.2022
5525 Clouds 29 1011 74 10000 4.63 10 17:43 04.02.2022
5526 Clouds 29 1009 74 10000 2.57 10 15:39 04.02.2022
5527 Clouds 30 1008 70 10000 2.06 10 14:54 04.02.2022
5528 Clouds 30 1008 74 10000 2.57 350 13:33 04.02.2022
5529 Clouds 30 1007 74 10000 3.6 340 12:43 04.02.2022
5530 Clouds 31 1007 70 10000 3.09 350 11:42 04.02.2022
5531 Clouds 31 1008 70 10000 3.09 360 10:36 04.02.2022
5532 Clouds 32 1010 66 9000 3.6 360 08:36 04.02.2022
5533 Clouds 30 1011 74 8000 3.6 360 06:47 04.02.2022
5534 Clouds 27 1010 83 8000 1.54 360 02:44 04.02.2022
5535 Clouds 27 1009 83 8000 1.54 350 01:48 04.02.2022
5536 Clouds 28 1009 78 8000 2.06 10 23:29 03.02.2022
5537 Clouds 28 1010 78 8000 2.06 360 22:33 03.02.2022
5538 Clouds 28 1010 78 8000 1.54 360 21:49 03.02.2022
5539 Clouds 28 1011 78 8000 1.54 330 20:38 03.02.2022
5540 Clear 28 1011 63 10000 2.9 3 20:18 03.02.2022
5541 Clouds 28 1011 74 8000 1.54 350 19:30 03.02.2022
5542 Clouds 29 1012 74 8000 1.54 10 18:35 03.02.2022
5543 Clouds 29 1011 74 8000 2.57 10 17:32 03.02.2022
5544 Clouds 30 1009 62 8000 1.54 330 16:26 03.02.2022
5545 Clear 30 1009 66 8000 2.06 80 14:45 03.02.2022
5546 Clouds 31 1008 62 8000 3.09 90 12:52 03.02.2022
5547 Clear 31 1009 66 8000 5.66 70 10:58 03.02.2022
5548 Clear 31 1011 66 8000 5.66 80 08:37 03.02.2022
5549 Rain 30 1013 70 8000 6.17 90 05:26 03.02.2022
5550 Clouds 28 1010 78 8000 5.14 80 00:32 03.02.2022
5551 Clouds 28 1010 78 8000 5.66 70 23:39 02.02.2022
5552 Clouds 28 1011 78 8000 5.66 90 21:55 02.02.2022
5553 Clouds 28 1011 78 8000 5.66 90 21:31 02.02.2022
5554 Clouds 29 1012 79 8000 6.17 80 20:49 02.02.2022
5555 Clouds 29 1012 79 9000 5.66 90 19:58 02.02.2022
5556 Clouds 29 1012 79 9000 5.66 90 19:58 02.02.2022
5557 Clouds 29 1012 79 9000 5.66 90 19:27 02.02.2022
5558 Clouds 29 1012 79 9000 5.66 90 18:45 02.02.2022
5559 Clouds 29 1011 79 9000 5.66 60 17:56 02.02.2022
5560 Clear 28 1012 69 10000 5.46 58 17:19 02.02.2022
5561 Clouds 29 1011 79 9000 5.14 60 16:42 02.02.2022
5562 Clouds 30 1008 74 9000 6.69 70 13:28 02.02.2022
5563 Clouds 28 1008 69 10000 6.72 60 12:20 02.02.2022
5564 Clouds 31 1008 74 9000 7.2 80 11:33 02.02.2022
5565 Clouds 28 1009 72 10000 7.41 62 10:22 02.02.2022
5566 Clouds 30 1011 79 9000 6.17 90 07:35 02.02.2022
5567 Clouds 28 1009 83 10000 5.66 100 22:52 01.02.2022
5568 Clouds 29 1009 79 10000 6.69 100 21:50 01.02.2022
5569 Clouds 29 1010 79 10000 7.2 90 19:58 01.02.2022
5570 Clouds 29 1010 79 10000 6.17 100 17:44 01.02.2022
5571 Clouds 29 1009 79 10000 7.2 90 16:39 01.02.2022
5572 Clouds 29 1009 79 10000 7.2 90 16:39 01.02.2022
5573 Clouds 30 1008 74 10000 7.2 80 14:24 01.02.2022
5574 Clouds 31 1007 70 10000 7.2 80 12:43 01.02.2022
5575 Clouds 31 1007 74 10000 7.2 70 11:30 01.02.2022
5576 Clouds 30 1010 74 10000 7.2 70 04:53 01.02.2022
5577 Clouds 28 1008 83 10000 6.69 80 23:41 31.01.2022
5578 Clouds 29 1008 79 10000 7.2 80 22:58 31.01.2022
5579 Clouds 29 1009 79 10000 7.72 80 21:40 31.01.2022
5580 Clouds 28 1009 77 10000 6.29 69 21:19 31.01.2022
5581 Clouds 29 1010 79 10000 7.72 80 20:32 31.01.2022
5582 Clouds 29 1010 79 10000 8.23 80 19:35 31.01.2022
5583 Clouds 29 1010 84 10000 7.72 80 18:26 31.01.2022
5584 Clouds 29 1010 79 10000 9.77 80 17:41 31.01.2022
5585 Clouds 29 1010 84 10000 6.17 90 16:38 31.01.2022
5586 Clouds 29 1009 79 10000 6.17 90 15:41 31.01.2022
5587 Clear 28 1008 77 10000 6.6 70 14:22 31.01.2022
5588 Clouds 31 1007 70 10000 6.17 90 12:39 31.01.2022
5589 Clouds 32 1007 66 10000 6.69 90 11:56 31.01.2022
5590 Clouds 32 1008 66 10000 6.17 70 10:50 31.01.2022
5591 Clouds 32 1008 66 10000 6.17 70 10:50 31.01.2022
5592 Clouds 32 1008 66 10000 6.17 70 10:30 31.01.2022
5593 Clouds 32 1009 66 10000 6.69 90 09:26 31.01.2022
5594 Clouds 32 1010 70 10000 6.69 90 08:50 31.01.2022
5595 Clouds 28 1010 75 10000 5.99 64 08:20 31.01.2022
5596 Clear 28 1011 75 10000 5.98 70 06:18 31.01.2022
5597 Clouds 28 1009 78 10000 4.63 100 00:55 31.01.2022
5598 Clouds 28 1008 76 10000 5.86 73 23:18 30.01.2022
5599 Clouds 28 1009 78 10000 3.6 90 22:29 30.01.2022
5600 Clouds 28 1010 78 10000 4.12 90 21:42 30.01.2022
5601 Clouds 28 1010 75 10000 5.31 73 21:19 30.01.2022
5602 Clouds 28 1011 78 10000 4.12 90 20:47 30.01.2022
5603 Clouds 28 1011 78 10000 4.12 90 20:28 30.01.2022
5604 Clouds 28 1011 78 10000 4.12 80 19:52 30.01.2022
5605 Clouds 28 1011 78 10000 4.12 90 18:43 30.01.2022
5606 Clouds 28 1011 74 10000 5.81 83 18:20 30.01.2022
5607 Clouds 28 1011 73 10000 5.78 84 17:22 30.01.2022
5608 Clouds 29 1010 74 10000 5.14 90 16:40 30.01.2022
5609 Clouds 28 1010 73 10000 5.81 84 16:22 30.01.2022
5610 Clouds 29 1008 74 10000 5.14 80 15:50 30.01.2022
5611 Clouds 29 1008 74 10000 5.14 80 15:31 30.01.2022
5612 Clouds 30 1008 66 10000 6.17 80 14:46 30.01.2022
5613 Clouds 30 1007 66 10000 5.66 80 12:47 30.01.2022
5614 Clouds 30 1007 66 10000 5.66 80 12:25 30.01.2022
5615 Clouds 32 1008 62 10000 6.17 80 10:36 30.01.2022
5616 Clouds 32 1009 62 10000 7.2 80 09:56 30.01.2022
5617 Clouds 32 1010 62 10000 6.69 90 08:58 30.01.2022
5618 Clouds 32 1011 62 10000 6.17 80 07:55 30.01.2022
5619 Clouds 28 1010 74 10000 4.63 110 02:29 30.01.2022
5620 Clouds 28 1009 74 10000 3.09 110 00:41 30.01.2022
5621 Clouds 28 1009 66 10000 4.68 101 23:21 29.01.2022
5622 Clouds 28 1011 74 10000 3.6 110 21:59 29.01.2022
5623 Clouds 28 1011 74 10000 3.6 110 21:26 29.01.2022
5624 Clouds 28 1012 74 10000 3.6 120 20:36 29.01.2022
5625 Clouds 28 1012 74 10000 4.63 120 19:36 29.01.2022
5626 Clouds 29 1012 70 10000 4.12 120 18:58 29.01.2022
5627 Clouds 29 1012 70 10000 4.12 120 18:26 29.01.2022
5628 Clouds 29 1012 70 10000 4.12 110 17:41 29.01.2022
5629 Clouds 29 1011 70 10000 5.14 120 16:38 29.01.2022
5630 Clouds 30 1009 62 10000 4.63 120 14:24 29.01.2022
5631 Clouds 31 1008 62 10000 5.14 130 13:45 29.01.2022
5632 Clouds 31 1008 62 10000 5.14 130 13:24 29.01.2022
5633 Clouds 32 1008 58 10000 6.69 130 12:35 29.01.2022
5634 Clouds 32 1008 62 10000 6.17 130 11:27 29.01.2022
5635 Clouds 32 1009 58 10000 6.17 110 09:49 29.01.2022
5636 Clouds 31 1012 62 10000 7.72 100 06:55 29.01.2022
5637 Clouds 28 1008 65 10000 3.6 120 00:49 29.01.2022
5638 Clouds 28 1008 65 10000 3.6 120 00:31 29.01.2022
5639 Clouds 28 1009 65 10000 4.63 130 22:51 28.01.2022
5640 Clouds 28 1009 65 10000 4.63 130 22:26 28.01.2022
5641 Clouds 28 1009 61 10000 5.14 120 21:50 28.01.2022
5642 Clouds 28 1010 61 10000 4.63 130 20:30 28.01.2022
5643 Clouds 28 1010 61 10000 4.63 130 20:30 28.01.2022
5644 Clouds 28 1011 61 10000 4.63 130 19:33 28.01.2022
5645 Clouds 28 1011 61 10000 4.12 130 18:46 28.01.2022
5646 Clouds 28 1010 61 10000 4.12 120 17:31 28.01.2022
5647 Clouds 27 1009 64 10000 5.61 97 15:20 28.01.2022
5648 Clouds 30 1007 54 10000 4.12 120 13:57 28.01.2022
5649 Clouds 31 1007 51 10000 3.6 120 12:31 28.01.2022
5650 Clouds 31 1007 48 10000 4.12 110 11:36 28.01.2022
5651 Clouds 31 1008 48 10000 4.12 80 09:52 28.01.2022
5652 Clouds 31 1009 48 10000 4.63 90 08:26 28.01.2022
5653 Clouds 30 1010 51 10000 4.63 90 07:34 28.01.2022
5654 Clouds 26 1012 55 10000 3.47 84 05:23 28.01.2022
5655 Clouds 27 1009 61 10000 3.6 90 03:44 28.01.2022
5656 Clouds 26 1009 52 10000 1.94 55 02:22 28.01.2022
5657 Clouds 25 1008 69 10000 1.03 0 01:32 28.01.2022
5658 Clouds 27 1008 61 10000 2.57 30 23:25 27.01.2022
5659 Clouds 28 1009 57 10000 2.57 10 21:49 27.01.2022
5660 Clouds 28 1009 57 10000 2.57 10 21:29 27.01.2022
5661 Clouds 28 1010 57 10000 3.09 20 20:26 27.01.2022
5662 Clouds 28 1010 61 10000 2.06 20 18:40 27.01.2022
5663 Clouds 28 1010 57 10000 2.57 20 17:56 27.01.2022
5664 Clouds 29 1007 58 10000 3.09 10 14:42 27.01.2022
5665 Clouds 29 1007 61 10000 3.09 10 13:35 27.01.2022
5666 Clouds 30 1007 58 10000 2.57 360 12:40 27.01.2022
5667 Clouds 30 1008 54 10000 2.57 340 10:23 27.01.2022
5668 Clouds 31 1009 55 10000 3.6 360 08:56 27.01.2022
5669 Clouds 31 1009 55 10000 3.6 360 08:31 27.01.2022
5670 Clouds 30 1010 58 10000 4.63 20 05:59 27.01.2022
5671 Clouds 27 1008 69 10000 3.6 30 02:43 27.01.2022
5672 Clouds 27 1008 69 10000 3.6 20 23:32 26.01.2022
5673 Clouds 28 1009 61 10000 4.12 10 21:57 26.01.2022
5674 Clouds 28 1009 61 10000 4.12 10 21:33 26.01.2022
5675 Clouds 28 1010 61 10000 3.6 10 20:36 26.01.2022
5676 Clouds 28 1011 61 10000 3.09 20 19:55 26.01.2022
5677 Clouds 27 1010 61 10000 5.48 2 19:20 26.01.2022
5678 Clouds 28 1011 65 10000 3.09 10 18:40 26.01.2022
5679 Clouds 27 1011 63 10000 5.78 8 17:50 26.01.2022
5680 Clouds 27 1011 63 10000 6.34 8 17:22 26.01.2022
5681 Clouds 27 1011 63 10000 6.34 8 16:31 26.01.2022
5682 Clouds 27 1011 63 10000 6.03 9 15:49 26.01.2022
5683 Clouds 30 1008 62 10000 4.63 20 13:58 26.01.2022
5684 Clouds 31 1008 55 10000 5.66 20 11:48 26.01.2022
5685 Clouds 31 1009 55 10000 5.14 10 10:27 26.01.2022
5686 Clouds 32 1010 55 10000 4.63 10 09:45 26.01.2022
5687 Clouds 27 1010 63 10000 5.45 358 07:37 26.01.2022
5688 Clouds 27 1008 69 10000 3.09 20 01:54 26.01.2022
5689 Clouds 27 1008 69 10000 3.6 30 23:56 25.01.2022
5690 Clouds 27 1008 69 10000 4.63 30 22:56 25.01.2022
5691 Clouds 27 1009 61 10000 4.09 4 22:21 25.01.2022
5692 Clouds 28 1009 65 10000 4.12 30 21:52 25.01.2022
5693 Clouds 28 1009 65 10000 4.12 30 20:46 25.01.2022
5694 Clouds 28 1009 65 10000 4.12 30 20:46 25.01.2022
5695 Clouds 27 1010 60 10000 4.14 13 20:22 25.01.2022
5696 Clouds 27 1010 60 10000 4.14 13 19:46 25.01.2022
5697 Clouds 28 1010 65 10000 3.09 360 18:24 25.01.2022
5698 Clouds 28 1010 69 10000 3.09 360 17:42 25.01.2022
5699 Clouds 28 1009 69 10000 2.06 360 16:35 25.01.2022
5700 Clouds 29 1009 61 10000 3.09 360 15:49 25.01.2022
5701 Clouds 29 1009 61 10000 3.09 360 15:31 25.01.2022
5702 Clouds 29 1008 65 10000 2.57 360 14:57 25.01.2022
5703 Clouds 30 1007 62 10000 3.09 360 13:40 25.01.2022
5704 Clouds 31 1008 58 10000 3.09 360 10:39 25.01.2022
5705 Clouds 31 1010 58 10000 2.57 350 08:34 25.01.2022
5706 Clouds 31 1011 58 10000 3.09 360 07:28 25.01.2022
5707 Clouds 30 1011 58 10000 3.09 360 06:47 25.01.2022
5708 Clouds 27 1011 58 10000 4.05 352 04:22 25.01.2022
5709 Clouds 28 1008 65 10000 2.57 360 23:37 24.01.2022
5710 Clouds 27 1008 61 10000 4.1 0 23:18 24.01.2022
5711 Clouds 28 1009 65 10000 3.6 10 22:59 24.01.2022
5712 Clouds 28 1009 65 10000 3.6 10 22:41 24.01.2022
5713 Clouds 28 1010 65 10000 4.12 30 21:52 24.01.2022
5714 Clouds 28 1010 65 10000 4.12 30 21:28 24.01.2022
5715 Clouds 28 1010 65 10000 3.09 30 20:29 24.01.2022
5716 Clouds 28 1010 65 10000 3.09 20 19:39 24.01.2022
5717 Clouds 27 1010 63 10000 5.41 355 19:20 24.01.2022
5718 Clouds 29 1010 65 10000 3.6 20 17:45 24.01.2022
5719 Clouds 29 1010 65 10000 3.6 20 17:23 24.01.2022
5720 Clouds 29 1010 65 10000 3.6 20 17:23 24.01.2022
5721 Clouds 29 1009 65 10000 3.6 20 16:40 24.01.2022
5722 Clouds 27 1010 63 10000 5.01 360 16:18 24.01.2022
5723 Clouds 30 1008 66 10000 2.06 360 14:28 24.01.2022
5724 Clouds 30 1007 66 10000 3.6 340 12:38 24.01.2022
5725 Clouds 31 1008 62 10000 4.63 340 11:59 24.01.2022
5726 Clouds 31 1008 62 10000 3.6 360 10:25 24.01.2022
5727 Clouds 31 1009 58 10000 3.6 360 09:47 24.01.2022
5728 Clouds 31 1010 62 10000 3.6 360 08:24 24.01.2022
5729 Clouds 29 1011 70 10000 3.09 360 04:50 24.01.2022
5730 Clouds 27 1009 68 10000 5.2 348 01:29 24.01.2022
5731 Clouds 28 1008 74 10000 4.63 10 00:35 24.01.2022
5732 Clouds 28 1008 74 10000 2.57 350 23:49 23.01.2022
5733 Clouds 28 1009 74 10000 3.09 360 22:27 23.01.2022
5734 Clouds 28 1009 74 10000 3.6 360 21:44 23.01.2022
5735 Clouds 28 1009 74 10000 3.6 360 21:24 23.01.2022
5736 Clouds 28 1010 74 10000 3.09 360 20:30 23.01.2022
5737 Clouds 27 1011 70 10000 5.5 6 19:21 23.01.2022
5738 Clouds 29 1011 70 10000 2.57 350 18:44 23.01.2022
5739 Clouds 29 1011 70 10000 3.09 350 17:34 23.01.2022
5740 Clouds 29 1010 74 10000 3.09 340 16:45 23.01.2022
5741 Clouds 29 1009 74 10000 2.57 350 14:59 23.01.2022
5742 Clouds 28 1010 66 10000 4.57 355 14:21 23.01.2022
5743 Clouds 30 1008 70 10000 3.6 340 12:51 23.01.2022
5744 Clouds 28 1008 65 10000 4.52 342 12:22 23.01.2022
5745 Clouds 31 1009 66 10000 3.09 360 11:52 23.01.2022
5746 Clouds 28 1009 65 10000 4.57 341 11:18 23.01.2022
5747 Clouds 31 1009 66 10000 4.12 340 10:27 23.01.2022
5748 Clouds 31 1010 66 10000 3.09 340 09:51 23.01.2022
5749 Clouds 34 1011 55 10000 4.12 340 08:52 23.01.2022
5750 Clouds 29 1012 65 10000 2.06 340 05:56 23.01.2022
5751 Clouds 28 1010 69 10000 3.09 310 01:49 23.01.2022
5752 Clouds 28 1010 69 10000 3.09 310 01:26 23.01.2022
5753 Clouds 28 1010 74 10000 2.57 310 00:23 23.01.2022
5754 Clouds 28 1009 74 10000 2.57 350 23:44 22.01.2022
5755 Clouds 28 1010 74 10000 3.09 340 22:40 22.01.2022
5756 Clouds 28 1010 74 10000 2.57 350 21:28 22.01.2022
5757 Clouds 28 1011 74 10000 2.57 350 19:51 22.01.2022
5758 Clouds 28 1011 69 10000 3.09 360 18:49 22.01.2022
5759 Clouds 27 1012 65 10000 4.63 345 18:18 22.01.2022
5760 Clouds 28 1011 69 10000 3.09 360 17:40 22.01.2022
5761 Clouds 28 1010 69 10000 3.09 360 16:56 22.01.2022
5762 Clouds 28 1009 74 10000 3.09 350 15:50 22.01.2022
5763 Clouds 29 1009 70 10000 3.09 350 14:58 22.01.2022
5764 Clouds 30 1008 66 10000 3.09 350 13:42 22.01.2022
5765 Clouds 30 1007 66 10000 3.09 340 12:52 22.01.2022
5766 Clouds 30 1007 66 10000 3.09 340 12:29 22.01.2022
5767 Clouds 30 1008 66 10000 3.09 340 11:31 22.01.2022
5768 Clouds 30 1009 66 10000 3.09 340 10:29 22.01.2022
5769 Clouds 30 1010 66 10000 3.09 330 09:59 22.01.2022
5770 Clouds 30 1011 66 10000 3.09 320 08:52 22.01.2022
5771 Clouds 30 1012 66 10000 2.57 350 07:38 22.01.2022
5772 Clouds 28 1011 74 10000 2.06 360 04:53 22.01.2022
5773 Clouds 27 1011 69 10000 2.43 339 01:35 22.01.2022
5774 Clouds 27 1010 78 10000 2.57 340 23:45 21.01.2022
5775 Clouds 28 1011 74 10000 1.54 340 22:28 21.01.2022
5776 Clouds 28 1012 78 10000 1.54 340 20:28 21.01.2022
5777 Clouds 28 1012 74 10000 2.57 350 18:40 21.01.2022
5778 Clouds 28 1012 74 10000 2.06 10 17:41 21.01.2022
5779 Clouds 29 1011 70 10000 3.09 10 15:44 21.01.2022
5780 Clouds 30 1010 66 10000 3.09 360 13:51 21.01.2022
5781 Clouds 30 1010 66 10000 3.09 360 13:51 21.01.2022
5782 Clouds 30 1009 70 10000 3.09 360 12:38 21.01.2022
5783 Clouds 30 1009 70 10000 3.6 360 11:28 21.01.2022
5784 Clouds 27 1011 69 10000 3.94 8 10:20 21.01.2022
5785 Clouds 31 1012 66 10000 3.6 360 08:25 21.01.2022
5786 Clouds 27 1013 69 10000 3.48 14 06:57 21.01.2022
5787 Clouds 28 1010 74 10000 2.57 40 23:54 20.01.2022
5788 Clouds 28 1010 78 10000 3.09 40 22:44 20.01.2022
5789 Clouds 28 1010 78 10000 3.09 50 21:47 20.01.2022
5790 Clouds 28 1011 74 10000 3.09 40 20:56 20.01.2022
5791 Clouds 27 1012 67 10000 3.56 36 19:21 20.01.2022
5792 Clouds 28 1011 78 10000 2.57 30 18:51 20.01.2022
5793 Clouds 28 1011 78 10000 3.6 50 17:31 20.01.2022
5794 Clouds 29 1009 74 10000 3.09 40 15:45 20.01.2022
5795 Clouds 29 1009 74 10000 3.09 40 15:24 20.01.2022
5796 Clouds 30 1008 66 10000 3.6 30 13:42 20.01.2022
5797 Clouds 31 1008 62 10000 3.6 10 12:38 20.01.2022
5798 Clouds 31 1008 62 10000 4.12 360 11:57 20.01.2022
5799 Clouds 31 1009 66 10000 3.6 360 10:47 20.01.2022
5800 Clouds 32 1010 62 10000 4.63 360 09:42 20.01.2022
5801 Clouds 31 1011 66 10000 3.6 10 08:35 20.01.2022
5802 Clouds 31 1011 66 10000 3.6 10 08:35 20.01.2022
5803 Clouds 29 1013 74 10000 4.12 10 05:38 20.01.2022
5804 Clouds 28 1010 78 10000 2.57 30 23:42 19.01.2022
5805 Clouds 28 1010 78 10000 4.63 50 22:37 19.01.2022
5806 Clouds 28 1011 78 10000 4.63 60 21:24 19.01.2022
5807 Clouds 29 1011 74 10000 4.63 60 20:53 19.01.2022
5808 Clouds 28 1011 72 10000 5.21 49 20:22 19.01.2022
5809 Clouds 28 1012 78 10000 5.14 70 18:48 19.01.2022
5810 Clouds 29 1012 74 10000 5.66 50 17:50 19.01.2022
5811 Clouds 29 1011 74 10000 6.17 50 16:59 19.01.2022
5812 Clouds 29 1009 74 10000 6.17 60 14:43 19.01.2022
5813 Clouds 31 1009 66 10000 7.72 60 12:53 19.01.2022
5814 Clouds 31 1009 66 10000 7.2 60 11:43 19.01.2022
5815 Clouds 31 1010 66 10000 7.72 60 10:52 19.01.2022
5816 Clouds 32 1011 66 10000 7.72 60 09:35 19.01.2022
5817 Clouds 31 1012 66 10000 8.75 70 07:34 19.01.2022
5818 Clouds 28 1013 72 10000 6.53 53 05:19 19.01.2022
5819 Clouds 28 1010 78 10000 6.69 50 23:53 18.01.2022
5820 Clouds 28 1010 70 10000 6.73 48 23:18 18.01.2022
5821 Clouds 28 1011 78 10000 6.69 60 21:43 18.01.2022
5822 Clouds 28 1012 78 10000 7.2 70 19:57 18.01.2022
5823 Clouds 28 1012 78 10000 7.2 70 19:38 18.01.2022
5824 Clouds 28 1013 74 10000 7.31 48 19:19 18.01.2022
5825 Clouds 28 1013 75 10000 7.74 54 18:18 18.01.2022
5826 Clouds 29 1012 74 10000 8.75 70 17:29 18.01.2022
5827 Clouds 29 1010 74 10000 7.2 60 15:56 18.01.2022
5828 Clouds 29 1010 74 10000 7.2 60 15:24 18.01.2022
5829 Clouds 30 1009 74 10000 7.2 70 13:32 18.01.2022
5830 Clouds 31 1010 66 10000 9.26 60 10:49 18.01.2022
5831 Clouds 31 1010 66 10000 9.26 60 09:58 18.01.2022
5832 Clouds 28 1011 78 10000 10.46 48 08:19 18.01.2022
5833 Clouds 28 1013 78 10000 10.13 52 07:21 18.01.2022
5834 Clouds 28 1011 74 10000 8.7 60 00:21 18.01.2022
5835 Clouds 28 1011 78 10000 8.23 70 22:30 17.01.2022
5836 Clouds 28 1012 78 10000 8.75 60 21:36 17.01.2022
5837 Clouds 29 1013 74 10000 9.26 70 20:33 17.01.2022
5838 Clouds 29 1014 79 10000 9.26 60 18:42 17.01.2022
5839 Clouds 29 1013 74 10000 11.32 70 17:55 17.01.2022
5840 Clouds 29 1013 79 10000 10.29 70 16:53 17.01.2022
5841 Clouds 29 1012 79 10000 9.26 70 15:24 17.01.2022
5842 Clouds 30 1011 74 10000 9.77 70 14:57 17.01.2022
5843 Clouds 30 1010 70 10000 9.77 70 13:30 17.01.2022
5844 Clouds 31 1010 70 10000 8.75 80 12:57 17.01.2022
5845 Clouds 31 1011 66 10000 7.2 70 11:50 17.01.2022
5846 Clouds 31 1012 70 10000 7.72 70 10:38 17.01.2022
5847 Clouds 32 1012 66 10000 7.2 70 09:35 17.01.2022
5848 Clouds 31 1013 74 10000 5.14 70 07:47 17.01.2022
5849 Clouds 31 1013 74 10000 5.14 70 07:19 17.01.2022
5850 Clouds 28 1010 78 10000 5.66 60 00:57 17.01.2022
5851 Clouds 28 1011 78 10000 5.14 60 22:53 16.01.2022
5852 Clouds 29 1012 79 10000 6.69 90 20:40 16.01.2022
5853 Clouds 29 1013 79 10000 7.2 70 18:53 16.01.2022
5854 Clouds 28 1013 77 10000 6.89 65 18:18 16.01.2022
5855 Clouds 29 1013 79 10000 5.66 70 17:45 16.01.2022
5856 Clouds 29 1012 79 10000 6.17 70 16:48 16.01.2022
5857 Clouds 28 1011 75 10000 6.9 52 15:19 16.01.2022
5858 Clouds 30 1010 70 10000 5.66 70 14:28 16.01.2022
5859 Clouds 31 1009 70 10000 6.69 70 12:51 16.01.2022
5860 Clouds 31 1009 70 10000 6.17 70 11:47 16.01.2022
5861 Clouds 31 1010 70 10000 5.66 70 10:55 16.01.2022
5862 Clouds 31 1010 70 10000 5.66 70 10:26 16.01.2022
5863 Clouds 31 1011 70 10000 5.66 70 09:54 16.01.2022
5864 Clouds 28 1010 73 10000 6.44 53 09:22 16.01.2022
5865 Clouds 31 1011 70 10000 5.66 70 08:38 16.01.2022
5866 Clouds 28 1011 74 10000 6.12 44 03:21 16.01.2022
5867 Clouds 28 1009 78 10000 4.63 60 23:50 15.01.2022
5868 Clouds 28 1009 73 10000 5.22 39 22:19 15.01.2022
5869 Clouds 28 1010 72 10000 4.98 41 21:19 15.01.2022
5870 Clouds 28 1011 83 10000 4.63 70 20:40 15.01.2022
5871 Clouds 28 1011 78 10000 5.66 70 19:30 15.01.2022
5872 Clouds 28 1011 78 10000 5.14 70 18:45 15.01.2022
5873 Clouds 29 1011 74 10000 5.14 70 17:29 15.01.2022
5874 Clouds 29 1010 74 10000 4.63 60 15:59 15.01.2022
5875 Clouds 30 1009 70 10000 4.12 70 13:55 15.01.2022
5876 Clouds 28 1009 71 10000 4.42 37 12:18 15.01.2022
5877 Clouds 32 1009 66 10000 5.14 80 10:36 15.01.2022
5878 Clouds 31 1011 70 10000 5.66 70 08:31 15.01.2022
5879 Clouds 28 1009 74 10000 3.6 50 00:28 15.01.2022
5880 Clouds 28 1011 74 10000 4.12 60 21:52 14.01.2022
5881 Clouds 28 1011 74 10000 4.12 60 20:40 14.01.2022
5882 Clouds 28 1011 73 10000 5.1 36 20:20 14.01.2022
5883 Clouds 28 1011 78 10000 4.63 60 18:49 14.01.2022
5884 Clouds 29 1011 74 10000 4.63 50 17:57 14.01.2022
5885 Clouds 29 1010 74 10000 5.66 60 16:48 14.01.2022
5886 Clouds 29 1009 74 10000 5.14 70 15:37 14.01.2022
5887 Clouds 29 1009 70 10000 5.14 50 14:42 14.01.2022
5888 Clouds 30 1008 70 10000 5.14 60 13:35 14.01.2022
5889 Clouds 28 1008 70 10000 5.02 14 12:24 14.01.2022
5890 Clouds 31 1009 70 10000 5.66 70 10:50 14.01.2022
5891 Clouds 31 1011 70 10000 5.14 70 08:54 14.01.2022
5892 Clear 28 1011 72 10000 4.48 31 08:20 14.01.2022
5893 Clouds 29 1012 79 9000 4.12 50 05:29 14.01.2022
5894 Clouds 28 1009 78 10000 3.09 20 00:59 14.01.2022
5895 Clouds 28 1010 78 10000 3.6 30 22:46 13.01.2022
5896 Clouds 28 1010 78 10000 3.6 30 21:31 13.01.2022
5897 Clouds 28 1011 78 10000 3.6 30 20:56 13.01.2022
5898 Clouds 28 1011 74 10000 2.97 33 19:40 13.01.2022
5899 Clouds 28 1011 72 10000 3.37 34 19:21 13.01.2022
5900 Clouds 28 1011 78 10000 3.09 50 17:48 13.01.2022
5901 Clouds 28 1011 71 10000 4.97 37 16:20 13.01.2022
5902 Clouds 29 1010 74 10000 5.14 50 15:37 13.01.2022
5903 Clouds 29 1009 74 10000 4.63 60 14:40 13.01.2022
5904 Clouds 31 1008 66 10000 5.14 20 12:37 13.01.2022
5905 Clouds 31 1009 66 10000 5.66 50 10:25 13.01.2022
5906 Clouds 31 1010 70 10000 5.14 80 08:58 13.01.2022
5907 Clouds 31 1010 70 10000 5.14 80 08:26 13.01.2022
5908 Clouds 28 1012 75 10000 3.78 37 07:23 13.01.2022
5909 Clouds 29 1012 79 8000 4.63 70 05:59 13.01.2022
5910 Clouds 27 1013 76 10000 3.88 34 05:19 13.01.2022
5911 Clouds 27 1010 83 8000 3.09 30 01:56 13.01.2022
5912 Clouds 28 1010 83 8000 2.57 40 00:49 13.01.2022
5913 Clouds 28 1010 78 8000 3.6 30 23:46 12.01.2022
5914 Clouds 27 1009 75 10000 3.63 14 23:19 12.01.2022
5915 Clouds 28 1011 78 8000 3.6 30 21:57 12.01.2022
5916 Clouds 28 1011 73 10000 3.47 22 21:22 12.01.2022
5917 Clouds 28 1012 83 8000 3.6 40 20:56 12.01.2022
5918 Clouds 29 1012 79 8000 4.12 30 19:43 12.01.2022
5919 Clouds 29 1013 74 8000 4.12 30 18:30 12.01.2022
5920 Clouds 28 1013 71 10000 3.48 30 17:21 12.01.2022
5921 Clouds 29 1012 79 8000 4.63 30 16:32 12.01.2022
5922 Clouds 29 1010 74 8000 4.12 60 14:48 12.01.2022
5923 Clouds 28 1010 70 10000 3.25 19 13:19 12.01.2022
5924 Clouds 32 1010 62 6000 5.66 50 10:56 12.01.2022
5925 Clouds 32 1012 66 6000 4.12 50 08:43 12.01.2022
5926 Clouds 31 1012 70 6000 5.14 60 07:50 12.01.2022
5927 Clouds 31 1012 70 6000 5.14 60 07:31 12.01.2022
5928 Clouds 27 1010 83 10000 2.57 30 23:53 11.01.2022
5929 Clouds 27 1010 73 10000 3.19 359 22:54 11.01.2022
5930 Clouds 27 1010 72 10000 3.2 7 22:22 11.01.2022
5931 Clouds 28 1012 78 10000 2.57 40 20:56 11.01.2022
5932 Clouds 28 1012 72 10000 4 16 20:20 11.01.2022
5933 Clouds 28 1013 78 10000 3.09 30 18:32 11.01.2022
5934 Clouds 29 1012 74 10000 3.6 30 17:26 11.01.2022
5935 Clouds 29 1012 74 10000 3.6 30 16:38 11.01.2022
5936 Clouds 28 1012 75 10000 5.26 24 15:47 11.01.2022
5937 Clouds 28 1011 75 10000 5.62 24 14:42 11.01.2022
5938 Clouds 31 1009 66 10000 4.63 20 13:56 11.01.2022
5939 Clouds 31 1009 66 10000 4.63 20 13:36 11.01.2022
5940 Clouds 31 1009 66 10000 6.17 50 12:51 11.01.2022
5941 Clouds 28 1009 74 10000 5.88 37 12:20 11.01.2022
5942 Clouds 28 1010 72 10000 6.16 42 09:58 11.01.2022
5943 Clouds 28 1013 71 10000 6.38 44 07:18 11.01.2022
5944 Clouds 28 1010 72 10000 5.65 47 00:43 11.01.2022
5945 Clouds 27 1009 75 10000 5.37 53 00:21 11.01.2022
5946 Clouds 27 1009 75 10000 5.43 52 23:28 10.01.2022
5947 Clouds 27 1010 75 10000 5.38 51 22:19 10.01.2022
5948 Clouds 28 1011 78 9000 5.14 50 21:54 10.01.2022
5949 Clouds 28 1011 76 10000 5.19 47 21:21 10.01.2022
5950 Clouds 28 1011 76 10000 5.19 47 20:57 10.01.2022
5951 Clouds 28 1011 76 10000 5.22 39 20:28 10.01.2022
5952 Clouds 28 1012 78 9000 5.14 60 19:45 10.01.2022
5953 Clouds 28 1011 76 10000 5.28 38 19:21 10.01.2022
5954 Clouds 29 1012 74 9000 4.63 50 18:50 10.01.2022
5955 Clouds 28 1011 76 10000 5 39 18:31 10.01.2022
5956 Clouds 29 1011 74 9000 5.66 30 16:42 10.01.2022
5957 Clouds 29 1010 74 9000 5.14 30 15:50 10.01.2022
5958 Clouds 28 1010 75 10000 5.71 19 14:34 10.01.2022
5959 Clouds 28 1009 73 10000 3.99 30 12:22 10.01.2022
5960 Clouds 28 1009 74 10000 4.09 27 11:25 10.01.2022
5961 Clouds 28 1009 74 10000 4.22 25 10:21 10.01.2022
5962 Clouds 27 1011 74 10000 3.87 27 08:22 10.01.2022
5963 Clouds 30 1013 74 8000 4.12 30 05:50 10.01.2022
5964 Clouds 27 1010 89 10000 4.12 60 01:33 10.01.2022
5965 Clouds 27 1010 83 10000 3.09 50 00:33 10.01.2022
5966 Clouds 27 1010 83 10000 3.6 50 23:43 09.01.2022
5967 Clouds 27 1009 75 10000 3.51 10 22:43 09.01.2022
5968 Clouds 27 1011 83 10000 4.12 50 21:47 09.01.2022
5969 Clouds 27 1011 83 10000 4.12 50 21:24 09.01.2022
5970 Clouds 27 1011 74 10000 3.33 18 20:55 09.01.2022
5971 Clouds 27 1011 74 10000 3.33 18 20:37 09.01.2022
5972 Clouds 27 1012 74 10000 3.79 22 20:18 09.01.2022
5973 Clouds 26 1013 89 10000 4.12 90 19:37 09.01.2022
5974 Clouds 27 1012 74 10000 3.11 15 19:18 09.01.2022
5975 Clouds 27 1012 74 10000 3.11 15 18:37 09.01.2022
5976 Clouds 29 1012 79 9000 1.54 30 17:48 09.01.2022
5977 Clouds 28 1012 73 10000 3.2 25 17:26 09.01.2022
5978 Clouds 28 1012 73 10000 3.2 25 16:38 09.01.2022
5979 Clouds 28 1011 73 10000 3.43 24 15:38 09.01.2022
5980 Clouds 29 1010 74 10000 2.57 350 14:50 09.01.2022
5981 Clouds 28 1010 72 10000 3.61 30 14:23 09.01.2022
5982 Clouds 29 1009 79 9000 4.63 350 13:48 09.01.2022
5983 Clouds 31 1009 70 9000 3.09 360 11:56 09.01.2022
5984 Clouds 31 1009 70 9000 3.09 360 11:25 09.01.2022
5985 Clouds 30 1011 74 9000 2.57 360 09:55 09.01.2022
5986 Clouds 31 1011 70 10000 2.57 10 08:56 09.01.2022
5987 Clouds 31 1012 70 10000 2.57 50 06:56 09.01.2022
5988 Clouds 27 1010 83 10000 3.09 20 01:29 09.01.2022
5989 Clear 27 1010 75 10000 4.16 8 00:37 09.01.2022
5990 Clear 27 1010 74 10000 4.46 11 23:31 08.01.2022
5991 Clear 27 1010 74 10000 4.42 20 22:44 08.01.2022
5992 Clouds 28 1011 83 10000 1.54 350 21:27 08.01.2022
5993 Clear 27 1011 78 8596 4.32 40 20:43 08.01.2022
5994 Clear 27 1012 79 10000 4.69 46 20:21 08.01.2022
5995 Clear 27 1013 79 10000 5.59 46 19:22 08.01.2022
5996 Clouds 29 1013 74 10000 3.6 50 17:25 08.01.2022
5997 Clear 28 1013 77 10000 5.68 50 16:42 08.01.2022
5998 Clouds 28 1012 77 10000 4.08 44 15:28 08.01.2022
5999 Clear 28 1011 75 10000 3.99 44 13:57 08.01.2022
6000 Clear 28 1010 73 10000 3.34 47 11:31 08.01.2022
6001 Clear 28 1010 72 10000 3.57 56 10:33 08.01.2022
6002 Clouds 31 1011 66 10000 5.66 70 09:57 08.01.2022
6003 Clouds 31 1011 66 10000 5.66 70 09:33 08.01.2022
6004 Clouds 30 1014 74 10000 4.63 70 05:51 08.01.2022
6005 Clouds 27 1011 76 10000 5.52 37 01:24 08.01.2022
6006 Clouds 28 1011 83 10000 3.09 30 23:30 07.01.2022
6007 Clouds 28 1012 83 8000 4.63 60 21:47 07.01.2022
6008 Clouds 28 1012 83 8000 5.66 60 20:32 07.01.2022
6009 Clouds 29 1013 74 8000 5.14 70 19:27 07.01.2022
6010 Clouds 29 1013 79 8000 5.66 60 18:49 07.01.2022
6011 Clouds 28 1014 77 10000 4.4 37 18:21 07.01.2022
6012 Clouds 28 1014 77 10000 4.56 33 17:23 07.01.2022
6013 Clouds 29 1011 79 9000 4.63 50 14:55 07.01.2022
6014 Clouds 30 1010 70 10000 5.14 20 13:52 07.01.2022
6015 Clouds 31 1010 70 10000 5.14 30 12:51 07.01.2022
6016 Clouds 28 1010 74 10000 5.61 29 10:21 07.01.2022
6017 Clouds 29 1013 79 10000 6.17 70 04:25 07.01.2022
6018 Clouds 28 1011 83 10000 6.69 70 02:46 07.01.2022
6019 Clouds 28 1011 78 10000 5.14 60 01:48 07.01.2022
6020 Clouds 28 1011 78 10000 5.14 60 01:48 07.01.2022
6021 Clouds 28 1011 78 10000 5.14 60 01:25 07.01.2022
6022 Clouds 28 1010 83 10000 5.66 70 00:30 07.01.2022
6023 Clouds 28 1011 78 9000 6.69 70 22:33 06.01.2022
6024 Clouds 28 1012 78 9000 6.17 60 20:51 06.01.2022
6025 Clouds 28 1012 75 10000 6.64 51 20:18 06.01.2022
6026 Clouds 28 1012 78 9000 6.69 60 19:36 06.01.2022
6027 Clouds 29 1012 79 8000 6.17 60 17:51 06.01.2022
6028 Clouds 28 1013 77 10000 7.11 51 17:23 06.01.2022
6029 Clouds 29 1011 79 8000 6.69 60 16:32 06.01.2022
6030 Clouds 29 1011 74 8000 6.69 60 15:44 06.01.2022
6031 Clouds 28 1011 76 10000 6.33 37 15:21 06.01.2022
6032 Clouds 28 1010 76 10000 6.4 31 14:20 06.01.2022
6033 Clouds 30 1009 74 8000 6.17 60 13:33 06.01.2022
6034 Clouds 28 1009 74 10000 6.3 35 12:20 06.01.2022
6035 Clouds 31 1009 70 9000 6.69 70 11:29 06.01.2022
6036 Clouds 31 1010 70 10000 7.2 70 09:56 06.01.2022
6037 Clouds 31 1013 66 8000 7.2 80 06:37 06.01.2022
6038 Clouds 28 1010 78 8000 7.72 70 00:34 06.01.2022
6039 Clouds 28 1010 75 10000 7.14 47 23:22 05.01.2022
6040 Clouds 28 1010 78 8000 6.17 50 22:48 05.01.2022
6041 Clouds 28 1010 76 10000 7.34 52 22:21 05.01.2022
6042 Clouds 28 1011 78 8000 6.17 60 21:25 05.01.2022
6043 Clouds 28 1011 78 8000 6.17 60 20:30 05.01.2022
6044 Clouds 28 1012 77 10000 7.46 54 19:29 05.01.2022
6045 Clouds 28 1013 77 10000 7.45 55 18:21 05.01.2022
6046 Clouds 28 1012 78 8000 7.2 70 16:56 05.01.2022
6047 Clouds 28 1012 76 10000 7.94 53 16:19 05.01.2022
6048 Clouds 28 1012 75 10000 7.92 49 15:19 05.01.2022
6049 Clouds 29 1010 74 8000 6.17 60 13:34 05.01.2022
6050 Rain 28 1009 77 10000 7.45 45 12:20 05.01.2022
6051 Clouds 30 1012 70 10000 6.69 70 08:35 05.01.2022
6052 Clouds 30 1013 70 10000 5.66 80 06:46 05.01.2022
6053 Clouds 30 1013 70 10000 5.66 80 06:46 05.01.2022
6054 Clouds 28 1011 73 10000 8 66 01:47 05.01.2022
6055 Clouds 27 1011 89 7000 4.12 130 23:44 04.01.2022
6056 Clouds 27 1011 89 7000 4.12 130 23:25 04.01.2022
6057 Clouds 27 1012 89 7000 4.63 100 21:50 04.01.2022
6058 Clouds 28 1013 78 7000 5.14 70 20:45 04.01.2022
6059 Clouds 28 1013 78 7000 5.14 80 18:41 04.01.2022
6060 Clouds 27 1013 83 6000 3.6 100 17:33 04.01.2022
6061 Clouds 27 1013 78 6000 3.6 120 16:38 04.01.2022
6062 Rain 27 1012 89 6000 4.12 140 15:25 04.01.2022
6063 Rain 26 1012 83 6000 4.63 170 14:38 04.01.2022
6064 Rain 28 1011 78 6000 7.72 170 13:56 04.01.2022
6065 Clouds 27 1010 78 10000 6.95 51 12:23 04.01.2022
6066 Clouds 31 1011 70 6000 8.23 70 10:23 04.01.2022
6067 Clouds 32 1012 66 6000 7.2 90 08:57 04.01.2022
6068 Clouds 30 1013 74 6000 8.23 90 06:28 04.01.2022
6069 Clouds 28 1010 78 10000 7.72 60 00:43 04.01.2022
6070 Clouds 28 1010 78 10000 8.75 60 23:56 03.01.2022
6071 Clouds 28 1011 78 10000 7.52 61 22:22 03.01.2022
6072 Clouds 28 1011 78 10000 8.23 60 21:40 03.01.2022
6073 Clouds 28 1011 78 10000 8.23 60 21:40 03.01.2022
6074 Clouds 28 1012 78 10000 9.77 60 20:41 03.01.2022
6075 Clouds 28 1012 78 10000 10.29 70 19:43 03.01.2022
6076 Clouds 28 1012 89 10000 8.75 70 18:31 03.01.2022
6077 Clouds 27 1013 80 10000 7.76 51 17:23 03.01.2022
6078 Clouds 29 1012 79 10000 9.26 80 16:53 03.01.2022
6079 Clouds 29 1010 79 10000 7.2 60 14:33 03.01.2022
6080 Clouds 29 1010 79 10000 9.26 60 13:25 03.01.2022
6081 Clouds 27 1009 79 10000 7.07 55 12:22 03.01.2022
6082 Clouds 27 1009 79 10000 6.8 54 11:22 03.01.2022
6083 Clouds 31 1010 74 10000 6.69 80 09:41 03.01.2022
6084 Clouds 29 1012 79 10000 8.23 80 07:55 03.01.2022
6085 Clouds 28 1013 78 10000 6.78 77 05:21 03.01.2022
6086 Clouds 28 1009 83 10000 7.2 80 23:44 02.01.2022
6087 Clouds 28 1010 83 10000 7.2 80 22:57 02.01.2022
6088 Clear 27 1009 80 10000 6.82 69 22:22 02.01.2022
6089 Clouds 28 1010 83 10000 7.2 70 21:26 02.01.2022
6090 Clouds 29 1011 79 10000 7.72 80 20:30 02.01.2022
6091 Clouds 29 1011 79 10000 7.72 80 20:30 02.01.2022
6092 Clouds 29 1011 79 10000 8.75 80 19:49 02.01.2022
6093 Clear 28 1011 79 10000 7.84 75 19:25 02.01.2022
6094 Clouds 29 1011 79 10000 7.2 80 18:30 02.01.2022
6095 Clouds 29 1012 79 10000 9.26 80 17:43 02.01.2022
6096 Clear 28 1012 79 10000 8.03 71 17:21 02.01.2022
6097 Clouds 29 1011 79 10000 9.26 80 16:30 02.01.2022
6098 Clouds 28 1010 89 9000 9.26 70 15:49 02.01.2022
6099 Clouds 28 1010 89 9000 9.26 70 15:49 02.01.2022
6100 Clouds 28 1010 79 10000 8.3 62 13:57 02.01.2022
6101 Clouds 32 1008 70 10000 8.23 70 12:33 02.01.2022
6102 Clouds 32 1008 66 10000 8.23 70 11:55 02.01.2022
6103 Clouds 32 1009 66 10000 9.26 70 10:56 02.01.2022
6104 Clouds 28 1009 78 10000 7.2 61 10:22 02.01.2022
6105 Clouds 31 1012 70 10000 8.75 70 07:45 02.01.2022
6106 Clouds 28 1011 78 10000 7.2 70 02:57 02.01.2022
6107 Clouds 28 1010 83 10000 6.69 70 23:55 01.01.2022
6108 Clouds 28 1010 83 10000 6.69 70 23:36 01.01.2022
6109 Clouds 28 1011 83 10000 7.2 80 22:41 01.01.2022
6110 Clouds 28 1010 75 10000 6.93 64 22:18 01.01.2022
6111 Clouds 28 1011 83 10000 7.72 70 21:42 01.01.2022
6112 Clouds 28 1012 83 10000 7.72 70 20:50 01.01.2022
6113 Clouds 29 1013 79 10000 7.72 80 19:47 01.01.2022
6114 Clouds 29 1013 79 10000 7.72 80 18:53 01.01.2022
6115 Clouds 29 1012 79 10000 6.69 90 17:45 01.01.2022
6116 Clouds 29 1012 79 10000 5.66 80 16:35 01.01.2022
6117 Clouds 29 1011 79 10000 5.14 60 15:45 01.01.2022
6118 Clouds 29 1010 79 10000 5.14 60 14:40 01.01.2022
6119 Clouds 29 1010 84 10000 4.63 70 13:42 01.01.2022
6120 Clouds 29 1010 84 10000 4.63 70 13:42 01.01.2022
6121 Clouds 31 1009 66 10000 4.63 60 12:26 01.01.2022
6122 Clouds 31 1009 70 10000 5.14 60 11:30 01.01.2022
6123 Clouds 32 1010 66 10000 6.17 60 10:59 01.01.2022
6124 Clouds 31 1011 70 10000 6.69 60 09:48 01.01.2022
6125 Clouds 31 1012 70 10000 5.66 70 08:45 01.01.2022
6126 Clouds 28 1012 74 10000 6.48 64 08:21 01.01.2022
6127 Clouds 31 1013 70 10000 5.14 80 07:40 01.01.2022
6128 Clouds 31 1014 70 10000 5.14 70 06:44 01.01.2022
6129 Clouds 30 1014 74 10000 4.12 70 05:25 01.01.2022
6130 Clouds 30 1013 70 10000 4.63 90 04:36 01.01.2022
6131 Clouds 28 1011 78 10000 5.14 100 00:25 01.01.2022
6132 Clouds 28 1012 78 10000 5.66 90 22:34 31.12.2021
6133 Clouds 28 1012 78 10000 6.17 90 21:49 31.12.2021
6134 Clouds 28 1013 76 10000 3.66 98 19:56 31.12.2021
6135 Clouds 28 1013 75 10000 3.7 92 19:28 31.12.2021
6136 Clear 28 1013 75 10000 3.87 87 18:24 31.12.2021
6137 Clouds 29 1013 74 10000 6.69 90 17:37 31.12.2021
6138 Clouds 29 1012 74 10000 6.17 90 16:56 31.12.2021
6139 Clear 28 1013 73 10000 4.22 85 16:18 31.12.2021
6140 Clouds 29 1011 74 10000 6.69 90 15:50 31.12.2021
6141 Clouds 29 1011 74 10000 6.69 90 15:28 31.12.2021
6142 Clouds 29 1010 74 10000 4.63 60 14:41 31.12.2021
6143 Clouds 30 1010 74 10000 5.66 70 13:56 31.12.2021
6144 Clouds 28 1010 72 10000 4.87 77 13:23 31.12.2021
6145 Clouds 31 1010 66 10000 5.66 70 12:33 31.12.2021
6146 Clouds 31 1009 70 10000 5.14 70 11:42 31.12.2021
6147 Clouds 31 1010 70 10000 5.66 70 10:58 31.12.2021
6148 Clouds 31 1010 70 10000 5.66 70 10:29 31.12.2021
6149 Clouds 32 1011 66 10000 6.69 80 09:35 31.12.2021
6150 Clouds 32 1012 66 10000 6.69 80 08:54 31.12.2021
6151 Clouds 28 1012 74 10000 6.39 64 08:23 31.12.2021
6152 Clouds 31 1013 70 10000 6.69 80 06:39 31.12.2021
6153 Clouds 29 1010 64 10000 6.83 74 23:23 30.12.2021
6154 Clouds 28 1011 78 10000 6.17 70 22:32 30.12.2021
6155 Clouds 28 1011 74 10000 6.17 70 21:41 30.12.2021
6156 Clouds 28 1011 66 10000 6.96 58 21:22 30.12.2021
6157 Clouds 28 1012 78 10000 6.69 60 20:43 30.12.2021
6158 Clouds 28 1012 73 10000 5.72 48 20:23 30.12.2021
6159 Clouds 28 1013 74 10000 6.69 70 19:43 30.12.2021
6160 Clouds 28 1013 74 10000 6.17 60 18:29 30.12.2021
6161 Clouds 28 1012 74 10000 5.66 50 17:38 30.12.2021
6162 Clouds 28 1011 74 10000 5.66 70 15:58 30.12.2021
6163 Clouds 28 1011 74 10000 5.66 70 15:39 30.12.2021
6164 Clouds 29 1010 74 10000 5.66 60 14:37 30.12.2021
6165 Clouds 30 1010 66 10000 6.69 70 13:32 30.12.2021
6166 Clouds 31 1009 62 10000 6.69 70 12:29 30.12.2021
6167 Clouds 31 1010 62 10000 6.69 70 10:50 30.12.2021
6168 Clouds 31 1011 62 10000 7.2 70 09:55 30.12.2021
6169 Clouds 31 1012 62 10000 7.2 70 08:49 30.12.2021
6170 Clouds 30 1014 62 10000 7.2 80 06:51 30.12.2021
6171 Clouds 28 1012 69 10000 5.66 60 03:41 30.12.2021
6172 Clouds 27 1012 69 10000 5.66 60 02:42 30.12.2021
6173 Clouds 27 1010 74 10000 5.14 60 23:42 29.12.2021
6174 Clouds 27 1010 65 10000 6.91 50 23:22 29.12.2021
6175 Clouds 27 1010 65 10000 6.92 52 22:19 29.12.2021
6176 Clouds 27 1011 74 10000 6.69 60 21:27 29.12.2021
6177 Clouds 28 1012 69 10000 6.69 60 20:34 29.12.2021
6178 Clouds 28 1012 69 10000 6.69 60 19:48 29.12.2021
6179 Clouds 28 1012 74 10000 6.69 60 18:47 29.12.2021
6180 Clouds 28 1012 74 10000 7.2 60 17:54 29.12.2021
6181 Clouds 28 1012 74 10000 7.2 60 17:27 29.12.2021
6182 Clouds 28 1012 69 10000 7.18 49 16:24 29.12.2021
6183 Clouds 29 1010 65 10000 8.23 70 15:48 29.12.2021
6184 Clouds 28 1010 70 10000 7.07 55 14:19 29.12.2021
6185 Clouds 31 1009 62 10000 8.23 60 12:37 29.12.2021
6186 Clouds 31 1009 66 10000 8.75 60 11:35 29.12.2021
6187 Clouds 31 1010 62 10000 8.23 60 09:58 29.12.2021
6188 Clouds 31 1012 62 10000 8.23 60 07:52 29.12.2021
6189 Clouds 31 1012 62 10000 7.72 60 06:39 29.12.2021
6190 Clouds 28 1012 68 10000 7.73 60 06:18 29.12.2021
6191 Clouds 30 1012 66 10000 7.72 50 05:36 29.12.2021
6192 Clouds 28 1010 69 10000 7.2 60 02:46 29.12.2021
6193 Clouds 28 1009 65 10000 7.51 54 00:23 29.12.2021
6194 Clouds 28 1009 74 10000 7.2 70 23:35 28.12.2021
6195 Clouds 28 1009 74 10000 7.2 70 22:42 28.12.2021
6196 Clouds 28 1010 65 10000 7.28 60 22:24 28.12.2021
6197 Clouds 28 1010 78 10000 7.2 70 21:38 28.12.2021
6198 Clouds 28 1011 78 10000 7.72 70 20:40 28.12.2021
6199 Clouds 28 1011 74 10000 7.2 70 19:25 28.12.2021
6200 Clouds 28 1012 74 10000 6.17 70 18:39 28.12.2021
6201 Clouds 28 1012 74 10000 7.2 70 17:59 28.12.2021
6202 Clouds 28 1012 74 10000 4.63 70 16:34 28.12.2021
6203 Clouds 28 1011 74 10000 4.63 70 15:50 28.12.2021
6204 Clouds 28 1012 64 10000 4.47 56 15:22 28.12.2021
6205 Clouds 29 1010 70 10000 5.14 60 14:50 28.12.2021
6206 Clouds 28 1011 64 10000 4.65 53 14:21 28.12.2021
6207 Clouds 30 1010 66 10000 5.66 60 13:42 28.12.2021
6208 Clouds 28 1011 64 10000 5 48 13:24 28.12.2021
6209 Clouds 31 1010 58 10000 6.17 60 12:49 28.12.2021
6210 Clouds 31 1010 66 10000 6.69 60 11:46 28.12.2021
6211 Clouds 31 1012 66 10000 6.17 80 08:53 28.12.2021
6212 Clouds 30 1013 70 10000 6.17 80 06:58 28.12.2021
6213 Clouds 28 1011 68 10000 6.67 52 00:34 28.12.2021
6214 Clouds 28 1010 69 10000 6.5 53 23:24 27.12.2021
6215 Clouds 28 1011 78 10000 7.2 80 21:46 27.12.2021
6216 Clouds 28 1011 73 10000 7.18 53 21:24 27.12.2021
6217 Clouds 28 1012 73 10000 7.98 54 20:24 27.12.2021
6218 Clouds 28 1012 73 10000 7.98 54 19:42 27.12.2021
6219 Clouds 28 1013 78 10000 6.17 70 18:54 27.12.2021
6220 Clouds 28 1013 74 10000 7.2 80 17:50 27.12.2021
6221 Clouds 29 1012 79 10000 7.2 70 16:57 27.12.2021
6222 Clouds 29 1011 74 10000 7.72 70 15:53 27.12.2021
6223 Clouds 29 1011 74 10000 7.72 70 14:34 27.12.2021
6224 Clouds 30 1010 70 10000 7.2 70 13:40 27.12.2021
6225 Clouds 30 1010 66 10000 7.72 70 12:47 27.12.2021
6226 Clouds 31 1011 62 10000 7.2 80 10:36 27.12.2021
6227 Clear 28 1011 69 10000 7.62 61 10:18 27.12.2021
6228 Clear 31 1013 62 9000 7.72 60 08:39 27.12.2021
6229 Clouds 31 1014 58 7000 8.23 80 07:32 27.12.2021
6230 Clouds 27 1013 74 8000 7.72 70 02:26 27.12.2021
6231 Clear 27 1012 64 10000 8.19 62 00:23 27.12.2021
6232 Clouds 27 1012 74 8000 6.17 60 23:41 26.12.2021
6233 Clouds 27 1012 74 8000 7.2 70 22:49 26.12.2021
6234 Clouds 27 1013 69 8000 6.17 60 21:30 26.12.2021
6235 Clouds 28 1014 69 8000 5.66 60 19:52 26.12.2021
6236 Clouds 28 1015 69 8000 6.17 60 18:25 26.12.2021
6237 Clouds 28 1014 74 8000 5.66 70 17:51 26.12.2021
6238 Clouds 28 1013 69 8000 5.66 50 15:31 26.12.2021
6239 Clear 30 1011 62 8000 6.69 50 13:43 26.12.2021
6240 Clouds 28 1011 64 10000 7.43 44 13:21 26.12.2021
6241 Clouds 31 1010 58 7000 7.2 60 12:34 26.12.2021
6242 Clouds 28 1011 64 10000 7.26 45 11:18 26.12.2021
6243 Clouds 31 1012 62 7000 6.69 60 09:30 26.12.2021
6244 Clouds 31 1013 62 7000 6.69 60 08:44 26.12.2021
6245 Clouds 28 1013 65 10000 6.54 42 08:23 26.12.2021
6246 Clouds 27 1012 78 8000 4.63 90 01:37 26.12.2021
6247 Clouds 27 1011 78 8000 3.6 90 00:28 26.12.2021
6248 Clouds 27 1011 74 8000 3.6 80 23:35 25.12.2021
6249 Clouds 27 1012 74 8000 3.6 60 22:29 25.12.2021
6250 Clouds 27 1012 74 8000 4.12 50 21:29 25.12.2021
6251 Clouds 28 1013 74 8000 5.66 70 19:46 25.12.2021
6252 Clouds 28 1013 67 10000 6.99 47 19:18 25.12.2021
6253 Clouds 28 1013 74 8000 6.69 70 18:29 25.12.2021
6254 Clouds 28 1012 74 8000 6.17 70 16:49 25.12.2021
6255 Clouds 28 1011 69 8000 5.66 70 15:30 25.12.2021
6256 Clouds 28 1011 66 10000 6.9 47 14:23 25.12.2021
6257 Clouds 28 1010 66 10000 7.51 38 12:21 25.12.2021
6258 Clouds 28 1010 66 10000 7.53 38 10:46 25.12.2021
6259 Haze 31 1011 62 4000 7.72 50 09:49 25.12.2021
6260 Haze 31 1012 62 4000 7.2 50 07:27 25.12.2021
6261 Clouds 27 1011 66 10000 5.94 54 01:40 25.12.2021
6262 Clouds 27 1010 69 10000 6.37 48 00:21 25.12.2021
6263 Clouds 28 1011 74 6000 5.14 70 21:57 24.12.2021
6264 Clouds 28 1012 74 6000 5.14 70 19:27 24.12.2021
6265 Clouds 28 1012 78 6000 5.14 70 18:56 24.12.2021
6266 Clouds 28 1012 78 6000 5.14 60 16:49 24.12.2021
6267 Clouds 29 1011 70 6000 5.14 60 15:50 24.12.2021
6268 Clouds 29 1011 70 6000 5.14 60 15:25 24.12.2021
6269 Clouds 29 1010 70 6000 5.66 70 14:35 24.12.2021
6270 Clouds 30 1010 70 6000 5.66 70 13:57 24.12.2021
6271 Clouds 30 1010 70 6000 5.66 70 13:32 24.12.2021
6272 Clouds 31 1009 62 8000 5.66 70 12:45 24.12.2021
6273 Clouds 31 1009 66 8000 6.17 70 11:46 24.12.2021
6274 Clouds 31 1009 66 8000 6.17 70 11:24 24.12.2021
6275 Clouds 32 1010 66 8000 6.69 70 10:36 24.12.2021
6276 Clouds 28 1011 70 10000 5.69 48 09:22 24.12.2021
6277 Clouds 28 1012 69 10000 5.42 46 08:19 24.12.2021
6278 Clouds 31 1012 66 8000 6.17 70 07:42 24.12.2021
6279 Clouds 28 1009 74 7000 5.14 60 00:47 24.12.2021
6280 Clouds 27 1009 78 7000 4.63 60 23:54 23.12.2021
6281 Clouds 28 1010 74 7000 5.14 60 22:54 23.12.2021
6282 Clouds 28 1010 74 7000 5.14 60 22:26 23.12.2021
6283 Clouds 28 1011 74 7000 5.14 60 21:50 23.12.2021
6284 Clouds 28 1011 74 7000 4.63 60 20:53 23.12.2021
6285 Clouds 28 1012 74 7000 5.14 80 19:31 23.12.2021
6286 Clouds 28 1012 74 7000 5.14 80 18:32 23.12.2021
6287 Clouds 28 1012 74 7000 5.66 80 17:47 23.12.2021
6288 Clouds 29 1012 70 7000 5.14 80 16:40 23.12.2021
6289 Clouds 28 1012 71 10000 5.23 52 16:20 23.12.2021
6290 Clouds 29 1011 70 7000 5.14 80 15:31 23.12.2021
6291 Clouds 29 1010 74 7000 4.63 70 14:42 23.12.2021
6292 Clouds 28 1011 70 10000 5.18 52 14:19 23.12.2021
6293 Clouds 31 1009 66 7000 3.6 70 12:39 23.12.2021
6294 Clouds 31 1009 70 6000 4.63 80 10:41 23.12.2021
6295 Clouds 31 1010 66 6000 5.14 80 09:34 23.12.2021
6296 Clouds 32 1011 62 6000 4.63 70 08:58 23.12.2021
6297 Clouds 28 1013 71 10000 4.94 62 06:23 23.12.2021
6298 Haze 28 1012 78 5000 4.63 90 03:28 23.12.2021
6299 Haze 28 1010 78 5000 5.14 90 22:55 22.12.2021
6300 Clouds 27 1010 77 10000 5.51 68 22:23 22.12.2021
6301 Haze 28 1011 78 5000 4.63 80 21:53 22.12.2021
6302 Haze 28 1011 78 5000 4.63 80 21:27 22.12.2021
6303 Haze 28 1012 78 5000 4.63 80 20:41 22.12.2021
6304 Clouds 28 1012 75 10000 4.8 65 20:20 22.12.2021
6305 Clouds 28 1013 73 10000 4.69 67 19:19 22.12.2021
6306 Haze 29 1013 74 5000 5.14 90 17:39 22.12.2021
6307 Haze 29 1012 74 5000 5.14 90 16:34 22.12.2021
6308 Haze 29 1011 74 5000 5.14 80 15:36 22.12.2021
6309 Haze 30 1010 70 5000 5.66 100 13:23 22.12.2021
6310 Clouds 28 1010 71 10000 5.06 56 12:19 22.12.2021
6311 Haze 32 1011 66 5000 4.12 80 09:53 22.12.2021
6312 Haze 32 1011 66 5000 4.12 80 09:31 22.12.2021
6313 Clouds 28 1013 73 10000 5.29 60 07:22 22.12.2021
6314 Haze 30 1014 74 5000 5.66 60 05:40 22.12.2021
6315 Clouds 28 1015 74 10000 5.24 62 05:21 22.12.2021
6316 Haze 29 1013 74 5000 5.14 60 04:43 22.12.2021
6317 Clouds 28 1014 74 10000 5.19 65 04:19 22.12.2021
6318 Haze 28 1012 83 5000 5.14 60 03:32 22.12.2021
6319 Haze 27 1011 83 5000 5.14 50 23:57 21.12.2021
6320 Haze 28 1011 78 5000 5.14 50 22:49 21.12.2021
6321 Haze 28 1011 78 5000 5.14 50 22:27 21.12.2021
6322 Haze 28 1012 78 5000 4.63 60 21:43 21.12.2021
6323 Haze 28 1012 78 5000 3.6 60 20:53 21.12.2021
6324 Clouds 28 1013 72 10000 4.64 53 20:20 21.12.2021
6325 Haze 28 1013 83 5000 4.12 60 19:41 21.12.2021
6326 Haze 28 1014 83 5000 4.12 60 18:36 21.12.2021
6327 Haze 28 1014 83 5000 4.12 70 17:59 21.12.2021
6328 Haze 28 1014 83 5000 4.12 70 17:40 21.12.2021
6329 Haze 29 1013 79 5000 5.14 80 15:46 21.12.2021
6330 Haze 29 1012 74 5000 5.14 70 14:59 21.12.2021
6331 Haze 30 1011 74 5000 6.17 70 13:44 21.12.2021
6332 Haze 30 1011 74 5000 5.66 70 12:58 21.12.2021
6333 Haze 31 1011 70 5000 7.2 60 10:55 21.12.2021
6334 Haze 31 1012 70 5000 7.2 60 09:57 21.12.2021
6335 Clouds 28 1012 71 10000 7.42 58 09:18 21.12.2021
6336 Haze 30 1014 74 5000 5.66 60 07:50 21.12.2021
6337 Haze 30 1014 74 5000 5.66 60 07:25 21.12.2021
6338 Haze 28 1014 83 5000 4.12 70 04:48 21.12.2021
6339 Haze 28 1012 78 5000 4.63 70 02:39 21.12.2021
6340 Haze 28 1011 83 5000 6.69 70 23:58 20.12.2021
6341 Haze 28 1011 78 5000 6.69 60 22:49 20.12.2021
6342 Haze 28 1011 78 5000 6.69 60 22:28 20.12.2021
6343 Haze 28 1012 78 5000 7.2 70 21:41 20.12.2021
6344 Clouds 28 1012 78 10000 7.04 64 21:22 20.12.2021
6345 Haze 28 1013 78 5000 7.2 70 20:41 20.12.2021
6346 Haze 29 1013 79 5000 6.69 70 19:39 20.12.2021
6347 Clouds 28 1013 79 10000 7.09 69 19:20 20.12.2021
6348 Haze 29 1013 79 5000 6.17 70 18:35 20.12.2021
6349 Haze 29 1013 79 5000 5.66 70 17:52 20.12.2021
6350 Haze 29 1013 79 5000 6.17 80 16:53 20.12.2021
6351 Haze 29 1013 79 5000 6.17 80 16:35 20.12.2021
6352 Haze 29 1012 79 5000 5.14 90 15:43 20.12.2021
6353 Haze 29 1011 79 5000 5.66 90 14:40 20.12.2021
6354 Haze 31 1010 70 5000 5.66 90 12:41 20.12.2021
6355 Haze 31 1010 70 5000 7.2 80 10:55 20.12.2021
6356 Haze 31 1011 70 4000 7.72 80 09:47 20.12.2021
6357 Haze 31 1012 70 5000 7.2 80 08:56 20.12.2021
6358 Haze 31 1012 70 5000 7.2 80 08:38 20.12.2021
6359 Haze 31 1013 70 5000 8.23 80 07:44 20.12.2021
6360 Haze 31 1013 66 5000 8.23 80 06:39 20.12.2021
6361 Haze 28 1011 78 4000 8.23 80 02:32 20.12.2021
6362 Haze 28 1011 78 4000 7.72 70 23:37 19.12.2021
6363 Haze 28 1011 78 4000 7.72 70 22:44 19.12.2021
6364 Haze 28 1012 78 4000 8.23 70 21:44 19.12.2021
6365 Haze 28 1012 78 4000 8.23 70 21:25 19.12.2021
6366 Haze 28 1013 78 4000 8.23 70 20:24 19.12.2021
6367 Haze 29 1013 74 4000 9.26 80 19:43 19.12.2021
6368 Haze 29 1013 74 4000 8.75 80 18:54 19.12.2021
6369 Clouds 28 1013 78 10000 7.22 57 18:20 19.12.2021
6370 Haze 29 1012 74 4000 8.23 70 17:45 19.12.2021
6371 Haze 29 1012 74 4000 7.2 70 16:46 19.12.2021
6372 Haze 29 1011 74 4000 7.2 70 15:58 19.12.2021
6373 Haze 29 1011 74 4000 7.2 70 15:25 19.12.2021
6374 Clouds 28 1012 77 10000 7.46 54 14:49 19.12.2021
6375 Haze 30 1010 70 5000 6.69 70 13:41 19.12.2021
6376 Clouds 28 1010 74 10000 7.2 49 13:20 19.12.2021
6377 Haze 30 1010 74 5000 8.75 80 12:33 19.12.2021
6378 Haze 31 1010 74 5000 6.69 60 11:39 19.12.2021
6379 Haze 32 1010 66 5000 6.69 70 10:52 19.12.2021
6380 Haze 32 1010 66 5000 6.69 70 10:23 19.12.2021
6381 Clouds 28 1012 77 10000 6.81 38 09:20 19.12.2021
6382 Clouds 28 1012 77 10000 6.98 37 07:35 19.12.2021
6383 Haze 28 1011 78 5000 5.66 60 02:30 19.12.2021
6384 Haze 28 1010 78 5000 5.66 70 00:55 19.12.2021
6385 Haze 28 1010 78 5000 6.17 60 23:31 18.12.2021
6386 Haze 28 1011 83 5000 5.66 60 22:30 18.12.2021
6387 Haze 28 1012 83 5000 7.2 70 21:51 18.12.2021
6388 Haze 28 1012 83 5000 7.2 70 21:30 18.12.2021
6389 Haze 28 1012 83 5000 7.2 70 20:43 18.12.2021
6390 Haze 29 1012 79 5000 7.2 80 19:50 18.12.2021
6391 Clouds 28 1012 76 10000 6.87 66 19:18 18.12.2021
6392 Clouds 28 1013 77 10000 7.4 65 18:18 18.12.2021
6393 Haze 29 1012 74 5000 6.17 70 17:46 18.12.2021
6394 Clouds 28 1012 77 10000 6.35 61 16:22 18.12.2021
6395 Haze 29 1010 79 5000 5.14 70 15:25 18.12.2021
6396 Clouds 28 1010 77 10000 5.59 46 14:19 18.12.2021
6397 Clouds 28 1009 77 10000 6.1 43 12:21 18.12.2021
6398 Haze 31 1009 70 5000 6.69 60 10:43 18.12.2021
6399 Clouds 28 1009 75 10000 6.23 38 09:32 18.12.2021
6400 Clouds 32 1012 66 7000 7.2 60 08:37 18.12.2021
6401 Clouds 31 1012 70 7000 6.17 70 07:42 18.12.2021
6402 Clouds 28 1011 73 10000 8.05 59 01:48 18.12.2021
6403 Clouds 28 1011 73 10000 8.05 59 01:48 18.12.2021
6404 Clouds 28 1010 75 10000 7.78 66 00:23 18.12.2021
6405 Clouds 28 1009 78 10000 7.2 80 23:35 17.12.2021
6406 Clouds 28 1011 83 10000 7.2 70 21:54 17.12.2021
6407 Clouds 28 1012 83 10000 7.2 70 20:50 17.12.2021
6408 Clouds 28 1012 76 10000 7.49 65 20:21 17.12.2021
6409 Clouds 28 1013 83 10000 7.2 80 18:50 17.12.2021
6410 Clouds 28 1013 76 10000 8.45 68 18:19 17.12.2021
6411 Clouds 28 1013 77 10000 8.61 68 17:20 17.12.2021
6412 Clouds 28 1012 83 10000 6.69 90 16:29 17.12.2021
6413 Clouds 28 1011 83 10000 7.2 80 15:51 17.12.2021
6414 Clouds 27 1010 89 10000 5.14 80 14:43 17.12.2021
6415 Clouds 27 1010 83 10000 8.23 80 13:56 17.12.2021
6416 Rain 27 1010 89 9000 5.66 90 12:38 17.12.2021
6417 Clouds 27 1011 89 9000 5.14 90 10:49 17.12.2021
6418 Clouds 26 1012 94 9000 4.12 50 09:51 17.12.2021
6419 Clouds 25 1013 94 6000 8.75 60 08:58 17.12.2021
6420 Clouds 28 1012 76 10000 6.73 68 08:19 17.12.2021
6421 Rain 28 1013 83 10000 6.69 80 04:58 17.12.2021
6422 Clouds 25 1010 100 8000 5.66 50 00:58 17.12.2021
6423 Clouds 27 1011 89 10000 6.17 100 22:44 16.12.2021
6424 Clouds 27 1010 78 7504 6.87 76 22:22 16.12.2021
6425 Clouds 27 1012 94 10000 3.09 80 21:43 16.12.2021
6426 Clouds 26 1013 89 8000 6.17 90 20:42 16.12.2021
6427 Clouds 27 1012 79 10000 7.06 80 20:21 16.12.2021
6428 Clouds 26 1013 94 10000 4.63 90 19:30 16.12.2021
6429 Clouds 28 1013 89 10000 6.69 80 18:33 16.12.2021
6430 Clouds 29 1013 84 10000 5.14 90 17:46 16.12.2021
6431 Clouds 29 1012 79 10000 7.2 90 16:24 16.12.2021
6432 Clouds 29 1011 79 10000 6.69 90 15:38 16.12.2021
6433 Clouds 30 1010 74 10000 8.75 90 13:46 16.12.2021
6434 Clouds 31 1009 70 10000 7.72 90 12:26 16.12.2021
6435 Clouds 28 1010 74 10000 6.43 75 11:19 16.12.2021
6436 Clouds 28 1010 74 10000 6.43 75 10:39 16.12.2021
6437 Clouds 31 1011 70 10000 7.2 80 09:43 16.12.2021
6438 Clouds 31 1013 70 10000 7.2 90 06:51 16.12.2021
6439 Clouds 28 1013 76 10000 6.44 72 06:18 16.12.2021
6440 Clouds 27 1010 89 10000 6.17 60 23:58 15.12.2021
6441 Clouds 26 1011 94 10000 3.09 70 22:50 15.12.2021
6442 Clouds 28 1010 75 10000 6.28 82 22:21 15.12.2021
6443 Rain 28 1010 75 10000 6.28 82 21:31 15.12.2021
6444 Clouds 28 1012 83 10000 5.14 90 20:51 15.12.2021
6445 Clouds 28 1012 83 10000 5.66 90 19:53 15.12.2021
6446 Clouds 28 1012 83 10000 5.66 90 19:18 15.12.2021
6447 Clouds 27 1012 80 10000 7.27 77 18:19 15.12.2021
6448 Clouds 28 1012 78 10000 5.66 90 17:45 15.12.2021
6449 Clouds 28 1012 80 10000 6.95 77 17:21 15.12.2021
6450 Clouds 28 1010 83 10000 6.69 90 15:48 15.12.2021
6451 Clouds 28 1010 83 10000 6.69 90 15:29 15.12.2021
6452 Clouds 28 1010 83 10000 7.2 90 14:48 15.12.2021
6453 Clouds 30 1009 74 10000 7.72 90 13:34 15.12.2021
6454 Clouds 31 1008 74 10000 7.2 90 11:52 15.12.2021
6455 Clouds 28 1009 78 10000 7.42 77 10:20 15.12.2021
6456 Clouds 30 1011 74 10000 8.23 90 08:25 15.12.2021
6457 Clouds 28 1012 78 10000 7.2 110 05:51 15.12.2021
6458 Clouds 26 1010 83 10000 6.17 90 00:37 15.12.2021
6459 Clouds 25 1010 94 10000 6.17 90 23:27 14.12.2021
6460 Clouds 25 1010 94 10000 5.66 100 22:44 14.12.2021
6461 Clouds 25 1010 87 8222 7.95 81 21:40 14.12.2021
6462 Clouds 26 1011 86 8335 7.38 83 20:22 14.12.2021
6463 Clouds 27 1012 83 10000 2.57 100 19:34 14.12.2021
6464 Clouds 28 1012 83 10000 4.12 110 18:38 14.12.2021
6465 Clouds 28 1012 78 10000 3.6 100 17:55 14.12.2021
6466 Clouds 28 1011 78 10000 4.12 110 16:44 14.12.2021
6467 Clouds 27 1011 80 10000 5.51 81 16:21 14.12.2021
6468 Clouds 28 1009 83 10000 4.12 120 14:32 14.12.2021
6469 Clouds 27 1008 78 10000 4.63 110 12:50 14.12.2021
6470 Clouds 28 1008 78 10000 9.26 90 11:44 14.12.2021
6471 Clouds 27 1007 79 10000 7.13 77 11:20 14.12.2021
6472 Clouds 31 1009 66 10000 5.14 80 09:55 14.12.2021
6473 Clouds 31 1010 70 10000 6.17 70 08:58 14.12.2021
6474 Clouds 27 1009 82 10000 9.39 76 08:21 14.12.2021
6475 Clouds 30 1011 74 10000 6.69 70 07:24 14.12.2021
6476 Clouds 26 1009 94 10000 7.2 70 23:59 13.12.2021
6477 Clouds 27 1009 89 10000 7.2 70 22:26 13.12.2021
6478 Clouds 27 1010 89 10000 6.17 70 21:44 13.12.2021
6479 Clouds 27 1011 83 10000 6.69 80 20:54 13.12.2021
6480 Clouds 27 1011 83 10000 6.69 80 20:26 13.12.2021
6481 Clouds 27 1011 89 10000 6.69 70 19:49 13.12.2021
6482 Clouds 26 1011 94 8000 6.17 60 17:39 13.12.2021
6483 Clouds 26 1011 87 7010 7.91 59 17:18 13.12.2021
6484 Clouds 26 1010 94 8000 6.17 70 15:47 13.12.2021
6485 Clouds 25 1010 88 10000 5.16 39 14:43 13.12.2021
6486 Clouds 29 1008 79 9000 2.06 120 13:37 13.12.2021
6487 Clouds 29 1008 79 10000 1.54 80 12:40 13.12.2021
6488 Clouds 30 1008 74 10000 1.03 0 11:53 13.12.2021
6489 Clouds 30 1008 74 10000 1.03 0 11:34 13.12.2021
6490 Clouds 29 1009 79 9000 2.57 200 10:37 13.12.2021
6491 Clouds 29 1010 84 10000 4.12 200 08:44 13.12.2021
6492 Clouds 29 1012 79 10000 3.6 130 06:55 13.12.2021
6493 Clouds 27 1012 78 7436 4.56 80 05:19 13.12.2021
6494 Clouds 27 1009 83 9000 5.14 120 00:27 13.12.2021
6495 Clouds 26 1010 94 9000 2.06 150 21:59 12.12.2021
6496 Clouds 26 1010 94 9000 2.06 150 21:29 12.12.2021
6497 Rain 27 1011 83 10000 2.57 40 19:36 12.12.2021
6498 Rain 27 1012 89 10000 4.12 30 18:23 12.12.2021
6499 Clouds 28 1011 78 10000 3.6 60 16:40 12.12.2021
6500 Clouds 28 1011 78 10000 3.6 70 15:58 12.12.2021
6501 Clouds 28 1011 78 10000 3.6 70 15:28 12.12.2021
6502 Clouds 28 1009 83 10000 3.6 70 14:54 12.12.2021
6503 Clouds 27 1011 82 8230 7.46 50 14:19 12.12.2021
6504 Clouds 28 1009 83 10000 3.6 80 12:48 12.12.2021
6505 Clouds 28 1009 83 10000 3.6 80 12:23 12.12.2021
6506 Rain 28 1009 78 10000 3.09 80 11:43 12.12.2021
6507 Rain 28 1009 78 10000 5.14 50 10:44 12.12.2021
6508 Clouds 26 1009 83 10000 4.82 19 10:20 12.12.2021
6509 Clouds 29 1011 74 10000 9.77 70 08:48 12.12.2021
6510 Clouds 25 1012 88 10000 1.48 17 07:28 12.12.2021
6511 Clouds 27 1013 83 10000 12.86 80 05:29 12.12.2021
6512 Clouds 27 1013 83 10000 10.8 80 04:51 12.12.2021
6513 Rain 27 1010 83 10000 4.63 40 00:57 12.12.2021
6514 Clouds 27 1011 89 10000 6.17 110 22:56 11.12.2021
6515 Rain 27 1010 81 5206 7.67 63 22:20 11.12.2021
6516 Rain 27 1011 83 10000 3.6 80 21:35 11.12.2021
6517 Clouds 28 1011 78 10000 7.88 57 20:19 11.12.2021
6518 Rain 28 1012 78 10000 7.48 57 19:21 11.12.2021
6519 Clouds 28 1013 83 10000 5.14 70 18:45 11.12.2021
6520 Rain 28 1013 83 10000 5.66 70 17:54 11.12.2021
6521 Clouds 28 1012 78 10000 7.72 80 16:37 11.12.2021
6522 Clouds 27 1011 83 10000 6.69 90 15:41 11.12.2021
6523 Rain 26 1010 89 10000 2.06 200 14:36 11.12.2021
6524 Rain 27 1010 79 10000 5.86 53 12:31 11.12.2021
6525 Clouds 29 1009 79 9000 2.57 270 10:58 11.12.2021
6526 Clear 28 1009 75 10000 5.91 52 09:44 11.12.2021
6527 Clouds 25 1011 100 9000 2.06 150 03:58 11.12.2021
6528 Clouds 26 1009 94 10000 6.17 110 00:49 11.12.2021
6529 Clouds 28 1009 83 10000 6.69 70 23:44 10.12.2021
6530 Clouds 27 1010 89 10000 8.23 70 22:47 10.12.2021
6531 Clouds 27 1010 89 10000 8.23 70 21:51 10.12.2021
6532 Clouds 28 1011 74 10000 4.63 60 20:32 10.12.2021
6533 Clouds 27 1012 79 10000 5.67 50 19:19 10.12.2021
6534 Clouds 29 1012 79 10000 4.63 60 17:50 10.12.2021
6535 Clouds 28 1012 83 10000 5.14 60 16:39 10.12.2021
6536 Clouds 29 1011 74 10000 6.17 70 15:45 10.12.2021
6537 Clouds 29 1011 74 10000 6.17 70 15:27 10.12.2021
6538 Clouds 29 1010 74 10000 6.69 70 14:49 10.12.2021
6539 Clouds 30 1010 70 10000 5.66 70 13:50 10.12.2021
6540 Clouds 30 1009 70 10000 6.69 70 12:56 10.12.2021
6541 Clouds 30 1009 70 10000 7.2 50 11:43 10.12.2021
6542 Clouds 27 1009 80 8087 7.64 48 11:19 10.12.2021
6543 Clouds 32 1010 66 10000 7.2 50 09:49 10.12.2021
6544 Clouds 28 1012 77 10000 7.25 25 08:23 10.12.2021
6545 Clouds 29 1012 84 10000 5.14 10 04:58 10.12.2021
6546 Clouds 27 1011 83 10000 6.69 50 02:44 10.12.2021
6547 Clouds 28 1010 83 10000 3.6 20 23:43 09.12.2021
6548 Clouds 28 1010 89 10000 4.12 20 22:44 09.12.2021
6549 Clouds 28 1010 89 10000 4.12 20 22:23 09.12.2021
6550 Clouds 28 1011 83 10000 3.6 20 21:40 09.12.2021
6551 Clouds 28 1012 89 10000 4.12 40 20:38 09.12.2021
6552 Clouds 28 1012 83 10000 4.63 60 19:46 09.12.2021
6553 Clouds 28 1013 77 10000 5.48 44 19:21 09.12.2021
6554 Clouds 28 1013 83 10000 5.14 50 18:24 09.12.2021
6555 Clouds 29 1013 79 10000 4.63 40 17:51 09.12.2021
6556 Clouds 29 1013 79 10000 4.63 40 17:24 09.12.2021
6557 Clouds 29 1012 79 10000 4.63 60 16:43 09.12.2021
6558 Clouds 29 1012 74 10000 4.63 60 15:31 09.12.2021
6559 Clouds 29 1011 74 10000 4.63 60 14:43 09.12.2021
6560 Clouds 28 1010 72 10000 4.23 51 13:18 09.12.2021
6561 Clouds 31 1009 70 10000 4.63 60 12:31 09.12.2021
6562 Clouds 32 1010 66 10000 4.63 70 10:47 09.12.2021
6563 Clouds 28 1012 73 10000 3.99 45 08:20 09.12.2021
6564 Clouds 28 1012 83 10000 2.57 50 03:59 09.12.2021
6565 Clouds 27 1010 89 10000 1.54 330 01:52 09.12.2021
6566 Clouds 28 1010 83 10000 2.06 10 23:40 08.12.2021
6567 Clouds 27 1009 77 10000 4.17 30 23:20 08.12.2021
6568 Clouds 28 1010 83 10000 2.06 10 22:43 08.12.2021
6569 Clouds 28 1011 83 10000 2.57 10 21:39 08.12.2021
6570 Clouds 27 1011 83 10000 3.09 30 20:58 08.12.2021
6571 Clouds 29 1012 79 10000 3.09 40 19:57 08.12.2021
6572 Clouds 27 1012 79 10000 4.24 53 19:29 08.12.2021
6573 Clouds 29 1012 84 10000 3.09 10 18:28 08.12.2021
6574 Clouds 29 1012 84 10000 3.09 10 17:24 08.12.2021
6575 Clouds 29 1010 79 10000 4.63 50 15:45 08.12.2021
6576 Clouds 29 1010 79 10000 4.63 50 15:23 08.12.2021
6577 Clouds 30 1009 74 10000 5.14 30 13:40 08.12.2021
6578 Clouds 31 1009 74 10000 3.09 360 10:45 08.12.2021
6579 Clouds 31 1009 74 10000 3.09 360 10:24 08.12.2021
6580 Clouds 31 1011 74 10000 4.63 360 08:54 08.12.2021
6581 Clouds 31 1012 70 10000 4.12 30 06:52 08.12.2021
6582 Clouds 28 1009 77 10000 4.72 18 01:21 08.12.2021
6583 Clouds 29 1009 79 10000 4.12 10 23:31 07.12.2021
6584 Clouds 29 1010 79 10000 4.12 20 21:26 07.12.2021
6585 Clouds 29 1010 79 10000 4.63 30 20:30 07.12.2021
6586 Clouds 29 1011 79 10000 4.63 30 19:48 07.12.2021
6587 Clouds 29 1011 79 10000 4.12 10 18:37 07.12.2021
6588 Clouds 29 1011 79 10000 4.12 30 17:27 07.12.2021
6589 Clouds 29 1011 79 10000 4.63 20 16:57 07.12.2021
6590 Clouds 29 1011 79 10000 4.63 20 16:27 07.12.2021
6591 Clouds 30 1009 74 10000 5.66 20 14:50 07.12.2021
6592 Clouds 30 1008 79 10000 5.66 20 13:46 07.12.2021
6593 Clouds 31 1008 70 10000 5.14 20 12:41 07.12.2021
6594 Clouds 32 1009 66 10000 3.09 360 11:23 07.12.2021
6595 Clouds 32 1010 66 10000 4.12 360 09:43 07.12.2021
6596 Clouds 31 1012 70 10000 4.12 360 07:54 07.12.2021
6597 Clouds 30 1013 74 10000 3.09 330 05:55 07.12.2021
6598 Clouds 30 1013 74 10000 3.09 330 05:27 07.12.2021
6599 Clouds 27 1010 89 10000 3.09 280 23:41 06.12.2021
6600 Clouds 28 1010 83 10000 2.57 310 22:44 06.12.2021
6601 Clear 28 1010 74 10000 4.76 308 22:18 06.12.2021
6602 Clouds 28 1011 83 10000 3.09 340 21:37 06.12.2021
6603 Clouds 28 1011 83 10000 3.09 340 20:33 06.12.2021
6604 Clouds 28 1012 83 10000 3.6 340 19:27 06.12.2021
6605 Clouds 28 1012 83 10000 2.57 320 18:57 06.12.2021
6606 Clouds 28 1012 83 10000 3.6 330 17:55 06.12.2021
6607 Clouds 28 1012 83 10000 3.6 330 17:34 06.12.2021
6608 Clear 28 1012 73 10000 5.58 313 16:21 06.12.2021
6609 Clouds 28 1010 78 10000 3.09 320 14:51 06.12.2021
6610 Clouds 29 1010 74 10000 4.12 310 13:36 06.12.2021
6611 Clouds 30 1009 70 10000 3.6 320 12:39 06.12.2021
6612 Clouds 31 1009 66 10000 4.63 300 10:30 06.12.2021
6613 Clouds 30 1012 70 10000 4.12 310 07:59 06.12.2021
6614 Clouds 28 1011 78 10000 4.12 310 03:52 06.12.2021
6615 Clouds 28 1010 78 10000 6.69 270 22:28 05.12.2021
6616 Clouds 28 1011 78 10000 6.17 270 21:26 05.12.2021
6617 Clouds 28 1012 78 10000 6.17 270 20:59 05.12.2021
6618 Clear 28 1011 71 10000 6.06 302 20:18 05.12.2021
6619 Clouds 28 1012 78 10000 5.66 270 19:33 05.12.2021
6620 Clouds 28 1012 78 10000 5.66 270 18:39 05.12.2021
6621 Clouds 28 1013 70 10000 5.81 308 18:19 05.12.2021
6622 Clouds 28 1013 78 10000 6.69 270 17:45 05.12.2021
6623 Clouds 29 1012 74 10000 6.17 270 16:41 05.12.2021
6624 Clouds 28 1012 70 10000 6.46 301 16:22 05.12.2021
6625 Clouds 29 1011 74 10000 5.66 270 14:48 05.12.2021
6626 Clouds 29 1011 74 10000</